<?xml version="1.0" encoding="UTF-8" standalone="no" ?>
<gpx xmlns="http://www.topografix.com/GPX/1/1" xmlns:xsi="http://www.w3.org/2001/XMLSchema-instance" xsi:schemaLocation="http://www.topografix.com/GPX/1/1 http://www.topografix.com/GPX/1/1/gpx.xsd" version="1.1" creator="VisuGPX - https://www.visugpx.com">
  <metadata>
    <name>2015-12-17 Walk from Chateau de La Palud-Quincie</name>
    <desc><![CDATA[2015-12-17 Walk from Chateau de La Palud-Quincie]]></desc>
  </metadata>
  <wpt lat="46.11322" lon="4.6203">
    <ele>309.8</ele>
    <name><![CDATA[2015-12-17 09:26 (Start)]]></name>
  </wpt>
  <wpt lat="46.11349" lon="4.62013">
    <ele>314</ele>
    <name><![CDATA[2015-12-17 09:26 (End)]]></name>
    <desc><![CDATA[Created by Google My Tracks on Android  Name: 2015-12-17 09:26 Activity type: walking Description: - Total distance: 19.61 km (12.2 mi) Total time: 5:58:03 Moving time: 5:18:25 Average speed: 3.29 km/h (2.0 mi/h) Average moving speed: 3.69 km/h (2.3 mi/h) Max speed: 5.29 km/h (3.3 mi/h) Average pace: 18:16 min/km (29:23 min/mi) Average moving pace: 16:14 min/km (26:08 min/mi) Fastest pace: 11:21 min/km (18:16 min/mi) Max elevation: 799 m (2621 ft) Min elevation: 310 m (1016 ft) Elevation gain: 1006 m (3301 ft) Max grade: 41 % Min grade: -27 % Recorded: 17/12/2015 09:26]]></desc>
  </wpt>
  <trk>
    <name><![CDATA[2015-12-17 09:26]]></name>
    <trkseg>
      <trkpt lat="46.11322" lon="4.6203">
        <ele>309.768920898</ele>
        <time>2015-12-17T08:26:23.596Z</time>
      </trkpt>
      <trkpt lat="46.11321" lon="4.6203">
        <ele>327.058288574</ele>
        <time>2015-12-17T08:26:34.225Z</time>
      </trkpt>
      <trkpt lat="46.11334" lon="4.62027">
        <ele>337.007019043</ele>
        <time>2015-12-17T08:26:35.201Z</time>
      </trkpt>
      <trkpt lat="46.11334" lon="4.62027">
        <ele>353.202392578</ele>
        <time>2015-12-17T08:26:42.888Z</time>
      </trkpt>
      <trkpt lat="46.11346" lon="4.62026">
        <ele>359.098144531</ele>
        <time>2015-12-17T08:26:43.874Z</time>
      </trkpt>
      <trkpt lat="46.11346" lon="4.62026">
        <ele>307.872253418</ele>
        <time>2015-12-17T08:27:06.891Z</time>
      </trkpt>
      <trkpt lat="46.11353" lon="4.62005">
        <ele>307.869293213</ele>
        <time>2015-12-17T08:27:07.878Z</time>
      </trkpt>
      <trkpt lat="46.11351" lon="4.62017">
        <ele>308.532836914</ele>
        <time>2015-12-17T08:27:15.873Z</time>
      </trkpt>
      <trkpt lat="46.11351" lon="4.62019">
        <ele>308.593841553</ele>
        <time>2015-12-17T08:27:16.854Z</time>
      </trkpt>
      <trkpt lat="46.11351" lon="4.62032">
        <ele>308.857147217</ele>
        <time>2015-12-17T08:27:24.865Z</time>
      </trkpt>
      <trkpt lat="46.11351" lon="4.62033">
        <ele>308.87387085</ele>
        <time>2015-12-17T08:27:25.855Z</time>
      </trkpt>
      <trkpt lat="46.11344" lon="4.62039">
        <ele>310.155670166</ele>
        <time>2015-12-17T08:27:33.865Z</time>
      </trkpt>
      <trkpt lat="46.11343" lon="4.6204">
        <ele>310.429901123</ele>
        <time>2015-12-17T08:27:34.855Z</time>
      </trkpt>
      <trkpt lat="46.11336" lon="4.62045">
        <ele>313.294311523</ele>
        <time>2015-12-17T08:27:43.893Z</time>
      </trkpt>
      <trkpt lat="46.11335" lon="4.62046">
        <ele>313.655822754</ele>
        <time>2015-12-17T08:27:44.855Z</time>
      </trkpt>
      <trkpt lat="46.11327" lon="4.62051">
        <ele>315.403839111</ele>
        <time>2015-12-17T08:27:50.869Z</time>
      </trkpt>
      <trkpt lat="46.11325" lon="4.62052">
        <ele>315.62008667</ele>
        <time>2015-12-17T08:27:51.855Z</time>
      </trkpt>
      <trkpt lat="46.11317" lon="4.62056">
        <ele>316.537597656</ele>
        <time>2015-12-17T08:27:56.867Z</time>
      </trkpt>
      <trkpt lat="46.11314" lon="4.62057">
        <ele>316.511291504</ele>
        <time>2015-12-17T08:27:57.854Z</time>
      </trkpt>
      <trkpt lat="46.11305" lon="4.62058">
        <ele>315.955322266</ele>
        <time>2015-12-17T08:28:01.868Z</time>
      </trkpt>
      <trkpt lat="46.11304" lon="4.62059">
        <ele>315.792114258</ele>
        <time>2015-12-17T08:28:02.86Z</time>
      </trkpt>
      <trkpt lat="46.11295" lon="4.62061">
        <ele>314.952667236</ele>
        <time>2015-12-17T08:28:09.866Z</time>
      </trkpt>
      <trkpt lat="46.11294" lon="4.62061">
        <ele>314.888427734</ele>
        <time>2015-12-17T08:28:10.856Z</time>
      </trkpt>
      <trkpt lat="46.11286" lon="4.62065">
        <ele>314.608764648</ele>
        <time>2015-12-17T08:28:16.871Z</time>
      </trkpt>
      <trkpt lat="46.11285" lon="4.62066">
        <ele>314.553039551</ele>
        <time>2015-12-17T08:28:17.856Z</time>
      </trkpt>
      <trkpt lat="46.11277" lon="4.62071">
        <ele>314.187011719</ele>
        <time>2015-12-17T08:28:24.869Z</time>
      </trkpt>
      <trkpt lat="46.11276" lon="4.62071">
        <ele>314.120513916</ele>
        <time>2015-12-17T08:28:25.858Z</time>
      </trkpt>
      <trkpt lat="46.11268" lon="4.62073">
        <ele>314.297851562</ele>
        <time>2015-12-17T08:28:34.872Z</time>
      </trkpt>
      <trkpt lat="46.11267" lon="4.62074">
        <ele>314.213104248</ele>
        <time>2015-12-17T08:28:35.86Z</time>
      </trkpt>
      <trkpt lat="46.11258" lon="4.62076">
        <ele>314.941162109</ele>
        <time>2015-12-17T08:28:44.878Z</time>
      </trkpt>
      <trkpt lat="46.11258" lon="4.62076">
        <ele>315.102600098</ele>
        <time>2015-12-17T08:28:45.859Z</time>
      </trkpt>
      <trkpt lat="46.11249" lon="4.62074">
        <ele>316.063720703</ele>
        <time>2015-12-17T08:28:55.873Z</time>
      </trkpt>
      <trkpt lat="46.11248" lon="4.62073">
        <ele>316.152618408</ele>
        <time>2015-12-17T08:28:56.86Z</time>
      </trkpt>
      <trkpt lat="46.11243" lon="4.62066">
        <ele>316.568481445</ele>
        <time>2015-12-17T08:29:02.877Z</time>
      </trkpt>
      <trkpt lat="46.11242" lon="4.62063">
        <ele>316.566802979</ele>
        <time>2015-12-17T08:29:03.864Z</time>
      </trkpt>
      <trkpt lat="46.11237" lon="4.62054">
        <ele>316.321960449</ele>
        <time>2015-12-17T08:29:10.873Z</time>
      </trkpt>
      <trkpt lat="46.11237" lon="4.62052">
        <ele>316.309234619</ele>
        <time>2015-12-17T08:29:11.862Z</time>
      </trkpt>
      <trkpt lat="46.11233" lon="4.62042">
        <ele>316.323822021</ele>
        <time>2015-12-17T08:29:18.877Z</time>
      </trkpt>
      <trkpt lat="46.11233" lon="4.62038">
        <ele>316.422790527</ele>
        <time>2015-12-17T08:29:19.861Z</time>
      </trkpt>
      <trkpt lat="46.11227" lon="4.62028">
        <ele>317.628051758</ele>
        <time>2015-12-17T08:29:29.876Z</time>
      </trkpt>
      <trkpt lat="46.11226" lon="4.62028">
        <ele>317.751159668</ele>
        <time>2015-12-17T08:29:30.862Z</time>
      </trkpt>
      <trkpt lat="46.11217" lon="4.62026">
        <ele>317.586090088</ele>
        <time>2015-12-17T08:29:38.876Z</time>
      </trkpt>
      <trkpt lat="46.11217" lon="4.62026">
        <ele>317.596435547</ele>
        <time>2015-12-17T08:29:39.862Z</time>
      </trkpt>
      <trkpt lat="46.11209" lon="4.62028">
        <ele>317.755401611</ele>
        <time>2015-12-17T08:29:49.884Z</time>
      </trkpt>
      <trkpt lat="46.11208" lon="4.62028">
        <ele>317.821990967</ele>
        <time>2015-12-17T08:29:50.867Z</time>
      </trkpt>
      <trkpt lat="46.112" lon="4.62031">
        <ele>317.920684814</ele>
        <time>2015-12-17T08:29:56.885Z</time>
      </trkpt>
      <trkpt lat="46.11199" lon="4.62032">
        <ele>317.929260254</ele>
        <time>2015-12-17T08:29:57.864Z</time>
      </trkpt>
      <trkpt lat="46.1119" lon="4.62034">
        <ele>319.268554688</ele>
        <time>2015-12-17T08:30:11.879Z</time>
      </trkpt>
      <trkpt lat="46.11189" lon="4.62034">
        <ele>319.362030029</ele>
        <time>2015-12-17T08:30:12.862Z</time>
      </trkpt>
      <trkpt lat="46.11181" lon="4.62034">
        <ele>322.124816895</ele>
        <time>2015-12-17T08:30:27.885Z</time>
      </trkpt>
      <trkpt lat="46.1118" lon="4.62034">
        <ele>322.357757568</ele>
        <time>2015-12-17T08:30:28.866Z</time>
      </trkpt>
      <trkpt lat="46.11172" lon="4.62036">
        <ele>323.840362549</ele>
        <time>2015-12-17T08:30:36.879Z</time>
      </trkpt>
      <trkpt lat="46.11171" lon="4.62036">
        <ele>323.924316406</ele>
        <time>2015-12-17T08:30:37.868Z</time>
      </trkpt>
      <trkpt lat="46.11162" lon="4.62037">
        <ele>325.300872803</ele>
        <time>2015-12-17T08:30:47.879Z</time>
      </trkpt>
      <trkpt lat="46.11161" lon="4.62037">
        <ele>325.425933838</ele>
        <time>2015-12-17T08:30:48.868Z</time>
      </trkpt>
      <trkpt lat="46.11154" lon="4.62031">
        <ele>328.787902832</ele>
        <time>2015-12-17T08:31:07.89Z</time>
      </trkpt>
      <trkpt lat="46.11154" lon="4.62028">
        <ele>328.972351074</ele>
        <time>2015-12-17T08:31:08.869Z</time>
      </trkpt>
      <trkpt lat="46.11154" lon="4.62016">
        <ele>329.696166992</ele>
        <time>2015-12-17T08:31:15.882Z</time>
      </trkpt>
      <trkpt lat="46.11154" lon="4.62015">
        <ele>329.820953369</ele>
        <time>2015-12-17T08:31:16.871Z</time>
      </trkpt>
      <trkpt lat="46.11151" lon="4.62003">
        <ele>331.872924805</ele>
        <time>2015-12-17T08:31:31.884Z</time>
      </trkpt>
      <trkpt lat="46.11151" lon="4.62001">
        <ele>331.929382324</ele>
        <time>2015-12-17T08:31:32.872Z</time>
      </trkpt>
      <trkpt lat="46.11149" lon="4.61989">
        <ele>332.287841797</ele>
        <time>2015-12-17T08:31:38.906Z</time>
      </trkpt>
      <trkpt lat="46.1115" lon="4.61987">
        <ele>332.267883301</ele>
        <time>2015-12-17T08:31:39.873Z</time>
      </trkpt>
      <trkpt lat="46.11151" lon="4.61975">
        <ele>332.89755249</ele>
        <time>2015-12-17T08:31:49.884Z</time>
      </trkpt>
      <trkpt lat="46.11151" lon="4.61973">
        <ele>333.022796631</ele>
        <time>2015-12-17T08:31:50.873Z</time>
      </trkpt>
      <trkpt lat="46.11151" lon="4.61962">
        <ele>334.107818604</ele>
        <time>2015-12-17T08:31:56.886Z</time>
      </trkpt>
      <trkpt lat="46.11151" lon="4.6196">
        <ele>334.28717041</ele>
        <time>2015-12-17T08:31:57.874Z</time>
      </trkpt>
      <trkpt lat="46.11147" lon="4.61949">
        <ele>334.899810791</ele>
        <time>2015-12-17T08:32:03.887Z</time>
      </trkpt>
      <trkpt lat="46.11147" lon="4.61947">
        <ele>334.977783203</ele>
        <time>2015-12-17T08:32:04.874Z</time>
      </trkpt>
      <trkpt lat="46.11142" lon="4.61937">
        <ele>336.230194092</ele>
        <time>2015-12-17T08:32:15.891Z</time>
      </trkpt>
      <trkpt lat="46.11141" lon="4.61935">
        <ele>336.380737305</ele>
        <time>2015-12-17T08:32:16.875Z</time>
      </trkpt>
      <trkpt lat="46.11138" lon="4.61925">
        <ele>338.297241211</ele>
        <time>2015-12-17T08:32:27.865Z</time>
      </trkpt>
      <trkpt lat="46.11137" lon="4.61924">
        <ele>338.455200195</ele>
        <time>2015-12-17T08:32:28.851Z</time>
      </trkpt>
      <trkpt lat="46.11132" lon="4.61914">
        <ele>340.062469482</ele>
        <time>2015-12-17T08:32:35.863Z</time>
      </trkpt>
      <trkpt lat="46.11132" lon="4.61913">
        <ele>340.293823242</ele>
        <time>2015-12-17T08:32:36.852Z</time>
      </trkpt>
      <trkpt lat="46.11127" lon="4.61903">
        <ele>342.310058594</ele>
        <time>2015-12-17T08:32:46.869Z</time>
      </trkpt>
      <trkpt lat="46.11127" lon="4.61902">
        <ele>342.56149292</ele>
        <time>2015-12-17T08:32:47.853Z</time>
      </trkpt>
      <trkpt lat="46.11122" lon="4.61891">
        <ele>344.875549316</ele>
        <time>2015-12-17T08:32:57.867Z</time>
      </trkpt>
      <trkpt lat="46.11121" lon="4.6189">
        <ele>345.171051025</ele>
        <time>2015-12-17T08:32:58.854Z</time>
      </trkpt>
      <trkpt lat="46.11117" lon="4.61879">
        <ele>347.161102295</ele>
        <time>2015-12-17T08:33:05.865Z</time>
      </trkpt>
      <trkpt lat="46.11116" lon="4.61878">
        <ele>347.411865234</ele>
        <time>2015-12-17T08:33:06.854Z</time>
      </trkpt>
      <trkpt lat="46.11109" lon="4.6187">
        <ele>349.153930664</ele>
        <time>2015-12-17T08:33:13.868Z</time>
      </trkpt>
      <trkpt lat="46.11109" lon="4.6187">
        <ele>349.400268555</ele>
        <time>2015-12-17T08:33:14.854Z</time>
      </trkpt>
      <trkpt lat="46.11102" lon="4.61861">
        <ele>351.634307861</ele>
        <time>2015-12-17T08:33:25.87Z</time>
      </trkpt>
      <trkpt lat="46.11101" lon="4.6186">
        <ele>351.826202393</ele>
        <time>2015-12-17T08:33:26.856Z</time>
      </trkpt>
      <trkpt lat="46.11094" lon="4.61853">
        <ele>353.042297363</ele>
        <time>2015-12-17T08:33:33.872Z</time>
      </trkpt>
      <trkpt lat="46.11094" lon="4.61852">
        <ele>353.298187256</ele>
        <time>2015-12-17T08:33:34.855Z</time>
      </trkpt>
      <trkpt lat="46.11087" lon="4.61845">
        <ele>355.699829102</ele>
        <time>2015-12-17T08:33:44.873Z</time>
      </trkpt>
      <trkpt lat="46.11086" lon="4.61844">
        <ele>355.986419678</ele>
        <time>2015-12-17T08:33:45.857Z</time>
      </trkpt>
      <trkpt lat="46.1108" lon="4.61834">
        <ele>356.97543335</ele>
        <time>2015-12-17T08:33:51.87Z</time>
      </trkpt>
      <trkpt lat="46.11079" lon="4.61833">
        <ele>357.022613525</ele>
        <time>2015-12-17T08:33:52.857Z</time>
      </trkpt>
      <trkpt lat="46.11075" lon="4.61825">
        <ele>358.412139893</ele>
        <time>2015-12-17T08:34:01.873Z</time>
      </trkpt>
      <trkpt lat="46.11074" lon="4.61823">
        <ele>358.625518799</ele>
        <time>2015-12-17T08:34:02.858Z</time>
      </trkpt>
      <trkpt lat="46.11069" lon="4.61814">
        <ele>359.692840576</ele>
        <time>2015-12-17T08:34:08.872Z</time>
      </trkpt>
      <trkpt lat="46.11068" lon="4.61813">
        <ele>359.885009766</ele>
        <time>2015-12-17T08:34:09.858Z</time>
      </trkpt>
      <trkpt lat="46.11062" lon="4.61803">
        <ele>361.116699219</ele>
        <time>2015-12-17T08:34:18.875Z</time>
      </trkpt>
      <trkpt lat="46.11061" lon="4.61802">
        <ele>361.256469727</ele>
        <time>2015-12-17T08:34:19.859Z</time>
      </trkpt>
      <trkpt lat="46.11057" lon="4.61792">
        <ele>363.011810303</ele>
        <time>2015-12-17T08:34:29.873Z</time>
      </trkpt>
      <trkpt lat="46.11056" lon="4.61791">
        <ele>363.181121826</ele>
        <time>2015-12-17T08:34:30.863Z</time>
      </trkpt>
      <trkpt lat="46.11047" lon="4.61787">
        <ele>363.977661133</ele>
        <time>2015-12-17T08:34:36.875Z</time>
      </trkpt>
      <trkpt lat="46.11046" lon="4.61787">
        <ele>364.086090088</ele>
        <time>2015-12-17T08:34:37.86Z</time>
      </trkpt>
      <trkpt lat="46.11041" lon="4.61798">
        <ele>365.294281006</ele>
        <time>2015-12-17T08:34:44.871Z</time>
      </trkpt>
      <trkpt lat="46.11041" lon="4.61799">
        <ele>365.505645752</ele>
        <time>2015-12-17T08:34:45.865Z</time>
      </trkpt>
      <trkpt lat="46.11042" lon="4.61811">
        <ele>366.873260498</ele>
        <time>2015-12-17T08:34:54.874Z</time>
      </trkpt>
      <trkpt lat="46.11042" lon="4.61813">
        <ele>366.96987915</ele>
        <time>2015-12-17T08:34:55.862Z</time>
      </trkpt>
      <trkpt lat="46.11041" lon="4.61825">
        <ele>367.912872314</ele>
        <time>2015-12-17T08:35:04.875Z</time>
      </trkpt>
      <trkpt lat="46.11041" lon="4.61827">
        <ele>368.075286865</ele>
        <time>2015-12-17T08:35:05.867Z</time>
      </trkpt>
      <trkpt lat="46.11043" lon="4.61838">
        <ele>369.338562012</ele>
        <time>2015-12-17T08:35:12.876Z</time>
      </trkpt>
      <trkpt lat="46.11043" lon="4.6184">
        <ele>369.49520874</ele>
        <time>2015-12-17T08:35:13.863Z</time>
      </trkpt>
      <trkpt lat="46.11044" lon="4.61853">
        <ele>370.816772461</ele>
        <time>2015-12-17T08:35:21.876Z</time>
      </trkpt>
      <trkpt lat="46.11045" lon="4.61855">
        <ele>370.978668213</ele>
        <time>2015-12-17T08:35:22.865Z</time>
      </trkpt>
      <trkpt lat="46.11044" lon="4.61866">
        <ele>372.22555542</ele>
        <time>2015-12-17T08:35:30.88Z</time>
      </trkpt>
      <trkpt lat="46.11044" lon="4.61868">
        <ele>372.356933594</ele>
        <time>2015-12-17T08:35:31.864Z</time>
      </trkpt>
      <trkpt lat="46.11045" lon="4.61879">
        <ele>372.787384033</ele>
        <time>2015-12-17T08:35:38.88Z</time>
      </trkpt>
      <trkpt lat="46.11045" lon="4.61881">
        <ele>372.859588623</ele>
        <time>2015-12-17T08:35:39.864Z</time>
      </trkpt>
      <trkpt lat="46.11045" lon="4.61894">
        <ele>373.328582764</ele>
        <time>2015-12-17T08:35:45.877Z</time>
      </trkpt>
      <trkpt lat="46.11045" lon="4.61895">
        <ele>373.409515381</ele>
        <time>2015-12-17T08:35:46.866Z</time>
      </trkpt>
      <trkpt lat="46.11046" lon="4.61908">
        <ele>374.127716064</ele>
        <time>2015-12-17T08:35:52.877Z</time>
      </trkpt>
      <trkpt lat="46.11046" lon="4.6191">
        <ele>374.256500244</ele>
        <time>2015-12-17T08:35:53.866Z</time>
      </trkpt>
      <trkpt lat="46.11046" lon="4.61921">
        <ele>375.029174805</ele>
        <time>2015-12-17T08:35:59.879Z</time>
      </trkpt>
      <trkpt lat="46.11046" lon="4.61923">
        <ele>375.127075195</ele>
        <time>2015-12-17T08:36:00.866Z</time>
      </trkpt>
      <trkpt lat="46.11046" lon="4.61934">
        <ele>376.235900879</ele>
        <time>2015-12-17T08:36:08.88Z</time>
      </trkpt>
      <trkpt lat="46.11045" lon="4.61937">
        <ele>376.348999023</ele>
        <time>2015-12-17T08:36:09.871Z</time>
      </trkpt>
      <trkpt lat="46.11044" lon="4.61948">
        <ele>377.16305542</ele>
        <time>2015-12-17T08:36:15.879Z</time>
      </trkpt>
      <trkpt lat="46.11044" lon="4.6195">
        <ele>377.272369385</ele>
        <time>2015-12-17T08:36:16.868Z</time>
      </trkpt>
      <trkpt lat="46.11044" lon="4.61961">
        <ele>377.953094482</ele>
        <time>2015-12-17T08:36:22.877Z</time>
      </trkpt>
      <trkpt lat="46.11043" lon="4.61964">
        <ele>378.03604126</ele>
        <time>2015-12-17T08:36:23.868Z</time>
      </trkpt>
      <trkpt lat="46.11042" lon="4.61976">
        <ele>379.244995117</ele>
        <time>2015-12-17T08:36:30.881Z</time>
      </trkpt>
      <trkpt lat="46.11042" lon="4.61978">
        <ele>379.48550415</ele>
        <time>2015-12-17T08:36:31.869Z</time>
      </trkpt>
      <trkpt lat="46.1104" lon="4.61988">
        <ele>380.147277832</ele>
        <time>2015-12-17T08:36:38.882Z</time>
      </trkpt>
      <trkpt lat="46.11039" lon="4.6199">
        <ele>380.295837402</ele>
        <time>2015-12-17T08:36:39.869Z</time>
      </trkpt>
      <trkpt lat="46.11038" lon="4.62001">
        <ele>381.506561279</ele>
        <time>2015-12-17T08:36:45.882Z</time>
      </trkpt>
      <trkpt lat="46.11037" lon="4.62003">
        <ele>381.722137451</ele>
        <time>2015-12-17T08:36:46.869Z</time>
      </trkpt>
      <trkpt lat="46.11034" lon="4.62015">
        <ele>383.57913208</ele>
        <time>2015-12-17T08:36:52.883Z</time>
      </trkpt>
      <trkpt lat="46.11034" lon="4.62017">
        <ele>384.02444458</ele>
        <time>2015-12-17T08:36:53.87Z</time>
      </trkpt>
      <trkpt lat="46.11033" lon="4.62005">
        <ele>389.265533447</ele>
        <time>2015-12-17T08:37:08.883Z</time>
      </trkpt>
      <trkpt lat="46.11033" lon="4.62003">
        <ele>389.454101562</ele>
        <time>2015-12-17T08:37:09.871Z</time>
      </trkpt>
      <trkpt lat="46.11032" lon="4.61992">
        <ele>390.803009033</ele>
        <time>2015-12-17T08:37:17.884Z</time>
      </trkpt>
      <trkpt lat="46.11032" lon="4.6199">
        <ele>390.956176758</ele>
        <time>2015-12-17T08:37:18.873Z</time>
      </trkpt>
      <trkpt lat="46.11032" lon="4.61979">
        <ele>392.157196045</ele>
        <time>2015-12-17T08:37:25.893Z</time>
      </trkpt>
      <trkpt lat="46.11032" lon="4.61977">
        <ele>392.263031006</ele>
        <time>2015-12-17T08:37:26.872Z</time>
      </trkpt>
      <trkpt lat="46.11032" lon="4.61964">
        <ele>392.660308838</ele>
        <time>2015-12-17T08:37:34.884Z</time>
      </trkpt>
      <trkpt lat="46.11032" lon="4.61963">
        <ele>392.75869751</ele>
        <time>2015-12-17T08:37:35.874Z</time>
      </trkpt>
      <trkpt lat="46.1103" lon="4.61953">
        <ele>393.596588135</ele>
        <time>2015-12-17T08:37:42.859Z</time>
      </trkpt>
      <trkpt lat="46.11029" lon="4.6195">
        <ele>393.719116211</ele>
        <time>2015-12-17T08:37:43.849Z</time>
      </trkpt>
      <trkpt lat="46.11026" lon="4.61938">
        <ele>395.676269531</ele>
        <time>2015-12-17T08:37:52.864Z</time>
      </trkpt>
      <trkpt lat="46.11025" lon="4.61936">
        <ele>395.914367676</ele>
        <time>2015-12-17T08:37:53.849Z</time>
      </trkpt>
      <trkpt lat="46.1102" lon="4.61926">
        <ele>397.539031982</ele>
        <time>2015-12-17T08:38:00.865Z</time>
      </trkpt>
      <trkpt lat="46.11019" lon="4.61925">
        <ele>397.654418945</ele>
        <time>2015-12-17T08:38:01.851Z</time>
      </trkpt>
      <trkpt lat="46.11017" lon="4.61914">
        <ele>398.572570801</ele>
        <time>2015-12-17T08:38:09.878Z</time>
      </trkpt>
      <trkpt lat="46.11016" lon="4.61912">
        <ele>398.73815918</ele>
        <time>2015-12-17T08:38:10.851Z</time>
      </trkpt>
      <trkpt lat="46.11012" lon="4.61901">
        <ele>399.870727539</ele>
        <time>2015-12-17T08:38:17.869Z</time>
      </trkpt>
      <trkpt lat="46.11012" lon="4.61899">
        <ele>400.002746582</ele>
        <time>2015-12-17T08:38:18.853Z</time>
      </trkpt>
      <trkpt lat="46.11007" lon="4.61888">
        <ele>400.81842041</ele>
        <time>2015-12-17T08:38:25.866Z</time>
      </trkpt>
      <trkpt lat="46.11006" lon="4.61887">
        <ele>401.045593262</ele>
        <time>2015-12-17T08:38:26.853Z</time>
      </trkpt>
      <trkpt lat="46.11001" lon="4.61878">
        <ele>401.942626953</ele>
        <time>2015-12-17T08:38:32.87Z</time>
      </trkpt>
      <trkpt lat="46.11" lon="4.61876">
        <ele>402.112426758</ele>
        <time>2015-12-17T08:38:33.854Z</time>
      </trkpt>
      <trkpt lat="46.10995" lon="4.61867">
        <ele>402.822601318</ele>
        <time>2015-12-17T08:38:39.864Z</time>
      </trkpt>
      <trkpt lat="46.10995" lon="4.61865">
        <ele>402.92388916</ele>
        <time>2015-12-17T08:38:40.853Z</time>
      </trkpt>
      <trkpt lat="46.10991" lon="4.61854">
        <ele>403.913238525</ele>
        <time>2015-12-17T08:38:50.867Z</time>
      </trkpt>
      <trkpt lat="46.1099" lon="4.61852">
        <ele>404.038085938</ele>
        <time>2015-12-17T08:38:51.855Z</time>
      </trkpt>
      <trkpt lat="46.10985" lon="4.61842">
        <ele>404.88381958</ele>
        <time>2015-12-17T08:38:58.867Z</time>
      </trkpt>
      <trkpt lat="46.10984" lon="4.61841">
        <ele>405.005401611</ele>
        <time>2015-12-17T08:38:59.859Z</time>
      </trkpt>
      <trkpt lat="46.10979" lon="4.61832">
        <ele>405.981536865</ele>
        <time>2015-12-17T08:39:07.869Z</time>
      </trkpt>
      <trkpt lat="46.10978" lon="4.61831">
        <ele>406.077972412</ele>
        <time>2015-12-17T08:39:08.853Z</time>
      </trkpt>
      <trkpt lat="46.10972" lon="4.61822">
        <ele>406.8487854</ele>
        <time>2015-12-17T08:39:15.88Z</time>
      </trkpt>
      <trkpt lat="46.10972" lon="4.6182">
        <ele>406.917510986</ele>
        <time>2015-12-17T08:39:16.859Z</time>
      </trkpt>
      <trkpt lat="46.10966" lon="4.6181">
        <ele>407.624481201</ele>
        <time>2015-12-17T08:39:24.873Z</time>
      </trkpt>
      <trkpt lat="46.10965" lon="4.6181">
        <ele>407.760101318</ele>
        <time>2015-12-17T08:39:25.857Z</time>
      </trkpt>
      <trkpt lat="46.10959" lon="4.61801">
        <ele>408.565460205</ele>
        <time>2015-12-17T08:39:32.873Z</time>
      </trkpt>
      <trkpt lat="46.10958" lon="4.618">
        <ele>408.645202637</ele>
        <time>2015-12-17T08:39:33.858Z</time>
      </trkpt>
      <trkpt lat="46.10953" lon="4.61791">
        <ele>410.004760742</ele>
        <time>2015-12-17T08:39:40.871Z</time>
      </trkpt>
      <trkpt lat="46.10952" lon="4.6179">
        <ele>410.248504639</ele>
        <time>2015-12-17T08:39:41.861Z</time>
      </trkpt>
      <trkpt lat="46.10946" lon="4.6178">
        <ele>412.119018555</ele>
        <time>2015-12-17T08:39:48.871Z</time>
      </trkpt>
      <trkpt lat="46.10946" lon="4.6178">
        <ele>412.352386475</ele>
        <time>2015-12-17T08:39:49.859Z</time>
      </trkpt>
      <trkpt lat="46.10937" lon="4.6178">
        <ele>414.118103027</ele>
        <time>2015-12-17T08:40:15.873Z</time>
      </trkpt>
      <trkpt lat="46.10936" lon="4.6178">
        <ele>414.121124268</ele>
        <time>2015-12-17T08:40:16.861Z</time>
      </trkpt>
      <trkpt lat="46.10932" lon="4.61791">
        <ele>416.006286621</ele>
        <time>2015-12-17T08:44:36.873Z</time>
      </trkpt>
      <trkpt lat="46.10932" lon="4.61792">
        <ele>416.18548584</ele>
        <time>2015-12-17T08:44:37.856Z</time>
      </trkpt>
      <trkpt lat="46.10933" lon="4.61804">
        <ele>417.662780762</ele>
        <time>2015-12-17T08:44:42.886Z</time>
      </trkpt>
      <trkpt lat="46.10933" lon="4.61805">
        <ele>417.941589355</ele>
        <time>2015-12-17T08:44:43.856Z</time>
      </trkpt>
      <trkpt lat="46.10936" lon="4.61816">
        <ele>418.601409912</ele>
        <time>2015-12-17T08:44:52.873Z</time>
      </trkpt>
      <trkpt lat="46.10937" lon="4.61819">
        <ele>418.665588379</ele>
        <time>2015-12-17T08:44:53.857Z</time>
      </trkpt>
      <trkpt lat="46.10939" lon="4.6183">
        <ele>419.241699219</ele>
        <time>2015-12-17T08:44:59.87Z</time>
      </trkpt>
      <trkpt lat="46.10939" lon="4.61832">
        <ele>419.374206543</ele>
        <time>2015-12-17T08:45:00.856Z</time>
      </trkpt>
      <trkpt lat="46.10943" lon="4.61843">
        <ele>419.792114258</ele>
        <time>2015-12-17T08:45:09.988Z</time>
      </trkpt>
      <trkpt lat="46.10943" lon="4.61845">
        <ele>419.792877197</ele>
        <time>2015-12-17T08:45:10.858Z</time>
      </trkpt>
      <trkpt lat="46.10944" lon="4.61858">
        <ele>420.417724609</ele>
        <time>2015-12-17T08:45:16.869Z</time>
      </trkpt>
      <trkpt lat="46.10943" lon="4.6186">
        <ele>420.535186768</ele>
        <time>2015-12-17T08:45:17.869Z</time>
      </trkpt>
      <trkpt lat="46.10943" lon="4.61871">
        <ele>420.691986084</ele>
        <time>2015-12-17T08:45:27.87Z</time>
      </trkpt>
      <trkpt lat="46.10943" lon="4.61873">
        <ele>420.667022705</ele>
        <time>2015-12-17T08:45:28.861Z</time>
      </trkpt>
      <trkpt lat="46.10942" lon="4.61884">
        <ele>420.647277832</ele>
        <time>2015-12-17T08:45:35.873Z</time>
      </trkpt>
      <trkpt lat="46.10942" lon="4.61886">
        <ele>420.686889648</ele>
        <time>2015-12-17T08:45:36.863Z</time>
      </trkpt>
      <trkpt lat="46.10941" lon="4.61899">
        <ele>421.391021729</ele>
        <time>2015-12-17T08:45:41.873Z</time>
      </trkpt>
      <trkpt lat="46.1094" lon="4.619">
        <ele>421.597015381</ele>
        <time>2015-12-17T08:45:42.861Z</time>
      </trkpt>
      <trkpt lat="46.10938" lon="4.6191">
        <ele>423.351196289</ele>
        <time>2015-12-17T08:45:50.873Z</time>
      </trkpt>
      <trkpt lat="46.10938" lon="4.61913">
        <ele>423.630218506</ele>
        <time>2015-12-17T08:45:51.865Z</time>
      </trkpt>
      <trkpt lat="46.10937" lon="4.61926">
        <ele>425.429748535</ele>
        <time>2015-12-17T08:46:01.872Z</time>
      </trkpt>
      <trkpt lat="46.10937" lon="4.61927">
        <ele>425.517303467</ele>
        <time>2015-12-17T08:46:02.863Z</time>
      </trkpt>
      <trkpt lat="46.10938" lon="4.6194">
        <ele>426.242370605</ele>
        <time>2015-12-17T08:46:09.875Z</time>
      </trkpt>
      <trkpt lat="46.10938" lon="4.61942">
        <ele>426.348693848</ele>
        <time>2015-12-17T08:46:10.863Z</time>
      </trkpt>
      <trkpt lat="46.10937" lon="4.61954">
        <ele>427.008453369</ele>
        <time>2015-12-17T08:46:17.893Z</time>
      </trkpt>
      <trkpt lat="46.10937" lon="4.61955">
        <ele>427.122009277</ele>
        <time>2015-12-17T08:46:18.864Z</time>
      </trkpt>
      <trkpt lat="46.10935" lon="4.61967">
        <ele>427.658630371</ele>
        <time>2015-12-17T08:46:31.884Z</time>
      </trkpt>
      <trkpt lat="46.10934" lon="4.61968">
        <ele>427.644165039</ele>
        <time>2015-12-17T08:46:32.865Z</time>
      </trkpt>
      <trkpt lat="46.10927" lon="4.61975">
        <ele>429.557159424</ele>
        <time>2015-12-17T08:46:57.877Z</time>
      </trkpt>
      <trkpt lat="46.10927" lon="4.61975">
        <ele>429.780151367</ele>
        <time>2015-12-17T08:46:58.866Z</time>
      </trkpt>
      <trkpt lat="46.10918" lon="4.61975">
        <ele>434.533966064</ele>
        <time>2015-12-17T08:47:17.881Z</time>
      </trkpt>
      <trkpt lat="46.10917" lon="4.61975">
        <ele>434.749603271</ele>
        <time>2015-12-17T08:47:18.869Z</time>
      </trkpt>
      <trkpt lat="46.10909" lon="4.61972">
        <ele>436.899108887</ele>
        <time>2015-12-17T08:47:31.882Z</time>
      </trkpt>
      <trkpt lat="46.10908" lon="4.61971">
        <ele>437.048950195</ele>
        <time>2015-12-17T08:47:32.87Z</time>
      </trkpt>
      <trkpt lat="46.10902" lon="4.61963">
        <ele>438.507659912</ele>
        <time>2015-12-17T08:47:41.882Z</time>
      </trkpt>
      <trkpt lat="46.10901" lon="4.61962">
        <ele>438.78515625</ele>
        <time>2015-12-17T08:47:42.869Z</time>
      </trkpt>
      <trkpt lat="46.109" lon="4.6195">
        <ele>442.278656006</ele>
        <time>2015-12-17T08:47:57.882Z</time>
      </trkpt>
      <trkpt lat="46.109" lon="4.61949">
        <ele>442.581878662</ele>
        <time>2015-12-17T08:47:58.871Z</time>
      </trkpt>
      <trkpt lat="46.10898" lon="4.61937">
        <ele>444.99041748</ele>
        <time>2015-12-17T08:48:07.893Z</time>
      </trkpt>
      <trkpt lat="46.10897" lon="4.61936">
        <ele>445.252410889</ele>
        <time>2015-12-17T08:48:08.873Z</time>
      </trkpt>
      <trkpt lat="46.10895" lon="4.61925">
        <ele>446.062316895</ele>
        <time>2015-12-17T08:48:15.859Z</time>
      </trkpt>
      <trkpt lat="46.10894" lon="4.61923">
        <ele>446.136779785</ele>
        <time>2015-12-17T08:48:16.846Z</time>
      </trkpt>
      <trkpt lat="46.1089" lon="4.61913">
        <ele>447.366088867</ele>
        <time>2015-12-17T08:48:25.86Z</time>
      </trkpt>
      <trkpt lat="46.10889" lon="4.61911">
        <ele>447.516052246</ele>
        <time>2015-12-17T08:48:26.875Z</time>
      </trkpt>
      <trkpt lat="46.10886" lon="4.61901">
        <ele>448.505187988</ele>
        <time>2015-12-17T08:48:34.859Z</time>
      </trkpt>
      <trkpt lat="46.10886" lon="4.61899">
        <ele>448.626037598</ele>
        <time>2015-12-17T08:48:35.848Z</time>
      </trkpt>
      <trkpt lat="46.10882" lon="4.61888">
        <ele>449.745758057</ele>
        <time>2015-12-17T08:48:43.86Z</time>
      </trkpt>
      <trkpt lat="46.1088" lon="4.61887">
        <ele>449.839904785</ele>
        <time>2015-12-17T08:48:44.85Z</time>
      </trkpt>
      <trkpt lat="46.10871" lon="4.61888">
        <ele>450.632781982</ele>
        <time>2015-12-17T08:48:51.862Z</time>
      </trkpt>
      <trkpt lat="46.1087" lon="4.6189">
        <ele>450.808197021</ele>
        <time>2015-12-17T08:48:52.85Z</time>
      </trkpt>
      <trkpt lat="46.10866" lon="4.619">
        <ele>452.749420166</ele>
        <time>2015-12-17T08:49:02.87Z</time>
      </trkpt>
      <trkpt lat="46.10866" lon="4.61902">
        <ele>452.963928223</ele>
        <time>2015-12-17T08:49:03.851Z</time>
      </trkpt>
      <trkpt lat="46.10862" lon="4.61914">
        <ele>454.906494141</ele>
        <time>2015-12-17T08:49:11.864Z</time>
      </trkpt>
      <trkpt lat="46.10862" lon="4.61914">
        <ele>455.119628906</ele>
        <time>2015-12-17T08:49:12.854Z</time>
      </trkpt>
      <trkpt lat="46.10855" lon="4.61923">
        <ele>457.027832031</ele>
        <time>2015-12-17T08:49:23.033Z</time>
      </trkpt>
      <trkpt lat="46.10854" lon="4.61925">
        <ele>457.413909912</ele>
        <time>2015-12-17T08:49:23.852Z</time>
      </trkpt>
      <trkpt lat="46.10848" lon="4.61933">
        <ele>459.418304443</ele>
        <time>2015-12-17T08:49:31.864Z</time>
      </trkpt>
      <trkpt lat="46.10847" lon="4.61934">
        <ele>459.597808838</ele>
        <time>2015-12-17T08:49:32.853Z</time>
      </trkpt>
      <trkpt lat="46.10842" lon="4.61943">
        <ele>461.08682251</ele>
        <time>2015-12-17T08:49:39.866Z</time>
      </trkpt>
      <trkpt lat="46.10841" lon="4.61944">
        <ele>461.348968506</ele>
        <time>2015-12-17T08:49:40.853Z</time>
      </trkpt>
      <trkpt lat="46.10835" lon="4.61954">
        <ele>462.603057861</ele>
        <time>2015-12-17T08:49:47.868Z</time>
      </trkpt>
      <trkpt lat="46.10834" lon="4.61956">
        <ele>462.906738281</ele>
        <time>2015-12-17T08:49:48.858Z</time>
      </trkpt>
      <trkpt lat="46.10831" lon="4.61967">
        <ele>465.694976807</ele>
        <time>2015-12-17T08:50:00.87Z</time>
      </trkpt>
      <trkpt lat="46.10831" lon="4.61968">
        <ele>465.785980225</ele>
        <time>2015-12-17T08:50:01.855Z</time>
      </trkpt>
      <trkpt lat="46.10828" lon="4.6198">
        <ele>466.854522705</ele>
        <time>2015-12-17T08:50:11.871Z</time>
      </trkpt>
      <trkpt lat="46.10826" lon="4.61983">
        <ele>466.997314453</ele>
        <time>2015-12-17T08:50:12.867Z</time>
      </trkpt>
      <trkpt lat="46.10823" lon="4.61992">
        <ele>467.830749512</ele>
        <time>2015-12-17T08:50:17.867Z</time>
      </trkpt>
      <trkpt lat="46.10823" lon="4.61995">
        <ele>467.909118652</ele>
        <time>2015-12-17T08:50:18.856Z</time>
      </trkpt>
      <trkpt lat="46.10821" lon="4.62007">
        <ele>468.358093262</ele>
        <time>2015-12-17T08:50:25.871Z</time>
      </trkpt>
      <trkpt lat="46.1082" lon="4.62009">
        <ele>468.367156982</ele>
        <time>2015-12-17T08:50:26.856Z</time>
      </trkpt>
      <trkpt lat="46.10816" lon="4.62019">
        <ele>468.654632568</ele>
        <time>2015-12-17T08:50:32.869Z</time>
      </trkpt>
      <trkpt lat="46.10815" lon="4.62022">
        <ele>468.631347656</ele>
        <time>2015-12-17T08:50:33.894Z</time>
      </trkpt>
      <trkpt lat="46.10811" lon="4.62032">
        <ele>468.876525879</ele>
        <time>2015-12-17T08:50:40.87Z</time>
      </trkpt>
      <trkpt lat="46.10811" lon="4.62033">
        <ele>468.928283691</ele>
        <time>2015-12-17T08:50:41.858Z</time>
      </trkpt>
      <trkpt lat="46.10808" lon="4.62045">
        <ele>468.897583008</ele>
        <time>2015-12-17T08:50:49.996Z</time>
      </trkpt>
      <trkpt lat="46.10808" lon="4.62046">
        <ele>468.905883789</ele>
        <time>2015-12-17T08:50:50.859Z</time>
      </trkpt>
      <trkpt lat="46.10807" lon="4.62056">
        <ele>468.497833252</ele>
        <time>2015-12-17T08:50:55.873Z</time>
      </trkpt>
      <trkpt lat="46.10807" lon="4.62059">
        <ele>468.451446533</ele>
        <time>2015-12-17T08:50:56.859Z</time>
      </trkpt>
      <trkpt lat="46.10808" lon="4.62071">
        <ele>468.770263672</ele>
        <time>2015-12-17T08:51:04.88Z</time>
      </trkpt>
      <trkpt lat="46.10808" lon="4.62073">
        <ele>468.81149292</ele>
        <time>2015-12-17T08:51:05.859Z</time>
      </trkpt>
      <trkpt lat="46.1081" lon="4.62082">
        <ele>468.689239502</ele>
        <time>2015-12-17T08:51:09.876Z</time>
      </trkpt>
      <trkpt lat="46.1081" lon="4.62085">
        <ele>468.598571777</ele>
        <time>2015-12-17T08:51:10.864Z</time>
      </trkpt>
      <trkpt lat="46.10811" lon="4.62097">
        <ele>468.590881348</ele>
        <time>2015-12-17T08:51:16.883Z</time>
      </trkpt>
      <trkpt lat="46.10811" lon="4.62099">
        <ele>468.640594482</ele>
        <time>2015-12-17T08:51:17.861Z</time>
      </trkpt>
      <trkpt lat="46.10813" lon="4.6211">
        <ele>469.03427124</ele>
        <time>2015-12-17T08:51:23.88Z</time>
      </trkpt>
      <trkpt lat="46.10813" lon="4.62113">
        <ele>468.983520508</ele>
        <time>2015-12-17T08:51:24.861Z</time>
      </trkpt>
      <trkpt lat="46.10814" lon="4.62125">
        <ele>468.378112793</ele>
        <time>2015-12-17T08:51:29.875Z</time>
      </trkpt>
      <trkpt lat="46.10815" lon="4.62127">
        <ele>468.265808105</ele>
        <time>2015-12-17T08:51:30.863Z</time>
      </trkpt>
      <trkpt lat="46.10816" lon="4.62139">
        <ele>468.026092529</ele>
        <time>2015-12-17T08:51:37.876Z</time>
      </trkpt>
      <trkpt lat="46.10817" lon="4.62141">
        <ele>467.980499268</ele>
        <time>2015-12-17T08:51:38.874Z</time>
      </trkpt>
      <trkpt lat="46.1082" lon="4.62152">
        <ele>467.555267334</ele>
        <time>2015-12-17T08:51:42.875Z</time>
      </trkpt>
      <trkpt lat="46.10821" lon="4.62153">
        <ele>467.466186523</ele>
        <time>2015-12-17T08:51:43.863Z</time>
      </trkpt>
      <trkpt lat="46.10825" lon="4.62162">
        <ele>467.360595703</ele>
        <time>2015-12-17T08:51:46.878Z</time>
      </trkpt>
      <trkpt lat="46.10827" lon="4.62165">
        <ele>467.30557251</ele>
        <time>2015-12-17T08:51:47.874Z</time>
      </trkpt>
      <trkpt lat="46.10832" lon="4.62175">
        <ele>467.418426514</ele>
        <time>2015-12-17T08:51:53.876Z</time>
      </trkpt>
      <trkpt lat="46.10833" lon="4.62177">
        <ele>467.475067139</ele>
        <time>2015-12-17T08:51:54.862Z</time>
      </trkpt>
      <trkpt lat="46.10838" lon="4.62186">
        <ele>467.008483887</ele>
        <time>2015-12-17T08:52:02.874Z</time>
      </trkpt>
      <trkpt lat="46.1084" lon="4.62189">
        <ele>466.94229126</ele>
        <time>2015-12-17T08:52:03.864Z</time>
      </trkpt>
      <trkpt lat="46.10845" lon="4.62198">
        <ele>466.914916992</ele>
        <time>2015-12-17T08:52:10.944Z</time>
      </trkpt>
      <trkpt lat="46.10846" lon="4.622">
        <ele>466.987915039</ele>
        <time>2015-12-17T08:52:11.864Z</time>
      </trkpt>
      <trkpt lat="46.10848" lon="4.62212">
        <ele>467.066070557</ele>
        <time>2015-12-17T08:52:16.876Z</time>
      </trkpt>
      <trkpt lat="46.10849" lon="4.62213">
        <ele>467.059112549</ele>
        <time>2015-12-17T08:52:17.865Z</time>
      </trkpt>
      <trkpt lat="46.10854" lon="4.62223">
        <ele>467.00213623</ele>
        <time>2015-12-17T08:52:23.879Z</time>
      </trkpt>
      <trkpt lat="46.10855" lon="4.62225">
        <ele>467.089935303</ele>
        <time>2015-12-17T08:52:24.865Z</time>
      </trkpt>
      <trkpt lat="46.1086" lon="4.62234">
        <ele>467.056060791</ele>
        <time>2015-12-17T08:52:29.88Z</time>
      </trkpt>
      <trkpt lat="46.1086" lon="4.62237">
        <ele>467.006622314</ele>
        <time>2015-12-17T08:52:30.871Z</time>
      </trkpt>
      <trkpt lat="46.10864" lon="4.62246">
        <ele>466.816650391</ele>
        <time>2015-12-17T08:52:34.884Z</time>
      </trkpt>
      <trkpt lat="46.10864" lon="4.62248">
        <ele>466.770202637</ele>
        <time>2015-12-17T08:52:35.866Z</time>
      </trkpt>
      <trkpt lat="46.10868" lon="4.62259">
        <ele>466.773406982</ele>
        <time>2015-12-17T08:52:42.971Z</time>
      </trkpt>
      <trkpt lat="46.1087" lon="4.62261">
        <ele>466.738769531</ele>
        <time>2015-12-17T08:52:43.867Z</time>
      </trkpt>
      <trkpt lat="46.10876" lon="4.62271">
        <ele>466.824157715</ele>
        <time>2015-12-17T08:52:49.881Z</time>
      </trkpt>
      <trkpt lat="46.10876" lon="4.62272">
        <ele>466.908874512</ele>
        <time>2015-12-17T08:52:50.87Z</time>
      </trkpt>
      <trkpt lat="46.10882" lon="4.6228">
        <ele>467.104614258</ele>
        <time>2015-12-17T08:52:55.884Z</time>
      </trkpt>
      <trkpt lat="46.10883" lon="4.62281">
        <ele>467.090209961</ele>
        <time>2015-12-17T08:52:56.868Z</time>
      </trkpt>
      <trkpt lat="46.10888" lon="4.6229">
        <ele>467.090118408</ele>
        <time>2015-12-17T08:53:02.892Z</time>
      </trkpt>
      <trkpt lat="46.10889" lon="4.62291">
        <ele>467.052246094</ele>
        <time>2015-12-17T08:53:03.868Z</time>
      </trkpt>
      <trkpt lat="46.10894" lon="4.62302">
        <ele>466.827606201</ele>
        <time>2015-12-17T08:53:09.898Z</time>
      </trkpt>
      <trkpt lat="46.10894" lon="4.62304">
        <ele>466.828826904</ele>
        <time>2015-12-17T08:53:10.871Z</time>
      </trkpt>
      <trkpt lat="46.10899" lon="4.62314">
        <ele>466.664001465</ele>
        <time>2015-12-17T08:53:16.882Z</time>
      </trkpt>
      <trkpt lat="46.109" lon="4.62316">
        <ele>466.560638428</ele>
        <time>2015-12-17T08:53:17.869Z</time>
      </trkpt>
      <trkpt lat="46.10905" lon="4.62326">
        <ele>466.359802246</ele>
        <time>2015-12-17T08:53:23.969Z</time>
      </trkpt>
      <trkpt lat="46.10905" lon="4.62328">
        <ele>466.357177734</ele>
        <time>2015-12-17T08:53:24.87Z</time>
      </trkpt>
      <trkpt lat="46.1091" lon="4.62338">
        <ele>466.332244873</ele>
        <time>2015-12-17T08:53:31.858Z</time>
      </trkpt>
      <trkpt lat="46.10911" lon="4.6234">
        <ele>466.305541992</ele>
        <time>2015-12-17T08:53:32.846Z</time>
      </trkpt>
      <trkpt lat="46.10914" lon="4.62351">
        <ele>466.196228027</ele>
        <time>2015-12-17T08:53:37.856Z</time>
      </trkpt>
      <trkpt lat="46.10915" lon="4.62353">
        <ele>466.198150635</ele>
        <time>2015-12-17T08:53:38.851Z</time>
      </trkpt>
      <trkpt lat="46.10908" lon="4.6236">
        <ele>464.881500244</ele>
        <time>2015-12-17T08:53:52.861Z</time>
      </trkpt>
      <trkpt lat="46.10907" lon="4.6236">
        <ele>464.800994873</ele>
        <time>2015-12-17T08:53:53.847Z</time>
      </trkpt>
      <trkpt lat="46.10898" lon="4.62365">
        <ele>464.883972168</ele>
        <time>2015-12-17T08:54:01.861Z</time>
      </trkpt>
      <trkpt lat="46.10897" lon="4.62365">
        <ele>464.816711426</ele>
        <time>2015-12-17T08:54:02.848Z</time>
      </trkpt>
      <trkpt lat="46.1089" lon="4.62371">
        <ele>464.613983154</ele>
        <time>2015-12-17T08:54:09.862Z</time>
      </trkpt>
      <trkpt lat="46.10889" lon="4.62372">
        <ele>464.706420898</ele>
        <time>2015-12-17T08:54:10.851Z</time>
      </trkpt>
      <trkpt lat="46.10881" lon="4.62374">
        <ele>465.205474854</ele>
        <time>2015-12-17T08:54:20.862Z</time>
      </trkpt>
      <trkpt lat="46.1088" lon="4.62374">
        <ele>465.159362793</ele>
        <time>2015-12-17T08:54:21.85Z</time>
      </trkpt>
      <trkpt lat="46.10871" lon="4.62374">
        <ele>465.166992188</ele>
        <time>2015-12-17T08:54:32.862Z</time>
      </trkpt>
      <trkpt lat="46.1087" lon="4.62375">
        <ele>465.233581543</ele>
        <time>2015-12-17T08:54:33.85Z</time>
      </trkpt>
      <trkpt lat="46.10861" lon="4.62376">
        <ele>466.037322998</ele>
        <time>2015-12-17T08:54:40.863Z</time>
      </trkpt>
      <trkpt lat="46.1086" lon="4.62377">
        <ele>466.169769287</ele>
        <time>2015-12-17T08:54:41.851Z</time>
      </trkpt>
      <trkpt lat="46.10852" lon="4.6238">
        <ele>468.113494873</ele>
        <time>2015-12-17T08:54:51.867Z</time>
      </trkpt>
      <trkpt lat="46.10851" lon="4.62381">
        <ele>468.200256348</ele>
        <time>2015-12-17T08:54:52.851Z</time>
      </trkpt>
      <trkpt lat="46.10847" lon="4.62391">
        <ele>469.132995605</ele>
        <time>2015-12-17T08:54:59.867Z</time>
      </trkpt>
      <trkpt lat="46.10847" lon="4.62393">
        <ele>469.296020508</ele>
        <time>2015-12-17T08:55:00.853Z</time>
      </trkpt>
      <trkpt lat="46.10844" lon="4.62404">
        <ele>470.400878906</ele>
        <time>2015-12-17T08:55:09.867Z</time>
      </trkpt>
      <trkpt lat="46.10843" lon="4.62405">
        <ele>470.474212646</ele>
        <time>2015-12-17T08:55:10.853Z</time>
      </trkpt>
      <trkpt lat="46.10835" lon="4.62407">
        <ele>471.055999756</ele>
        <time>2015-12-17T08:55:20.865Z</time>
      </trkpt>
      <trkpt lat="46.10834" lon="4.62407">
        <ele>471.197265625</ele>
        <time>2015-12-17T08:55:21.855Z</time>
      </trkpt>
      <trkpt lat="46.10825" lon="4.62406">
        <ele>471.653900146</ele>
        <time>2015-12-17T08:55:27.872Z</time>
      </trkpt>
      <trkpt lat="46.10824" lon="4.62406">
        <ele>471.748474121</ele>
        <time>2015-12-17T08:55:28.855Z</time>
      </trkpt>
      <trkpt lat="46.10815" lon="4.62406">
        <ele>472.700378418</ele>
        <time>2015-12-17T08:55:36.87Z</time>
      </trkpt>
      <trkpt lat="46.10814" lon="4.62406">
        <ele>472.881896973</ele>
        <time>2015-12-17T08:55:37.856Z</time>
      </trkpt>
      <trkpt lat="46.10806" lon="4.62403">
        <ele>473.717254639</ele>
        <time>2015-12-17T08:55:44.871Z</time>
      </trkpt>
      <trkpt lat="46.10805" lon="4.62402">
        <ele>473.842498779</ele>
        <time>2015-12-17T08:55:45.859Z</time>
      </trkpt>
      <trkpt lat="46.10797" lon="4.624">
        <ele>474.792785645</ele>
        <time>2015-12-17T08:55:54.865Z</time>
      </trkpt>
      <trkpt lat="46.10796" lon="4.624">
        <ele>474.880340576</ele>
        <time>2015-12-17T08:55:55.854Z</time>
      </trkpt>
      <trkpt lat="46.10788" lon="4.62398">
        <ele>475.39151001</ele>
        <time>2015-12-17T08:55:59.873Z</time>
      </trkpt>
      <trkpt lat="46.10786" lon="4.62398">
        <ele>475.588165283</ele>
        <time>2015-12-17T08:56:00.857Z</time>
      </trkpt>
      <trkpt lat="46.10778" lon="4.62397">
        <ele>476.748657227</ele>
        <time>2015-12-17T08:56:11.883Z</time>
      </trkpt>
      <trkpt lat="46.10777" lon="4.62396">
        <ele>476.842437744</ele>
        <time>2015-12-17T08:56:12.859Z</time>
      </trkpt>
      <trkpt lat="46.10774" lon="4.62385">
        <ele>477.583709717</ele>
        <time>2015-12-17T08:56:19.899Z</time>
      </trkpt>
      <trkpt lat="46.10773" lon="4.62382">
        <ele>477.742553711</ele>
        <time>2015-12-17T08:56:20.859Z</time>
      </trkpt>
      <trkpt lat="46.10773" lon="4.6237">
        <ele>478.464355469</ele>
        <time>2015-12-17T08:56:26.875Z</time>
      </trkpt>
      <trkpt lat="46.10772" lon="4.62369">
        <ele>478.47756958</ele>
        <time>2015-12-17T08:56:27.859Z</time>
      </trkpt>
      <trkpt lat="46.10768" lon="4.62358">
        <ele>478.858764648</ele>
        <time>2015-12-17T08:56:37.872Z</time>
      </trkpt>
      <trkpt lat="46.10768" lon="4.62357">
        <ele>478.917541504</ele>
        <time>2015-12-17T08:56:38.86Z</time>
      </trkpt>
      <trkpt lat="46.10759" lon="4.62354">
        <ele>481.080657959</ele>
        <time>2015-12-17T08:57:13.885Z</time>
      </trkpt>
      <trkpt lat="46.10758" lon="4.62354">
        <ele>481.128295898</ele>
        <time>2015-12-17T08:57:14.863Z</time>
      </trkpt>
      <trkpt lat="46.10751" lon="4.62361">
        <ele>482.848419189</ele>
        <time>2015-12-17T08:57:26.88Z</time>
      </trkpt>
      <trkpt lat="46.1075" lon="4.62362">
        <ele>483.0887146</ele>
        <time>2015-12-17T08:57:27.864Z</time>
      </trkpt>
      <trkpt lat="46.10743" lon="4.62369">
        <ele>485.459136963</ele>
        <time>2015-12-17T08:57:38.879Z</time>
      </trkpt>
      <trkpt lat="46.10742" lon="4.6237">
        <ele>485.639129639</ele>
        <time>2015-12-17T08:57:39.865Z</time>
      </trkpt>
      <trkpt lat="46.10735" lon="4.62376">
        <ele>486.927337646</ele>
        <time>2015-12-17T08:57:48.878Z</time>
      </trkpt>
      <trkpt lat="46.10734" lon="4.62376">
        <ele>487.031433105</ele>
        <time>2015-12-17T08:57:49.866Z</time>
      </trkpt>
      <trkpt lat="46.10728" lon="4.62383">
        <ele>487.756652832</ele>
        <time>2015-12-17T08:57:57.878Z</time>
      </trkpt>
      <trkpt lat="46.10727" lon="4.62384">
        <ele>487.849456787</ele>
        <time>2015-12-17T08:57:58.868Z</time>
      </trkpt>
      <trkpt lat="46.10719" lon="4.62391">
        <ele>488.564178467</ele>
        <time>2015-12-17T08:58:08.878Z</time>
      </trkpt>
      <trkpt lat="46.10717" lon="4.62392">
        <ele>488.587005615</ele>
        <time>2015-12-17T08:58:09.921Z</time>
      </trkpt>
      <trkpt lat="46.1071" lon="4.62399">
        <ele>489.674804688</ele>
        <time>2015-12-17T08:58:19.881Z</time>
      </trkpt>
      <trkpt lat="46.1071" lon="4.624">
        <ele>489.843261719</ele>
        <time>2015-12-17T08:58:20.866Z</time>
      </trkpt>
      <trkpt lat="46.10702" lon="4.62404">
        <ele>491.350769043</ele>
        <time>2015-12-17T08:58:32.88Z</time>
      </trkpt>
      <trkpt lat="46.10701" lon="4.62405">
        <ele>491.483093262</ele>
        <time>2015-12-17T08:58:33.869Z</time>
      </trkpt>
      <trkpt lat="46.10694" lon="4.62411">
        <ele>492.705627441</ele>
        <time>2015-12-17T08:58:41.882Z</time>
      </trkpt>
      <trkpt lat="46.10693" lon="4.62412">
        <ele>492.795227051</ele>
        <time>2015-12-17T08:58:42.85Z</time>
      </trkpt>
      <trkpt lat="46.10686" lon="4.62419">
        <ele>494.49005127</ele>
        <time>2015-12-17T08:58:52.868Z</time>
      </trkpt>
      <trkpt lat="46.10685" lon="4.6242">
        <ele>494.671844482</ele>
        <time>2015-12-17T08:58:53.845Z</time>
      </trkpt>
      <trkpt lat="46.10677" lon="4.62426">
        <ele>496.232696533</ele>
        <time>2015-12-17T08:59:03.868Z</time>
      </trkpt>
      <trkpt lat="46.10677" lon="4.62427">
        <ele>496.289794922</ele>
        <time>2015-12-17T08:59:04.848Z</time>
      </trkpt>
      <trkpt lat="46.1067" lon="4.62433">
        <ele>497.241424561</ele>
        <time>2015-12-17T08:59:12.858Z</time>
      </trkpt>
      <trkpt lat="46.10669" lon="4.62433">
        <ele>497.28918457</ele>
        <time>2015-12-17T08:59:13.846Z</time>
      </trkpt>
      <trkpt lat="46.1066" lon="4.62437">
        <ele>498.428741455</ele>
        <time>2015-12-17T08:59:25.017Z</time>
      </trkpt>
      <trkpt lat="46.1066" lon="4.62437">
        <ele>498.604217529</ele>
        <time>2015-12-17T08:59:25.848Z</time>
      </trkpt>
      <trkpt lat="46.10651" lon="4.6244">
        <ele>500.783752441</ele>
        <time>2015-12-17T08:59:35.86Z</time>
      </trkpt>
      <trkpt lat="46.1065" lon="4.6244">
        <ele>500.997497559</ele>
        <time>2015-12-17T08:59:36.849Z</time>
      </trkpt>
      <trkpt lat="46.10641" lon="4.6244">
        <ele>502.745727539</ele>
        <time>2015-12-17T08:59:48.862Z</time>
      </trkpt>
      <trkpt lat="46.10641" lon="4.6244">
        <ele>502.911712646</ele>
        <time>2015-12-17T08:59:49.85Z</time>
      </trkpt>
      <trkpt lat="46.10632" lon="4.62443">
        <ele>504.240264893</ele>
        <time>2015-12-17T09:00:00.862Z</time>
      </trkpt>
      <trkpt lat="46.10631" lon="4.62444">
        <ele>504.376556396</ele>
        <time>2015-12-17T09:00:01.85Z</time>
      </trkpt>
      <trkpt lat="46.10623" lon="4.62447">
        <ele>505.623291016</ele>
        <time>2015-12-17T09:00:11.862Z</time>
      </trkpt>
      <trkpt lat="46.10622" lon="4.62447">
        <ele>505.826446533</ele>
        <time>2015-12-17T09:00:12.854Z</time>
      </trkpt>
      <trkpt lat="46.10615" lon="4.62452">
        <ele>507.407806396</ele>
        <time>2015-12-17T09:00:21.863Z</time>
      </trkpt>
      <trkpt lat="46.10614" lon="4.62453">
        <ele>507.549255371</ele>
        <time>2015-12-17T09:00:22.852Z</time>
      </trkpt>
      <trkpt lat="46.10605" lon="4.62455">
        <ele>510.023925781</ele>
        <time>2015-12-17T09:00:35.868Z</time>
      </trkpt>
      <trkpt lat="46.10604" lon="4.62455">
        <ele>510.198455811</ele>
        <time>2015-12-17T09:00:36.853Z</time>
      </trkpt>
      <trkpt lat="46.10596" lon="4.62455">
        <ele>511.828399658</ele>
        <time>2015-12-17T09:00:44.868Z</time>
      </trkpt>
      <trkpt lat="46.10595" lon="4.62455">
        <ele>511.987335205</ele>
        <time>2015-12-17T09:00:45.857Z</time>
      </trkpt>
      <trkpt lat="46.10586" lon="4.62459">
        <ele>514.180847168</ele>
        <time>2015-12-17T09:00:56.867Z</time>
      </trkpt>
      <trkpt lat="46.10585" lon="4.62459">
        <ele>514.456604004</ele>
        <time>2015-12-17T09:00:57.854Z</time>
      </trkpt>
      <trkpt lat="46.10578" lon="4.62462">
        <ele>515.941894531</ele>
        <time>2015-12-17T09:01:03.874Z</time>
      </trkpt>
      <trkpt lat="46.10576" lon="4.62462">
        <ele>516.066955566</ele>
        <time>2015-12-17T09:01:04.855Z</time>
      </trkpt>
      <trkpt lat="46.10568" lon="4.62466">
        <ele>516.781311035</ele>
        <time>2015-12-17T09:01:11.866Z</time>
      </trkpt>
      <trkpt lat="46.10567" lon="4.62467">
        <ele>516.86315918</ele>
        <time>2015-12-17T09:01:12.855Z</time>
      </trkpt>
      <trkpt lat="46.10559" lon="4.62464">
        <ele>519.267883301</ele>
        <time>2015-12-17T09:01:25.866Z</time>
      </trkpt>
      <trkpt lat="46.10559" lon="4.62464">
        <ele>519.54284668</ele>
        <time>2015-12-17T09:01:26.859Z</time>
      </trkpt>
      <trkpt lat="46.10551" lon="4.6246">
        <ele>521.809997559</ele>
        <time>2015-12-17T09:01:33.9Z</time>
      </trkpt>
      <trkpt lat="46.10549" lon="4.62459">
        <ele>522.129577637</ele>
        <time>2015-12-17T09:01:34.856Z</time>
      </trkpt>
      <trkpt lat="46.10541" lon="4.62455">
        <ele>524.606018066</ele>
        <time>2015-12-17T09:01:47.871Z</time>
      </trkpt>
      <trkpt lat="46.1054" lon="4.62455">
        <ele>524.664245605</ele>
        <time>2015-12-17T09:01:48.858Z</time>
      </trkpt>
      <trkpt lat="46.10533" lon="4.62448">
        <ele>526.575500488</ele>
        <time>2015-12-17T09:01:58.87Z</time>
      </trkpt>
      <trkpt lat="46.10532" lon="4.62447">
        <ele>526.835632324</ele>
        <time>2015-12-17T09:01:59.859Z</time>
      </trkpt>
      <trkpt lat="46.10526" lon="4.62439">
        <ele>528.938537598</ele>
        <time>2015-12-17T09:02:07.871Z</time>
      </trkpt>
      <trkpt lat="46.10525" lon="4.62438">
        <ele>529.22277832</ele>
        <time>2015-12-17T09:02:08.861Z</time>
      </trkpt>
      <trkpt lat="46.10517" lon="4.62432">
        <ele>531.539550781</ele>
        <time>2015-12-17T09:02:20.88Z</time>
      </trkpt>
      <trkpt lat="46.10517" lon="4.62431">
        <ele>531.683044434</ele>
        <time>2015-12-17T09:02:21.861Z</time>
      </trkpt>
      <trkpt lat="46.10512" lon="4.62421">
        <ele>534.158325195</ele>
        <time>2015-12-17T09:02:36.872Z</time>
      </trkpt>
      <trkpt lat="46.10512" lon="4.6242">
        <ele>534.358276367</ele>
        <time>2015-12-17T09:02:37.861Z</time>
      </trkpt>
      <trkpt lat="46.10514" lon="4.62408">
        <ele>537.158996582</ele>
        <time>2015-12-17T09:02:51.054Z</time>
      </trkpt>
      <trkpt lat="46.10514" lon="4.62407">
        <ele>537.376098633</ele>
        <time>2015-12-17T09:02:51.863Z</time>
      </trkpt>
      <trkpt lat="46.10514" lon="4.62394">
        <ele>540.339782715</ele>
        <time>2015-12-17T09:03:05.876Z</time>
      </trkpt>
      <trkpt lat="46.10513" lon="4.62393">
        <ele>540.558166504</ele>
        <time>2015-12-17T09:03:06.866Z</time>
      </trkpt>
      <trkpt lat="46.10513" lon="4.62382">
        <ele>542.164733887</ele>
        <time>2015-12-17T09:03:16.877Z</time>
      </trkpt>
      <trkpt lat="46.10513" lon="4.6238">
        <ele>542.358825684</ele>
        <time>2015-12-17T09:03:17.867Z</time>
      </trkpt>
      <trkpt lat="46.10506" lon="4.62372">
        <ele>544.225952148</ele>
        <time>2015-12-17T09:03:28.878Z</time>
      </trkpt>
      <trkpt lat="46.10505" lon="4.62371">
        <ele>544.450500488</ele>
        <time>2015-12-17T09:03:29.867Z</time>
      </trkpt>
      <trkpt lat="46.10497" lon="4.62368">
        <ele>546.629638672</ele>
        <time>2015-12-17T09:03:40.885Z</time>
      </trkpt>
      <trkpt lat="46.10496" lon="4.62367">
        <ele>546.739990234</ele>
        <time>2015-12-17T09:03:41.867Z</time>
      </trkpt>
      <trkpt lat="46.10489" lon="4.62362">
        <ele>548.175109863</ele>
        <time>2015-12-17T09:03:50.881Z</time>
      </trkpt>
      <trkpt lat="46.10487" lon="4.62362">
        <ele>548.366455078</ele>
        <time>2015-12-17T09:03:51.867Z</time>
      </trkpt>
      <trkpt lat="46.1048" lon="4.62356">
        <ele>549.901977539</ele>
        <time>2015-12-17T09:03:59.857Z</time>
      </trkpt>
      <trkpt lat="46.10479" lon="4.62355">
        <ele>550.052978516</ele>
        <time>2015-12-17T09:04:00.843Z</time>
      </trkpt>
      <trkpt lat="46.10471" lon="4.62348">
        <ele>551.423706055</ele>
        <time>2015-12-17T09:04:08.853Z</time>
      </trkpt>
      <trkpt lat="46.1047" lon="4.62347">
        <ele>551.617553711</ele>
        <time>2015-12-17T09:04:09.846Z</time>
      </trkpt>
      <trkpt lat="46.10462" lon="4.62342">
        <ele>553.480957031</ele>
        <time>2015-12-17T09:04:20.862Z</time>
      </trkpt>
      <trkpt lat="46.1046" lon="4.62342">
        <ele>553.651184082</ele>
        <time>2015-12-17T09:04:21.844Z</time>
      </trkpt>
      <trkpt lat="46.10451" lon="4.62341">
        <ele>555.307739258</ele>
        <time>2015-12-17T09:04:30.857Z</time>
      </trkpt>
      <trkpt lat="46.10451" lon="4.62341">
        <ele>555.520141602</ele>
        <time>2015-12-17T09:04:31.845Z</time>
      </trkpt>
      <trkpt lat="46.10442" lon="4.62338">
        <ele>557.479187012</ele>
        <time>2015-12-17T09:04:42.86Z</time>
      </trkpt>
      <trkpt lat="46.10441" lon="4.62339">
        <ele>557.616271973</ele>
        <time>2015-12-17T09:04:43.846Z</time>
      </trkpt>
      <trkpt lat="46.10432" lon="4.6234">
        <ele>558.823181152</ele>
        <time>2015-12-17T09:04:51.859Z</time>
      </trkpt>
      <trkpt lat="46.10431" lon="4.6234">
        <ele>558.918029785</ele>
        <time>2015-12-17T09:04:52.848Z</time>
      </trkpt>
      <trkpt lat="46.10422" lon="4.62338">
        <ele>561.029541016</ele>
        <time>2015-12-17T09:05:03.859Z</time>
      </trkpt>
      <trkpt lat="46.10421" lon="4.62337">
        <ele>561.299438477</ele>
        <time>2015-12-17T09:05:04.847Z</time>
      </trkpt>
      <trkpt lat="46.10412" lon="4.62336">
        <ele>562.622314453</ele>
        <time>2015-12-17T09:05:12.861Z</time>
      </trkpt>
      <trkpt lat="46.10412" lon="4.62336">
        <ele>562.873352051</ele>
        <time>2015-12-17T09:05:13.848Z</time>
      </trkpt>
      <trkpt lat="46.10403" lon="4.62335">
        <ele>564.531616211</ele>
        <time>2015-12-17T09:05:26.861Z</time>
      </trkpt>
      <trkpt lat="46.10402" lon="4.62334">
        <ele>564.652282715</ele>
        <time>2015-12-17T09:05:27.851Z</time>
      </trkpt>
      <trkpt lat="46.10394" lon="4.62334">
        <ele>566.656494141</ele>
        <time>2015-12-17T09:05:38.863Z</time>
      </trkpt>
      <trkpt lat="46.10393" lon="4.62334">
        <ele>566.872497559</ele>
        <time>2015-12-17T09:05:39.851Z</time>
      </trkpt>
      <trkpt lat="46.10385" lon="4.62326">
        <ele>569.480712891</ele>
        <time>2015-12-17T09:05:58.869Z</time>
      </trkpt>
      <trkpt lat="46.10385" lon="4.62326">
        <ele>569.499694824</ele>
        <time>2015-12-17T09:05:59.851Z</time>
      </trkpt>
      <trkpt lat="46.10386" lon="4.62314">
        <ele>573.911804199</ele>
        <time>2015-12-17T09:12:31.93Z</time>
      </trkpt>
      <trkpt lat="46.10386" lon="4.62312">
        <ele>573.9296875</ele>
        <time>2015-12-17T09:12:32.858Z</time>
      </trkpt>
      <trkpt lat="46.10383" lon="4.623">
        <ele>574.234436035</ele>
        <time>2015-12-17T09:12:41.87Z</time>
      </trkpt>
      <trkpt lat="46.10383" lon="4.62299">
        <ele>574.349304199</ele>
        <time>2015-12-17T09:12:42.857Z</time>
      </trkpt>
      <trkpt lat="46.10374" lon="4.62299">
        <ele>574.946594238</ele>
        <time>2015-12-17T09:12:50.869Z</time>
      </trkpt>
      <trkpt lat="46.10373" lon="4.62299">
        <ele>575.079345703</ele>
        <time>2015-12-17T09:12:51.858Z</time>
      </trkpt>
      <trkpt lat="46.10365" lon="4.623">
        <ele>575.543273926</ele>
        <time>2015-12-17T09:12:57.87Z</time>
      </trkpt>
      <trkpt lat="46.10363" lon="4.623">
        <ele>575.578918457</ele>
        <time>2015-12-17T09:12:58.862Z</time>
      </trkpt>
      <trkpt lat="46.10356" lon="4.62302">
        <ele>575.785766602</ele>
        <time>2015-12-17T09:13:04.87Z</time>
      </trkpt>
      <trkpt lat="46.10354" lon="4.62302">
        <ele>575.863586426</ele>
        <time>2015-12-17T09:13:05.859Z</time>
      </trkpt>
      <trkpt lat="46.10347" lon="4.62304">
        <ele>576.567077637</ele>
        <time>2015-12-17T09:13:13.874Z</time>
      </trkpt>
      <trkpt lat="46.10345" lon="4.62305">
        <ele>576.652160645</ele>
        <time>2015-12-17T09:13:14.86Z</time>
      </trkpt>
      <trkpt lat="46.10337" lon="4.62308">
        <ele>577.065856934</ele>
        <time>2015-12-17T09:13:21.874Z</time>
      </trkpt>
      <trkpt lat="46.10336" lon="4.62309">
        <ele>577.098632812</ele>
        <time>2015-12-17T09:13:22.865Z</time>
      </trkpt>
      <trkpt lat="46.10327" lon="4.62312">
        <ele>577.602722168</ele>
        <time>2015-12-17T09:13:30.876Z</time>
      </trkpt>
      <trkpt lat="46.10326" lon="4.62313">
        <ele>577.635986328</ele>
        <time>2015-12-17T09:13:31.861Z</time>
      </trkpt>
      <trkpt lat="46.10317" lon="4.62316">
        <ele>578.058349609</ele>
        <time>2015-12-17T09:13:38.87Z</time>
      </trkpt>
      <trkpt lat="46.10316" lon="4.62316">
        <ele>578.086303711</ele>
        <time>2015-12-17T09:13:39.864Z</time>
      </trkpt>
      <trkpt lat="46.10308" lon="4.62318">
        <ele>578.466918945</ele>
        <time>2015-12-17T09:13:47.876Z</time>
      </trkpt>
      <trkpt lat="46.10307" lon="4.62319">
        <ele>578.513366699</ele>
        <time>2015-12-17T09:13:48.862Z</time>
      </trkpt>
      <trkpt lat="46.10299" lon="4.62321">
        <ele>578.984985352</ele>
        <time>2015-12-17T09:13:55.88Z</time>
      </trkpt>
      <trkpt lat="46.10298" lon="4.62321">
        <ele>579.041320801</ele>
        <time>2015-12-17T09:13:56.864Z</time>
      </trkpt>
      <trkpt lat="46.10289" lon="4.62322">
        <ele>579.741577148</ele>
        <time>2015-12-17T09:14:04.872Z</time>
      </trkpt>
      <trkpt lat="46.10288" lon="4.62322">
        <ele>579.838928223</ele>
        <time>2015-12-17T09:14:05.863Z</time>
      </trkpt>
      <trkpt lat="46.10279" lon="4.62325">
        <ele>580.348571777</ele>
        <time>2015-12-17T09:14:12.873Z</time>
      </trkpt>
      <trkpt lat="46.10278" lon="4.62326">
        <ele>580.398254395</ele>
        <time>2015-12-17T09:14:13.861Z</time>
      </trkpt>
      <trkpt lat="46.10269" lon="4.62329">
        <ele>580.938110352</ele>
        <time>2015-12-17T09:14:20.887Z</time>
      </trkpt>
      <trkpt lat="46.10268" lon="4.62329">
        <ele>581.034118652</ele>
        <time>2015-12-17T09:14:21.865Z</time>
      </trkpt>
      <trkpt lat="46.1026" lon="4.62332">
        <ele>581.893066406</ele>
        <time>2015-12-17T09:14:28.854Z</time>
      </trkpt>
      <trkpt lat="46.10258" lon="4.62333">
        <ele>581.968261719</ele>
        <time>2015-12-17T09:14:29.84Z</time>
      </trkpt>
      <trkpt lat="46.1025" lon="4.62335">
        <ele>582.877929688</ele>
        <time>2015-12-17T09:14:38.852Z</time>
      </trkpt>
      <trkpt lat="46.10249" lon="4.62336">
        <ele>582.99230957</ele>
        <time>2015-12-17T09:14:39.841Z</time>
      </trkpt>
      <trkpt lat="46.10242" lon="4.62336">
        <ele>583.84197998</ele>
        <time>2015-12-17T09:14:46.861Z</time>
      </trkpt>
      <trkpt lat="46.1024" lon="4.62336">
        <ele>583.99395752</ele>
        <time>2015-12-17T09:14:47.842Z</time>
      </trkpt>
      <trkpt lat="46.10232" lon="4.62338">
        <ele>584.397644043</ele>
        <time>2015-12-17T09:14:52.871Z</time>
      </trkpt>
      <trkpt lat="46.10231" lon="4.62338">
        <ele>584.457214355</ele>
        <time>2015-12-17T09:14:53.842Z</time>
      </trkpt>
      <trkpt lat="46.10223" lon="4.62341">
        <ele>584.855102539</ele>
        <time>2015-12-17T09:15:00.856Z</time>
      </trkpt>
      <trkpt lat="46.10222" lon="4.62342">
        <ele>584.945739746</ele>
        <time>2015-12-17T09:15:01.842Z</time>
      </trkpt>
      <trkpt lat="46.10213" lon="4.62343">
        <ele>585.683654785</ele>
        <time>2015-12-17T09:15:10.882Z</time>
      </trkpt>
      <trkpt lat="46.10212" lon="4.62343">
        <ele>585.772399902</ele>
        <time>2015-12-17T09:15:11.843Z</time>
      </trkpt>
      <trkpt lat="46.10204" lon="4.62345">
        <ele>586.91015625</ele>
        <time>2015-12-17T09:15:20.858Z</time>
      </trkpt>
      <trkpt lat="46.10202" lon="4.62345">
        <ele>587.02722168</ele>
        <time>2015-12-17T09:15:21.844Z</time>
      </trkpt>
      <trkpt lat="46.10194" lon="4.62346">
        <ele>587.792785645</ele>
        <time>2015-12-17T09:15:28.868Z</time>
      </trkpt>
      <trkpt lat="46.10193" lon="4.62347">
        <ele>587.910949707</ele>
        <time>2015-12-17T09:15:29.845Z</time>
      </trkpt>
      <trkpt lat="46.10185" lon="4.62347">
        <ele>588.472900391</ele>
        <time>2015-12-17T09:15:36.866Z</time>
      </trkpt>
      <trkpt lat="46.10183" lon="4.62348">
        <ele>588.524841309</ele>
        <time>2015-12-17T09:15:37.845Z</time>
      </trkpt>
      <trkpt lat="46.10174" lon="4.62347">
        <ele>589.526428223</ele>
        <time>2015-12-17T09:15:45.86Z</time>
      </trkpt>
      <trkpt lat="46.10173" lon="4.62347">
        <ele>589.682312012</ele>
        <time>2015-12-17T09:15:46.847Z</time>
      </trkpt>
      <trkpt lat="46.10165" lon="4.62347">
        <ele>590.900024414</ele>
        <time>2015-12-17T09:15:54.908Z</time>
      </trkpt>
      <trkpt lat="46.10164" lon="4.62347">
        <ele>590.988525391</ele>
        <time>2015-12-17T09:15:55.846Z</time>
      </trkpt>
      <trkpt lat="46.10156" lon="4.62347">
        <ele>591.638183594</ele>
        <time>2015-12-17T09:16:03.873Z</time>
      </trkpt>
      <trkpt lat="46.10155" lon="4.62347">
        <ele>591.774719238</ele>
        <time>2015-12-17T09:16:04.847Z</time>
      </trkpt>
      <trkpt lat="46.10147" lon="4.62348">
        <ele>593.263061523</ele>
        <time>2015-12-17T09:16:13.86Z</time>
      </trkpt>
      <trkpt lat="46.10146" lon="4.62348">
        <ele>593.390686035</ele>
        <time>2015-12-17T09:16:14.848Z</time>
      </trkpt>
      <trkpt lat="46.10137" lon="4.6235">
        <ele>594.830688477</ele>
        <time>2015-12-17T09:16:24.861Z</time>
      </trkpt>
      <trkpt lat="46.10136" lon="4.6235">
        <ele>594.973815918</ele>
        <time>2015-12-17T09:16:25.85Z</time>
      </trkpt>
      <trkpt lat="46.10128" lon="4.6235">
        <ele>596.364074707</ele>
        <time>2015-12-17T09:16:36.861Z</time>
      </trkpt>
      <trkpt lat="46.10127" lon="4.6235">
        <ele>596.407409668</ele>
        <time>2015-12-17T09:16:37.85Z</time>
      </trkpt>
      <trkpt lat="46.10119" lon="4.62348">
        <ele>600.444580078</ele>
        <time>2015-12-17T09:16:53.87Z</time>
      </trkpt>
      <trkpt lat="46.10118" lon="4.62348">
        <ele>600.722045898</ele>
        <time>2015-12-17T09:16:54.851Z</time>
      </trkpt>
      <trkpt lat="46.10111" lon="4.62346">
        <ele>602.490539551</ele>
        <time>2015-12-17T09:17:01.871Z</time>
      </trkpt>
      <trkpt lat="46.10109" lon="4.62345">
        <ele>602.70880127</ele>
        <time>2015-12-17T09:17:02.852Z</time>
      </trkpt>
      <trkpt lat="46.10101" lon="4.62341">
        <ele>604.783325195</ele>
        <time>2015-12-17T09:17:12.865Z</time>
      </trkpt>
      <trkpt lat="46.101" lon="4.6234">
        <ele>605.040039062</ele>
        <time>2015-12-17T09:17:13.868Z</time>
      </trkpt>
      <trkpt lat="46.10092" lon="4.62336">
        <ele>606.941223145</ele>
        <time>2015-12-17T09:17:22.872Z</time>
      </trkpt>
      <trkpt lat="46.10091" lon="4.62335">
        <ele>607.148742676</ele>
        <time>2015-12-17T09:17:23.851Z</time>
      </trkpt>
      <trkpt lat="46.10084" lon="4.6233">
        <ele>608.102539062</ele>
        <time>2015-12-17T09:17:30.867Z</time>
      </trkpt>
      <trkpt lat="46.10082" lon="4.6233">
        <ele>608.22253418</ele>
        <time>2015-12-17T09:17:31.855Z</time>
      </trkpt>
      <trkpt lat="46.10074" lon="4.62329">
        <ele>609.760131836</ele>
        <time>2015-12-17T09:17:41.874Z</time>
      </trkpt>
      <trkpt lat="46.10073" lon="4.62328">
        <ele>609.91418457</ele>
        <time>2015-12-17T09:17:42.856Z</time>
      </trkpt>
      <trkpt lat="46.10065" lon="4.62326">
        <ele>611.988220215</ele>
        <time>2015-12-17T09:17:54.869Z</time>
      </trkpt>
      <trkpt lat="46.10064" lon="4.62325">
        <ele>612.195068359</ele>
        <time>2015-12-17T09:17:55.855Z</time>
      </trkpt>
      <trkpt lat="46.10057" lon="4.62318">
        <ele>613.629882812</ele>
        <time>2015-12-17T09:18:04.871Z</time>
      </trkpt>
      <trkpt lat="46.10056" lon="4.62317">
        <ele>613.751220703</ele>
        <time>2015-12-17T09:18:05.858Z</time>
      </trkpt>
      <trkpt lat="46.10049" lon="4.62309">
        <ele>614.541259766</ele>
        <time>2015-12-17T09:18:14.87Z</time>
      </trkpt>
      <trkpt lat="46.10049" lon="4.62308">
        <ele>614.641418457</ele>
        <time>2015-12-17T09:18:15.858Z</time>
      </trkpt>
      <trkpt lat="46.10045" lon="4.62298">
        <ele>615.420349121</ele>
        <time>2015-12-17T09:18:21.877Z</time>
      </trkpt>
      <trkpt lat="46.10044" lon="4.62296">
        <ele>615.569030762</ele>
        <time>2015-12-17T09:18:22.857Z</time>
      </trkpt>
      <trkpt lat="46.10038" lon="4.62286">
        <ele>616.391052246</ele>
        <time>2015-12-17T09:18:29.874Z</time>
      </trkpt>
      <trkpt lat="46.10038" lon="4.62285">
        <ele>616.544372559</ele>
        <time>2015-12-17T09:18:30.858Z</time>
      </trkpt>
      <trkpt lat="46.10033" lon="4.62276">
        <ele>617.404296875</ele>
        <time>2015-12-17T09:18:37.885Z</time>
      </trkpt>
      <trkpt lat="46.10032" lon="4.62275">
        <ele>617.480651855</ele>
        <time>2015-12-17T09:18:38.86Z</time>
      </trkpt>
      <trkpt lat="46.10025" lon="4.62266">
        <ele>618.41619873</ele>
        <time>2015-12-17T09:18:46.871Z</time>
      </trkpt>
      <trkpt lat="46.10025" lon="4.62266">
        <ele>618.50402832</ele>
        <time>2015-12-17T09:18:47.862Z</time>
      </trkpt>
      <trkpt lat="46.10018" lon="4.62258">
        <ele>619.241760254</ele>
        <time>2015-12-17T09:18:55.875Z</time>
      </trkpt>
      <trkpt lat="46.10017" lon="4.62257">
        <ele>619.298034668</ele>
        <time>2015-12-17T09:18:56.86Z</time>
      </trkpt>
      <trkpt lat="46.10012" lon="4.62248">
        <ele>620.301940918</ele>
        <time>2015-12-17T09:19:04.038Z</time>
      </trkpt>
      <trkpt lat="46.10012" lon="4.62247">
        <ele>620.483520508</ele>
        <time>2015-12-17T09:19:04.86Z</time>
      </trkpt>
      <trkpt lat="46.10009" lon="4.62236">
        <ele>622.461914062</ele>
        <time>2015-12-17T09:19:13.876Z</time>
      </trkpt>
      <trkpt lat="46.10008" lon="4.62234">
        <ele>622.677368164</ele>
        <time>2015-12-17T09:19:14.861Z</time>
      </trkpt>
      <trkpt lat="46.10005" lon="4.62222">
        <ele>624.337646484</ele>
        <time>2015-12-17T09:19:21.881Z</time>
      </trkpt>
      <trkpt lat="46.10004" lon="4.6222">
        <ele>624.5546875</ele>
        <time>2015-12-17T09:19:22.861Z</time>
      </trkpt>
      <trkpt lat="46.10001" lon="4.62208">
        <ele>626.218261719</ele>
        <time>2015-12-17T09:19:29.874Z</time>
      </trkpt>
      <trkpt lat="46.10001" lon="4.62207">
        <ele>626.421691895</ele>
        <time>2015-12-17T09:19:30.863Z</time>
      </trkpt>
      <trkpt lat="46.09999" lon="4.62194">
        <ele>628.175598145</ele>
        <time>2015-12-17T09:19:38.882Z</time>
      </trkpt>
      <trkpt lat="46.09998" lon="4.62192">
        <ele>628.338806152</ele>
        <time>2015-12-17T09:19:39.865Z</time>
      </trkpt>
      <trkpt lat="46.09995" lon="4.62182">
        <ele>630.177368164</ele>
        <time>2015-12-17T09:19:48.851Z</time>
      </trkpt>
      <trkpt lat="46.09994" lon="4.6218">
        <ele>630.352355957</ele>
        <time>2015-12-17T09:19:49.839Z</time>
      </trkpt>
      <trkpt lat="46.09989" lon="4.62171">
        <ele>631.271850586</ele>
        <time>2015-12-17T09:19:55.851Z</time>
      </trkpt>
      <trkpt lat="46.09988" lon="4.6217">
        <ele>631.462768555</ele>
        <time>2015-12-17T09:19:56.838Z</time>
      </trkpt>
      <trkpt lat="46.09982" lon="4.62161">
        <ele>632.692871094</ele>
        <time>2015-12-17T09:20:03.854Z</time>
      </trkpt>
      <trkpt lat="46.09981" lon="4.6216">
        <ele>632.827087402</ele>
        <time>2015-12-17T09:20:04.84Z</time>
      </trkpt>
      <trkpt lat="46.09974" lon="4.62154">
        <ele>633.395263672</ele>
        <time>2015-12-17T09:20:12.855Z</time>
      </trkpt>
      <trkpt lat="46.09972" lon="4.62152">
        <ele>633.393066406</ele>
        <time>2015-12-17T09:20:13.841Z</time>
      </trkpt>
      <trkpt lat="46.09965" lon="4.62146">
        <ele>633.549560547</ele>
        <time>2015-12-17T09:20:19.855Z</time>
      </trkpt>
      <trkpt lat="46.09964" lon="4.62145">
        <ele>633.625793457</ele>
        <time>2015-12-17T09:20:20.841Z</time>
      </trkpt>
      <trkpt lat="46.09958" lon="4.62138">
        <ele>634.163208008</ele>
        <time>2015-12-17T09:20:27.856Z</time>
      </trkpt>
      <trkpt lat="46.09956" lon="4.62137">
        <ele>634.24432373</ele>
        <time>2015-12-17T09:20:28.842Z</time>
      </trkpt>
      <trkpt lat="46.0995" lon="4.62128">
        <ele>634.985473633</ele>
        <time>2015-12-17T09:20:36.853Z</time>
      </trkpt>
      <trkpt lat="46.09949" lon="4.62128">
        <ele>635.0703125</ele>
        <time>2015-12-17T09:20:37.842Z</time>
      </trkpt>
      <trkpt lat="46.09942" lon="4.62122">
        <ele>635.415527344</ele>
        <time>2015-12-17T09:20:43.855Z</time>
      </trkpt>
      <trkpt lat="46.09941" lon="4.62121">
        <ele>635.441467285</ele>
        <time>2015-12-17T09:20:44.842Z</time>
      </trkpt>
      <trkpt lat="46.09935" lon="4.62114">
        <ele>635.674682617</ele>
        <time>2015-12-17T09:20:51.856Z</time>
      </trkpt>
      <trkpt lat="46.09933" lon="4.62112">
        <ele>635.741149902</ele>
        <time>2015-12-17T09:20:52.843Z</time>
      </trkpt>
      <trkpt lat="46.09927" lon="4.62104">
        <ele>635.958251953</ele>
        <time>2015-12-17T09:20:58.865Z</time>
      </trkpt>
      <trkpt lat="46.09926" lon="4.62103">
        <ele>636.024597168</ele>
        <time>2015-12-17T09:20:59.842Z</time>
      </trkpt>
      <trkpt lat="46.0992" lon="4.62094">
        <ele>636.085754395</ele>
        <time>2015-12-17T09:21:06.876Z</time>
      </trkpt>
      <trkpt lat="46.09919" lon="4.62093">
        <ele>636.071838379</ele>
        <time>2015-12-17T09:21:07.846Z</time>
      </trkpt>
      <trkpt lat="46.09911" lon="4.62087">
        <ele>635.854003906</ele>
        <time>2015-12-17T09:21:15.859Z</time>
      </trkpt>
      <trkpt lat="46.0991" lon="4.62087">
        <ele>635.791137695</ele>
        <time>2015-12-17T09:21:16.854Z</time>
      </trkpt>
      <trkpt lat="46.09902" lon="4.62081">
        <ele>635.254394531</ele>
        <time>2015-12-17T09:21:22.917Z</time>
      </trkpt>
      <trkpt lat="46.09901" lon="4.6208">
        <ele>635.196838379</ele>
        <time>2015-12-17T09:21:23.846Z</time>
      </trkpt>
      <trkpt lat="46.09893" lon="4.62076">
        <ele>634.899047852</ele>
        <time>2015-12-17T09:21:30.869Z</time>
      </trkpt>
      <trkpt lat="46.09892" lon="4.62076">
        <ele>634.928283691</ele>
        <time>2015-12-17T09:21:31.847Z</time>
      </trkpt>
      <trkpt lat="46.09884" lon="4.62072">
        <ele>634.949951172</ele>
        <time>2015-12-17T09:21:37.859Z</time>
      </trkpt>
      <trkpt lat="46.09883" lon="4.62073">
        <ele>634.920654297</ele>
        <time>2015-12-17T09:21:38.849Z</time>
      </trkpt>
      <trkpt lat="46.09875" lon="4.62071">
        <ele>634.734191895</ele>
        <time>2015-12-17T09:21:45.873Z</time>
      </trkpt>
      <trkpt lat="46.09874" lon="4.62071">
        <ele>634.697265625</ele>
        <time>2015-12-17T09:21:46.848Z</time>
      </trkpt>
      <trkpt lat="46.09874" lon="4.62084">
        <ele>633.578063965</ele>
        <time>2015-12-17T09:22:14.878Z</time>
      </trkpt>
      <trkpt lat="46.09874" lon="4.62085">
        <ele>633.528259277</ele>
        <time>2015-12-17T09:22:15.85Z</time>
      </trkpt>
      <trkpt lat="46.09872" lon="4.62076">
        <ele>631.627807617</ele>
        <time>2015-12-17T09:22:35.864Z</time>
      </trkpt>
      <trkpt lat="46.0987" lon="4.62073">
        <ele>631.678588867</ele>
        <time>2015-12-17T09:22:36.853Z</time>
      </trkpt>
      <trkpt lat="46.09862" lon="4.62068">
        <ele>631.801757812</ele>
        <time>2015-12-17T09:22:42.863Z</time>
      </trkpt>
      <trkpt lat="46.09861" lon="4.62068">
        <ele>631.787475586</ele>
        <time>2015-12-17T09:22:43.855Z</time>
      </trkpt>
      <trkpt lat="46.09852" lon="4.62065">
        <ele>631.911376953</ele>
        <time>2015-12-17T09:22:49.872Z</time>
      </trkpt>
      <trkpt lat="46.0985" lon="4.62064">
        <ele>631.865783691</ele>
        <time>2015-12-17T09:22:50.853Z</time>
      </trkpt>
      <trkpt lat="46.09842" lon="4.62062">
        <ele>631.394958496</ele>
        <time>2015-12-17T09:22:57.868Z</time>
      </trkpt>
      <trkpt lat="46.0984" lon="4.62062">
        <ele>631.334228516</ele>
        <time>2015-12-17T09:22:58.853Z</time>
      </trkpt>
      <trkpt lat="46.09831" lon="4.62059">
        <ele>631.14465332</ele>
        <time>2015-12-17T09:23:05.869Z</time>
      </trkpt>
      <trkpt lat="46.09831" lon="4.62058">
        <ele>631.142089844</ele>
        <time>2015-12-17T09:23:06.853Z</time>
      </trkpt>
      <trkpt lat="46.09822" lon="4.62054">
        <ele>631.215209961</ele>
        <time>2015-12-17T09:23:13.865Z</time>
      </trkpt>
      <trkpt lat="46.09821" lon="4.62054">
        <ele>631.230285645</ele>
        <time>2015-12-17T09:23:14.854Z</time>
      </trkpt>
      <trkpt lat="46.09813" lon="4.6205">
        <ele>631.268493652</ele>
        <time>2015-12-17T09:23:22.026Z</time>
      </trkpt>
      <trkpt lat="46.09812" lon="4.62049">
        <ele>631.222045898</ele>
        <time>2015-12-17T09:23:22.855Z</time>
      </trkpt>
      <trkpt lat="46.09804" lon="4.62044">
        <ele>631.016845703</ele>
        <time>2015-12-17T09:23:28.867Z</time>
      </trkpt>
      <trkpt lat="46.09803" lon="4.62043">
        <ele>630.995239258</ele>
        <time>2015-12-17T09:23:29.856Z</time>
      </trkpt>
      <trkpt lat="46.09795" lon="4.62039">
        <ele>630.970581055</ele>
        <time>2015-12-17T09:23:35.868Z</time>
      </trkpt>
      <trkpt lat="46.09794" lon="4.62038">
        <ele>630.946533203</ele>
        <time>2015-12-17T09:23:36.856Z</time>
      </trkpt>
      <trkpt lat="46.09787" lon="4.62031">
        <ele>630.987243652</ele>
        <time>2015-12-17T09:23:43.867Z</time>
      </trkpt>
      <trkpt lat="46.09786" lon="4.6203">
        <ele>631.029663086</ele>
        <time>2015-12-17T09:23:44.859Z</time>
      </trkpt>
      <trkpt lat="46.09779" lon="4.62025">
        <ele>631.231018066</ele>
        <time>2015-12-17T09:23:49.869Z</time>
      </trkpt>
      <trkpt lat="46.09778" lon="4.62024">
        <ele>631.283691406</ele>
        <time>2015-12-17T09:23:50.859Z</time>
      </trkpt>
      <trkpt lat="46.09772" lon="4.62018">
        <ele>631.383483887</ele>
        <time>2015-12-17T09:23:57.872Z</time>
      </trkpt>
      <trkpt lat="46.0977" lon="4.62016">
        <ele>631.475708008</ele>
        <time>2015-12-17T09:23:58.86Z</time>
      </trkpt>
      <trkpt lat="46.09764" lon="4.62007">
        <ele>631.936462402</ele>
        <time>2015-12-17T09:24:04.87Z</time>
      </trkpt>
      <trkpt lat="46.09763" lon="4.62006">
        <ele>631.927429199</ele>
        <time>2015-12-17T09:24:05.859Z</time>
      </trkpt>
      <trkpt lat="46.09757" lon="4.62">
        <ele>632.031555176</ele>
        <time>2015-12-17T09:24:10.869Z</time>
      </trkpt>
      <trkpt lat="46.09756" lon="4.61998">
        <ele>632.064147949</ele>
        <time>2015-12-17T09:24:11.861Z</time>
      </trkpt>
      <trkpt lat="46.09749" lon="4.61993">
        <ele>632.15447998</ele>
        <time>2015-12-17T09:24:17.87Z</time>
      </trkpt>
      <trkpt lat="46.09748" lon="4.61992">
        <ele>632.151306152</ele>
        <time>2015-12-17T09:24:18.861Z</time>
      </trkpt>
      <trkpt lat="46.0974" lon="4.61988">
        <ele>632.599914551</ele>
        <time>2015-12-17T09:24:25.872Z</time>
      </trkpt>
      <trkpt lat="46.09739" lon="4.61987">
        <ele>632.631591797</ele>
        <time>2015-12-17T09:24:26.86Z</time>
      </trkpt>
      <trkpt lat="46.09732" lon="4.61981">
        <ele>632.74810791</ele>
        <time>2015-12-17T09:24:31.88Z</time>
      </trkpt>
      <trkpt lat="46.09731" lon="4.61979">
        <ele>632.76953125</ele>
        <time>2015-12-17T09:24:32.863Z</time>
      </trkpt>
      <trkpt lat="46.09724" lon="4.61972">
        <ele>632.891601562</ele>
        <time>2015-12-17T09:24:38.875Z</time>
      </trkpt>
      <trkpt lat="46.09723" lon="4.61971">
        <ele>632.927429199</ele>
        <time>2015-12-17T09:24:39.86Z</time>
      </trkpt>
      <trkpt lat="46.09716" lon="4.61964">
        <ele>632.784851074</ele>
        <time>2015-12-17T09:24:45.872Z</time>
      </trkpt>
      <trkpt lat="46.09715" lon="4.61963">
        <ele>632.785217285</ele>
        <time>2015-12-17T09:24:46.865Z</time>
      </trkpt>
      <trkpt lat="46.09708" lon="4.61956">
        <ele>632.622192383</ele>
        <time>2015-12-17T09:24:53.872Z</time>
      </trkpt>
      <trkpt lat="46.09706" lon="4.61955">
        <ele>632.599731445</ele>
        <time>2015-12-17T09:24:54.862Z</time>
      </trkpt>
      <trkpt lat="46.097" lon="4.61948">
        <ele>632.680969238</ele>
        <time>2015-12-17T09:25:00.853Z</time>
      </trkpt>
      <trkpt lat="46.09699" lon="4.61947">
        <ele>632.713806152</ele>
        <time>2015-12-17T09:25:01.837Z</time>
      </trkpt>
      <trkpt lat="46.09691" lon="4.61942">
        <ele>632.600769043</ele>
        <time>2015-12-17T09:25:08.85Z</time>
      </trkpt>
      <trkpt lat="46.0969" lon="4.61941">
        <ele>632.646911621</ele>
        <time>2015-12-17T09:25:09.838Z</time>
      </trkpt>
      <trkpt lat="46.09682" lon="4.61937">
        <ele>632.856262207</ele>
        <time>2015-12-17T09:25:16.855Z</time>
      </trkpt>
      <trkpt lat="46.09681" lon="4.61936">
        <ele>632.873596191</ele>
        <time>2015-12-17T09:25:17.839Z</time>
      </trkpt>
      <trkpt lat="46.09674" lon="4.61931">
        <ele>632.79119873</ele>
        <time>2015-12-17T09:25:23.851Z</time>
      </trkpt>
      <trkpt lat="46.09673" lon="4.6193">
        <ele>632.758850098</ele>
        <time>2015-12-17T09:25:24.841Z</time>
      </trkpt>
      <trkpt lat="46.09665" lon="4.61925">
        <ele>632.841491699</ele>
        <time>2015-12-17T09:25:31.856Z</time>
      </trkpt>
      <trkpt lat="46.09665" lon="4.61924">
        <ele>632.83190918</ele>
        <time>2015-12-17T09:25:32.841Z</time>
      </trkpt>
      <trkpt lat="46.09657" lon="4.61919">
        <ele>632.772277832</ele>
        <time>2015-12-17T09:25:44.856Z</time>
      </trkpt>
      <trkpt lat="46.09656" lon="4.61918">
        <ele>632.764831543</ele>
        <time>2015-12-17T09:25:45.84Z</time>
      </trkpt>
      <trkpt lat="46.09649" lon="4.61912">
        <ele>632.614807129</ele>
        <time>2015-12-17T09:25:55.853Z</time>
      </trkpt>
      <trkpt lat="46.09648" lon="4.61911">
        <ele>632.63269043</ele>
        <time>2015-12-17T09:25:56.842Z</time>
      </trkpt>
      <trkpt lat="46.09641" lon="4.61906">
        <ele>632.815917969</ele>
        <time>2015-12-17T09:26:05.854Z</time>
      </trkpt>
      <trkpt lat="46.0964" lon="4.61905">
        <ele>632.823547363</ele>
        <time>2015-12-17T09:26:06.842Z</time>
      </trkpt>
      <trkpt lat="46.09632" lon="4.61899">
        <ele>632.564819336</ele>
        <time>2015-12-17T09:26:14.857Z</time>
      </trkpt>
      <trkpt lat="46.09631" lon="4.61898">
        <ele>632.559753418</ele>
        <time>2015-12-17T09:26:15.843Z</time>
      </trkpt>
      <trkpt lat="46.09624" lon="4.61893">
        <ele>632.463867188</ele>
        <time>2015-12-17T09:26:22.856Z</time>
      </trkpt>
      <trkpt lat="46.09623" lon="4.61892">
        <ele>632.440124512</ele>
        <time>2015-12-17T09:26:23.843Z</time>
      </trkpt>
      <trkpt lat="46.09615" lon="4.61887">
        <ele>632.268615723</ele>
        <time>2015-12-17T09:26:30.856Z</time>
      </trkpt>
      <trkpt lat="46.09614" lon="4.61886">
        <ele>632.232421875</ele>
        <time>2015-12-17T09:26:31.848Z</time>
      </trkpt>
      <trkpt lat="46.09607" lon="4.61881">
        <ele>632.069091797</ele>
        <time>2015-12-17T09:26:38.857Z</time>
      </trkpt>
      <trkpt lat="46.09606" lon="4.6188">
        <ele>632.023254395</ele>
        <time>2015-12-17T09:26:39.846Z</time>
      </trkpt>
      <trkpt lat="46.09598" lon="4.61874">
        <ele>631.801574707</ele>
        <time>2015-12-17T09:26:46.857Z</time>
      </trkpt>
      <trkpt lat="46.09597" lon="4.61872">
        <ele>631.775390625</ele>
        <time>2015-12-17T09:26:47.845Z</time>
      </trkpt>
      <trkpt lat="46.09589" lon="4.61867">
        <ele>631.428894043</ele>
        <time>2015-12-17T09:26:54.858Z</time>
      </trkpt>
      <trkpt lat="46.09588" lon="4.61866">
        <ele>631.34564209</ele>
        <time>2015-12-17T09:26:55.845Z</time>
      </trkpt>
      <trkpt lat="46.0958" lon="4.61862">
        <ele>631.056274414</ele>
        <time>2015-12-17T09:27:01.866Z</time>
      </trkpt>
      <trkpt lat="46.09578" lon="4.61861">
        <ele>631.113830566</ele>
        <time>2015-12-17T09:27:02.846Z</time>
      </trkpt>
      <trkpt lat="46.09572" lon="4.61856">
        <ele>631.122253418</ele>
        <time>2015-12-17T09:27:08.856Z</time>
      </trkpt>
      <trkpt lat="46.0957" lon="4.61854">
        <ele>631.090515137</ele>
        <time>2015-12-17T09:27:09.847Z</time>
      </trkpt>
      <trkpt lat="46.09563" lon="4.61848">
        <ele>630.983886719</ele>
        <time>2015-12-17T09:27:17.891Z</time>
      </trkpt>
      <trkpt lat="46.09562" lon="4.61847">
        <ele>631.05065918</ele>
        <time>2015-12-17T09:27:18.847Z</time>
      </trkpt>
      <trkpt lat="46.09555" lon="4.6184">
        <ele>630.760803223</ele>
        <time>2015-12-17T09:27:24.862Z</time>
      </trkpt>
      <trkpt lat="46.09554" lon="4.61839">
        <ele>630.759765625</ele>
        <time>2015-12-17T09:27:25.848Z</time>
      </trkpt>
      <trkpt lat="46.09547" lon="4.61832">
        <ele>631.078491211</ele>
        <time>2015-12-17T09:27:33.858Z</time>
      </trkpt>
      <trkpt lat="46.09546" lon="4.61831">
        <ele>631.165344238</ele>
        <time>2015-12-17T09:27:34.849Z</time>
      </trkpt>
      <trkpt lat="46.09539" lon="4.61824">
        <ele>631.450866699</ele>
        <time>2015-12-17T09:27:42.86Z</time>
      </trkpt>
      <trkpt lat="46.09537" lon="4.61823">
        <ele>631.487121582</ele>
        <time>2015-12-17T09:27:43.849Z</time>
      </trkpt>
      <trkpt lat="46.0953" lon="4.61817">
        <ele>631.332885742</ele>
        <time>2015-12-17T09:27:52.869Z</time>
      </trkpt>
      <trkpt lat="46.09529" lon="4.61815">
        <ele>631.355712891</ele>
        <time>2015-12-17T09:27:53.855Z</time>
      </trkpt>
      <trkpt lat="46.09522" lon="4.61809">
        <ele>631.642272949</ele>
        <time>2015-12-17T09:28:01.863Z</time>
      </trkpt>
      <trkpt lat="46.09521" lon="4.61809">
        <ele>631.655700684</ele>
        <time>2015-12-17T09:28:02.853Z</time>
      </trkpt>
      <trkpt lat="46.09513" lon="4.61803">
        <ele>632.034729004</ele>
        <time>2015-12-17T09:28:11.864Z</time>
      </trkpt>
      <trkpt lat="46.09512" lon="4.61803">
        <ele>632.0859375</ele>
        <time>2015-12-17T09:28:12.851Z</time>
      </trkpt>
      <trkpt lat="46.09505" lon="4.61796">
        <ele>633.307373047</ele>
        <time>2015-12-17T09:28:23.976Z</time>
      </trkpt>
      <trkpt lat="46.09504" lon="4.61795">
        <ele>633.441162109</ele>
        <time>2015-12-17T09:28:24.852Z</time>
      </trkpt>
      <trkpt lat="46.09496" lon="4.6179">
        <ele>634.604614258</ele>
        <time>2015-12-17T09:28:35.868Z</time>
      </trkpt>
      <trkpt lat="46.09496" lon="4.6179">
        <ele>634.708129883</ele>
        <time>2015-12-17T09:28:36.853Z</time>
      </trkpt>
      <trkpt lat="46.09488" lon="4.61786">
        <ele>638.600891113</ele>
        <time>2015-12-17T09:29:04.88Z</time>
      </trkpt>
      <trkpt lat="46.09487" lon="4.61786">
        <ele>638.770751953</ele>
        <time>2015-12-17T09:29:05.856Z</time>
      </trkpt>
      <trkpt lat="46.09478" lon="4.61783">
        <ele>641.803161621</ele>
        <time>2015-12-17T09:29:21.871Z</time>
      </trkpt>
      <trkpt lat="46.09477" lon="4.61783">
        <ele>642.035461426</ele>
        <time>2015-12-17T09:29:22.857Z</time>
      </trkpt>
      <trkpt lat="46.0947" lon="4.61778">
        <ele>644.972351074</ele>
        <time>2015-12-17T09:29:34.869Z</time>
      </trkpt>
      <trkpt lat="46.09469" lon="4.61776">
        <ele>645.077392578</ele>
        <time>2015-12-17T09:29:35.858Z</time>
      </trkpt>
      <trkpt lat="46.09461" lon="4.61769">
        <ele>646.34942627</ele>
        <time>2015-12-17T09:29:42.87Z</time>
      </trkpt>
      <trkpt lat="46.0946" lon="4.61769">
        <ele>646.574035645</ele>
        <time>2015-12-17T09:29:43.858Z</time>
      </trkpt>
      <trkpt lat="46.09453" lon="4.61763">
        <ele>648.483642578</ele>
        <time>2015-12-17T09:29:56.872Z</time>
      </trkpt>
      <trkpt lat="46.09453" lon="4.61762">
        <ele>648.596252441</ele>
        <time>2015-12-17T09:29:57.859Z</time>
      </trkpt>
      <trkpt lat="46.09446" lon="4.61754">
        <ele>649.767456055</ele>
        <time>2015-12-17T09:30:07.95Z</time>
      </trkpt>
      <trkpt lat="46.09445" lon="4.61754">
        <ele>649.933654785</ele>
        <time>2015-12-17T09:30:08.86Z</time>
      </trkpt>
      <trkpt lat="46.09439" lon="4.61746">
        <ele>651.408752441</ele>
        <time>2015-12-17T09:30:19.846Z</time>
      </trkpt>
      <trkpt lat="46.09438" lon="4.61745">
        <ele>651.532897949</ele>
        <time>2015-12-17T09:30:20.835Z</time>
      </trkpt>
      <trkpt lat="46.0943" lon="4.6174">
        <ele>652.454101562</ele>
        <time>2015-12-17T09:30:28.849Z</time>
      </trkpt>
      <trkpt lat="46.09429" lon="4.61739">
        <ele>652.590698242</ele>
        <time>2015-12-17T09:30:29.838Z</time>
      </trkpt>
      <trkpt lat="46.09422" lon="4.61733">
        <ele>654.058654785</ele>
        <time>2015-12-17T09:30:38.849Z</time>
      </trkpt>
      <trkpt lat="46.09422" lon="4.61732">
        <ele>654.216918945</ele>
        <time>2015-12-17T09:30:39.838Z</time>
      </trkpt>
      <trkpt lat="46.09415" lon="4.61725">
        <ele>655.245605469</ele>
        <time>2015-12-17T09:30:47.852Z</time>
      </trkpt>
      <trkpt lat="46.09414" lon="4.61724">
        <ele>655.357971191</ele>
        <time>2015-12-17T09:30:48.838Z</time>
      </trkpt>
      <trkpt lat="46.09406" lon="4.61718">
        <ele>656.447509766</ele>
        <time>2015-12-17T09:30:55.886Z</time>
      </trkpt>
      <trkpt lat="46.09405" lon="4.61717">
        <ele>656.593566895</ele>
        <time>2015-12-17T09:30:56.839Z</time>
      </trkpt>
      <trkpt lat="46.094" lon="4.61709">
        <ele>657.834899902</ele>
        <time>2015-12-17T09:31:03.851Z</time>
      </trkpt>
      <trkpt lat="46.09399" lon="4.61708">
        <ele>658.000671387</ele>
        <time>2015-12-17T09:31:04.839Z</time>
      </trkpt>
      <trkpt lat="46.09392" lon="4.61702">
        <ele>659.19342041</ele>
        <time>2015-12-17T09:31:13.851Z</time>
      </trkpt>
      <trkpt lat="46.09391" lon="4.61702">
        <ele>659.274780273</ele>
        <time>2015-12-17T09:31:14.839Z</time>
      </trkpt>
      <trkpt lat="46.09383" lon="4.61694">
        <ele>660.283996582</ele>
        <time>2015-12-17T09:31:23.855Z</time>
      </trkpt>
      <trkpt lat="46.09383" lon="4.61694">
        <ele>660.403930664</ele>
        <time>2015-12-17T09:31:24.84Z</time>
      </trkpt>
      <trkpt lat="46.09376" lon="4.61685">
        <ele>661.505432129</ele>
        <time>2015-12-17T09:31:32.86Z</time>
      </trkpt>
      <trkpt lat="46.09376" lon="4.61684">
        <ele>661.565246582</ele>
        <time>2015-12-17T09:31:33.841Z</time>
      </trkpt>
      <trkpt lat="46.09368" lon="4.61677">
        <ele>662.812561035</ele>
        <time>2015-12-17T09:31:41.858Z</time>
      </trkpt>
      <trkpt lat="46.09367" lon="4.61676">
        <ele>662.970703125</ele>
        <time>2015-12-17T09:31:42.842Z</time>
      </trkpt>
      <trkpt lat="46.0936" lon="4.61668">
        <ele>664.09375</ele>
        <time>2015-12-17T09:31:52.858Z</time>
      </trkpt>
      <trkpt lat="46.09359" lon="4.61667">
        <ele>664.18157959</ele>
        <time>2015-12-17T09:31:53.846Z</time>
      </trkpt>
      <trkpt lat="46.09351" lon="4.61662">
        <ele>665.555786133</ele>
        <time>2015-12-17T09:32:02.864Z</time>
      </trkpt>
      <trkpt lat="46.0935" lon="4.61661">
        <ele>665.649230957</ele>
        <time>2015-12-17T09:32:03.846Z</time>
      </trkpt>
      <trkpt lat="46.09342" lon="4.61655">
        <ele>666.913085938</ele>
        <time>2015-12-17T09:32:11.862Z</time>
      </trkpt>
      <trkpt lat="46.09341" lon="4.61654">
        <ele>667.091064453</ele>
        <time>2015-12-17T09:32:12.845Z</time>
      </trkpt>
      <trkpt lat="46.09333" lon="4.61648">
        <ele>668.276489258</ele>
        <time>2015-12-17T09:32:21.857Z</time>
      </trkpt>
      <trkpt lat="46.09333" lon="4.61647">
        <ele>668.379272461</ele>
        <time>2015-12-17T09:32:22.845Z</time>
      </trkpt>
      <trkpt lat="46.09325" lon="4.6164">
        <ele>669.005737305</ele>
        <time>2015-12-17T09:32:28.861Z</time>
      </trkpt>
      <trkpt lat="46.09324" lon="4.61639">
        <ele>669.137451172</ele>
        <time>2015-12-17T09:32:29.845Z</time>
      </trkpt>
      <trkpt lat="46.09316" lon="4.61633">
        <ele>670.050537109</ele>
        <time>2015-12-17T09:32:37.866Z</time>
      </trkpt>
      <trkpt lat="46.09315" lon="4.61633">
        <ele>670.202087402</ele>
        <time>2015-12-17T09:32:38.846Z</time>
      </trkpt>
      <trkpt lat="46.09309" lon="4.61625">
        <ele>670.895568848</ele>
        <time>2015-12-17T09:32:45.855Z</time>
      </trkpt>
      <trkpt lat="46.09307" lon="4.61624">
        <ele>671.041442871</ele>
        <time>2015-12-17T09:32:46.847Z</time>
      </trkpt>
      <trkpt lat="46.093" lon="4.61618">
        <ele>672.047729492</ele>
        <time>2015-12-17T09:32:53.861Z</time>
      </trkpt>
      <trkpt lat="46.09299" lon="4.61617">
        <ele>672.178466797</ele>
        <time>2015-12-17T09:32:54.852Z</time>
      </trkpt>
      <trkpt lat="46.09292" lon="4.61613">
        <ele>673.158874512</ele>
        <time>2015-12-17T09:33:01.857Z</time>
      </trkpt>
      <trkpt lat="46.09291" lon="4.61612">
        <ele>673.291442871</ele>
        <time>2015-12-17T09:33:02.848Z</time>
      </trkpt>
      <trkpt lat="46.09283" lon="4.61608">
        <ele>673.933227539</ele>
        <time>2015-12-17T09:33:09.858Z</time>
      </trkpt>
      <trkpt lat="46.09282" lon="4.61607">
        <ele>674.084899902</ele>
        <time>2015-12-17T09:33:10.848Z</time>
      </trkpt>
      <trkpt lat="46.09275" lon="4.61603">
        <ele>675.009521484</ele>
        <time>2015-12-17T09:33:19.861Z</time>
      </trkpt>
      <trkpt lat="46.09274" lon="4.61603">
        <ele>675.12322998</ele>
        <time>2015-12-17T09:33:20.852Z</time>
      </trkpt>
      <trkpt lat="46.09266" lon="4.61597">
        <ele>675.908813477</ele>
        <time>2015-12-17T09:33:26.91Z</time>
      </trkpt>
      <trkpt lat="46.09265" lon="4.61597">
        <ele>676.055786133</ele>
        <time>2015-12-17T09:33:27.85Z</time>
      </trkpt>
      <trkpt lat="46.09258" lon="4.61592">
        <ele>676.789428711</ele>
        <time>2015-12-17T09:33:34.861Z</time>
      </trkpt>
      <trkpt lat="46.09256" lon="4.6159">
        <ele>676.884094238</ele>
        <time>2015-12-17T09:33:35.851Z</time>
      </trkpt>
      <trkpt lat="46.09248" lon="4.61585">
        <ele>679.323181152</ele>
        <time>2015-12-17T09:34:43.87Z</time>
      </trkpt>
      <trkpt lat="46.09248" lon="4.61585">
        <ele>679.331359863</ele>
        <time>2015-12-17T09:34:44.856Z</time>
      </trkpt>
      <trkpt lat="46.0924" lon="4.61585">
        <ele>681.708740234</ele>
        <time>2015-12-17T09:36:14.851Z</time>
      </trkpt>
      <trkpt lat="46.09238" lon="4.61585">
        <ele>681.783813477</ele>
        <time>2015-12-17T09:36:15.838Z</time>
      </trkpt>
      <trkpt lat="46.0923" lon="4.61588">
        <ele>682.326965332</ele>
        <time>2015-12-17T09:36:22.849Z</time>
      </trkpt>
      <trkpt lat="46.09229" lon="4.61589">
        <ele>682.322937012</ele>
        <time>2015-12-17T09:36:23.839Z</time>
      </trkpt>
      <trkpt lat="46.0922" lon="4.61589">
        <ele>682.89654541</ele>
        <time>2015-12-17T09:36:31.927Z</time>
      </trkpt>
      <trkpt lat="46.09219" lon="4.6159">
        <ele>682.93182373</ele>
        <time>2015-12-17T09:36:32.839Z</time>
      </trkpt>
      <trkpt lat="46.09211" lon="4.61591">
        <ele>682.938232422</ele>
        <time>2015-12-17T09:36:40.018Z</time>
      </trkpt>
      <trkpt lat="46.0921" lon="4.61591">
        <ele>682.932312012</ele>
        <time>2015-12-17T09:36:40.839Z</time>
      </trkpt>
      <trkpt lat="46.09201" lon="4.61593">
        <ele>683.028381348</ele>
        <time>2015-12-17T09:36:47.856Z</time>
      </trkpt>
      <trkpt lat="46.092" lon="4.61593">
        <ele>682.93157959</ele>
        <time>2015-12-17T09:36:48.839Z</time>
      </trkpt>
      <trkpt lat="46.09192" lon="4.61595">
        <ele>682.942504883</ele>
        <time>2015-12-17T09:36:56.852Z</time>
      </trkpt>
      <trkpt lat="46.09191" lon="4.61595">
        <ele>682.911560059</ele>
        <time>2015-12-17T09:36:57.845Z</time>
      </trkpt>
      <trkpt lat="46.09182" lon="4.61596">
        <ele>682.753234863</ele>
        <time>2015-12-17T09:37:04.855Z</time>
      </trkpt>
      <trkpt lat="46.09181" lon="4.61597">
        <ele>682.724853516</ele>
        <time>2015-12-17T09:37:05.842Z</time>
      </trkpt>
      <trkpt lat="46.09173" lon="4.61602">
        <ele>682.588684082</ele>
        <time>2015-12-17T09:37:12.859Z</time>
      </trkpt>
      <trkpt lat="46.09172" lon="4.61603">
        <ele>682.538574219</ele>
        <time>2015-12-17T09:37:13.844Z</time>
      </trkpt>
      <trkpt lat="46.09164" lon="4.61605">
        <ele>682.214477539</ele>
        <time>2015-12-17T09:37:19.858Z</time>
      </trkpt>
      <trkpt lat="46.09162" lon="4.61606">
        <ele>682.087219238</ele>
        <time>2015-12-17T09:37:20.845Z</time>
      </trkpt>
      <trkpt lat="46.09154" lon="4.6161">
        <ele>681.307250977</ele>
        <time>2015-12-17T09:37:29.856Z</time>
      </trkpt>
      <trkpt lat="46.09153" lon="4.61611">
        <ele>681.11315918</ele>
        <time>2015-12-17T09:37:30.847Z</time>
      </trkpt>
      <trkpt lat="46.09145" lon="4.61615">
        <ele>680.434082031</ele>
        <time>2015-12-17T09:37:37.855Z</time>
      </trkpt>
      <trkpt lat="46.09144" lon="4.61616">
        <ele>680.281921387</ele>
        <time>2015-12-17T09:37:38.843Z</time>
      </trkpt>
      <trkpt lat="46.09136" lon="4.61621">
        <ele>679.608154297</ele>
        <time>2015-12-17T09:37:44.858Z</time>
      </trkpt>
      <trkpt lat="46.09135" lon="4.61622">
        <ele>679.45892334</ele>
        <time>2015-12-17T09:37:45.845Z</time>
      </trkpt>
      <trkpt lat="46.09128" lon="4.61625">
        <ele>678.49206543</ele>
        <time>2015-12-17T09:37:50.855Z</time>
      </trkpt>
      <trkpt lat="46.09126" lon="4.61625">
        <ele>678.287536621</ele>
        <time>2015-12-17T09:37:51.845Z</time>
      </trkpt>
      <trkpt lat="46.09118" lon="4.61627">
        <ele>676.953552246</ele>
        <time>2015-12-17T09:37:59.859Z</time>
      </trkpt>
      <trkpt lat="46.09117" lon="4.61627">
        <ele>676.917724609</ele>
        <time>2015-12-17T09:38:00.847Z</time>
      </trkpt>
      <trkpt lat="46.0911" lon="4.61635">
        <ele>675.09979248</ele>
        <time>2015-12-17T09:38:11.861Z</time>
      </trkpt>
      <trkpt lat="46.0911" lon="4.61636">
        <ele>674.844970703</ele>
        <time>2015-12-17T09:38:12.847Z</time>
      </trkpt>
      <trkpt lat="46.09102" lon="4.61639">
        <ele>673.760314941</ele>
        <time>2015-12-17T09:38:17.86Z</time>
      </trkpt>
      <trkpt lat="46.09101" lon="4.6164">
        <ele>673.526489258</ele>
        <time>2015-12-17T09:38:18.848Z</time>
      </trkpt>
      <trkpt lat="46.09094" lon="4.61644">
        <ele>671.722412109</ele>
        <time>2015-12-17T09:38:27.857Z</time>
      </trkpt>
      <trkpt lat="46.09092" lon="4.61645">
        <ele>671.502624512</ele>
        <time>2015-12-17T09:38:28.848Z</time>
      </trkpt>
      <trkpt lat="46.09084" lon="4.61646">
        <ele>670.147094727</ele>
        <time>2015-12-17T09:38:34.861Z</time>
      </trkpt>
      <trkpt lat="46.09082" lon="4.61647">
        <ele>669.874633789</ele>
        <time>2015-12-17T09:38:35.848Z</time>
      </trkpt>
      <trkpt lat="46.09075" lon="4.61654">
        <ele>668.077880859</ele>
        <time>2015-12-17T09:38:43.04Z</time>
      </trkpt>
      <trkpt lat="46.09074" lon="4.61655">
        <ele>667.869567871</ele>
        <time>2015-12-17T09:38:43.848Z</time>
      </trkpt>
      <trkpt lat="46.09066" lon="4.6166">
        <ele>666.331604004</ele>
        <time>2015-12-17T09:38:49.868Z</time>
      </trkpt>
      <trkpt lat="46.09065" lon="4.6166">
        <ele>666.089111328</ele>
        <time>2015-12-17T09:38:50.849Z</time>
      </trkpt>
      <trkpt lat="46.09057" lon="4.61657">
        <ele>664.128662109</ele>
        <time>2015-12-17T09:38:59.86Z</time>
      </trkpt>
      <trkpt lat="46.09056" lon="4.61657">
        <ele>664.03137207</ele>
        <time>2015-12-17T09:39:00.849Z</time>
      </trkpt>
      <trkpt lat="46.09048" lon="4.61655">
        <ele>663.601745605</ele>
        <time>2015-12-17T09:39:04.867Z</time>
      </trkpt>
      <trkpt lat="46.09046" lon="4.61655">
        <ele>663.505981445</ele>
        <time>2015-12-17T09:39:05.85Z</time>
      </trkpt>
      <trkpt lat="46.09038" lon="4.61654">
        <ele>662.990844727</ele>
        <time>2015-12-17T09:39:11.865Z</time>
      </trkpt>
      <trkpt lat="46.09037" lon="4.61653">
        <ele>662.975219727</ele>
        <time>2015-12-17T09:39:12.858Z</time>
      </trkpt>
      <trkpt lat="46.09028" lon="4.61653">
        <ele>662.70300293</ele>
        <time>2015-12-17T09:39:18.863Z</time>
      </trkpt>
      <trkpt lat="46.09027" lon="4.61653">
        <ele>662.671081543</ele>
        <time>2015-12-17T09:39:19.851Z</time>
      </trkpt>
      <trkpt lat="46.09019" lon="4.61654">
        <ele>661.94342041</ele>
        <time>2015-12-17T09:39:36.867Z</time>
      </trkpt>
      <trkpt lat="46.09018" lon="4.61655">
        <ele>661.993347168</ele>
        <time>2015-12-17T09:39:37.853Z</time>
      </trkpt>
      <trkpt lat="46.09009" lon="4.61657">
        <ele>664.225280762</ele>
        <time>2015-12-17T09:39:50.867Z</time>
      </trkpt>
      <trkpt lat="46.09009" lon="4.61658">
        <ele>664.380737305</ele>
        <time>2015-12-17T09:39:51.857Z</time>
      </trkpt>
      <trkpt lat="46.09" lon="4.6166">
        <ele>664.688537598</ele>
        <time>2015-12-17T09:39:57.867Z</time>
      </trkpt>
      <trkpt lat="46.08998" lon="4.61661">
        <ele>664.705688477</ele>
        <time>2015-12-17T09:39:58.866Z</time>
      </trkpt>
      <trkpt lat="46.0899" lon="4.61661">
        <ele>664.799499512</ele>
        <time>2015-12-17T09:40:04.069Z</time>
      </trkpt>
      <trkpt lat="46.08989" lon="4.61661">
        <ele>664.799987793</ele>
        <time>2015-12-17T09:40:04.854Z</time>
      </trkpt>
      <trkpt lat="46.0898" lon="4.61662">
        <ele>665.255065918</ele>
        <time>2015-12-17T09:40:11.869Z</time>
      </trkpt>
      <trkpt lat="46.08979" lon="4.61662">
        <ele>665.343994141</ele>
        <time>2015-12-17T09:40:12.855Z</time>
      </trkpt>
      <trkpt lat="46.0897" lon="4.61661">
        <ele>665.491882324</ele>
        <time>2015-12-17T09:40:17.87Z</time>
      </trkpt>
      <trkpt lat="46.08969" lon="4.6166">
        <ele>665.474365234</ele>
        <time>2015-12-17T09:40:18.861Z</time>
      </trkpt>
      <trkpt lat="46.0896" lon="4.61657">
        <ele>664.867797852</ele>
        <time>2015-12-17T09:40:27.871Z</time>
      </trkpt>
      <trkpt lat="46.08959" lon="4.61656">
        <ele>664.779541016</ele>
        <time>2015-12-17T09:40:28.858Z</time>
      </trkpt>
      <trkpt lat="46.08952" lon="4.61653">
        <ele>664.500671387</ele>
        <time>2015-12-17T09:40:32.87Z</time>
      </trkpt>
      <trkpt lat="46.0895" lon="4.61652">
        <ele>664.46661377</ele>
        <time>2015-12-17T09:40:33.856Z</time>
      </trkpt>
      <trkpt lat="46.08942" lon="4.61649">
        <ele>664.311340332</ele>
        <time>2015-12-17T09:40:38.874Z</time>
      </trkpt>
      <trkpt lat="46.08941" lon="4.61648">
        <ele>664.281494141</ele>
        <time>2015-12-17T09:40:39.856Z</time>
      </trkpt>
      <trkpt lat="46.08933" lon="4.61643">
        <ele>663.487609863</ele>
        <time>2015-12-17T09:40:47.845Z</time>
      </trkpt>
      <trkpt lat="46.08932" lon="4.61642">
        <ele>663.285095215</ele>
        <time>2015-12-17T09:40:48.834Z</time>
      </trkpt>
      <trkpt lat="46.08924" lon="4.61638">
        <ele>662.473205566</ele>
        <time>2015-12-17T09:40:52.846Z</time>
      </trkpt>
      <trkpt lat="46.08923" lon="4.61638">
        <ele>662.268005371</ele>
        <time>2015-12-17T09:40:53.832Z</time>
      </trkpt>
      <trkpt lat="46.08916" lon="4.61633">
        <ele>661.757446289</ele>
        <time>2015-12-17T09:40:58.847Z</time>
      </trkpt>
      <trkpt lat="46.08915" lon="4.61632">
        <ele>661.731872559</ele>
        <time>2015-12-17T09:40:59.833Z</time>
      </trkpt>
      <trkpt lat="46.08908" lon="4.61626">
        <ele>661.211364746</ele>
        <time>2015-12-17T09:41:04.847Z</time>
      </trkpt>
      <trkpt lat="46.08907" lon="4.61625">
        <ele>661.187133789</ele>
        <time>2015-12-17T09:41:05.834Z</time>
      </trkpt>
      <trkpt lat="46.08899" lon="4.61618">
        <ele>660.637390137</ele>
        <time>2015-12-17T09:41:11.851Z</time>
      </trkpt>
      <trkpt lat="46.08898" lon="4.61616">
        <ele>660.544250488</ele>
        <time>2015-12-17T09:41:12.835Z</time>
      </trkpt>
      <trkpt lat="46.08891" lon="4.61608">
        <ele>659.913818359</ele>
        <time>2015-12-17T09:41:19.848Z</time>
      </trkpt>
      <trkpt lat="46.08889" lon="4.61605">
        <ele>659.810852051</ele>
        <time>2015-12-17T09:41:20.838Z</time>
      </trkpt>
      <trkpt lat="46.08883" lon="4.61597">
        <ele>659.550415039</ele>
        <time>2015-12-17T09:41:30.855Z</time>
      </trkpt>
      <trkpt lat="46.08883" lon="4.61596">
        <ele>659.506713867</ele>
        <time>2015-12-17T09:41:31.848Z</time>
      </trkpt>
      <trkpt lat="46.08876" lon="4.6159">
        <ele>658.806945801</ele>
        <time>2015-12-17T09:41:59.007Z</time>
      </trkpt>
      <trkpt lat="46.08875" lon="4.61589">
        <ele>658.809326172</ele>
        <time>2015-12-17T09:41:59.837Z</time>
      </trkpt>
      <trkpt lat="46.08869" lon="4.6158">
        <ele>658.675842285</ele>
        <time>2015-12-17T09:42:06.85Z</time>
      </trkpt>
      <trkpt lat="46.08868" lon="4.6158">
        <ele>658.692565918</ele>
        <time>2015-12-17T09:42:07.839Z</time>
      </trkpt>
      <trkpt lat="46.08863" lon="4.61572">
        <ele>659.132507324</ele>
        <time>2015-12-17T09:42:15.849Z</time>
      </trkpt>
      <trkpt lat="46.08861" lon="4.61571">
        <ele>659.213378906</ele>
        <time>2015-12-17T09:42:16.838Z</time>
      </trkpt>
      <trkpt lat="46.08854" lon="4.61567">
        <ele>659.636474609</ele>
        <time>2015-12-17T09:42:21.854Z</time>
      </trkpt>
      <trkpt lat="46.08853" lon="4.61564">
        <ele>659.647216797</ele>
        <time>2015-12-17T09:42:22.84Z</time>
      </trkpt>
      <trkpt lat="46.08848" lon="4.61555">
        <ele>659.384094238</ele>
        <time>2015-12-17T09:42:27.852Z</time>
      </trkpt>
      <trkpt lat="46.08847" lon="4.61554">
        <ele>659.376708984</ele>
        <time>2015-12-17T09:42:28.84Z</time>
      </trkpt>
      <trkpt lat="46.08841" lon="4.61544">
        <ele>658.988647461</ele>
        <time>2015-12-17T09:42:35.857Z</time>
      </trkpt>
      <trkpt lat="46.0884" lon="4.61543">
        <ele>658.986816406</ele>
        <time>2015-12-17T09:42:36.844Z</time>
      </trkpt>
      <trkpt lat="46.08835" lon="4.61533">
        <ele>659.171630859</ele>
        <time>2015-12-17T09:42:42.854Z</time>
      </trkpt>
      <trkpt lat="46.08834" lon="4.61531">
        <ele>659.183044434</ele>
        <time>2015-12-17T09:42:43.841Z</time>
      </trkpt>
      <trkpt lat="46.08828" lon="4.61522">
        <ele>659.417724609</ele>
        <time>2015-12-17T09:42:50.857Z</time>
      </trkpt>
      <trkpt lat="46.08827" lon="4.61521">
        <ele>659.432495117</ele>
        <time>2015-12-17T09:42:51.846Z</time>
      </trkpt>
      <trkpt lat="46.0882" lon="4.61515">
        <ele>659.641845703</ele>
        <time>2015-12-17T09:42:59.859Z</time>
      </trkpt>
      <trkpt lat="46.08819" lon="4.61514">
        <ele>659.615600586</ele>
        <time>2015-12-17T09:43:00.843Z</time>
      </trkpt>
      <trkpt lat="46.08813" lon="4.61506">
        <ele>659.866333008</ele>
        <time>2015-12-17T09:43:07.854Z</time>
      </trkpt>
      <trkpt lat="46.08812" lon="4.61504">
        <ele>659.915893555</ele>
        <time>2015-12-17T09:43:08.847Z</time>
      </trkpt>
      <trkpt lat="46.08805" lon="4.61497">
        <ele>660.264587402</ele>
        <time>2015-12-17T09:43:15.856Z</time>
      </trkpt>
      <trkpt lat="46.08804" lon="4.61496">
        <ele>660.323486328</ele>
        <time>2015-12-17T09:43:16.842Z</time>
      </trkpt>
      <trkpt lat="46.08798" lon="4.61487">
        <ele>660.810058594</ele>
        <time>2015-12-17T09:43:25.869Z</time>
      </trkpt>
      <trkpt lat="46.08797" lon="4.61486">
        <ele>660.826843262</ele>
        <time>2015-12-17T09:43:26.844Z</time>
      </trkpt>
      <trkpt lat="46.08792" lon="4.61481">
        <ele>660.918395996</ele>
        <time>2015-12-17T09:43:30.86Z</time>
      </trkpt>
      <trkpt lat="46.08789" lon="4.61479">
        <ele>660.942687988</ele>
        <time>2015-12-17T09:43:31.845Z</time>
      </trkpt>
      <trkpt lat="46.08784" lon="4.6147">
        <ele>660.889953613</ele>
        <time>2015-12-17T09:43:37.857Z</time>
      </trkpt>
      <trkpt lat="46.08783" lon="4.61468">
        <ele>660.86706543</ele>
        <time>2015-12-17T09:43:38.844Z</time>
      </trkpt>
      <trkpt lat="46.08778" lon="4.61459">
        <ele>660.775146484</ele>
        <time>2015-12-17T09:43:45.858Z</time>
      </trkpt>
      <trkpt lat="46.08777" lon="4.61457">
        <ele>660.783691406</ele>
        <time>2015-12-17T09:43:46.845Z</time>
      </trkpt>
      <trkpt lat="46.08772" lon="4.61447">
        <ele>660.826171875</ele>
        <time>2015-12-17T09:43:53.878Z</time>
      </trkpt>
      <trkpt lat="46.08772" lon="4.61445">
        <ele>660.860534668</ele>
        <time>2015-12-17T09:43:54.844Z</time>
      </trkpt>
      <trkpt lat="46.08768" lon="4.61436">
        <ele>661.144042969</ele>
        <time>2015-12-17T09:44:00.866Z</time>
      </trkpt>
      <trkpt lat="46.08766" lon="4.61434">
        <ele>661.101074219</ele>
        <time>2015-12-17T09:44:01.847Z</time>
      </trkpt>
      <trkpt lat="46.0876" lon="4.61425">
        <ele>660.828857422</ele>
        <time>2015-12-17T09:44:07.865Z</time>
      </trkpt>
      <trkpt lat="46.08759" lon="4.61424">
        <ele>660.796020508</ele>
        <time>2015-12-17T09:44:08.847Z</time>
      </trkpt>
      <trkpt lat="46.08752" lon="4.61417">
        <ele>660.764404297</ele>
        <time>2015-12-17T09:44:16.86Z</time>
      </trkpt>
      <trkpt lat="46.08751" lon="4.61416">
        <ele>660.719604492</ele>
        <time>2015-12-17T09:44:17.848Z</time>
      </trkpt>
      <trkpt lat="46.08746" lon="4.61408">
        <ele>660.311645508</ele>
        <time>2015-12-17T09:44:24.862Z</time>
      </trkpt>
      <trkpt lat="46.08744" lon="4.61405">
        <ele>660.34375</ele>
        <time>2015-12-17T09:44:25.848Z</time>
      </trkpt>
      <trkpt lat="46.08738" lon="4.61396">
        <ele>660.229980469</ele>
        <time>2015-12-17T09:44:31.864Z</time>
      </trkpt>
      <trkpt lat="46.08737" lon="4.61395">
        <ele>660.17376709</ele>
        <time>2015-12-17T09:44:32.849Z</time>
      </trkpt>
      <trkpt lat="46.08731" lon="4.61385">
        <ele>660.191833496</ele>
        <time>2015-12-17T09:44:38.86Z</time>
      </trkpt>
      <trkpt lat="46.08729" lon="4.61384">
        <ele>660.221191406</ele>
        <time>2015-12-17T09:44:39.849Z</time>
      </trkpt>
      <trkpt lat="46.0872" lon="4.6138">
        <ele>660.824707031</ele>
        <time>2015-12-17T09:44:48.86Z</time>
      </trkpt>
      <trkpt lat="46.08719" lon="4.6138">
        <ele>660.948730469</ele>
        <time>2015-12-17T09:44:49.856Z</time>
      </trkpt>
      <trkpt lat="46.08712" lon="4.61375">
        <ele>661.418579102</ele>
        <time>2015-12-17T09:44:56.864Z</time>
      </trkpt>
      <trkpt lat="46.0871" lon="4.61374">
        <ele>661.454467773</ele>
        <time>2015-12-17T09:44:57.851Z</time>
      </trkpt>
      <trkpt lat="46.08702" lon="4.61369">
        <ele>662.141479492</ele>
        <time>2015-12-17T09:45:04.861Z</time>
      </trkpt>
      <trkpt lat="46.08701" lon="4.61368">
        <ele>662.221801758</ele>
        <time>2015-12-17T09:45:05.853Z</time>
      </trkpt>
      <trkpt lat="46.08694" lon="4.61364">
        <ele>662.572692871</ele>
        <time>2015-12-17T09:45:11.865Z</time>
      </trkpt>
      <trkpt lat="46.08693" lon="4.61363">
        <ele>662.644287109</ele>
        <time>2015-12-17T09:45:12.853Z</time>
      </trkpt>
      <trkpt lat="46.08686" lon="4.61355">
        <ele>663.616516113</ele>
        <time>2015-12-17T09:45:21.883Z</time>
      </trkpt>
      <trkpt lat="46.08685" lon="4.61355">
        <ele>663.734558105</ele>
        <time>2015-12-17T09:45:22.852Z</time>
      </trkpt>
      <trkpt lat="46.08679" lon="4.61348">
        <ele>664.047851562</ele>
        <time>2015-12-17T09:45:29.873Z</time>
      </trkpt>
      <trkpt lat="46.08678" lon="4.61348">
        <ele>664.061767578</ele>
        <time>2015-12-17T09:45:30.853Z</time>
      </trkpt>
      <trkpt lat="46.08672" lon="4.6134">
        <ele>664.224060059</ele>
        <time>2015-12-17T09:45:35.871Z</time>
      </trkpt>
      <trkpt lat="46.0867" lon="4.61337">
        <ele>664.266967773</ele>
        <time>2015-12-17T09:45:36.855Z</time>
      </trkpt>
      <trkpt lat="46.08666" lon="4.61328">
        <ele>664.537658691</ele>
        <time>2015-12-17T09:45:42.867Z</time>
      </trkpt>
      <trkpt lat="46.08665" lon="4.61326">
        <ele>664.61328125</ele>
        <time>2015-12-17T09:45:43.855Z</time>
      </trkpt>
      <trkpt lat="46.08661" lon="4.61315">
        <ele>664.811279297</ele>
        <time>2015-12-17T09:45:50.866Z</time>
      </trkpt>
      <trkpt lat="46.0866" lon="4.61314">
        <ele>664.853637695</ele>
        <time>2015-12-17T09:45:51.856Z</time>
      </trkpt>
      <trkpt lat="46.08655" lon="4.61305">
        <ele>665.053649902</ele>
        <time>2015-12-17T09:45:56.866Z</time>
      </trkpt>
      <trkpt lat="46.08654" lon="4.61302">
        <ele>665.064819336</ele>
        <time>2015-12-17T09:45:57.859Z</time>
      </trkpt>
      <trkpt lat="46.08648" lon="4.61295">
        <ele>665.036437988</ele>
        <time>2015-12-17T09:46:02.844Z</time>
      </trkpt>
      <trkpt lat="46.08647" lon="4.61294">
        <ele>664.967773438</ele>
        <time>2015-12-17T09:46:03.834Z</time>
      </trkpt>
      <trkpt lat="46.08641" lon="4.61285">
        <ele>665.048828125</ele>
        <time>2015-12-17T09:46:11.885Z</time>
      </trkpt>
      <trkpt lat="46.0864" lon="4.61283">
        <ele>665.061401367</ele>
        <time>2015-12-17T09:46:12.831Z</time>
      </trkpt>
      <trkpt lat="46.08635" lon="4.61273">
        <ele>665.205932617</ele>
        <time>2015-12-17T09:46:19.844Z</time>
      </trkpt>
      <trkpt lat="46.08634" lon="4.61272">
        <ele>665.223754883</ele>
        <time>2015-12-17T09:46:20.832Z</time>
      </trkpt>
      <trkpt lat="46.08631" lon="4.6126">
        <ele>665.29675293</ele>
        <time>2015-12-17T09:46:29.973Z</time>
      </trkpt>
      <trkpt lat="46.08631" lon="4.61258">
        <ele>665.307739258</ele>
        <time>2015-12-17T09:46:30.847Z</time>
      </trkpt>
      <trkpt lat="46.08629" lon="4.61248">
        <ele>665.59387207</ele>
        <time>2015-12-17T09:46:38.845Z</time>
      </trkpt>
      <trkpt lat="46.08629" lon="4.61246">
        <ele>665.687133789</ele>
        <time>2015-12-17T09:46:39.837Z</time>
      </trkpt>
      <trkpt lat="46.08627" lon="4.61234">
        <ele>665.923156738</ele>
        <time>2015-12-17T09:46:44.848Z</time>
      </trkpt>
      <trkpt lat="46.08627" lon="4.61231">
        <ele>665.920471191</ele>
        <time>2015-12-17T09:46:45.833Z</time>
      </trkpt>
      <trkpt lat="46.08626" lon="4.61219">
        <ele>666.450317383</ele>
        <time>2015-12-17T09:46:52.921Z</time>
      </trkpt>
      <trkpt lat="46.08626" lon="4.61217">
        <ele>666.552246094</ele>
        <time>2015-12-17T09:46:53.835Z</time>
      </trkpt>
      <trkpt lat="46.08624" lon="4.61207">
        <ele>666.751098633</ele>
        <time>2015-12-17T09:46:57.85Z</time>
      </trkpt>
      <trkpt lat="46.08623" lon="4.61204">
        <ele>666.791137695</ele>
        <time>2015-12-17T09:46:58.835Z</time>
      </trkpt>
      <trkpt lat="46.0862" lon="4.61193">
        <ele>667.390930176</ele>
        <time>2015-12-17T09:47:06.945Z</time>
      </trkpt>
      <trkpt lat="46.0862" lon="4.61191">
        <ele>667.445373535</ele>
        <time>2015-12-17T09:47:07.835Z</time>
      </trkpt>
      <trkpt lat="46.08617" lon="4.61179">
        <ele>667.664855957</ele>
        <time>2015-12-17T09:47:12.85Z</time>
      </trkpt>
      <trkpt lat="46.08617" lon="4.61178">
        <ele>667.721618652</ele>
        <time>2015-12-17T09:47:13.836Z</time>
      </trkpt>
      <trkpt lat="46.08615" lon="4.61167">
        <ele>668.491088867</ele>
        <time>2015-12-17T09:47:20.846Z</time>
      </trkpt>
      <trkpt lat="46.08615" lon="4.61165">
        <ele>668.578308105</ele>
        <time>2015-12-17T09:47:21.839Z</time>
      </trkpt>
      <trkpt lat="46.08612" lon="4.61154">
        <ele>669.17578125</ele>
        <time>2015-12-17T09:47:27.861Z</time>
      </trkpt>
      <trkpt lat="46.08611" lon="4.61152">
        <ele>669.195861816</ele>
        <time>2015-12-17T09:47:28.837Z</time>
      </trkpt>
      <trkpt lat="46.08609" lon="4.61141">
        <ele>669.658630371</ele>
        <time>2015-12-17T09:47:34.849Z</time>
      </trkpt>
      <trkpt lat="46.08608" lon="4.61139">
        <ele>669.739196777</ele>
        <time>2015-12-17T09:47:35.841Z</time>
      </trkpt>
      <trkpt lat="46.08605" lon="4.61129">
        <ele>670.103149414</ele>
        <time>2015-12-17T09:47:41.85Z</time>
      </trkpt>
      <trkpt lat="46.08605" lon="4.61127">
        <ele>670.125732422</ele>
        <time>2015-12-17T09:47:42.838Z</time>
      </trkpt>
      <trkpt lat="46.08603" lon="4.61116">
        <ele>670.028198242</ele>
        <time>2015-12-17T09:47:50.85Z</time>
      </trkpt>
      <trkpt lat="46.08602" lon="4.61113">
        <ele>669.976379395</ele>
        <time>2015-12-17T09:47:51.839Z</time>
      </trkpt>
      <trkpt lat="46.08599" lon="4.61102">
        <ele>669.513000488</ele>
        <time>2015-12-17T09:47:56.859Z</time>
      </trkpt>
      <trkpt lat="46.08599" lon="4.611">
        <ele>669.447692871</ele>
        <time>2015-12-17T09:47:57.841Z</time>
      </trkpt>
      <trkpt lat="46.08596" lon="4.61088">
        <ele>669.098571777</ele>
        <time>2015-12-17T09:48:03.857Z</time>
      </trkpt>
      <trkpt lat="46.08595" lon="4.61085">
        <ele>669.067138672</ele>
        <time>2015-12-17T09:48:04.841Z</time>
      </trkpt>
      <trkpt lat="46.08592" lon="4.61075">
        <ele>668.661010742</ele>
        <time>2015-12-17T09:48:08.921Z</time>
      </trkpt>
      <trkpt lat="46.08591" lon="4.61074">
        <ele>668.611633301</ele>
        <time>2015-12-17T09:48:09.84Z</time>
      </trkpt>
      <trkpt lat="46.08585" lon="4.61064">
        <ele>668.253234863</ele>
        <time>2015-12-17T09:48:15.857Z</time>
      </trkpt>
      <trkpt lat="46.08584" lon="4.61063">
        <ele>668.229003906</ele>
        <time>2015-12-17T09:48:16.842Z</time>
      </trkpt>
      <trkpt lat="46.08579" lon="4.61053">
        <ele>667.772583008</ele>
        <time>2015-12-17T09:48:25.852Z</time>
      </trkpt>
      <trkpt lat="46.08579" lon="4.61051">
        <ele>667.71673584</ele>
        <time>2015-12-17T09:48:26.841Z</time>
      </trkpt>
      <trkpt lat="46.08575" lon="4.61041">
        <ele>667.340576172</ele>
        <time>2015-12-17T09:48:32.853Z</time>
      </trkpt>
      <trkpt lat="46.08574" lon="4.6104">
        <ele>667.172363281</ele>
        <time>2015-12-17T09:48:33.846Z</time>
      </trkpt>
      <trkpt lat="46.08568" lon="4.61032">
        <ele>666.61126709</ele>
        <time>2015-12-17T09:48:39.854Z</time>
      </trkpt>
      <trkpt lat="46.08567" lon="4.61031">
        <ele>666.496520996</ele>
        <time>2015-12-17T09:48:40.842Z</time>
      </trkpt>
      <trkpt lat="46.08562" lon="4.61023">
        <ele>665.65802002</ele>
        <time>2015-12-17T09:48:47.855Z</time>
      </trkpt>
      <trkpt lat="46.08561" lon="4.61021">
        <ele>665.551147461</ele>
        <time>2015-12-17T09:48:48.853Z</time>
      </trkpt>
      <trkpt lat="46.08556" lon="4.61011">
        <ele>664.855163574</ele>
        <time>2015-12-17T09:48:55.854Z</time>
      </trkpt>
      <trkpt lat="46.08554" lon="4.6101">
        <ele>664.752075195</ele>
        <time>2015-12-17T09:48:56.844Z</time>
      </trkpt>
      <trkpt lat="46.08548" lon="4.61003">
        <ele>663.825927734</ele>
        <time>2015-12-17T09:49:03.857Z</time>
      </trkpt>
      <trkpt lat="46.08547" lon="4.61002">
        <ele>663.671875</ele>
        <time>2015-12-17T09:49:04.844Z</time>
      </trkpt>
      <trkpt lat="46.08543" lon="4.60991">
        <ele>662.476379395</ele>
        <time>2015-12-17T09:49:11.857Z</time>
      </trkpt>
      <trkpt lat="46.08542" lon="4.6099">
        <ele>662.321533203</ele>
        <time>2015-12-17T09:49:12.845Z</time>
      </trkpt>
      <trkpt lat="46.08536" lon="4.60981">
        <ele>661.010681152</ele>
        <time>2015-12-17T09:49:19.857Z</time>
      </trkpt>
      <trkpt lat="46.08536" lon="4.6098">
        <ele>660.826293945</ele>
        <time>2015-12-17T09:49:20.849Z</time>
      </trkpt>
      <trkpt lat="46.0853" lon="4.6097">
        <ele>659.308837891</ele>
        <time>2015-12-17T09:49:27.857Z</time>
      </trkpt>
      <trkpt lat="46.08529" lon="4.60969">
        <ele>659.115478516</ele>
        <time>2015-12-17T09:49:28.847Z</time>
      </trkpt>
      <trkpt lat="46.08525" lon="4.60959">
        <ele>658.006591797</ele>
        <time>2015-12-17T09:49:35.859Z</time>
      </trkpt>
      <trkpt lat="46.08524" lon="4.60957">
        <ele>657.848388672</ele>
        <time>2015-12-17T09:49:36.846Z</time>
      </trkpt>
      <trkpt lat="46.0852" lon="4.60948">
        <ele>657.05645752</ele>
        <time>2015-12-17T09:49:43.019Z</time>
      </trkpt>
      <trkpt lat="46.08519" lon="4.60945">
        <ele>656.915344238</ele>
        <time>2015-12-17T09:49:43.85Z</time>
      </trkpt>
      <trkpt lat="46.08514" lon="4.60937">
        <ele>655.892333984</ele>
        <time>2015-12-17T09:49:49.035Z</time>
      </trkpt>
      <trkpt lat="46.08513" lon="4.60935">
        <ele>655.647583008</ele>
        <time>2015-12-17T09:49:49.847Z</time>
      </trkpt>
      <trkpt lat="46.08507" lon="4.60927">
        <ele>654.231018066</ele>
        <time>2015-12-17T09:49:55.86Z</time>
      </trkpt>
      <trkpt lat="46.08506" lon="4.60925">
        <ele>653.944763184</ele>
        <time>2015-12-17T09:49:56.848Z</time>
      </trkpt>
      <trkpt lat="46.08501" lon="4.60917">
        <ele>652.924438477</ele>
        <time>2015-12-17T09:50:01.86Z</time>
      </trkpt>
      <trkpt lat="46.085" lon="4.60915">
        <ele>652.735961914</ele>
        <time>2015-12-17T09:50:02.847Z</time>
      </trkpt>
      <trkpt lat="46.08494" lon="4.60907">
        <ele>651.66418457</ele>
        <time>2015-12-17T09:50:08.863Z</time>
      </trkpt>
      <trkpt lat="46.08494" lon="4.60906">
        <ele>651.476989746</ele>
        <time>2015-12-17T09:50:09.849Z</time>
      </trkpt>
      <trkpt lat="46.08489" lon="4.60896">
        <ele>650.524719238</ele>
        <time>2015-12-17T09:50:14.866Z</time>
      </trkpt>
      <trkpt lat="46.08489" lon="4.60895">
        <ele>650.31854248</ele>
        <time>2015-12-17T09:50:15.849Z</time>
      </trkpt>
      <trkpt lat="46.08482" lon="4.60887">
        <ele>649.134155273</ele>
        <time>2015-12-17T09:50:22.859Z</time>
      </trkpt>
      <trkpt lat="46.0848" lon="4.60887">
        <ele>648.99597168</ele>
        <time>2015-12-17T09:50:23.85Z</time>
      </trkpt>
      <trkpt lat="46.08473" lon="4.60881">
        <ele>647.792053223</ele>
        <time>2015-12-17T09:50:30.862Z</time>
      </trkpt>
      <trkpt lat="46.08472" lon="4.6088">
        <ele>647.601379395</ele>
        <time>2015-12-17T09:50:31.85Z</time>
      </trkpt>
      <trkpt lat="46.08466" lon="4.60871">
        <ele>646.483886719</ele>
        <time>2015-12-17T09:50:37.862Z</time>
      </trkpt>
      <trkpt lat="46.08465" lon="4.6087">
        <ele>646.354187012</ele>
        <time>2015-12-17T09:50:38.85Z</time>
      </trkpt>
      <trkpt lat="46.08461" lon="4.6086">
        <ele>645.659179688</ele>
        <time>2015-12-17T09:50:43.864Z</time>
      </trkpt>
      <trkpt lat="46.0846" lon="4.60858">
        <ele>645.470947266</ele>
        <time>2015-12-17T09:50:44.852Z</time>
      </trkpt>
      <trkpt lat="46.08454" lon="4.60849">
        <ele>644.11529541</ele>
        <time>2015-12-17T09:50:50.864Z</time>
      </trkpt>
      <trkpt lat="46.08453" lon="4.60848">
        <ele>643.956359863</ele>
        <time>2015-12-17T09:50:51.851Z</time>
      </trkpt>
      <trkpt lat="46.0845" lon="4.60838">
        <ele>643.219177246</ele>
        <time>2015-12-17T09:50:57.865Z</time>
      </trkpt>
      <trkpt lat="46.08449" lon="4.60836">
        <ele>643.135375977</ele>
        <time>2015-12-17T09:50:58.856Z</time>
      </trkpt>
      <trkpt lat="46.08445" lon="4.60825">
        <ele>642.602172852</ele>
        <time>2015-12-17T09:51:04.863Z</time>
      </trkpt>
      <trkpt lat="46.08444" lon="4.60822">
        <ele>642.470397949</ele>
        <time>2015-12-17T09:51:05.852Z</time>
      </trkpt>
      <trkpt lat="46.08441" lon="4.60812">
        <ele>641.809753418</ele>
        <time>2015-12-17T09:51:11.865Z</time>
      </trkpt>
      <trkpt lat="46.0844" lon="4.6081">
        <ele>641.689697266</ele>
        <time>2015-12-17T09:51:12.854Z</time>
      </trkpt>
      <trkpt lat="46.08437" lon="4.60798">
        <ele>641.040527344</ele>
        <time>2015-12-17T09:51:18.839Z</time>
      </trkpt>
      <trkpt lat="46.08436" lon="4.60796">
        <ele>640.983825684</ele>
        <time>2015-12-17T09:51:19.829Z</time>
      </trkpt>
      <trkpt lat="46.0843" lon="4.60787">
        <ele>640.285400391</ele>
        <time>2015-12-17T09:51:26.844Z</time>
      </trkpt>
      <trkpt lat="46.0843" lon="4.60785">
        <ele>640.134338379</ele>
        <time>2015-12-17T09:51:27.829Z</time>
      </trkpt>
      <trkpt lat="46.08427" lon="4.60773">
        <ele>639.297241211</ele>
        <time>2015-12-17T09:51:33.843Z</time>
      </trkpt>
      <trkpt lat="46.08427" lon="4.60771">
        <ele>639.170471191</ele>
        <time>2015-12-17T09:51:34.83Z</time>
      </trkpt>
      <trkpt lat="46.08424" lon="4.60761">
        <ele>638.283874512</ele>
        <time>2015-12-17T09:51:41.027Z</time>
      </trkpt>
      <trkpt lat="46.08423" lon="4.60759">
        <ele>638.126220703</ele>
        <time>2015-12-17T09:51:41.83Z</time>
      </trkpt>
      <trkpt lat="46.0842" lon="4.60748">
        <ele>637.150512695</ele>
        <time>2015-12-17T09:51:47.842Z</time>
      </trkpt>
      <trkpt lat="46.08419" lon="4.60746">
        <ele>637.001647949</ele>
        <time>2015-12-17T09:51:48.831Z</time>
      </trkpt>
      <trkpt lat="46.08414" lon="4.60736">
        <ele>636.234863281</ele>
        <time>2015-12-17T09:51:55.843Z</time>
      </trkpt>
      <trkpt lat="46.08413" lon="4.60734">
        <ele>636.108093262</ele>
        <time>2015-12-17T09:51:56.833Z</time>
      </trkpt>
      <trkpt lat="46.08408" lon="4.60724">
        <ele>635.487182617</ele>
        <time>2015-12-17T09:52:03.02Z</time>
      </trkpt>
      <trkpt lat="46.08407" lon="4.60722">
        <ele>635.359558105</ele>
        <time>2015-12-17T09:52:03.832Z</time>
      </trkpt>
      <trkpt lat="46.08402" lon="4.60712">
        <ele>634.888916016</ele>
        <time>2015-12-17T09:52:10.845Z</time>
      </trkpt>
      <trkpt lat="46.08401" lon="4.60711">
        <ele>634.894592285</ele>
        <time>2015-12-17T09:52:11.833Z</time>
      </trkpt>
      <trkpt lat="46.08394" lon="4.60704">
        <ele>634.581726074</ele>
        <time>2015-12-17T09:52:17.844Z</time>
      </trkpt>
      <trkpt lat="46.08393" lon="4.60702">
        <ele>634.494750977</ele>
        <time>2015-12-17T09:52:18.833Z</time>
      </trkpt>
      <trkpt lat="46.08387" lon="4.60693">
        <ele>633.950744629</ele>
        <time>2015-12-17T09:52:23.884Z</time>
      </trkpt>
      <trkpt lat="46.08386" lon="4.60692">
        <ele>633.911254883</ele>
        <time>2015-12-17T09:52:24.836Z</time>
      </trkpt>
      <trkpt lat="46.0838" lon="4.60685">
        <ele>633.547851562</ele>
        <time>2015-12-17T09:52:30.846Z</time>
      </trkpt>
      <trkpt lat="46.08378" lon="4.60684">
        <ele>633.461914062</ele>
        <time>2015-12-17T09:52:31.833Z</time>
      </trkpt>
      <trkpt lat="46.08372" lon="4.60675">
        <ele>633.022155762</ele>
        <time>2015-12-17T09:52:37.852Z</time>
      </trkpt>
      <trkpt lat="46.08372" lon="4.60673">
        <ele>632.952270508</ele>
        <time>2015-12-17T09:52:38.835Z</time>
      </trkpt>
      <trkpt lat="46.08365" lon="4.60664">
        <ele>632.479248047</ele>
        <time>2015-12-17T09:52:46.846Z</time>
      </trkpt>
      <trkpt lat="46.08364" lon="4.60663">
        <ele>632.402648926</ele>
        <time>2015-12-17T09:52:47.839Z</time>
      </trkpt>
      <trkpt lat="46.08357" lon="4.60656">
        <ele>632.036254883</ele>
        <time>2015-12-17T09:52:53.849Z</time>
      </trkpt>
      <trkpt lat="46.08356" lon="4.60655">
        <ele>631.983398438</ele>
        <time>2015-12-17T09:52:54.836Z</time>
      </trkpt>
      <trkpt lat="46.08348" lon="4.60658">
        <ele>631.866699219</ele>
        <time>2015-12-17T09:53:00.847Z</time>
      </trkpt>
      <trkpt lat="46.08346" lon="4.60659">
        <ele>631.93371582</ele>
        <time>2015-12-17T09:53:01.836Z</time>
      </trkpt>
      <trkpt lat="46.08338" lon="4.60662">
        <ele>632.243835449</ele>
        <time>2015-12-17T09:53:09.85Z</time>
      </trkpt>
      <trkpt lat="46.08337" lon="4.60662">
        <ele>632.225585938</ele>
        <time>2015-12-17T09:53:10.839Z</time>
      </trkpt>
      <trkpt lat="46.08329" lon="4.60666">
        <ele>632.329223633</ele>
        <time>2015-12-17T09:53:16.85Z</time>
      </trkpt>
      <trkpt lat="46.08328" lon="4.60667">
        <ele>632.288146973</ele>
        <time>2015-12-17T09:53:17.837Z</time>
      </trkpt>
      <trkpt lat="46.08319" lon="4.60669">
        <ele>632.152160645</ele>
        <time>2015-12-17T09:53:24.849Z</time>
      </trkpt>
      <trkpt lat="46.08317" lon="4.60669">
        <ele>632.129089355</ele>
        <time>2015-12-17T09:53:25.838Z</time>
      </trkpt>
      <trkpt lat="46.08309" lon="4.60669">
        <ele>631.914245605</ele>
        <time>2015-12-17T09:53:31.854Z</time>
      </trkpt>
      <trkpt lat="46.08307" lon="4.60669">
        <ele>631.796325684</ele>
        <time>2015-12-17T09:53:32.839Z</time>
      </trkpt>
      <trkpt lat="46.08299" lon="4.60668">
        <ele>631.349975586</ele>
        <time>2015-12-17T09:53:38.851Z</time>
      </trkpt>
      <trkpt lat="46.08298" lon="4.60668">
        <ele>631.303344727</ele>
        <time>2015-12-17T09:53:39.838Z</time>
      </trkpt>
      <trkpt lat="46.08289" lon="4.60667">
        <ele>631.096435547</ele>
        <time>2015-12-17T09:53:47.853Z</time>
      </trkpt>
      <trkpt lat="46.08288" lon="4.60667">
        <ele>631.040039062</ele>
        <time>2015-12-17T09:53:48.839Z</time>
      </trkpt>
      <trkpt lat="46.0828" lon="4.60666">
        <ele>630.761108398</ele>
        <time>2015-12-17T09:53:53.856Z</time>
      </trkpt>
      <trkpt lat="46.08279" lon="4.60666">
        <ele>630.74029541</ele>
        <time>2015-12-17T09:53:54.841Z</time>
      </trkpt>
      <trkpt lat="46.08271" lon="4.60666">
        <ele>630.06060791</ele>
        <time>2015-12-17T09:54:01.852Z</time>
      </trkpt>
      <trkpt lat="46.0827" lon="4.60666">
        <ele>629.912414551</ele>
        <time>2015-12-17T09:54:02.84Z</time>
      </trkpt>
      <trkpt lat="46.08262" lon="4.60665">
        <ele>629.528686523</ele>
        <time>2015-12-17T09:54:08.856Z</time>
      </trkpt>
      <trkpt lat="46.0826" lon="4.60665">
        <ele>629.504394531</ele>
        <time>2015-12-17T09:54:09.841Z</time>
      </trkpt>
      <trkpt lat="46.08251" lon="4.60664">
        <ele>629.518615723</ele>
        <time>2015-12-17T09:54:14.855Z</time>
      </trkpt>
      <trkpt lat="46.0825" lon="4.60664">
        <ele>629.471496582</ele>
        <time>2015-12-17T09:54:15.842Z</time>
      </trkpt>
      <trkpt lat="46.08241" lon="4.60661">
        <ele>628.913391113</ele>
        <time>2015-12-17T09:54:21.854Z</time>
      </trkpt>
      <trkpt lat="46.0824" lon="4.60661">
        <ele>628.776306152</ele>
        <time>2015-12-17T09:54:22.843Z</time>
      </trkpt>
      <trkpt lat="46.08231" lon="4.60658">
        <ele>628.229980469</ele>
        <time>2015-12-17T09:54:28.854Z</time>
      </trkpt>
      <trkpt lat="46.0823" lon="4.60658">
        <ele>628.203491211</ele>
        <time>2015-12-17T09:54:29.843Z</time>
      </trkpt>
      <trkpt lat="46.08222" lon="4.60656">
        <ele>627.67980957</ele>
        <time>2015-12-17T09:54:34.853Z</time>
      </trkpt>
      <trkpt lat="46.08221" lon="4.60656">
        <ele>627.598571777</ele>
        <time>2015-12-17T09:54:35.847Z</time>
      </trkpt>
      <trkpt lat="46.08212" lon="4.60653">
        <ele>627.013793945</ele>
        <time>2015-12-17T09:54:42.856Z</time>
      </trkpt>
      <trkpt lat="46.0821" lon="4.60653">
        <ele>626.922912598</ele>
        <time>2015-12-17T09:54:43.845Z</time>
      </trkpt>
      <trkpt lat="46.08202" lon="4.6065">
        <ele>626.562438965</ele>
        <time>2015-12-17T09:54:48.854Z</time>
      </trkpt>
      <trkpt lat="46.08201" lon="4.6065">
        <ele>626.415283203</ele>
        <time>2015-12-17T09:54:49.85Z</time>
      </trkpt>
      <trkpt lat="46.08192" lon="4.60647">
        <ele>625.712890625</ele>
        <time>2015-12-17T09:54:55.86Z</time>
      </trkpt>
      <trkpt lat="46.08191" lon="4.60646">
        <ele>625.632141113</ele>
        <time>2015-12-17T09:54:56.841Z</time>
      </trkpt>
      <trkpt lat="46.08183" lon="4.60643">
        <ele>624.999206543</ele>
        <time>2015-12-17T09:55:01.862Z</time>
      </trkpt>
      <trkpt lat="46.08182" lon="4.60642">
        <ele>624.822387695</ele>
        <time>2015-12-17T09:55:02.844Z</time>
      </trkpt>
      <trkpt lat="46.08173" lon="4.60641">
        <ele>623.942687988</ele>
        <time>2015-12-17T09:55:12.857Z</time>
      </trkpt>
      <trkpt lat="46.08172" lon="4.60641">
        <ele>623.876037598</ele>
        <time>2015-12-17T09:55:13.849Z</time>
      </trkpt>
      <trkpt lat="46.08165" lon="4.60641">
        <ele>623.546875</ele>
        <time>2015-12-17T09:55:18.859Z</time>
      </trkpt>
      <trkpt lat="46.08163" lon="4.60641">
        <ele>623.425292969</ele>
        <time>2015-12-17T09:55:19.848Z</time>
      </trkpt>
      <trkpt lat="46.08154" lon="4.60642">
        <ele>622.538452148</ele>
        <time>2015-12-17T09:55:25.859Z</time>
      </trkpt>
      <trkpt lat="46.08152" lon="4.60642">
        <ele>622.393920898</ele>
        <time>2015-12-17T09:55:26.846Z</time>
      </trkpt>
      <trkpt lat="46.08145" lon="4.60644">
        <ele>621.886901855</ele>
        <time>2015-12-17T09:55:31.857Z</time>
      </trkpt>
      <trkpt lat="46.08142" lon="4.60645">
        <ele>621.742431641</ele>
        <time>2015-12-17T09:55:32.848Z</time>
      </trkpt>
      <trkpt lat="46.08134" lon="4.60646">
        <ele>621.229919434</ele>
        <time>2015-12-17T09:55:38.859Z</time>
      </trkpt>
      <trkpt lat="46.08133" lon="4.60647">
        <ele>621.16418457</ele>
        <time>2015-12-17T09:55:39.848Z</time>
      </trkpt>
      <trkpt lat="46.08125" lon="4.60649">
        <ele>620.334472656</ele>
        <time>2015-12-17T09:55:46.86Z</time>
      </trkpt>
      <trkpt lat="46.08123" lon="4.60649">
        <ele>620.243347168</ele>
        <time>2015-12-17T09:55:47.849Z</time>
      </trkpt>
      <trkpt lat="46.08115" lon="4.6065">
        <ele>620.031494141</ele>
        <time>2015-12-17T09:55:52.868Z</time>
      </trkpt>
      <trkpt lat="46.08113" lon="4.60651">
        <ele>619.951660156</ele>
        <time>2015-12-17T09:55:53.851Z</time>
      </trkpt>
      <trkpt lat="46.08105" lon="4.60654">
        <ele>619.493286133</ele>
        <time>2015-12-17T09:56:00.862Z</time>
      </trkpt>
      <trkpt lat="46.08103" lon="4.60655">
        <ele>619.440856934</ele>
        <time>2015-12-17T09:56:01.849Z</time>
      </trkpt>
      <trkpt lat="46.08096" lon="4.60659">
        <ele>619.029602051</ele>
        <time>2015-12-17T09:56:07.864Z</time>
      </trkpt>
      <trkpt lat="46.08094" lon="4.60659">
        <ele>618.994934082</ele>
        <time>2015-12-17T09:56:08.85Z</time>
      </trkpt>
      <trkpt lat="46.08086" lon="4.60662">
        <ele>618.503967285</ele>
        <time>2015-12-17T09:56:13.861Z</time>
      </trkpt>
      <trkpt lat="46.08085" lon="4.60663">
        <ele>618.410339355</ele>
        <time>2015-12-17T09:56:14.85Z</time>
      </trkpt>
      <trkpt lat="46.08077" lon="4.60666">
        <ele>617.618530273</ele>
        <time>2015-12-17T09:56:19.868Z</time>
      </trkpt>
      <trkpt lat="46.08075" lon="4.60666">
        <ele>617.426696777</ele>
        <time>2015-12-17T09:56:20.851Z</time>
      </trkpt>
      <trkpt lat="46.08067" lon="4.60669">
        <ele>616.393737793</ele>
        <time>2015-12-17T09:56:26.863Z</time>
      </trkpt>
      <trkpt lat="46.08066" lon="4.60669">
        <ele>616.272705078</ele>
        <time>2015-12-17T09:56:27.854Z</time>
      </trkpt>
      <trkpt lat="46.08057" lon="4.60671">
        <ele>615.329528809</ele>
        <time>2015-12-17T09:56:33.841Z</time>
      </trkpt>
      <trkpt lat="46.08056" lon="4.60671">
        <ele>615.141845703</ele>
        <time>2015-12-17T09:56:34.827Z</time>
      </trkpt>
      <trkpt lat="46.08048" lon="4.60672">
        <ele>614.361572266</ele>
        <time>2015-12-17T09:56:40.041Z</time>
      </trkpt>
      <trkpt lat="46.08046" lon="4.60672">
        <ele>614.203918457</ele>
        <time>2015-12-17T09:56:40.828Z</time>
      </trkpt>
      <trkpt lat="46.08038" lon="4.60672">
        <ele>613.134765625</ele>
        <time>2015-12-17T09:56:48.013Z</time>
      </trkpt>
      <trkpt lat="46.08036" lon="4.60672">
        <ele>612.896362305</ele>
        <time>2015-12-17T09:56:48.827Z</time>
      </trkpt>
      <trkpt lat="46.08029" lon="4.6067">
        <ele>611.960327148</ele>
        <time>2015-12-17T09:56:54.854Z</time>
      </trkpt>
      <trkpt lat="46.08027" lon="4.6067">
        <ele>611.860778809</ele>
        <time>2015-12-17T09:56:55.83Z</time>
      </trkpt>
      <trkpt lat="46.08019" lon="4.60668">
        <ele>611.266845703</ele>
        <time>2015-12-17T09:57:00.841Z</time>
      </trkpt>
      <trkpt lat="46.08017" lon="4.60669">
        <ele>611.080871582</ele>
        <time>2015-12-17T09:57:01.83Z</time>
      </trkpt>
      <trkpt lat="46.08009" lon="4.60667">
        <ele>610.270324707</ele>
        <time>2015-12-17T09:57:06.841Z</time>
      </trkpt>
      <trkpt lat="46.08008" lon="4.60667">
        <ele>610.112487793</ele>
        <time>2015-12-17T09:57:07.831Z</time>
      </trkpt>
      <trkpt lat="46.08" lon="4.60662">
        <ele>608.836730957</ele>
        <time>2015-12-17T09:57:13.843Z</time>
      </trkpt>
      <trkpt lat="46.07998" lon="4.60661">
        <ele>608.627258301</ele>
        <time>2015-12-17T09:57:14.83Z</time>
      </trkpt>
      <trkpt lat="46.07991" lon="4.60654">
        <ele>607.210083008</ele>
        <time>2015-12-17T09:57:20.842Z</time>
      </trkpt>
      <trkpt lat="46.0799" lon="4.60653">
        <ele>607.009094238</ele>
        <time>2015-12-17T09:57:21.831Z</time>
      </trkpt>
      <trkpt lat="46.07983" lon="4.60645">
        <ele>605.836975098</ele>
        <time>2015-12-17T09:57:27.899Z</time>
      </trkpt>
      <trkpt lat="46.07982" lon="4.60643">
        <ele>605.634460449</ele>
        <time>2015-12-17T09:57:28.831Z</time>
      </trkpt>
      <trkpt lat="46.07977" lon="4.60635">
        <ele>604.566650391</ele>
        <time>2015-12-17T09:57:33.99Z</time>
      </trkpt>
      <trkpt lat="46.07976" lon="4.60633">
        <ele>604.385253906</ele>
        <time>2015-12-17T09:57:34.832Z</time>
      </trkpt>
      <trkpt lat="46.07972" lon="4.60623">
        <ele>603.246704102</ele>
        <time>2015-12-17T09:57:40.845Z</time>
      </trkpt>
      <trkpt lat="46.07971" lon="4.60621">
        <ele>603.014709473</ele>
        <time>2015-12-17T09:57:41.837Z</time>
      </trkpt>
      <trkpt lat="46.07968" lon="4.6061">
        <ele>601.985900879</ele>
        <time>2015-12-17T09:57:46.843Z</time>
      </trkpt>
      <trkpt lat="46.07968" lon="4.60608">
        <ele>601.778991699</ele>
        <time>2015-12-17T09:57:47.838Z</time>
      </trkpt>
      <trkpt lat="46.07965" lon="4.60596">
        <ele>600.752380371</ele>
        <time>2015-12-17T09:57:55.851Z</time>
      </trkpt>
      <trkpt lat="46.07964" lon="4.60593">
        <ele>600.622009277</ele>
        <time>2015-12-17T09:57:56.833Z</time>
      </trkpt>
      <trkpt lat="46.0796" lon="4.60583">
        <ele>599.721130371</ele>
        <time>2015-12-17T09:58:02.846Z</time>
      </trkpt>
      <trkpt lat="46.0796" lon="4.6058">
        <ele>599.56628418</ele>
        <time>2015-12-17T09:58:03.834Z</time>
      </trkpt>
      <trkpt lat="46.07957" lon="4.6057">
        <ele>598.686523438</ele>
        <time>2015-12-17T09:58:09.846Z</time>
      </trkpt>
      <trkpt lat="46.07957" lon="4.60568">
        <ele>598.522338867</ele>
        <time>2015-12-17T09:58:10.834Z</time>
      </trkpt>
      <trkpt lat="46.07953" lon="4.60557">
        <ele>597.91418457</ele>
        <time>2015-12-17T09:58:15.853Z</time>
      </trkpt>
      <trkpt lat="46.07953" lon="4.60556">
        <ele>597.796325684</ele>
        <time>2015-12-17T09:58:16.836Z</time>
      </trkpt>
      <trkpt lat="46.07949" lon="4.60545">
        <ele>596.785888672</ele>
        <time>2015-12-17T09:58:23.851Z</time>
      </trkpt>
      <trkpt lat="46.07949" lon="4.60544">
        <ele>596.65246582</ele>
        <time>2015-12-17T09:58:24.838Z</time>
      </trkpt>
      <trkpt lat="46.07947" lon="4.60532">
        <ele>595.891418457</ele>
        <time>2015-12-17T09:58:31.846Z</time>
      </trkpt>
      <trkpt lat="46.07947" lon="4.6053">
        <ele>595.787109375</ele>
        <time>2015-12-17T09:58:32.837Z</time>
      </trkpt>
      <trkpt lat="46.07944" lon="4.6052">
        <ele>594.891052246</ele>
        <time>2015-12-17T09:58:38.849Z</time>
      </trkpt>
      <trkpt lat="46.07943" lon="4.60518">
        <ele>594.724365234</ele>
        <time>2015-12-17T09:58:39.837Z</time>
      </trkpt>
      <trkpt lat="46.07939" lon="4.60507">
        <ele>594.080688477</ele>
        <time>2015-12-17T09:58:44.854Z</time>
      </trkpt>
      <trkpt lat="46.07938" lon="4.60505">
        <ele>593.910766602</ele>
        <time>2015-12-17T09:58:45.837Z</time>
      </trkpt>
      <trkpt lat="46.07934" lon="4.60496">
        <ele>592.951843262</ele>
        <time>2015-12-17T09:58:50.851Z</time>
      </trkpt>
      <trkpt lat="46.07933" lon="4.60494">
        <ele>592.787414551</ele>
        <time>2015-12-17T09:58:51.837Z</time>
      </trkpt>
      <trkpt lat="46.0793" lon="4.60482">
        <ele>592.06463623</ele>
        <time>2015-12-17T09:58:57.851Z</time>
      </trkpt>
      <trkpt lat="46.0793" lon="4.60481">
        <ele>591.89074707</ele>
        <time>2015-12-17T09:58:58.838Z</time>
      </trkpt>
      <trkpt lat="46.07928" lon="4.60468">
        <ele>591.218994141</ele>
        <time>2015-12-17T09:59:04.861Z</time>
      </trkpt>
      <trkpt lat="46.07928" lon="4.60466">
        <ele>591.145019531</ele>
        <time>2015-12-17T09:59:05.838Z</time>
      </trkpt>
      <trkpt lat="46.07926" lon="4.60453">
        <ele>590.592834473</ele>
        <time>2015-12-17T09:59:12.854Z</time>
      </trkpt>
      <trkpt lat="46.07926" lon="4.60451">
        <ele>590.483581543</ele>
        <time>2015-12-17T09:59:13.874Z</time>
      </trkpt>
      <trkpt lat="46.07925" lon="4.6044">
        <ele>590.028137207</ele>
        <time>2015-12-17T09:59:20.851Z</time>
      </trkpt>
      <trkpt lat="46.07926" lon="4.60438">
        <ele>589.936157227</ele>
        <time>2015-12-17T09:59:21.84Z</time>
      </trkpt>
      <trkpt lat="46.07926" lon="4.60426">
        <ele>589.246887207</ele>
        <time>2015-12-17T09:59:27.854Z</time>
      </trkpt>
      <trkpt lat="46.07927" lon="4.60424">
        <ele>589.11505127</ele>
        <time>2015-12-17T09:59:28.84Z</time>
      </trkpt>
      <trkpt lat="46.07929" lon="4.60412">
        <ele>588.427490234</ele>
        <time>2015-12-17T09:59:34.851Z</time>
      </trkpt>
      <trkpt lat="46.07929" lon="4.60411">
        <ele>588.282348633</ele>
        <time>2015-12-17T09:59:35.84Z</time>
      </trkpt>
      <trkpt lat="46.07934" lon="4.60402">
        <ele>587.919067383</ele>
        <time>2015-12-17T09:59:41.859Z</time>
      </trkpt>
      <trkpt lat="46.07935" lon="4.604">
        <ele>587.879516602</ele>
        <time>2015-12-17T09:59:42.844Z</time>
      </trkpt>
      <trkpt lat="46.0794" lon="4.60392">
        <ele>587.651245117</ele>
        <time>2015-12-17T09:59:48.855Z</time>
      </trkpt>
      <trkpt lat="46.0794" lon="4.6039">
        <ele>587.593994141</ele>
        <time>2015-12-17T09:59:49.841Z</time>
      </trkpt>
      <trkpt lat="46.07945" lon="4.60379">
        <ele>587.068603516</ele>
        <time>2015-12-17T09:59:56.855Z</time>
      </trkpt>
      <trkpt lat="46.07946" lon="4.60377">
        <ele>587.084960938</ele>
        <time>2015-12-17T09:59:57.843Z</time>
      </trkpt>
      <trkpt lat="46.0795" lon="4.60367">
        <ele>587.382141113</ele>
        <time>2015-12-17T10:00:04.854Z</time>
      </trkpt>
      <trkpt lat="46.07951" lon="4.60365">
        <ele>587.452697754</ele>
        <time>2015-12-17T10:00:05.843Z</time>
      </trkpt>
      <trkpt lat="46.07956" lon="4.60354">
        <ele>587.686584473</ele>
        <time>2015-12-17T10:00:11.86Z</time>
      </trkpt>
      <trkpt lat="46.07957" lon="4.60353">
        <ele>587.691467285</ele>
        <time>2015-12-17T10:00:12.846Z</time>
      </trkpt>
      <trkpt lat="46.07961" lon="4.60343">
        <ele>587.710693359</ele>
        <time>2015-12-17T10:00:18.865Z</time>
      </trkpt>
      <trkpt lat="46.07962" lon="4.60342">
        <ele>587.745117188</ele>
        <time>2015-12-17T10:00:19.841Z</time>
      </trkpt>
      <trkpt lat="46.07969" lon="4.60335">
        <ele>587.922302246</ele>
        <time>2015-12-17T10:00:25.859Z</time>
      </trkpt>
      <trkpt lat="46.0797" lon="4.60333">
        <ele>587.968078613</ele>
        <time>2015-12-17T10:00:26.845Z</time>
      </trkpt>
      <trkpt lat="46.07976" lon="4.60325">
        <ele>588.141723633</ele>
        <time>2015-12-17T10:00:33.859Z</time>
      </trkpt>
      <trkpt lat="46.07977" lon="4.60324">
        <ele>588.154541016</ele>
        <time>2015-12-17T10:00:34.846Z</time>
      </trkpt>
      <trkpt lat="46.07983" lon="4.60316">
        <ele>588.34753418</ele>
        <time>2015-12-17T10:00:43.86Z</time>
      </trkpt>
      <trkpt lat="46.07984" lon="4.60315">
        <ele>588.383056641</ele>
        <time>2015-12-17T10:00:44.846Z</time>
      </trkpt>
      <trkpt lat="46.07989" lon="4.60305">
        <ele>588.826965332</ele>
        <time>2015-12-17T10:00:50.863Z</time>
      </trkpt>
      <trkpt lat="46.07989" lon="4.60304">
        <ele>588.854980469</ele>
        <time>2015-12-17T10:00:51.846Z</time>
      </trkpt>
      <trkpt lat="46.07993" lon="4.60293">
        <ele>589.183654785</ele>
        <time>2015-12-17T10:00:59.861Z</time>
      </trkpt>
      <trkpt lat="46.07993" lon="4.60292">
        <ele>589.193725586</ele>
        <time>2015-12-17T10:01:00.847Z</time>
      </trkpt>
      <trkpt lat="46.07996" lon="4.60281">
        <ele>589.363220215</ele>
        <time>2015-12-17T10:01:05.859Z</time>
      </trkpt>
      <trkpt lat="46.07997" lon="4.60279">
        <ele>589.364379883</ele>
        <time>2015-12-17T10:01:06.848Z</time>
      </trkpt>
      <trkpt lat="46.07999" lon="4.60268">
        <ele>590.267700195</ele>
        <time>2015-12-17T10:01:19.864Z</time>
      </trkpt>
      <trkpt lat="46.07998" lon="4.60266">
        <ele>590.429992676</ele>
        <time>2015-12-17T10:01:20.849Z</time>
      </trkpt>
      <trkpt lat="46.07999" lon="4.60254">
        <ele>591.187316895</ele>
        <time>2015-12-17T10:01:26.869Z</time>
      </trkpt>
      <trkpt lat="46.07999" lon="4.60251">
        <ele>591.256652832</ele>
        <time>2015-12-17T10:01:27.85Z</time>
      </trkpt>
      <trkpt lat="46.07999" lon="4.6024">
        <ele>591.69128418</ele>
        <time>2015-12-17T10:01:33.865Z</time>
      </trkpt>
      <trkpt lat="46.07999" lon="4.60237">
        <ele>591.67755127</ele>
        <time>2015-12-17T10:01:34.85Z</time>
      </trkpt>
      <trkpt lat="46.08002" lon="4.60227">
        <ele>591.629577637</ele>
        <time>2015-12-17T10:01:38.861Z</time>
      </trkpt>
      <trkpt lat="46.08002" lon="4.60225">
        <ele>591.634643555</ele>
        <time>2015-12-17T10:01:39.85Z</time>
      </trkpt>
      <trkpt lat="46.08002" lon="4.60212">
        <ele>591.716918945</ele>
        <time>2015-12-17T10:01:44.861Z</time>
      </trkpt>
      <trkpt lat="46.08002" lon="4.6021">
        <ele>591.726257324</ele>
        <time>2015-12-17T10:01:45.826Z</time>
      </trkpt>
      <trkpt lat="46.07999" lon="4.60199">
        <ele>591.46673584</ele>
        <time>2015-12-17T10:01:51.839Z</time>
      </trkpt>
      <trkpt lat="46.07999" lon="4.60197">
        <ele>591.410827637</ele>
        <time>2015-12-17T10:01:52.826Z</time>
      </trkpt>
      <trkpt lat="46.07996" lon="4.60186">
        <ele>591.443115234</ele>
        <time>2015-12-17T10:01:58.843Z</time>
      </trkpt>
      <trkpt lat="46.07996" lon="4.60183">
        <ele>591.445129395</ele>
        <time>2015-12-17T10:01:59.827Z</time>
      </trkpt>
      <trkpt lat="46.07991" lon="4.60172">
        <ele>591.731201172</ele>
        <time>2015-12-17T10:02:03.839Z</time>
      </trkpt>
      <trkpt lat="46.0799" lon="4.6017">
        <ele>591.846435547</ele>
        <time>2015-12-17T10:02:04.827Z</time>
      </trkpt>
      <trkpt lat="46.07987" lon="4.60159">
        <ele>592.805908203</ele>
        <time>2015-12-17T10:02:11.842Z</time>
      </trkpt>
      <trkpt lat="46.07986" lon="4.60157">
        <ele>592.92956543</ele>
        <time>2015-12-17T10:02:12.828Z</time>
      </trkpt>
      <trkpt lat="46.07985" lon="4.60144">
        <ele>594.296569824</ele>
        <time>2015-12-17T10:02:21.84Z</time>
      </trkpt>
      <trkpt lat="46.07985" lon="4.60143">
        <ele>594.439453125</ele>
        <time>2015-12-17T10:02:22.828Z</time>
      </trkpt>
      <trkpt lat="46.07982" lon="4.60132">
        <ele>595.026916504</ele>
        <time>2015-12-17T10:02:29.841Z</time>
      </trkpt>
      <trkpt lat="46.07981" lon="4.6013">
        <ele>595.088012695</ele>
        <time>2015-12-17T10:02:30.832Z</time>
      </trkpt>
      <trkpt lat="46.07978" lon="4.60121">
        <ele>595.293029785</ele>
        <time>2015-12-17T10:02:35Z</time>
      </trkpt>
      <trkpt lat="46.07976" lon="4.60119">
        <ele>595.376159668</ele>
        <time>2015-12-17T10:02:35.83Z</time>
      </trkpt>
      <trkpt lat="46.07972" lon="4.6011">
        <ele>595.684875488</ele>
        <time>2015-12-17T10:02:41.03Z</time>
      </trkpt>
      <trkpt lat="46.07971" lon="4.60108">
        <ele>595.759094238</ele>
        <time>2015-12-17T10:02:41.83Z</time>
      </trkpt>
      <trkpt lat="46.07966" lon="4.60099">
        <ele>596.308044434</ele>
        <time>2015-12-17T10:02:47.923Z</time>
      </trkpt>
      <trkpt lat="46.07965" lon="4.60097">
        <ele>596.365844727</ele>
        <time>2015-12-17T10:02:48.83Z</time>
      </trkpt>
      <trkpt lat="46.07961" lon="4.60088">
        <ele>596.858215332</ele>
        <time>2015-12-17T10:02:54.846Z</time>
      </trkpt>
      <trkpt lat="46.0796" lon="4.60086">
        <ele>597.001464844</ele>
        <time>2015-12-17T10:02:55.831Z</time>
      </trkpt>
      <trkpt lat="46.07954" lon="4.60076">
        <ele>597.815795898</ele>
        <time>2015-12-17T10:03:03.841Z</time>
      </trkpt>
      <trkpt lat="46.07954" lon="4.60075">
        <ele>597.879211426</ele>
        <time>2015-12-17T10:03:04.833Z</time>
      </trkpt>
      <trkpt lat="46.07949" lon="4.60064">
        <ele>598.483886719</ele>
        <time>2015-12-17T10:03:10.887Z</time>
      </trkpt>
      <trkpt lat="46.07949" lon="4.60063">
        <ele>598.580627441</ele>
        <time>2015-12-17T10:03:11.831Z</time>
      </trkpt>
      <trkpt lat="46.07947" lon="4.60052">
        <ele>599.680786133</ele>
        <time>2015-12-17T10:03:20.857Z</time>
      </trkpt>
      <trkpt lat="46.07946" lon="4.6005">
        <ele>599.833862305</ele>
        <time>2015-12-17T10:03:21.833Z</time>
      </trkpt>
      <trkpt lat="46.07942" lon="4.6004">
        <ele>600.456237793</ele>
        <time>2015-12-17T10:03:27.845Z</time>
      </trkpt>
      <trkpt lat="46.07942" lon="4.60038">
        <ele>600.557800293</ele>
        <time>2015-12-17T10:03:28.833Z</time>
      </trkpt>
      <trkpt lat="46.07939" lon="4.60027">
        <ele>601.244445801</ele>
        <time>2015-12-17T10:03:35.848Z</time>
      </trkpt>
      <trkpt lat="46.07939" lon="4.60025">
        <ele>601.419128418</ele>
        <time>2015-12-17T10:03:36.833Z</time>
      </trkpt>
      <trkpt lat="46.07935" lon="4.60016">
        <ele>603.051757812</ele>
        <time>2015-12-17T10:03:43.847Z</time>
      </trkpt>
      <trkpt lat="46.07934" lon="4.60014">
        <ele>603.22845459</ele>
        <time>2015-12-17T10:03:44.837Z</time>
      </trkpt>
      <trkpt lat="46.0793" lon="4.60004">
        <ele>604.461608887</ele>
        <time>2015-12-17T10:03:50.846Z</time>
      </trkpt>
      <trkpt lat="46.07929" lon="4.60002">
        <ele>604.665405273</ele>
        <time>2015-12-17T10:03:51.838Z</time>
      </trkpt>
      <trkpt lat="46.07923" lon="4.59994">
        <ele>605.504455566</ele>
        <time>2015-12-17T10:03:56.847Z</time>
      </trkpt>
      <trkpt lat="46.07923" lon="4.59992">
        <ele>605.675598145</ele>
        <time>2015-12-17T10:03:57.835Z</time>
      </trkpt>
      <trkpt lat="46.07923" lon="4.5998">
        <ele>607.365234375</ele>
        <time>2015-12-17T10:04:13.849Z</time>
      </trkpt>
      <trkpt lat="46.07923" lon="4.59978">
        <ele>607.509765625</ele>
        <time>2015-12-17T10:04:14.836Z</time>
      </trkpt>
      <trkpt lat="46.07925" lon="4.59966">
        <ele>608.992858887</ele>
        <time>2015-12-17T10:04:25.856Z</time>
      </trkpt>
      <trkpt lat="46.07925" lon="4.59965">
        <ele>609.169128418</ele>
        <time>2015-12-17T10:04:26.864Z</time>
      </trkpt>
      <trkpt lat="46.0793" lon="4.59955">
        <ele>610.762329102</ele>
        <time>2015-12-17T10:04:36.872Z</time>
      </trkpt>
      <trkpt lat="46.0793" lon="4.59955">
        <ele>610.949645996</ele>
        <time>2015-12-17T10:04:37.838Z</time>
      </trkpt>
      <trkpt lat="46.07937" lon="4.59949">
        <ele>612.190307617</ele>
        <time>2015-12-17T10:04:46.851Z</time>
      </trkpt>
      <trkpt lat="46.07938" lon="4.59948">
        <ele>612.349975586</ele>
        <time>2015-12-17T10:04:47.839Z</time>
      </trkpt>
      <trkpt lat="46.07946" lon="4.59943">
        <ele>613.126098633</ele>
        <time>2015-12-17T10:04:53.854Z</time>
      </trkpt>
      <trkpt lat="46.07947" lon="4.59942">
        <ele>613.231567383</ele>
        <time>2015-12-17T10:04:54.84Z</time>
      </trkpt>
      <trkpt lat="46.07953" lon="4.59933">
        <ele>613.68182373</ele>
        <time>2015-12-17T10:05:01.851Z</time>
      </trkpt>
      <trkpt lat="46.07954" lon="4.59932">
        <ele>613.78125</ele>
        <time>2015-12-17T10:05:02.842Z</time>
      </trkpt>
      <trkpt lat="46.0796" lon="4.59924">
        <ele>614.405822754</ele>
        <time>2015-12-17T10:05:10.868Z</time>
      </trkpt>
      <trkpt lat="46.07961" lon="4.59923">
        <ele>614.481811523</ele>
        <time>2015-12-17T10:05:11.841Z</time>
      </trkpt>
      <trkpt lat="46.07962" lon="4.59911">
        <ele>616.228271484</ele>
        <time>2015-12-17T10:15:49.849Z</time>
      </trkpt>
      <trkpt lat="46.07962" lon="4.5991">
        <ele>616.300537109</ele>
        <time>2015-12-17T10:15:50.837Z</time>
      </trkpt>
      <trkpt lat="46.07967" lon="4.599">
        <ele>616.875610352</ele>
        <time>2015-12-17T10:16:00.85Z</time>
      </trkpt>
      <trkpt lat="46.07968" lon="4.59898">
        <ele>616.903808594</ele>
        <time>2015-12-17T10:16:01.838Z</time>
      </trkpt>
      <trkpt lat="46.0797" lon="4.59885">
        <ele>617.641662598</ele>
        <time>2015-12-17T10:16:09.85Z</time>
      </trkpt>
      <trkpt lat="46.07971" lon="4.59885">
        <ele>617.66394043</ele>
        <time>2015-12-17T10:16:10.839Z</time>
      </trkpt>
      <trkpt lat="46.07973" lon="4.59873">
        <ele>618.003662109</ele>
        <time>2015-12-17T10:16:18.851Z</time>
      </trkpt>
      <trkpt lat="46.07973" lon="4.59872">
        <ele>618.07800293</ele>
        <time>2015-12-17T10:16:19.839Z</time>
      </trkpt>
      <trkpt lat="46.07973" lon="4.5986">
        <ele>618.374389648</ele>
        <time>2015-12-17T10:16:27.893Z</time>
      </trkpt>
      <trkpt lat="46.07973" lon="4.59858">
        <ele>618.469116211</ele>
        <time>2015-12-17T10:16:28.84Z</time>
      </trkpt>
      <trkpt lat="46.07974" lon="4.59846">
        <ele>618.736572266</ele>
        <time>2015-12-17T10:16:35.853Z</time>
      </trkpt>
      <trkpt lat="46.07975" lon="4.59845">
        <ele>618.687805176</ele>
        <time>2015-12-17T10:16:36.84Z</time>
      </trkpt>
      <trkpt lat="46.07974" lon="4.59833">
        <ele>617.998901367</ele>
        <time>2015-12-17T10:16:44.854Z</time>
      </trkpt>
      <trkpt lat="46.07973" lon="4.59831">
        <ele>617.996398926</ele>
        <time>2015-12-17T10:16:45.841Z</time>
      </trkpt>
      <trkpt lat="46.07972" lon="4.59819">
        <ele>617.734436035</ele>
        <time>2015-12-17T10:16:51.856Z</time>
      </trkpt>
      <trkpt lat="46.07972" lon="4.59818">
        <ele>617.713317871</ele>
        <time>2015-12-17T10:16:52.842Z</time>
      </trkpt>
      <trkpt lat="46.0797" lon="4.59807">
        <ele>617.537536621</ele>
        <time>2015-12-17T10:16:59.853Z</time>
      </trkpt>
      <trkpt lat="46.0797" lon="4.59805">
        <ele>617.564147949</ele>
        <time>2015-12-17T10:17:00.842Z</time>
      </trkpt>
      <trkpt lat="46.07969" lon="4.59794">
        <ele>617.747680664</ele>
        <time>2015-12-17T10:17:08.854Z</time>
      </trkpt>
      <trkpt lat="46.07969" lon="4.59791">
        <ele>617.791259766</ele>
        <time>2015-12-17T10:17:09.847Z</time>
      </trkpt>
      <trkpt lat="46.07968" lon="4.59779">
        <ele>618.078857422</ele>
        <time>2015-12-17T10:17:15.855Z</time>
      </trkpt>
      <trkpt lat="46.07969" lon="4.59778">
        <ele>618.114135742</ele>
        <time>2015-12-17T10:17:16.841Z</time>
      </trkpt>
      <trkpt lat="46.0797" lon="4.59768">
        <ele>618.581787109</ele>
        <time>2015-12-17T10:17:23.856Z</time>
      </trkpt>
      <trkpt lat="46.0797" lon="4.59765">
        <ele>618.700012207</ele>
        <time>2015-12-17T10:17:24.851Z</time>
      </trkpt>
      <trkpt lat="46.07968" lon="4.59754">
        <ele>619.070922852</ele>
        <time>2015-12-17T10:17:31.829Z</time>
      </trkpt>
      <trkpt lat="46.07967" lon="4.59752">
        <ele>619.063659668</ele>
        <time>2015-12-17T10:17:32.819Z</time>
      </trkpt>
      <trkpt lat="46.07964" lon="4.5974">
        <ele>619.186157227</ele>
        <time>2015-12-17T10:17:39.832Z</time>
      </trkpt>
      <trkpt lat="46.07964" lon="4.59739">
        <ele>619.25958252</ele>
        <time>2015-12-17T10:17:40.821Z</time>
      </trkpt>
      <trkpt lat="46.07962" lon="4.59728">
        <ele>619.712097168</ele>
        <time>2015-12-17T10:17:45.832Z</time>
      </trkpt>
      <trkpt lat="46.07961" lon="4.59726">
        <ele>619.863952637</ele>
        <time>2015-12-17T10:17:46.823Z</time>
      </trkpt>
      <trkpt lat="46.07956" lon="4.59717">
        <ele>620.729125977</ele>
        <time>2015-12-17T10:17:51.833Z</time>
      </trkpt>
      <trkpt lat="46.07955" lon="4.59715">
        <ele>620.864624023</ele>
        <time>2015-12-17T10:17:52.825Z</time>
      </trkpt>
      <trkpt lat="46.07952" lon="4.59705">
        <ele>622.003356934</ele>
        <time>2015-12-17T10:18:00.833Z</time>
      </trkpt>
      <trkpt lat="46.07951" lon="4.59703">
        <ele>622.10369873</ele>
        <time>2015-12-17T10:18:01.822Z</time>
      </trkpt>
      <trkpt lat="46.07947" lon="4.59693">
        <ele>622.46105957</ele>
        <time>2015-12-17T10:18:07.835Z</time>
      </trkpt>
      <trkpt lat="46.07947" lon="4.5969">
        <ele>622.600524902</ele>
        <time>2015-12-17T10:18:08.824Z</time>
      </trkpt>
      <trkpt lat="46.07942" lon="4.59679">
        <ele>624.083618164</ele>
        <time>2015-12-17T10:18:17.833Z</time>
      </trkpt>
      <trkpt lat="46.07941" lon="4.59676">
        <ele>624.170654297</ele>
        <time>2015-12-17T10:18:18.825Z</time>
      </trkpt>
      <trkpt lat="46.07936" lon="4.59667">
        <ele>624.634887695</ele>
        <time>2015-12-17T10:18:22.836Z</time>
      </trkpt>
      <trkpt lat="46.07936" lon="4.59665">
        <ele>624.7578125</ele>
        <time>2015-12-17T10:18:23.825Z</time>
      </trkpt>
      <trkpt lat="46.07936" lon="4.59654">
        <ele>625.244812012</ele>
        <time>2015-12-17T10:18:30.839Z</time>
      </trkpt>
      <trkpt lat="46.07935" lon="4.59652">
        <ele>625.325012207</ele>
        <time>2015-12-17T10:18:31.824Z</time>
      </trkpt>
      <trkpt lat="46.07932" lon="4.5964">
        <ele>625.573059082</ele>
        <time>2015-12-17T10:18:37.837Z</time>
      </trkpt>
      <trkpt lat="46.07932" lon="4.59639">
        <ele>625.470214844</ele>
        <time>2015-12-17T10:18:38.824Z</time>
      </trkpt>
      <trkpt lat="46.07929" lon="4.59627">
        <ele>624.865783691</ele>
        <time>2015-12-17T10:18:45.839Z</time>
      </trkpt>
      <trkpt lat="46.07929" lon="4.59625">
        <ele>624.72253418</ele>
        <time>2015-12-17T10:18:46.826Z</time>
      </trkpt>
      <trkpt lat="46.07929" lon="4.59612">
        <ele>623.940734863</ele>
        <time>2015-12-17T10:18:54.871Z</time>
      </trkpt>
      <trkpt lat="46.07929" lon="4.5961">
        <ele>623.787353516</ele>
        <time>2015-12-17T10:18:55.842Z</time>
      </trkpt>
      <trkpt lat="46.07927" lon="4.596">
        <ele>623.279602051</ele>
        <time>2015-12-17T10:18:59.837Z</time>
      </trkpt>
      <trkpt lat="46.07926" lon="4.59598">
        <ele>623.123413086</ele>
        <time>2015-12-17T10:19:00.827Z</time>
      </trkpt>
      <trkpt lat="46.07926" lon="4.59586">
        <ele>622.116088867</ele>
        <time>2015-12-17T10:19:06.841Z</time>
      </trkpt>
      <trkpt lat="46.07926" lon="4.59584">
        <ele>621.96081543</ele>
        <time>2015-12-17T10:19:07.827Z</time>
      </trkpt>
      <trkpt lat="46.07924" lon="4.59573">
        <ele>621.089599609</ele>
        <time>2015-12-17T10:19:14.843Z</time>
      </trkpt>
      <trkpt lat="46.07923" lon="4.59571">
        <ele>620.931274414</ele>
        <time>2015-12-17T10:19:15.827Z</time>
      </trkpt>
      <trkpt lat="46.0792" lon="4.59559">
        <ele>620.025695801</ele>
        <time>2015-12-17T10:19:23.842Z</time>
      </trkpt>
      <trkpt lat="46.0792" lon="4.59558">
        <ele>619.989135742</ele>
        <time>2015-12-17T10:19:24.828Z</time>
      </trkpt>
      <trkpt lat="46.07921" lon="4.59545">
        <ele>619.225646973</ele>
        <time>2015-12-17T10:19:33.847Z</time>
      </trkpt>
      <trkpt lat="46.07921" lon="4.59544">
        <ele>619.228759766</ele>
        <time>2015-12-17T10:19:34.829Z</time>
      </trkpt>
      <trkpt lat="46.0792" lon="4.59533">
        <ele>619.228942871</ele>
        <time>2015-12-17T10:19:44.841Z</time>
      </trkpt>
      <trkpt lat="46.0792" lon="4.59531">
        <ele>619.203125</ele>
        <time>2015-12-17T10:19:45.83Z</time>
      </trkpt>
      <trkpt lat="46.0792" lon="4.59525">
        <ele>619.100524902</ele>
        <time>2015-12-17T10:19:47.854Z</time>
      </trkpt>
      <trkpt lat="46.07925" lon="4.59513">
        <ele>619.055175781</ele>
        <time>2015-12-17T10:19:48.829Z</time>
      </trkpt>
      <trkpt lat="46.07928" lon="4.59506">
        <ele>619.042053223</ele>
        <time>2015-12-17T10:19:49.864Z</time>
      </trkpt>
      <trkpt lat="46.07931" lon="4.59502">
        <ele>619.024597168</ele>
        <time>2015-12-17T10:19:50.83Z</time>
      </trkpt>
      <trkpt lat="46.07936" lon="4.59492">
        <ele>618.990722656</ele>
        <time>2015-12-17T10:19:54.842Z</time>
      </trkpt>
      <trkpt lat="46.07937" lon="4.5949">
        <ele>619.024230957</ele>
        <time>2015-12-17T10:19:55.83Z</time>
      </trkpt>
      <trkpt lat="46.07942" lon="4.5948">
        <ele>619.148925781</ele>
        <time>2015-12-17T10:20:03.844Z</time>
      </trkpt>
      <trkpt lat="46.07942" lon="4.59479">
        <ele>619.019348145</ele>
        <time>2015-12-17T10:20:04.831Z</time>
      </trkpt>
      <trkpt lat="46.07943" lon="4.59467">
        <ele>618.371887207</ele>
        <time>2015-12-17T10:20:11.842Z</time>
      </trkpt>
      <trkpt lat="46.07942" lon="4.59465">
        <ele>618.277038574</ele>
        <time>2015-12-17T10:20:12.832Z</time>
      </trkpt>
      <trkpt lat="46.0794" lon="4.59455">
        <ele>617.631103516</ele>
        <time>2015-12-17T10:20:16.841Z</time>
      </trkpt>
      <trkpt lat="46.07939" lon="4.59453">
        <ele>617.467468262</ele>
        <time>2015-12-17T10:20:17.832Z</time>
      </trkpt>
      <trkpt lat="46.07936" lon="4.59443">
        <ele>616.543212891</ele>
        <time>2015-12-17T10:20:22.842Z</time>
      </trkpt>
      <trkpt lat="46.07935" lon="4.59441">
        <ele>616.263305664</ele>
        <time>2015-12-17T10:20:23.844Z</time>
      </trkpt>
      <trkpt lat="46.07936" lon="4.5943">
        <ele>614.404052734</ele>
        <time>2015-12-17T10:20:30.844Z</time>
      </trkpt>
      <trkpt lat="46.07935" lon="4.59426">
        <ele>614.192016602</ele>
        <time>2015-12-17T10:20:31.838Z</time>
      </trkpt>
      <trkpt lat="46.07931" lon="4.59415">
        <ele>613.051452637</ele>
        <time>2015-12-17T10:20:36.845Z</time>
      </trkpt>
      <trkpt lat="46.0793" lon="4.59413">
        <ele>612.861206055</ele>
        <time>2015-12-17T10:20:37.837Z</time>
      </trkpt>
      <trkpt lat="46.07927" lon="4.59403">
        <ele>611.804382324</ele>
        <time>2015-12-17T10:20:42.845Z</time>
      </trkpt>
      <trkpt lat="46.07926" lon="4.59401">
        <ele>611.655456543</ele>
        <time>2015-12-17T10:20:43.834Z</time>
      </trkpt>
      <trkpt lat="46.07931" lon="4.59391">
        <ele>610.645507812</ele>
        <time>2015-12-17T10:20:54.856Z</time>
      </trkpt>
      <trkpt lat="46.07932" lon="4.5939">
        <ele>610.701171875</ele>
        <time>2015-12-17T10:20:55.835Z</time>
      </trkpt>
      <trkpt lat="46.07939" lon="4.59382">
        <ele>611.234130859</ele>
        <time>2015-12-17T10:21:00.848Z</time>
      </trkpt>
      <trkpt lat="46.07939" lon="4.5938">
        <ele>611.202331543</ele>
        <time>2015-12-17T10:21:01.836Z</time>
      </trkpt>
      <trkpt lat="46.07941" lon="4.59368">
        <ele>610.615966797</ele>
        <time>2015-12-17T10:21:08.849Z</time>
      </trkpt>
      <trkpt lat="46.07941" lon="4.59367">
        <ele>610.525878906</ele>
        <time>2015-12-17T10:21:09.836Z</time>
      </trkpt>
      <trkpt lat="46.07942" lon="4.59354">
        <ele>609.714172363</ele>
        <time>2015-12-17T10:21:15.851Z</time>
      </trkpt>
      <trkpt lat="46.07941" lon="4.59352">
        <ele>609.52142334</ele>
        <time>2015-12-17T10:21:16.839Z</time>
      </trkpt>
      <trkpt lat="46.07942" lon="4.59342">
        <ele>609.36932373</ele>
        <time>2015-12-17T10:21:21.847Z</time>
      </trkpt>
      <trkpt lat="46.07943" lon="4.59339">
        <ele>609.450378418</ele>
        <time>2015-12-17T10:21:22.839Z</time>
      </trkpt>
      <trkpt lat="46.07945" lon="4.59327">
        <ele>609.85534668</ele>
        <time>2015-12-17T10:21:28.855Z</time>
      </trkpt>
      <trkpt lat="46.07945" lon="4.59323">
        <ele>609.828063965</ele>
        <time>2015-12-17T10:21:29.838Z</time>
      </trkpt>
      <trkpt lat="46.07946" lon="4.59311">
        <ele>610.547485352</ele>
        <time>2015-12-17T10:21:36.848Z</time>
      </trkpt>
      <trkpt lat="46.07945" lon="4.59308">
        <ele>610.570922852</ele>
        <time>2015-12-17T10:21:37.839Z</time>
      </trkpt>
      <trkpt lat="46.07944" lon="4.59295">
        <ele>610.831848145</ele>
        <time>2015-12-17T10:21:42.881Z</time>
      </trkpt>
      <trkpt lat="46.07944" lon="4.59292">
        <ele>610.900634766</ele>
        <time>2015-12-17T10:21:43.839Z</time>
      </trkpt>
      <trkpt lat="46.07945" lon="4.5928">
        <ele>611.18182373</ele>
        <time>2015-12-17T10:21:49.855Z</time>
      </trkpt>
      <trkpt lat="46.07945" lon="4.59278">
        <ele>611.119934082</ele>
        <time>2015-12-17T10:21:50.839Z</time>
      </trkpt>
      <trkpt lat="46.07946" lon="4.59266">
        <ele>610.693237305</ele>
        <time>2015-12-17T10:21:54.855Z</time>
      </trkpt>
      <trkpt lat="46.07947" lon="4.59264">
        <ele>610.641113281</ele>
        <time>2015-12-17T10:21:55.84Z</time>
      </trkpt>
      <trkpt lat="46.07948" lon="4.59253">
        <ele>610.434326172</ele>
        <time>2015-12-17T10:22:00.856Z</time>
      </trkpt>
      <trkpt lat="46.07948" lon="4.59249">
        <ele>610.356567383</ele>
        <time>2015-12-17T10:22:01.84Z</time>
      </trkpt>
      <trkpt lat="46.07949" lon="4.59238">
        <ele>610.043640137</ele>
        <time>2015-12-17T10:22:06.857Z</time>
      </trkpt>
      <trkpt lat="46.07949" lon="4.59235">
        <ele>609.961303711</ele>
        <time>2015-12-17T10:22:07.841Z</time>
      </trkpt>
      <trkpt lat="46.07949" lon="4.59223">
        <ele>609.646850586</ele>
        <time>2015-12-17T10:22:13.852Z</time>
      </trkpt>
      <trkpt lat="46.07949" lon="4.59221">
        <ele>609.64666748</ele>
        <time>2015-12-17T10:22:14.84Z</time>
      </trkpt>
      <trkpt lat="46.0795" lon="4.59211">
        <ele>609.839355469</ele>
        <time>2015-12-17T10:22:19.852Z</time>
      </trkpt>
      <trkpt lat="46.0795" lon="4.59208">
        <ele>609.89440918</ele>
        <time>2015-12-17T10:22:20.841Z</time>
      </trkpt>
      <trkpt lat="46.07952" lon="4.59197">
        <ele>610.078125</ele>
        <time>2015-12-17T10:22:28.856Z</time>
      </trkpt>
      <trkpt lat="46.07952" lon="4.59195">
        <ele>610.083862305</ele>
        <time>2015-12-17T10:22:29.842Z</time>
      </trkpt>
      <trkpt lat="46.07955" lon="4.59184">
        <ele>609.84942627</ele>
        <time>2015-12-17T10:22:35.937Z</time>
      </trkpt>
      <trkpt lat="46.07955" lon="4.59182">
        <ele>609.789611816</ele>
        <time>2015-12-17T10:22:36.843Z</time>
      </trkpt>
      <trkpt lat="46.07957" lon="4.59169">
        <ele>609.419433594</ele>
        <time>2015-12-17T10:22:42.858Z</time>
      </trkpt>
      <trkpt lat="46.07958" lon="4.59168">
        <ele>609.347595215</ele>
        <time>2015-12-17T10:22:43.843Z</time>
      </trkpt>
      <trkpt lat="46.07966" lon="4.59163">
        <ele>608.692749023</ele>
        <time>2015-12-17T10:22:48.831Z</time>
      </trkpt>
      <trkpt lat="46.07967" lon="4.59162">
        <ele>608.52532959</ele>
        <time>2015-12-17T10:22:49.819Z</time>
      </trkpt>
      <trkpt lat="46.07975" lon="4.59158">
        <ele>607.497131348</ele>
        <time>2015-12-17T10:22:56.833Z</time>
      </trkpt>
      <trkpt lat="46.07976" lon="4.59157">
        <ele>607.400756836</ele>
        <time>2015-12-17T10:22:57.82Z</time>
      </trkpt>
      <trkpt lat="46.07984" lon="4.59155">
        <ele>607.100158691</ele>
        <time>2015-12-17T10:23:04.836Z</time>
      </trkpt>
      <trkpt lat="46.07985" lon="4.59155">
        <ele>607.095092773</ele>
        <time>2015-12-17T10:23:05.819Z</time>
      </trkpt>
      <trkpt lat="46.07993" lon="4.59154">
        <ele>606.970092773</ele>
        <time>2015-12-17T10:23:10.837Z</time>
      </trkpt>
      <trkpt lat="46.07995" lon="4.59154">
        <ele>606.937561035</ele>
        <time>2015-12-17T10:23:11.821Z</time>
      </trkpt>
      <trkpt lat="46.08003" lon="4.59153">
        <ele>606.618835449</ele>
        <time>2015-12-17T10:23:17.834Z</time>
      </trkpt>
      <trkpt lat="46.08005" lon="4.59152">
        <ele>606.481323242</ele>
        <time>2015-12-17T10:23:18.82Z</time>
      </trkpt>
      <trkpt lat="46.08013" lon="4.59148">
        <ele>606.137084961</ele>
        <time>2015-12-17T10:23:25.835Z</time>
      </trkpt>
      <trkpt lat="46.08014" lon="4.59147">
        <ele>606.090637207</ele>
        <time>2015-12-17T10:23:26.823Z</time>
      </trkpt>
      <trkpt lat="46.08021" lon="4.5914">
        <ele>605.756225586</ele>
        <time>2015-12-17T10:23:32.84Z</time>
      </trkpt>
      <trkpt lat="46.08021" lon="4.59139">
        <ele>605.693237305</ele>
        <time>2015-12-17T10:23:33.821Z</time>
      </trkpt>
      <trkpt lat="46.08018" lon="4.59128">
        <ele>605.345397949</ele>
        <time>2015-12-17T10:23:44.86Z</time>
      </trkpt>
      <trkpt lat="46.08017" lon="4.59127">
        <ele>605.347106934</ele>
        <time>2015-12-17T10:23:45.825Z</time>
      </trkpt>
      <trkpt lat="46.08013" lon="4.59117">
        <ele>604.995422363</ele>
        <time>2015-12-17T10:23:51.915Z</time>
      </trkpt>
      <trkpt lat="46.08012" lon="4.59115">
        <ele>604.962280273</ele>
        <time>2015-12-17T10:23:52.827Z</time>
      </trkpt>
      <trkpt lat="46.08009" lon="4.59104">
        <ele>604.995910645</ele>
        <time>2015-12-17T10:23:59.839Z</time>
      </trkpt>
      <trkpt lat="46.08009" lon="4.59102">
        <ele>604.998168945</ele>
        <time>2015-12-17T10:24:00.825Z</time>
      </trkpt>
      <trkpt lat="46.08006" lon="4.59091">
        <ele>604.971374512</ele>
        <time>2015-12-17T10:24:07.842Z</time>
      </trkpt>
      <trkpt lat="46.08005" lon="4.59089">
        <ele>604.977661133</ele>
        <time>2015-12-17T10:24:08.827Z</time>
      </trkpt>
      <trkpt lat="46.08013" lon="4.59093">
        <ele>605.203918457</ele>
        <time>2015-12-17T10:24:56.842Z</time>
      </trkpt>
      <trkpt lat="46.08015" lon="4.59093">
        <ele>605.300354004</ele>
        <time>2015-12-17T10:24:57.828Z</time>
      </trkpt>
      <trkpt lat="46.08022" lon="4.59098">
        <ele>605.56427002</ele>
        <time>2015-12-17T10:25:03.842Z</time>
      </trkpt>
      <trkpt lat="46.08023" lon="4.59099">
        <ele>605.577636719</ele>
        <time>2015-12-17T10:25:04.829Z</time>
      </trkpt>
      <trkpt lat="46.08031" lon="4.59106">
        <ele>605.571899414</ele>
        <time>2015-12-17T10:25:10.843Z</time>
      </trkpt>
      <trkpt lat="46.08031" lon="4.59107">
        <ele>605.548950195</ele>
        <time>2015-12-17T10:25:11.829Z</time>
      </trkpt>
      <trkpt lat="46.08039" lon="4.59111">
        <ele>605.881408691</ele>
        <time>2015-12-17T10:25:20.84Z</time>
      </trkpt>
      <trkpt lat="46.0804" lon="4.59112">
        <ele>605.979675293</ele>
        <time>2015-12-17T10:25:21.829Z</time>
      </trkpt>
      <trkpt lat="46.08047" lon="4.59117">
        <ele>606.221191406</ele>
        <time>2015-12-17T10:25:27.843Z</time>
      </trkpt>
      <trkpt lat="46.08048" lon="4.59118">
        <ele>606.223083496</ele>
        <time>2015-12-17T10:25:28.83Z</time>
      </trkpt>
      <trkpt lat="46.08057" lon="4.59119">
        <ele>606.52130127</ele>
        <time>2015-12-17T10:25:37.841Z</time>
      </trkpt>
      <trkpt lat="46.08058" lon="4.59119">
        <ele>606.592346191</ele>
        <time>2015-12-17T10:25:38.831Z</time>
      </trkpt>
      <trkpt lat="46.08066" lon="4.59116">
        <ele>606.696777344</ele>
        <time>2015-12-17T10:25:45.846Z</time>
      </trkpt>
      <trkpt lat="46.08067" lon="4.59116">
        <ele>606.759155273</ele>
        <time>2015-12-17T10:25:46.832Z</time>
      </trkpt>
      <trkpt lat="46.08076" lon="4.59112">
        <ele>607.182861328</ele>
        <time>2015-12-17T10:25:53.845Z</time>
      </trkpt>
      <trkpt lat="46.08077" lon="4.59112">
        <ele>607.223571777</ele>
        <time>2015-12-17T10:25:54.836Z</time>
      </trkpt>
      <trkpt lat="46.08085" lon="4.59112">
        <ele>607.520324707</ele>
        <time>2015-12-17T10:26:03.847Z</time>
      </trkpt>
      <trkpt lat="46.08087" lon="4.59111">
        <ele>607.573242188</ele>
        <time>2015-12-17T10:26:04.835Z</time>
      </trkpt>
      <trkpt lat="46.08095" lon="4.59109">
        <ele>607.720153809</ele>
        <time>2015-12-17T10:26:11.848Z</time>
      </trkpt>
      <trkpt lat="46.08096" lon="4.59109">
        <ele>607.786865234</ele>
        <time>2015-12-17T10:26:12.838Z</time>
      </trkpt>
      <trkpt lat="46.08104" lon="4.5911">
        <ele>608.365478516</ele>
        <time>2015-12-17T10:26:19.845Z</time>
      </trkpt>
      <trkpt lat="46.08105" lon="4.59111">
        <ele>608.446594238</ele>
        <time>2015-12-17T10:26:20.834Z</time>
      </trkpt>
      <trkpt lat="46.08113" lon="4.5911">
        <ele>609.342102051</ele>
        <time>2015-12-17T10:26:29.968Z</time>
      </trkpt>
      <trkpt lat="46.08115" lon="4.59109">
        <ele>609.459777832</ele>
        <time>2015-12-17T10:26:30.835Z</time>
      </trkpt>
      <trkpt lat="46.08122" lon="4.59108">
        <ele>609.946655273</ele>
        <time>2015-12-17T10:26:35.847Z</time>
      </trkpt>
      <trkpt lat="46.08124" lon="4.59108">
        <ele>610.053100586</ele>
        <time>2015-12-17T10:26:36.835Z</time>
      </trkpt>
      <trkpt lat="46.08131" lon="4.59109">
        <ele>610.774902344</ele>
        <time>2015-12-17T10:26:43.849Z</time>
      </trkpt>
      <trkpt lat="46.08133" lon="4.59109">
        <ele>610.887512207</ele>
        <time>2015-12-17T10:26:44.838Z</time>
      </trkpt>
      <trkpt lat="46.0814" lon="4.59115">
        <ele>611.936401367</ele>
        <time>2015-12-17T10:26:51.849Z</time>
      </trkpt>
      <trkpt lat="46.08141" lon="4.59117">
        <ele>612.120788574</ele>
        <time>2015-12-17T10:26:52.843Z</time>
      </trkpt>
      <trkpt lat="46.08148" lon="4.59125">
        <ele>613.311218262</ele>
        <time>2015-12-17T10:26:59.851Z</time>
      </trkpt>
      <trkpt lat="46.08149" lon="4.59125">
        <ele>613.487487793</ele>
        <time>2015-12-17T10:27:00.837Z</time>
      </trkpt>
      <trkpt lat="46.08157" lon="4.59128">
        <ele>614.498168945</ele>
        <time>2015-12-17T10:27:06.852Z</time>
      </trkpt>
      <trkpt lat="46.08158" lon="4.59129">
        <ele>614.677734375</ele>
        <time>2015-12-17T10:27:07.837Z</time>
      </trkpt>
      <trkpt lat="46.08165" lon="4.59132">
        <ele>615.493591309</ele>
        <time>2015-12-17T10:27:13.867Z</time>
      </trkpt>
      <trkpt lat="46.08167" lon="4.59132">
        <ele>615.63458252</ele>
        <time>2015-12-17T10:27:14.838Z</time>
      </trkpt>
      <trkpt lat="46.08175" lon="4.59133">
        <ele>616.466491699</ele>
        <time>2015-12-17T10:27:21.855Z</time>
      </trkpt>
      <trkpt lat="46.08176" lon="4.59133">
        <ele>616.537658691</ele>
        <time>2015-12-17T10:27:22.841Z</time>
      </trkpt>
      <trkpt lat="46.08184" lon="4.59128">
        <ele>617.596435547</ele>
        <time>2015-12-17T10:27:29.853Z</time>
      </trkpt>
      <trkpt lat="46.08185" lon="4.59128">
        <ele>617.696166992</ele>
        <time>2015-12-17T10:27:30.839Z</time>
      </trkpt>
      <trkpt lat="46.08193" lon="4.59123">
        <ele>618.751647949</ele>
        <time>2015-12-17T10:27:38.851Z</time>
      </trkpt>
      <trkpt lat="46.08194" lon="4.59122">
        <ele>618.922058105</ele>
        <time>2015-12-17T10:27:39.839Z</time>
      </trkpt>
      <trkpt lat="46.08201" lon="4.59115">
        <ele>619.759216309</ele>
        <time>2015-12-17T10:27:45.859Z</time>
      </trkpt>
      <trkpt lat="46.08201" lon="4.59114">
        <ele>619.92779541</ele>
        <time>2015-12-17T10:27:46.84Z</time>
      </trkpt>
      <trkpt lat="46.08208" lon="4.59106">
        <ele>621.658630371</ele>
        <time>2015-12-17T10:27:56.885Z</time>
      </trkpt>
      <trkpt lat="46.08208" lon="4.59105">
        <ele>621.810791016</ele>
        <time>2015-12-17T10:27:57.843Z</time>
      </trkpt>
      <trkpt lat="46.08216" lon="4.59099">
        <ele>623.481750488</ele>
        <time>2015-12-17T10:28:06.828Z</time>
      </trkpt>
      <trkpt lat="46.08217" lon="4.59098">
        <ele>623.648742676</ele>
        <time>2015-12-17T10:28:07.817Z</time>
      </trkpt>
      <trkpt lat="46.08224" lon="4.59092">
        <ele>624.92578125</ele>
        <time>2015-12-17T10:28:14.828Z</time>
      </trkpt>
      <trkpt lat="46.08225" lon="4.59091">
        <ele>625.093811035</ele>
        <time>2015-12-17T10:28:15.819Z</time>
      </trkpt>
      <trkpt lat="46.08231" lon="4.59083">
        <ele>626.821350098</ele>
        <time>2015-12-17T10:28:24.831Z</time>
      </trkpt>
      <trkpt lat="46.08232" lon="4.59082">
        <ele>627.032592773</ele>
        <time>2015-12-17T10:28:25.818Z</time>
      </trkpt>
      <trkpt lat="46.0824" lon="4.59075">
        <ele>628.721984863</ele>
        <time>2015-12-17T10:28:34.829Z</time>
      </trkpt>
      <trkpt lat="46.08241" lon="4.59074">
        <ele>628.898925781</ele>
        <time>2015-12-17T10:28:35.817Z</time>
      </trkpt>
      <trkpt lat="46.08249" lon="4.59071">
        <ele>629.903930664</ele>
        <time>2015-12-17T10:28:42.83Z</time>
      </trkpt>
      <trkpt lat="46.0825" lon="4.5907">
        <ele>630.109130859</ele>
        <time>2015-12-17T10:28:43.82Z</time>
      </trkpt>
      <trkpt lat="46.08258" lon="4.59068">
        <ele>631.989624023</ele>
        <time>2015-12-17T10:28:52.841Z</time>
      </trkpt>
      <trkpt lat="46.0826" lon="4.59067">
        <ele>632.240844727</ele>
        <time>2015-12-17T10:28:53.819Z</time>
      </trkpt>
      <trkpt lat="46.08267" lon="4.59062">
        <ele>633.854980469</ele>
        <time>2015-12-17T10:29:00.834Z</time>
      </trkpt>
      <trkpt lat="46.08268" lon="4.59062">
        <ele>634.109985352</ele>
        <time>2015-12-17T10:29:01.829Z</time>
      </trkpt>
      <trkpt lat="46.08275" lon="4.59058">
        <ele>635.416320801</ele>
        <time>2015-12-17T10:29:07.833Z</time>
      </trkpt>
      <trkpt lat="46.08277" lon="4.59057">
        <ele>635.520324707</ele>
        <time>2015-12-17T10:29:08.821Z</time>
      </trkpt>
      <trkpt lat="46.08284" lon="4.59051">
        <ele>637.794555664</ele>
        <time>2015-12-17T10:29:28.834Z</time>
      </trkpt>
      <trkpt lat="46.08285" lon="4.59049">
        <ele>637.936035156</ele>
        <time>2015-12-17T10:29:29.824Z</time>
      </trkpt>
      <trkpt lat="46.08285" lon="4.59037">
        <ele>638.940673828</ele>
        <time>2015-12-17T10:29:38.838Z</time>
      </trkpt>
      <trkpt lat="46.08284" lon="4.59036">
        <ele>639.058898926</ele>
        <time>2015-12-17T10:29:39.824Z</time>
      </trkpt>
      <trkpt lat="46.08278" lon="4.59027">
        <ele>640.081176758</ele>
        <time>2015-12-17T10:29:47.834Z</time>
      </trkpt>
      <trkpt lat="46.08277" lon="4.59026">
        <ele>640.26171875</ele>
        <time>2015-12-17T10:29:48.825Z</time>
      </trkpt>
      <trkpt lat="46.08272" lon="4.59017">
        <ele>641.739135742</ele>
        <time>2015-12-17T10:29:55.838Z</time>
      </trkpt>
      <trkpt lat="46.08272" lon="4.59016">
        <ele>641.893127441</ele>
        <time>2015-12-17T10:29:56.825Z</time>
      </trkpt>
      <trkpt lat="46.08269" lon="4.59006">
        <ele>643.354064941</ele>
        <time>2015-12-17T10:30:05.835Z</time>
      </trkpt>
      <trkpt lat="46.08269" lon="4.59004">
        <ele>643.514831543</ele>
        <time>2015-12-17T10:30:06.824Z</time>
      </trkpt>
      <trkpt lat="46.08267" lon="4.58992">
        <ele>644.229797363</ele>
        <time>2015-12-17T10:30:13.848Z</time>
      </trkpt>
      <trkpt lat="46.08267" lon="4.5899">
        <ele>644.345214844</ele>
        <time>2015-12-17T10:30:14.828Z</time>
      </trkpt>
      <trkpt lat="46.08266" lon="4.58978">
        <ele>645.248718262</ele>
        <time>2015-12-17T10:30:22.84Z</time>
      </trkpt>
      <trkpt lat="46.08266" lon="4.58976">
        <ele>645.403015137</ele>
        <time>2015-12-17T10:30:23.827Z</time>
      </trkpt>
      <trkpt lat="46.08266" lon="4.58964">
        <ele>646.391723633</ele>
        <time>2015-12-17T10:30:31.84Z</time>
      </trkpt>
      <trkpt lat="46.08265" lon="4.58962">
        <ele>646.536682129</ele>
        <time>2015-12-17T10:30:32.826Z</time>
      </trkpt>
      <trkpt lat="46.08265" lon="4.58949">
        <ele>648.311706543</ele>
        <time>2015-12-17T10:30:41.839Z</time>
      </trkpt>
      <trkpt lat="46.08265" lon="4.58948">
        <ele>648.454406738</ele>
        <time>2015-12-17T10:30:42.827Z</time>
      </trkpt>
      <trkpt lat="46.08264" lon="4.58935">
        <ele>650.133056641</ele>
        <time>2015-12-17T10:30:52.841Z</time>
      </trkpt>
      <trkpt lat="46.08264" lon="4.58933">
        <ele>650.296936035</ele>
        <time>2015-12-17T10:30:53.834Z</time>
      </trkpt>
      <trkpt lat="46.08264" lon="4.58921">
        <ele>651.24041748</ele>
        <time>2015-12-17T10:31:00.841Z</time>
      </trkpt>
      <trkpt lat="46.08264" lon="4.58919">
        <ele>651.370239258</ele>
        <time>2015-12-17T10:31:01.833Z</time>
      </trkpt>
      <trkpt lat="46.08262" lon="4.58907">
        <ele>652.786987305</ele>
        <time>2015-12-17T10:31:11.848Z</time>
      </trkpt>
      <trkpt lat="46.08262" lon="4.58906">
        <ele>652.957824707</ele>
        <time>2015-12-17T10:31:12.829Z</time>
      </trkpt>
      <trkpt lat="46.08261" lon="4.58894">
        <ele>654.796264648</ele>
        <time>2015-12-17T10:31:22.844Z</time>
      </trkpt>
      <trkpt lat="46.08261" lon="4.58892">
        <ele>655.003356934</ele>
        <time>2015-12-17T10:31:23.841Z</time>
      </trkpt>
      <trkpt lat="46.08258" lon="4.58881">
        <ele>656.80670166</ele>
        <time>2015-12-17T10:31:33.986Z</time>
      </trkpt>
      <trkpt lat="46.08257" lon="4.5888">
        <ele>656.988464355</ele>
        <time>2015-12-17T10:31:34.832Z</time>
      </trkpt>
      <trkpt lat="46.08253" lon="4.58868">
        <ele>658.373901367</ele>
        <time>2015-12-17T10:31:42.843Z</time>
      </trkpt>
      <trkpt lat="46.08253" lon="4.58867">
        <ele>658.566223145</ele>
        <time>2015-12-17T10:31:43.833Z</time>
      </trkpt>
      <trkpt lat="46.08252" lon="4.58856">
        <ele>660.861572266</ele>
        <time>2015-12-17T10:31:53.843Z</time>
      </trkpt>
      <trkpt lat="46.08252" lon="4.58854">
        <ele>661.067260742</ele>
        <time>2015-12-17T10:31:54.833Z</time>
      </trkpt>
      <trkpt lat="46.0825" lon="4.58843">
        <ele>662.690368652</ele>
        <time>2015-12-17T10:32:03.851Z</time>
      </trkpt>
      <trkpt lat="46.0825" lon="4.58842">
        <ele>662.949768066</ele>
        <time>2015-12-17T10:32:04.835Z</time>
      </trkpt>
      <trkpt lat="46.0825" lon="4.5883">
        <ele>664.979492188</ele>
        <time>2015-12-17T10:32:11.848Z</time>
      </trkpt>
      <trkpt lat="46.0825" lon="4.58828">
        <ele>665.179016113</ele>
        <time>2015-12-17T10:32:12.834Z</time>
      </trkpt>
      <trkpt lat="46.08251" lon="4.58816">
        <ele>667.504516602</ele>
        <time>2015-12-17T10:32:22.847Z</time>
      </trkpt>
      <trkpt lat="46.08251" lon="4.58815">
        <ele>667.733337402</ele>
        <time>2015-12-17T10:32:23.833Z</time>
      </trkpt>
      <trkpt lat="46.08251" lon="4.58802">
        <ele>669.707336426</ele>
        <time>2015-12-17T10:32:31.851Z</time>
      </trkpt>
      <trkpt lat="46.08251" lon="4.588">
        <ele>669.968566895</ele>
        <time>2015-12-17T10:32:32.836Z</time>
      </trkpt>
      <trkpt lat="46.08247" lon="4.58788">
        <ele>671.337402344</ele>
        <time>2015-12-17T10:32:37.849Z</time>
      </trkpt>
      <trkpt lat="46.08247" lon="4.58788">
        <ele>671.625976562</ele>
        <time>2015-12-17T10:32:38.837Z</time>
      </trkpt>
      <trkpt lat="46.08244" lon="4.58776">
        <ele>674.323181152</ele>
        <time>2015-12-17T10:32:48.012Z</time>
      </trkpt>
      <trkpt lat="46.08244" lon="4.58774">
        <ele>674.44152832</ele>
        <time>2015-12-17T10:32:48.837Z</time>
      </trkpt>
      <trkpt lat="46.08244" lon="4.58761">
        <ele>674.944091797</ele>
        <time>2015-12-17T10:32:57.849Z</time>
      </trkpt>
      <trkpt lat="46.08243" lon="4.5876">
        <ele>675.040161133</ele>
        <time>2015-12-17T10:32:58.839Z</time>
      </trkpt>
      <trkpt lat="46.08241" lon="4.58749">
        <ele>675.70098877</ele>
        <time>2015-12-17T10:33:07.85Z</time>
      </trkpt>
      <trkpt lat="46.0824" lon="4.58747">
        <ele>675.83807373</ele>
        <time>2015-12-17T10:33:08.839Z</time>
      </trkpt>
      <trkpt lat="46.0824" lon="4.58735">
        <ele>676.803039551</ele>
        <time>2015-12-17T10:33:16.85Z</time>
      </trkpt>
      <trkpt lat="46.0824" lon="4.58734">
        <ele>676.984619141</ele>
        <time>2015-12-17T10:33:17.814Z</time>
      </trkpt>
      <trkpt lat="46.08238" lon="4.58724">
        <ele>678.274414062</ele>
        <time>2015-12-17T10:33:25.827Z</time>
      </trkpt>
      <trkpt lat="46.08238" lon="4.58721">
        <ele>678.389587402</ele>
        <time>2015-12-17T10:33:26.816Z</time>
      </trkpt>
      <trkpt lat="46.0824" lon="4.58711">
        <ele>679.425537109</ele>
        <time>2015-12-17T10:33:32.828Z</time>
      </trkpt>
      <trkpt lat="46.08241" lon="4.58708">
        <ele>679.729248047</ele>
        <time>2015-12-17T10:33:33.815Z</time>
      </trkpt>
      <trkpt lat="46.08246" lon="4.58697">
        <ele>681.625244141</ele>
        <time>2015-12-17T10:33:41.826Z</time>
      </trkpt>
      <trkpt lat="46.08246" lon="4.58696">
        <ele>681.873657227</ele>
        <time>2015-12-17T10:33:42.816Z</time>
      </trkpt>
      <trkpt lat="46.08252" lon="4.58686">
        <ele>683.505432129</ele>
        <time>2015-12-17T10:33:50.828Z</time>
      </trkpt>
      <trkpt lat="46.08252" lon="4.58685">
        <ele>683.724182129</ele>
        <time>2015-12-17T10:33:51.814Z</time>
      </trkpt>
      <trkpt lat="46.08254" lon="4.58674">
        <ele>685.344055176</ele>
        <time>2015-12-17T10:34:05.827Z</time>
      </trkpt>
      <trkpt lat="46.08254" lon="4.58672">
        <ele>685.381713867</ele>
        <time>2015-12-17T10:34:06.817Z</time>
      </trkpt>
      <trkpt lat="46.08252" lon="4.5866">
        <ele>686.289428711</ele>
        <time>2015-12-17T10:34:22.83Z</time>
      </trkpt>
      <trkpt lat="46.08252" lon="4.5866">
        <ele>686.404541016</ele>
        <time>2015-12-17T10:34:23.82Z</time>
      </trkpt>
      <trkpt lat="46.08244" lon="4.58661">
        <ele>689.660827637</ele>
        <time>2015-12-17T10:34:37.832Z</time>
      </trkpt>
      <trkpt lat="46.08243" lon="4.58661">
        <ele>689.996582031</ele>
        <time>2015-12-17T10:34:38.819Z</time>
      </trkpt>
      <trkpt lat="46.08236" lon="4.58663">
        <ele>691.994384766</ele>
        <time>2015-12-17T10:34:45.83Z</time>
      </trkpt>
      <trkpt lat="46.08234" lon="4.58664">
        <ele>692.217102051</ele>
        <time>2015-12-17T10:34:46.821Z</time>
      </trkpt>
      <trkpt lat="46.08225" lon="4.58667">
        <ele>693.890563965</ele>
        <time>2015-12-17T10:34:54.835Z</time>
      </trkpt>
      <trkpt lat="46.08224" lon="4.58667">
        <ele>694.073059082</ele>
        <time>2015-12-17T10:34:55.82Z</time>
      </trkpt>
      <trkpt lat="46.08216" lon="4.58662">
        <ele>694.730102539</ele>
        <time>2015-12-17T10:35:02.833Z</time>
      </trkpt>
      <trkpt lat="46.08215" lon="4.58661">
        <ele>694.731323242</ele>
        <time>2015-12-17T10:35:03.823Z</time>
      </trkpt>
      <trkpt lat="46.08211" lon="4.58651">
        <ele>695.368469238</ele>
        <time>2015-12-17T10:35:15.833Z</time>
      </trkpt>
      <trkpt lat="46.0821" lon="4.58649">
        <ele>695.516296387</ele>
        <time>2015-12-17T10:35:16.82Z</time>
      </trkpt>
      <trkpt lat="46.08206" lon="4.58638">
        <ele>696.594055176</ele>
        <time>2015-12-17T10:35:22.835Z</time>
      </trkpt>
      <trkpt lat="46.08205" lon="4.58637">
        <ele>696.762634277</ele>
        <time>2015-12-17T10:35:23.824Z</time>
      </trkpt>
      <trkpt lat="46.082" lon="4.58627">
        <ele>697.815490723</ele>
        <time>2015-12-17T10:35:31.835Z</time>
      </trkpt>
      <trkpt lat="46.082" lon="4.58626">
        <ele>697.936035156</ele>
        <time>2015-12-17T10:35:32.826Z</time>
      </trkpt>
      <trkpt lat="46.08197" lon="4.58614">
        <ele>699.035583496</ele>
        <time>2015-12-17T10:35:40.839Z</time>
      </trkpt>
      <trkpt lat="46.08197" lon="4.58613">
        <ele>699.207580566</ele>
        <time>2015-12-17T10:35:41.833Z</time>
      </trkpt>
      <trkpt lat="46.08194" lon="4.586">
        <ele>700.340759277</ele>
        <time>2015-12-17T10:35:50.838Z</time>
      </trkpt>
      <trkpt lat="46.08194" lon="4.58599">
        <ele>700.460144043</ele>
        <time>2015-12-17T10:35:51.824Z</time>
      </trkpt>
      <trkpt lat="46.08193" lon="4.58586">
        <ele>701.529602051</ele>
        <time>2015-12-17T10:35:59.842Z</time>
      </trkpt>
      <trkpt lat="46.08193" lon="4.58585">
        <ele>701.631286621</ele>
        <time>2015-12-17T10:36:00.826Z</time>
      </trkpt>
      <trkpt lat="46.08189" lon="4.58573">
        <ele>702.65234375</ele>
        <time>2015-12-17T10:36:09.845Z</time>
      </trkpt>
      <trkpt lat="46.08189" lon="4.58572">
        <ele>702.790466309</ele>
        <time>2015-12-17T10:36:10.827Z</time>
      </trkpt>
      <trkpt lat="46.08185" lon="4.58562">
        <ele>708.188964844</ele>
        <time>2015-12-17T10:41:16.837Z</time>
      </trkpt>
      <trkpt lat="46.08184" lon="4.5856">
        <ele>708.237792969</ele>
        <time>2015-12-17T10:41:17.829Z</time>
      </trkpt>
      <trkpt lat="46.08183" lon="4.58548">
        <ele>708.980285645</ele>
        <time>2015-12-17T10:41:29.994Z</time>
      </trkpt>
      <trkpt lat="46.08183" lon="4.58547">
        <ele>709.052856445</ele>
        <time>2015-12-17T10:41:30.803Z</time>
      </trkpt>
      <trkpt lat="46.08184" lon="4.58534">
        <ele>709.721008301</ele>
        <time>2015-12-17T10:41:42.815Z</time>
      </trkpt>
      <trkpt lat="46.08184" lon="4.58533">
        <ele>709.781982422</ele>
        <time>2015-12-17T10:41:43.802Z</time>
      </trkpt>
      <trkpt lat="46.08184" lon="4.58522">
        <ele>710.089599609</ele>
        <time>2015-12-17T10:41:51.814Z</time>
      </trkpt>
      <trkpt lat="46.08184" lon="4.5852">
        <ele>710.052612305</ele>
        <time>2015-12-17T10:41:52.8Z</time>
      </trkpt>
      <trkpt lat="46.08185" lon="4.58509">
        <ele>710.034057617</ele>
        <time>2015-12-17T10:41:58.815Z</time>
      </trkpt>
      <trkpt lat="46.08185" lon="4.58507">
        <ele>710.072875977</ele>
        <time>2015-12-17T10:41:59.803Z</time>
      </trkpt>
      <trkpt lat="46.08188" lon="4.58495">
        <ele>710.643615723</ele>
        <time>2015-12-17T10:42:07.817Z</time>
      </trkpt>
      <trkpt lat="46.08188" lon="4.58493">
        <ele>710.697814941</ele>
        <time>2015-12-17T10:42:08.803Z</time>
      </trkpt>
      <trkpt lat="46.0819" lon="4.5848">
        <ele>711.065979004</ele>
        <time>2015-12-17T10:42:16.814Z</time>
      </trkpt>
      <trkpt lat="46.08191" lon="4.58479">
        <ele>711.053283691</ele>
        <time>2015-12-17T10:42:17.805Z</time>
      </trkpt>
      <trkpt lat="46.08192" lon="4.58466">
        <ele>711.127624512</ele>
        <time>2015-12-17T10:42:25.817Z</time>
      </trkpt>
      <trkpt lat="46.08192" lon="4.58465">
        <ele>711.114562988</ele>
        <time>2015-12-17T10:42:26.804Z</time>
      </trkpt>
      <trkpt lat="46.08193" lon="4.58452">
        <ele>710.975036621</ele>
        <time>2015-12-17T10:42:34.818Z</time>
      </trkpt>
      <trkpt lat="46.08193" lon="4.5845">
        <ele>710.984191895</ele>
        <time>2015-12-17T10:42:35.805Z</time>
      </trkpt>
      <trkpt lat="46.08194" lon="4.58439">
        <ele>710.648681641</ele>
        <time>2015-12-17T10:42:42.815Z</time>
      </trkpt>
      <trkpt lat="46.08195" lon="4.58437">
        <ele>710.554626465</ele>
        <time>2015-12-17T10:42:43.81Z</time>
      </trkpt>
      <trkpt lat="46.08196" lon="4.58425">
        <ele>709.992858887</ele>
        <time>2015-12-17T10:42:49.822Z</time>
      </trkpt>
      <trkpt lat="46.08196" lon="4.58423">
        <ele>709.867492676</ele>
        <time>2015-12-17T10:42:50.806Z</time>
      </trkpt>
      <trkpt lat="46.08197" lon="4.58411">
        <ele>708.922302246</ele>
        <time>2015-12-17T10:42:56.819Z</time>
      </trkpt>
      <trkpt lat="46.08197" lon="4.58409">
        <ele>708.861694336</ele>
        <time>2015-12-17T10:42:57.807Z</time>
      </trkpt>
      <trkpt lat="46.08197" lon="4.58398">
        <ele>708.704772949</ele>
        <time>2015-12-17T10:43:05.819Z</time>
      </trkpt>
      <trkpt lat="46.08198" lon="4.58396">
        <ele>708.679382324</ele>
        <time>2015-12-17T10:43:06.808Z</time>
      </trkpt>
      <trkpt lat="46.082" lon="4.58385">
        <ele>708.255737305</ele>
        <time>2015-12-17T10:43:12.825Z</time>
      </trkpt>
      <trkpt lat="46.08201" lon="4.58384">
        <ele>708.160583496</ele>
        <time>2015-12-17T10:43:13.808Z</time>
      </trkpt>
      <trkpt lat="46.08205" lon="4.58373">
        <ele>707.624694824</ele>
        <time>2015-12-17T10:43:19.821Z</time>
      </trkpt>
      <trkpt lat="46.08206" lon="4.58371">
        <ele>707.62298584</ele>
        <time>2015-12-17T10:43:20.807Z</time>
      </trkpt>
      <trkpt lat="46.08211" lon="4.58363">
        <ele>707.440734863</ele>
        <time>2015-12-17T10:43:26.831Z</time>
      </trkpt>
      <trkpt lat="46.08212" lon="4.58361">
        <ele>707.439758301</ele>
        <time>2015-12-17T10:43:27.809Z</time>
      </trkpt>
      <trkpt lat="46.08219" lon="4.58354">
        <ele>707.29699707</ele>
        <time>2015-12-17T10:43:33.822Z</time>
      </trkpt>
      <trkpt lat="46.0822" lon="4.58352">
        <ele>707.238098145</ele>
        <time>2015-12-17T10:43:34.809Z</time>
      </trkpt>
      <trkpt lat="46.08225" lon="4.58344">
        <ele>706.833679199</ele>
        <time>2015-12-17T10:43:41.84Z</time>
      </trkpt>
      <trkpt lat="46.08226" lon="4.58342">
        <ele>706.778076172</ele>
        <time>2015-12-17T10:43:42.809Z</time>
      </trkpt>
      <trkpt lat="46.08231" lon="4.58335">
        <ele>706.562561035</ele>
        <time>2015-12-17T10:43:48.823Z</time>
      </trkpt>
      <trkpt lat="46.08232" lon="4.58333">
        <ele>706.483398438</ele>
        <time>2015-12-17T10:43:49.814Z</time>
      </trkpt>
      <trkpt lat="46.08239" lon="4.58325">
        <ele>706.002319336</ele>
        <time>2015-12-17T10:43:57.828Z</time>
      </trkpt>
      <trkpt lat="46.0824" lon="4.58323">
        <ele>705.904663086</ele>
        <time>2015-12-17T10:43:58.813Z</time>
      </trkpt>
      <trkpt lat="46.08246" lon="4.58315">
        <ele>705.260803223</ele>
        <time>2015-12-17T10:44:04.824Z</time>
      </trkpt>
      <trkpt lat="46.08247" lon="4.58313">
        <ele>705.160339355</ele>
        <time>2015-12-17T10:44:05.812Z</time>
      </trkpt>
      <trkpt lat="46.08253" lon="4.58305">
        <ele>704.653991699</ele>
        <time>2015-12-17T10:44:12.824Z</time>
      </trkpt>
      <trkpt lat="46.08254" lon="4.58304">
        <ele>704.594482422</ele>
        <time>2015-12-17T10:44:13.809Z</time>
      </trkpt>
      <trkpt lat="46.08259" lon="4.58295">
        <ele>704.547546387</ele>
        <time>2015-12-17T10:44:18.825Z</time>
      </trkpt>
      <trkpt lat="46.0826" lon="4.58293">
        <ele>704.581359863</ele>
        <time>2015-12-17T10:44:19.817Z</time>
      </trkpt>
      <trkpt lat="46.08266" lon="4.58283">
        <ele>704.501098633</ele>
        <time>2015-12-17T10:44:27.825Z</time>
      </trkpt>
      <trkpt lat="46.08267" lon="4.58282">
        <ele>704.518310547</ele>
        <time>2015-12-17T10:44:28.813Z</time>
      </trkpt>
      <trkpt lat="46.08273" lon="4.58275">
        <ele>704.415222168</ele>
        <time>2015-12-17T10:44:35.827Z</time>
      </trkpt>
      <trkpt lat="46.08274" lon="4.58273">
        <ele>704.359619141</ele>
        <time>2015-12-17T10:44:36.814Z</time>
      </trkpt>
      <trkpt lat="46.0828" lon="4.58267">
        <ele>704.335449219</ele>
        <time>2015-12-17T10:44:41.836Z</time>
      </trkpt>
      <trkpt lat="46.08281" lon="4.58266">
        <ele>704.27532959</ele>
        <time>2015-12-17T10:44:42.814Z</time>
      </trkpt>
      <trkpt lat="46.08288" lon="4.5826">
        <ele>703.981201172</ele>
        <time>2015-12-17T10:44:49.827Z</time>
      </trkpt>
      <trkpt lat="46.0829" lon="4.58259">
        <ele>703.951843262</ele>
        <time>2015-12-17T10:44:50.815Z</time>
      </trkpt>
      <trkpt lat="46.08297" lon="4.58253">
        <ele>703.666625977</ele>
        <time>2015-12-17T10:44:56.828Z</time>
      </trkpt>
      <trkpt lat="46.08298" lon="4.58252">
        <ele>703.590820312</ele>
        <time>2015-12-17T10:44:57.816Z</time>
      </trkpt>
      <trkpt lat="46.08305" lon="4.58244">
        <ele>703.213012695</ele>
        <time>2015-12-17T10:45:05.834Z</time>
      </trkpt>
      <trkpt lat="46.08306" lon="4.58243">
        <ele>703.221130371</ele>
        <time>2015-12-17T10:45:06.816Z</time>
      </trkpt>
      <trkpt lat="46.08313" lon="4.58237">
        <ele>703.631652832</ele>
        <time>2015-12-17T10:45:13.831Z</time>
      </trkpt>
      <trkpt lat="46.08314" lon="4.58236">
        <ele>703.684326172</ele>
        <time>2015-12-17T10:45:14.816Z</time>
      </trkpt>
      <trkpt lat="46.08321" lon="4.5823">
        <ele>703.797851562</ele>
        <time>2015-12-17T10:45:21.829Z</time>
      </trkpt>
      <trkpt lat="46.08323" lon="4.58229">
        <ele>703.900695801</ele>
        <time>2015-12-17T10:45:22.815Z</time>
      </trkpt>
      <trkpt lat="46.08331" lon="4.58225">
        <ele>704.11706543</ele>
        <time>2015-12-17T10:45:28.831Z</time>
      </trkpt>
      <trkpt lat="46.08332" lon="4.58224">
        <ele>704.162536621</ele>
        <time>2015-12-17T10:45:29.818Z</time>
      </trkpt>
      <trkpt lat="46.08338" lon="4.58218">
        <ele>704.091430664</ele>
        <time>2015-12-17T10:45:34.84Z</time>
      </trkpt>
      <trkpt lat="46.08339" lon="4.58217">
        <ele>704.067443848</ele>
        <time>2015-12-17T10:45:35.819Z</time>
      </trkpt>
      <trkpt lat="46.08346" lon="4.5821">
        <ele>704.234008789</ele>
        <time>2015-12-17T10:45:41.828Z</time>
      </trkpt>
      <trkpt lat="46.08347" lon="4.58208">
        <ele>704.297180176</ele>
        <time>2015-12-17T10:45:42.818Z</time>
      </trkpt>
      <trkpt lat="46.08354" lon="4.58203">
        <ele>705.051696777</ele>
        <time>2015-12-17T10:45:49.832Z</time>
      </trkpt>
      <trkpt lat="46.08356" lon="4.58202">
        <ele>705.172363281</ele>
        <time>2015-12-17T10:45:50.819Z</time>
      </trkpt>
      <trkpt lat="46.08363" lon="4.58196">
        <ele>705.930175781</ele>
        <time>2015-12-17T10:45:56.832Z</time>
      </trkpt>
      <trkpt lat="46.08364" lon="4.58195">
        <ele>706.026855469</ele>
        <time>2015-12-17T10:45:57.819Z</time>
      </trkpt>
      <trkpt lat="46.08373" lon="4.5819">
        <ele>706.339355469</ele>
        <time>2015-12-17T10:46:03.833Z</time>
      </trkpt>
      <trkpt lat="46.08374" lon="4.58189">
        <ele>706.365600586</ele>
        <time>2015-12-17T10:46:04.82Z</time>
      </trkpt>
      <trkpt lat="46.08382" lon="4.58186">
        <ele>706.686767578</ele>
        <time>2015-12-17T10:46:11.834Z</time>
      </trkpt>
      <trkpt lat="46.08383" lon="4.58186">
        <ele>706.706604004</ele>
        <time>2015-12-17T10:46:12.82Z</time>
      </trkpt>
      <trkpt lat="46.08391" lon="4.58183">
        <ele>706.752258301</ele>
        <time>2015-12-17T10:46:17.835Z</time>
      </trkpt>
      <trkpt lat="46.08392" lon="4.58182">
        <ele>706.770751953</ele>
        <time>2015-12-17T10:46:18.821Z</time>
      </trkpt>
      <trkpt lat="46.084" lon="4.5818">
        <ele>706.802307129</ele>
        <time>2015-12-17T10:46:23.833Z</time>
      </trkpt>
      <trkpt lat="46.08401" lon="4.5818">
        <ele>706.780822754</ele>
        <time>2015-12-17T10:46:24.823Z</time>
      </trkpt>
      <trkpt lat="46.08409" lon="4.58177">
        <ele>706.609313965</ele>
        <time>2015-12-17T10:46:29.981Z</time>
      </trkpt>
      <trkpt lat="46.0841" lon="4.58177">
        <ele>706.600646973</ele>
        <time>2015-12-17T10:46:30.82Z</time>
      </trkpt>
      <trkpt lat="46.08418" lon="4.58173">
        <ele>706.813293457</ele>
        <time>2015-12-17T10:46:37.839Z</time>
      </trkpt>
      <trkpt lat="46.0842" lon="4.58172">
        <ele>706.882751465</ele>
        <time>2015-12-17T10:46:38.82Z</time>
      </trkpt>
      <trkpt lat="46.08428" lon="4.58168">
        <ele>707.568786621</ele>
        <time>2015-12-17T10:46:45.843Z</time>
      </trkpt>
      <trkpt lat="46.0843" lon="4.58167">
        <ele>707.654907227</ele>
        <time>2015-12-17T10:46:46.798Z</time>
      </trkpt>
      <trkpt lat="46.08438" lon="4.58163">
        <ele>707.808532715</ele>
        <time>2015-12-17T10:46:51.811Z</time>
      </trkpt>
      <trkpt lat="46.08439" lon="4.58163">
        <ele>707.828308105</ele>
        <time>2015-12-17T10:46:52.801Z</time>
      </trkpt>
      <trkpt lat="46.08446" lon="4.5816">
        <ele>708.062316895</ele>
        <time>2015-12-17T10:46:58.815Z</time>
      </trkpt>
      <trkpt lat="46.08447" lon="4.58159">
        <ele>708.125427246</ele>
        <time>2015-12-17T10:46:59.799Z</time>
      </trkpt>
      <trkpt lat="46.08456" lon="4.58156">
        <ele>708.258483887</ele>
        <time>2015-12-17T10:47:04.826Z</time>
      </trkpt>
      <trkpt lat="46.08457" lon="4.58155">
        <ele>708.261108398</ele>
        <time>2015-12-17T10:47:05.799Z</time>
      </trkpt>
      <trkpt lat="46.08465" lon="4.58153">
        <ele>708.374084473</ele>
        <time>2015-12-17T10:47:11.811Z</time>
      </trkpt>
      <trkpt lat="46.08466" lon="4.58153">
        <ele>708.360839844</ele>
        <time>2015-12-17T10:47:12.803Z</time>
      </trkpt>
      <trkpt lat="46.08474" lon="4.58153">
        <ele>707.97442627</ele>
        <time>2015-12-17T10:47:18.813Z</time>
      </trkpt>
      <trkpt lat="46.08476" lon="4.58153">
        <ele>707.910888672</ele>
        <time>2015-12-17T10:47:19.801Z</time>
      </trkpt>
      <trkpt lat="46.08482" lon="4.58151">
        <ele>707.629699707</ele>
        <time>2015-12-17T10:47:24.816Z</time>
      </trkpt>
      <trkpt lat="46.08485" lon="4.58151">
        <ele>707.57611084</ele>
        <time>2015-12-17T10:47:25.802Z</time>
      </trkpt>
      <trkpt lat="46.08493" lon="4.5815">
        <ele>707.543945312</ele>
        <time>2015-12-17T10:47:32.815Z</time>
      </trkpt>
      <trkpt lat="46.08494" lon="4.58149">
        <ele>707.555419922</ele>
        <time>2015-12-17T10:47:33.802Z</time>
      </trkpt>
      <trkpt lat="46.08502" lon="4.58146">
        <ele>707.899047852</ele>
        <time>2015-12-17T10:47:39.819Z</time>
      </trkpt>
      <trkpt lat="46.08503" lon="4.58145">
        <ele>707.942077637</ele>
        <time>2015-12-17T10:47:40.805Z</time>
      </trkpt>
      <trkpt lat="46.08512" lon="4.58144">
        <ele>708.298034668</ele>
        <time>2015-12-17T10:47:47.814Z</time>
      </trkpt>
      <trkpt lat="46.08514" lon="4.58144">
        <ele>708.310546875</ele>
        <time>2015-12-17T10:47:48.802Z</time>
      </trkpt>
      <trkpt lat="46.08522" lon="4.58145">
        <ele>708.701721191</ele>
        <time>2015-12-17T10:47:55.817Z</time>
      </trkpt>
      <trkpt lat="46.08523" lon="4.58145">
        <ele>708.742126465</ele>
        <time>2015-12-17T10:47:56.803Z</time>
      </trkpt>
      <trkpt lat="46.08532" lon="4.58144">
        <ele>709.107421875</ele>
        <time>2015-12-17T10:48:03.818Z</time>
      </trkpt>
      <trkpt lat="46.08533" lon="4.58144">
        <ele>709.101501465</ele>
        <time>2015-12-17T10:48:04.804Z</time>
      </trkpt>
      <trkpt lat="46.0854" lon="4.58143">
        <ele>709.176574707</ele>
        <time>2015-12-17T10:48:10.818Z</time>
      </trkpt>
      <trkpt lat="46.08542" lon="4.58142">
        <ele>709.217895508</ele>
        <time>2015-12-17T10:48:11.81Z</time>
      </trkpt>
      <trkpt lat="46.08551" lon="4.58141">
        <ele>709.69329834</ele>
        <time>2015-12-17T10:48:18.826Z</time>
      </trkpt>
      <trkpt lat="46.08552" lon="4.58142">
        <ele>709.828613281</ele>
        <time>2015-12-17T10:48:19.805Z</time>
      </trkpt>
      <trkpt lat="46.08559" lon="4.58139">
        <ele>710.451477051</ele>
        <time>2015-12-17T10:48:24.819Z</time>
      </trkpt>
      <trkpt lat="46.08561" lon="4.58139">
        <ele>710.583251953</ele>
        <time>2015-12-17T10:48:25.806Z</time>
      </trkpt>
      <trkpt lat="46.08569" lon="4.58139">
        <ele>711.491760254</ele>
        <time>2015-12-17T10:48:31.821Z</time>
      </trkpt>
      <trkpt lat="46.0857" lon="4.58139">
        <ele>711.594726562</ele>
        <time>2015-12-17T10:48:32.807Z</time>
      </trkpt>
      <trkpt lat="46.08578" lon="4.58139">
        <ele>711.972900391</ele>
        <time>2015-12-17T10:48:37.82Z</time>
      </trkpt>
      <trkpt lat="46.0858" lon="4.58138">
        <ele>712.052856445</ele>
        <time>2015-12-17T10:48:38.806Z</time>
      </trkpt>
      <trkpt lat="46.08588" lon="4.58136">
        <ele>712.238647461</ele>
        <time>2015-12-17T10:48:45.818Z</time>
      </trkpt>
      <trkpt lat="46.08589" lon="4.58136">
        <ele>712.274047852</ele>
        <time>2015-12-17T10:48:46.808Z</time>
      </trkpt>
      <trkpt lat="46.08598" lon="4.58135">
        <ele>712.494934082</ele>
        <time>2015-12-17T10:48:52.821Z</time>
      </trkpt>
      <trkpt lat="46.08599" lon="4.58134">
        <ele>712.491210938</ele>
        <time>2015-12-17T10:48:53.808Z</time>
      </trkpt>
      <trkpt lat="46.08608" lon="4.58132">
        <ele>712.823364258</ele>
        <time>2015-12-17T10:49:00.833Z</time>
      </trkpt>
      <trkpt lat="46.08608" lon="4.58131">
        <ele>712.880126953</ele>
        <time>2015-12-17T10:49:01.809Z</time>
      </trkpt>
      <trkpt lat="46.08616" lon="4.5813">
        <ele>713.103210449</ele>
        <time>2015-12-17T10:49:06.823Z</time>
      </trkpt>
      <trkpt lat="46.08617" lon="4.58129">
        <ele>713.110656738</ele>
        <time>2015-12-17T10:49:07.811Z</time>
      </trkpt>
      <trkpt lat="46.08625" lon="4.58127">
        <ele>713.411132812</ele>
        <time>2015-12-17T10:49:14.823Z</time>
      </trkpt>
      <trkpt lat="46.08626" lon="4.58126">
        <ele>713.479248047</ele>
        <time>2015-12-17T10:49:15.81Z</time>
      </trkpt>
      <trkpt lat="46.08634" lon="4.58124">
        <ele>714.200561523</ele>
        <time>2015-12-17T10:49:21.983Z</time>
      </trkpt>
      <trkpt lat="46.08636" lon="4.58124">
        <ele>714.320129395</ele>
        <time>2015-12-17T10:49:22.811Z</time>
      </trkpt>
      <trkpt lat="46.08644" lon="4.58119">
        <ele>715.290710449</ele>
        <time>2015-12-17T10:49:29.833Z</time>
      </trkpt>
      <trkpt lat="46.08644" lon="4.58119">
        <ele>715.490539551</ele>
        <time>2015-12-17T10:49:30.814Z</time>
      </trkpt>
      <trkpt lat="46.08652" lon="4.58112">
        <ele>716.83984375</ele>
        <time>2015-12-17T10:49:38.824Z</time>
      </trkpt>
      <trkpt lat="46.08653" lon="4.5811">
        <ele>716.966125488</ele>
        <time>2015-12-17T10:49:39.812Z</time>
      </trkpt>
      <trkpt lat="46.08661" lon="4.58104">
        <ele>717.340576172</ele>
        <time>2015-12-17T10:49:47.827Z</time>
      </trkpt>
      <trkpt lat="46.08661" lon="4.58105">
        <ele>717.357727051</ele>
        <time>2015-12-17T10:49:48.812Z</time>
      </trkpt>
      <trkpt lat="46.08669" lon="4.581">
        <ele>717.971252441</ele>
        <time>2015-12-17T10:49:55.832Z</time>
      </trkpt>
      <trkpt lat="46.0867" lon="4.58099">
        <ele>718.048217773</ele>
        <time>2015-12-17T10:49:56.812Z</time>
      </trkpt>
      <trkpt lat="46.08678" lon="4.58094">
        <ele>718.370422363</ele>
        <time>2015-12-17T10:50:03.83Z</time>
      </trkpt>
      <trkpt lat="46.08679" lon="4.58094">
        <ele>718.376342773</ele>
        <time>2015-12-17T10:50:04.813Z</time>
      </trkpt>
      <trkpt lat="46.08686" lon="4.58089">
        <ele>718.363037109</ele>
        <time>2015-12-17T10:50:09.825Z</time>
      </trkpt>
      <trkpt lat="46.08687" lon="4.58088">
        <ele>718.361877441</ele>
        <time>2015-12-17T10:50:10.815Z</time>
      </trkpt>
      <trkpt lat="46.08693" lon="4.58079">
        <ele>718.472412109</ele>
        <time>2015-12-17T10:50:16.822Z</time>
      </trkpt>
      <trkpt lat="46.08694" lon="4.58078">
        <ele>718.478210449</ele>
        <time>2015-12-17T10:50:17.818Z</time>
      </trkpt>
      <trkpt lat="46.08701" lon="4.5807">
        <ele>718.663208008</ele>
        <time>2015-12-17T10:50:23.831Z</time>
      </trkpt>
      <trkpt lat="46.08702" lon="4.58068">
        <ele>718.708679199</ele>
        <time>2015-12-17T10:50:24.814Z</time>
      </trkpt>
      <trkpt lat="46.08708" lon="4.58059">
        <ele>718.993652344</ele>
        <time>2015-12-17T10:50:31.826Z</time>
      </trkpt>
      <trkpt lat="46.08709" lon="4.58058">
        <ele>719.036376953</ele>
        <time>2015-12-17T10:50:32.814Z</time>
      </trkpt>
      <trkpt lat="46.08715" lon="4.58049">
        <ele>719.90020752</ele>
        <time>2015-12-17T10:50:40.826Z</time>
      </trkpt>
      <trkpt lat="46.08716" lon="4.58048">
        <ele>720.020080566</ele>
        <time>2015-12-17T10:50:41.819Z</time>
      </trkpt>
      <trkpt lat="46.08722" lon="4.5804">
        <ele>721.18939209</ele>
        <time>2015-12-17T10:50:49.828Z</time>
      </trkpt>
      <trkpt lat="46.08723" lon="4.58039">
        <ele>721.222839355</ele>
        <time>2015-12-17T10:50:50.818Z</time>
      </trkpt>
      <trkpt lat="46.08729" lon="4.58032">
        <ele>721.432312012</ele>
        <time>2015-12-17T10:50:56.833Z</time>
      </trkpt>
      <trkpt lat="46.0873" lon="4.5803">
        <ele>721.444763184</ele>
        <time>2015-12-17T10:50:57.818Z</time>
      </trkpt>
      <trkpt lat="46.08736" lon="4.58023">
        <ele>721.258117676</ele>
        <time>2015-12-17T10:51:03.831Z</time>
      </trkpt>
      <trkpt lat="46.08738" lon="4.58022">
        <ele>721.151184082</ele>
        <time>2015-12-17T10:51:04.817Z</time>
      </trkpt>
      <trkpt lat="46.08744" lon="4.58014">
        <ele>720.472839355</ele>
        <time>2015-12-17T10:51:10.832Z</time>
      </trkpt>
      <trkpt lat="46.08745" lon="4.58013">
        <ele>720.396484375</ele>
        <time>2015-12-17T10:51:11.821Z</time>
      </trkpt>
      <trkpt lat="46.08752" lon="4.58005">
        <ele>720.239379883</ele>
        <time>2015-12-17T10:51:19.831Z</time>
      </trkpt>
      <trkpt lat="46.08753" lon="4.58004">
        <ele>720.203796387</ele>
        <time>2015-12-17T10:51:20.818Z</time>
      </trkpt>
      <trkpt lat="46.08759" lon="4.57996">
        <ele>720.153747559</ele>
        <time>2015-12-17T10:51:26.834Z</time>
      </trkpt>
      <trkpt lat="46.08761" lon="4.57995">
        <ele>720.124450684</ele>
        <time>2015-12-17T10:51:27.819Z</time>
      </trkpt>
      <trkpt lat="46.08766" lon="4.57986">
        <ele>720.211486816</ele>
        <time>2015-12-17T10:51:32.833Z</time>
      </trkpt>
      <trkpt lat="46.08767" lon="4.57984">
        <ele>720.268066406</ele>
        <time>2015-12-17T10:51:33.821Z</time>
      </trkpt>
      <trkpt lat="46.08772" lon="4.57975">
        <ele>720.809936523</ele>
        <time>2015-12-17T10:51:40.836Z</time>
      </trkpt>
      <trkpt lat="46.08773" lon="4.57974">
        <ele>720.887207031</ele>
        <time>2015-12-17T10:51:41.823Z</time>
      </trkpt>
      <trkpt lat="46.08779" lon="4.57965">
        <ele>721.233642578</ele>
        <time>2015-12-17T10:51:47.839Z</time>
      </trkpt>
      <trkpt lat="46.08779" lon="4.57963">
        <ele>721.272949219</ele>
        <time>2015-12-17T10:51:48.827Z</time>
      </trkpt>
      <trkpt lat="46.08785" lon="4.57955">
        <ele>721.54888916</ele>
        <time>2015-12-17T10:51:53.834Z</time>
      </trkpt>
      <trkpt lat="46.08786" lon="4.57954">
        <ele>721.66229248</ele>
        <time>2015-12-17T10:51:54.822Z</time>
      </trkpt>
      <trkpt lat="46.08794" lon="4.57948">
        <ele>722.003540039</ele>
        <time>2015-12-17T10:52:02.808Z</time>
      </trkpt>
      <trkpt lat="46.08795" lon="4.57947">
        <ele>722.020019531</ele>
        <time>2015-12-17T10:52:03.797Z</time>
      </trkpt>
      <trkpt lat="46.08801" lon="4.57941">
        <ele>721.99621582</ele>
        <time>2015-12-17T10:52:09.808Z</time>
      </trkpt>
      <trkpt lat="46.08802" lon="4.57941">
        <ele>721.956848145</ele>
        <time>2015-12-17T10:52:10.798Z</time>
      </trkpt>
      <trkpt lat="46.08809" lon="4.57933">
        <ele>721.811462402</ele>
        <time>2015-12-17T10:52:15.811Z</time>
      </trkpt>
      <trkpt lat="46.08809" lon="4.57932">
        <ele>721.809204102</ele>
        <time>2015-12-17T10:52:16.799Z</time>
      </trkpt>
      <trkpt lat="46.08816" lon="4.57924">
        <ele>721.568725586</ele>
        <time>2015-12-17T10:52:22.81Z</time>
      </trkpt>
      <trkpt lat="46.08817" lon="4.57923">
        <ele>721.504455566</ele>
        <time>2015-12-17T10:52:23.8Z</time>
      </trkpt>
      <trkpt lat="46.08824" lon="4.57917">
        <ele>721.177124023</ele>
        <time>2015-12-17T10:52:30.809Z</time>
      </trkpt>
      <trkpt lat="46.08825" lon="4.57916">
        <ele>721.128662109</ele>
        <time>2015-12-17T10:52:31.8Z</time>
      </trkpt>
      <trkpt lat="46.08831" lon="4.57909">
        <ele>720.831115723</ele>
        <time>2015-12-17T10:52:38.814Z</time>
      </trkpt>
      <trkpt lat="46.08832" lon="4.57907">
        <ele>720.775878906</ele>
        <time>2015-12-17T10:52:39.799Z</time>
      </trkpt>
      <trkpt lat="46.08835" lon="4.57896">
        <ele>720.967834473</ele>
        <time>2015-12-17T10:52:47.819Z</time>
      </trkpt>
      <trkpt lat="46.08835" lon="4.57895">
        <ele>721.020202637</ele>
        <time>2015-12-17T10:52:48.801Z</time>
      </trkpt>
      <trkpt lat="46.08835" lon="4.57882">
        <ele>721.350769043</ele>
        <time>2015-12-17T10:52:55.815Z</time>
      </trkpt>
      <trkpt lat="46.08835" lon="4.5788">
        <ele>721.389953613</ele>
        <time>2015-12-17T10:52:56.801Z</time>
      </trkpt>
      <trkpt lat="46.08835" lon="4.57868">
        <ele>721.714172363</ele>
        <time>2015-12-17T10:53:02.817Z</time>
      </trkpt>
      <trkpt lat="46.08835" lon="4.57865">
        <ele>721.817932129</ele>
        <time>2015-12-17T10:53:03.799Z</time>
      </trkpt>
      <trkpt lat="46.08837" lon="4.57854">
        <ele>722.104553223</ele>
        <time>2015-12-17T10:53:11.814Z</time>
      </trkpt>
      <trkpt lat="46.08836" lon="4.57852">
        <ele>722.092285156</ele>
        <time>2015-12-17T10:53:12.83Z</time>
      </trkpt>
      <trkpt lat="46.08837" lon="4.5784">
        <ele>722.898376465</ele>
        <time>2015-12-17T10:53:19.811Z</time>
      </trkpt>
      <trkpt lat="46.08837" lon="4.57838">
        <ele>723.062988281</ele>
        <time>2015-12-17T10:53:20.802Z</time>
      </trkpt>
      <trkpt lat="46.08837" lon="4.57825">
        <ele>723.703308105</ele>
        <time>2015-12-17T10:53:29.887Z</time>
      </trkpt>
      <trkpt lat="46.08837" lon="4.57823">
        <ele>723.84954834</ele>
        <time>2015-12-17T10:53:30.877Z</time>
      </trkpt>
      <trkpt lat="46.08838" lon="4.57812">
        <ele>724.149963379</ele>
        <time>2015-12-17T10:53:35.889Z</time>
      </trkpt>
      <trkpt lat="46.08838" lon="4.57809">
        <ele>724.186035156</ele>
        <time>2015-12-17T10:53:36.876Z</time>
      </trkpt>
      <trkpt lat="46.08839" lon="4.57797">
        <ele>724.363891602</ele>
        <time>2015-12-17T10:53:46.817Z</time>
      </trkpt>
      <trkpt lat="46.08839" lon="4.57795">
        <ele>724.306152344</ele>
        <time>2015-12-17T10:53:47.806Z</time>
      </trkpt>
      <trkpt lat="46.08837" lon="4.57783">
        <ele>724.372619629</ele>
        <time>2015-12-17T10:53:55.826Z</time>
      </trkpt>
      <trkpt lat="46.08837" lon="4.57782">
        <ele>724.401550293</ele>
        <time>2015-12-17T10:53:56.806Z</time>
      </trkpt>
      <trkpt lat="46.08835" lon="4.57771">
        <ele>724.707275391</ele>
        <time>2015-12-17T10:54:03.818Z</time>
      </trkpt>
      <trkpt lat="46.08834" lon="4.57769">
        <ele>724.832336426</ele>
        <time>2015-12-17T10:54:04.806Z</time>
      </trkpt>
      <trkpt lat="46.08831" lon="4.5776">
        <ele>725.19128418</ele>
        <time>2015-12-17T10:54:09.818Z</time>
      </trkpt>
      <trkpt lat="46.0883" lon="4.57758">
        <ele>725.167724609</ele>
        <time>2015-12-17T10:54:10.806Z</time>
      </trkpt>
      <trkpt lat="46.08828" lon="4.57747">
        <ele>725.157592773</ele>
        <time>2015-12-17T10:54:17.837Z</time>
      </trkpt>
      <trkpt lat="46.08827" lon="4.57744">
        <ele>725.138916016</ele>
        <time>2015-12-17T10:54:18.806Z</time>
      </trkpt>
      <trkpt lat="46.08823" lon="4.57734">
        <ele>725.278930664</ele>
        <time>2015-12-17T10:54:25.832Z</time>
      </trkpt>
      <trkpt lat="46.08822" lon="4.57733">
        <ele>725.331848145</ele>
        <time>2015-12-17T10:54:26.814Z</time>
      </trkpt>
      <trkpt lat="46.0882" lon="4.5772">
        <ele>725.532592773</ele>
        <time>2015-12-17T10:54:34.826Z</time>
      </trkpt>
      <trkpt lat="46.08819" lon="4.57719">
        <ele>725.597229004</ele>
        <time>2015-12-17T10:54:35.807Z</time>
      </trkpt>
      <trkpt lat="46.08816" lon="4.57707">
        <ele>726.320678711</ele>
        <time>2015-12-17T10:54:44.829Z</time>
      </trkpt>
      <trkpt lat="46.08816" lon="4.57706">
        <ele>726.387084961</ele>
        <time>2015-12-17T10:54:45.808Z</time>
      </trkpt>
      <trkpt lat="46.08813" lon="4.57695">
        <ele>727.157348633</ele>
        <time>2015-12-17T10:54:53.821Z</time>
      </trkpt>
      <trkpt lat="46.08813" lon="4.57694">
        <ele>727.215637207</ele>
        <time>2015-12-17T10:54:54.81Z</time>
      </trkpt>
      <trkpt lat="46.0881" lon="4.57683">
        <ele>728.250732422</ele>
        <time>2015-12-17T10:55:03.822Z</time>
      </trkpt>
      <trkpt lat="46.08809" lon="4.57681">
        <ele>728.369995117</ele>
        <time>2015-12-17T10:55:04.81Z</time>
      </trkpt>
      <trkpt lat="46.08807" lon="4.57671">
        <ele>728.909057617</ele>
        <time>2015-12-17T10:55:10.822Z</time>
      </trkpt>
      <trkpt lat="46.08806" lon="4.57668">
        <ele>728.918518066</ele>
        <time>2015-12-17T10:55:11.818Z</time>
      </trkpt>
      <trkpt lat="46.08805" lon="4.57655">
        <ele>729.225097656</ele>
        <time>2015-12-17T10:55:20.821Z</time>
      </trkpt>
      <trkpt lat="46.08805" lon="4.57654">
        <ele>729.257141113</ele>
        <time>2015-12-17T10:55:21.82Z</time>
      </trkpt>
      <trkpt lat="46.08804" lon="4.57643">
        <ele>729.509033203</ele>
        <time>2015-12-17T10:55:29.823Z</time>
      </trkpt>
      <trkpt lat="46.08804" lon="4.57641">
        <ele>729.606018066</ele>
        <time>2015-12-17T10:55:30.812Z</time>
      </trkpt>
      <trkpt lat="46.08803" lon="4.57629">
        <ele>730.382446289</ele>
        <time>2015-12-17T10:55:40.821Z</time>
      </trkpt>
      <trkpt lat="46.08803" lon="4.57628">
        <ele>730.514587402</ele>
        <time>2015-12-17T10:55:41.818Z</time>
      </trkpt>
      <trkpt lat="46.088" lon="4.57616">
        <ele>732.099365234</ele>
        <time>2015-12-17T10:55:53.825Z</time>
      </trkpt>
      <trkpt lat="46.088" lon="4.57615">
        <ele>732.286865234</ele>
        <time>2015-12-17T10:55:54.814Z</time>
      </trkpt>
      <trkpt lat="46.08797" lon="4.57604">
        <ele>733.66809082</ele>
        <time>2015-12-17T10:56:03.992Z</time>
      </trkpt>
      <trkpt lat="46.08797" lon="4.57603">
        <ele>733.819274902</ele>
        <time>2015-12-17T10:56:04.811Z</time>
      </trkpt>
      <trkpt lat="46.08795" lon="4.57591">
        <ele>735.189880371</ele>
        <time>2015-12-17T10:56:11.827Z</time>
      </trkpt>
      <trkpt lat="46.08794" lon="4.57589">
        <ele>735.301818848</ele>
        <time>2015-12-17T10:56:12.814Z</time>
      </trkpt>
      <trkpt lat="46.08792" lon="4.57579">
        <ele>735.498901367</ele>
        <time>2015-12-17T10:56:17.838Z</time>
      </trkpt>
      <trkpt lat="46.08791" lon="4.57577">
        <ele>735.529052734</ele>
        <time>2015-12-17T10:56:18.816Z</time>
      </trkpt>
      <trkpt lat="46.08786" lon="4.57567">
        <ele>736.315124512</ele>
        <time>2015-12-17T10:56:27.834Z</time>
      </trkpt>
      <trkpt lat="46.08786" lon="4.57566">
        <ele>736.43963623</ele>
        <time>2015-12-17T10:56:28.816Z</time>
      </trkpt>
      <trkpt lat="46.08781" lon="4.57555">
        <ele>737.235046387</ele>
        <time>2015-12-17T10:56:35.991Z</time>
      </trkpt>
      <trkpt lat="46.0878" lon="4.57555">
        <ele>737.340820312</ele>
        <time>2015-12-17T10:56:36.818Z</time>
      </trkpt>
      <trkpt lat="46.08774" lon="4.57547">
        <ele>738.284301758</ele>
        <time>2015-12-17T10:56:45.829Z</time>
      </trkpt>
      <trkpt lat="46.08773" lon="4.57546">
        <ele>738.366516113</ele>
        <time>2015-12-17T10:56:46.818Z</time>
      </trkpt>
      <trkpt lat="46.08768" lon="4.57536">
        <ele>739.563537598</ele>
        <time>2015-12-17T10:56:55.829Z</time>
      </trkpt>
      <trkpt lat="46.08767" lon="4.57535">
        <ele>739.733642578</ele>
        <time>2015-12-17T10:56:56.822Z</time>
      </trkpt>
      <trkpt lat="46.08764" lon="4.57524">
        <ele>741.344604492</ele>
        <time>2015-12-17T10:57:06.83Z</time>
      </trkpt>
      <trkpt lat="46.08763" lon="4.57523">
        <ele>741.461975098</ele>
        <time>2015-12-17T10:57:07.821Z</time>
      </trkpt>
      <trkpt lat="46.08759" lon="4.57513">
        <ele>742.683105469</ele>
        <time>2015-12-17T10:57:15.83Z</time>
      </trkpt>
      <trkpt lat="46.08758" lon="4.57512">
        <ele>742.817260742</ele>
        <time>2015-12-17T10:57:16.794Z</time>
      </trkpt>
      <trkpt lat="46.08752" lon="4.57503">
        <ele>743.936767578</ele>
        <time>2015-12-17T10:57:24.813Z</time>
      </trkpt>
      <trkpt lat="46.08751" lon="4.57502">
        <ele>744.149414062</ele>
        <time>2015-12-17T10:57:25.805Z</time>
      </trkpt>
      <trkpt lat="46.08743" lon="4.57495">
        <ele>745.604919434</ele>
        <time>2015-12-17T10:57:47.81Z</time>
      </trkpt>
      <trkpt lat="46.08743" lon="4.57495">
        <ele>745.812011719</ele>
        <time>2015-12-17T10:57:48.797Z</time>
      </trkpt>
      <trkpt lat="46.08736" lon="4.5749">
        <ele>747.727783203</ele>
        <time>2015-12-17T10:58:00.813Z</time>
      </trkpt>
      <trkpt lat="46.08734" lon="4.5749">
        <ele>747.930603027</ele>
        <time>2015-12-17T10:58:01.798Z</time>
      </trkpt>
      <trkpt lat="46.08728" lon="4.57484">
        <ele>749.214782715</ele>
        <time>2015-12-17T10:58:09.813Z</time>
      </trkpt>
      <trkpt lat="46.08726" lon="4.57484">
        <ele>749.331481934</ele>
        <time>2015-12-17T10:58:10.801Z</time>
      </trkpt>
      <trkpt lat="46.08719" lon="4.57477">
        <ele>749.672424316</ele>
        <time>2015-12-17T10:58:15.981Z</time>
      </trkpt>
      <trkpt lat="46.08718" lon="4.57476">
        <ele>749.676574707</ele>
        <time>2015-12-17T10:58:16.8Z</time>
      </trkpt>
      <trkpt lat="46.0871" lon="4.57469">
        <ele>749.439025879</ele>
        <time>2015-12-17T10:58:25.818Z</time>
      </trkpt>
      <trkpt lat="46.08709" lon="4.57469">
        <ele>749.421508789</ele>
        <time>2015-12-17T10:58:26.8Z</time>
      </trkpt>
      <trkpt lat="46.08702" lon="4.57463">
        <ele>749.104736328</ele>
        <time>2015-12-17T10:58:33.816Z</time>
      </trkpt>
      <trkpt lat="46.08701" lon="4.57461">
        <ele>749.069274902</ele>
        <time>2015-12-17T10:58:34.8Z</time>
      </trkpt>
      <trkpt lat="46.08695" lon="4.57455">
        <ele>748.992248535</ele>
        <time>2015-12-17T10:58:40.813Z</time>
      </trkpt>
      <trkpt lat="46.08694" lon="4.57454">
        <ele>748.988830566</ele>
        <time>2015-12-17T10:58:41.801Z</time>
      </trkpt>
      <trkpt lat="46.08687" lon="4.57449">
        <ele>748.654968262</ele>
        <time>2015-12-17T10:58:47.814Z</time>
      </trkpt>
      <trkpt lat="46.08685" lon="4.57447">
        <ele>748.668457031</ele>
        <time>2015-12-17T10:58:48.801Z</time>
      </trkpt>
      <trkpt lat="46.08678" lon="4.57442">
        <ele>748.178161621</ele>
        <time>2015-12-17T10:58:56.816Z</time>
      </trkpt>
      <trkpt lat="46.08677" lon="4.57441">
        <ele>748.101745605</ele>
        <time>2015-12-17T10:58:57.874Z</time>
      </trkpt>
      <trkpt lat="46.08669" lon="4.57438">
        <ele>747.927368164</ele>
        <time>2015-12-17T10:59:04.814Z</time>
      </trkpt>
      <trkpt lat="46.08668" lon="4.57438">
        <ele>747.99017334</ele>
        <time>2015-12-17T10:59:05.803Z</time>
      </trkpt>
      <trkpt lat="46.0866" lon="4.57437">
        <ele>747.918151855</ele>
        <time>2015-12-17T10:59:12.005Z</time>
      </trkpt>
      <trkpt lat="46.08659" lon="4.57436">
        <ele>747.903137207</ele>
        <time>2015-12-17T10:59:12.803Z</time>
      </trkpt>
      <trkpt lat="46.08652" lon="4.5743">
        <ele>747.568603516</ele>
        <time>2015-12-17T10:59:19.815Z</time>
      </trkpt>
      <trkpt lat="46.0865" lon="4.57428">
        <ele>747.489013672</ele>
        <time>2015-12-17T10:59:20.804Z</time>
      </trkpt>
      <trkpt lat="46.08642" lon="4.57424">
        <ele>746.561279297</ele>
        <time>2015-12-17T10:59:27.815Z</time>
      </trkpt>
      <trkpt lat="46.08641" lon="4.57423">
        <ele>746.473937988</ele>
        <time>2015-12-17T10:59:28.802Z</time>
      </trkpt>
      <trkpt lat="46.08634" lon="4.57417">
        <ele>745.86529541</ele>
        <time>2015-12-17T10:59:36.817Z</time>
      </trkpt>
      <trkpt lat="46.08633" lon="4.57417">
        <ele>745.795654297</ele>
        <time>2015-12-17T10:59:37.804Z</time>
      </trkpt>
      <trkpt lat="46.08626" lon="4.5741">
        <ele>745.153991699</ele>
        <time>2015-12-17T10:59:50.816Z</time>
      </trkpt>
      <trkpt lat="46.08625" lon="4.57409">
        <ele>745.198486328</ele>
        <time>2015-12-17T10:59:51.806Z</time>
      </trkpt>
      <trkpt lat="46.0862" lon="4.574">
        <ele>745.612548828</ele>
        <time>2015-12-17T11:00:00.06Z</time>
      </trkpt>
      <trkpt lat="46.08619" lon="4.57399">
        <ele>745.583557129</ele>
        <time>2015-12-17T11:00:00.807Z</time>
      </trkpt>
      <trkpt lat="46.08614" lon="4.57393">
        <ele>745.822265625</ele>
        <time>2015-12-17T11:00:06.818Z</time>
      </trkpt>
      <trkpt lat="46.08609" lon="4.57389">
        <ele>745.86541748</ele>
        <time>2015-12-17T11:00:07.806Z</time>
      </trkpt>
      <trkpt lat="46.08604" lon="4.57378">
        <ele>747.490905762</ele>
        <time>2015-12-17T11:00:22.82Z</time>
      </trkpt>
      <trkpt lat="46.08604" lon="4.57377">
        <ele>747.625183105</ele>
        <time>2015-12-17T11:00:23.808Z</time>
      </trkpt>
      <trkpt lat="46.08602" lon="4.57366">
        <ele>748.451904297</ele>
        <time>2015-12-17T11:00:32.818Z</time>
      </trkpt>
      <trkpt lat="46.08601" lon="4.57365">
        <ele>748.457946777</ele>
        <time>2015-12-17T11:00:33.809Z</time>
      </trkpt>
      <trkpt lat="46.08597" lon="4.57354">
        <ele>748.007995605</ele>
        <time>2015-12-17T11:00:38.822Z</time>
      </trkpt>
      <trkpt lat="46.08597" lon="4.57352">
        <ele>747.972167969</ele>
        <time>2015-12-17T11:00:39.809Z</time>
      </trkpt>
      <trkpt lat="46.08593" lon="4.57342">
        <ele>747.972351074</ele>
        <time>2015-12-17T11:00:46.821Z</time>
      </trkpt>
      <trkpt lat="46.08593" lon="4.5734">
        <ele>747.996459961</ele>
        <time>2015-12-17T11:00:47.81Z</time>
      </trkpt>
      <trkpt lat="46.08589" lon="4.57331">
        <ele>748.48626709</ele>
        <time>2015-12-17T11:00:54.859Z</time>
      </trkpt>
      <trkpt lat="46.08588" lon="4.57329">
        <ele>748.602050781</ele>
        <time>2015-12-17T11:00:55.811Z</time>
      </trkpt>
      <trkpt lat="46.08583" lon="4.5732">
        <ele>749.388671875</ele>
        <time>2015-12-17T11:01:02.823Z</time>
      </trkpt>
      <trkpt lat="46.08581" lon="4.57316">
        <ele>749.367553711</ele>
        <time>2015-12-17T11:01:03.811Z</time>
      </trkpt>
      <trkpt lat="46.08575" lon="4.57308">
        <ele>748.643127441</ele>
        <time>2015-12-17T11:01:09.823Z</time>
      </trkpt>
      <trkpt lat="46.08574" lon="4.57307">
        <ele>748.47857666</ele>
        <time>2015-12-17T11:01:10.813Z</time>
      </trkpt>
      <trkpt lat="46.08569" lon="4.57297">
        <ele>747.757446289</ele>
        <time>2015-12-17T11:01:17.824Z</time>
      </trkpt>
      <trkpt lat="46.08568" lon="4.57296">
        <ele>747.7109375</ele>
        <time>2015-12-17T11:01:18.847Z</time>
      </trkpt>
      <trkpt lat="46.08565" lon="4.57285">
        <ele>746.953552246</ele>
        <time>2015-12-17T11:01:26.824Z</time>
      </trkpt>
      <trkpt lat="46.08564" lon="4.57283">
        <ele>746.823303223</ele>
        <time>2015-12-17T11:01:27.813Z</time>
      </trkpt>
      <trkpt lat="46.08557" lon="4.57276">
        <ele>746.184875488</ele>
        <time>2015-12-17T11:01:34.824Z</time>
      </trkpt>
      <trkpt lat="46.08555" lon="4.57275">
        <ele>746.261657715</ele>
        <time>2015-12-17T11:01:35.813Z</time>
      </trkpt>
      <trkpt lat="46.08549" lon="4.57268">
        <ele>746.510559082</ele>
        <time>2015-12-17T11:01:39.823Z</time>
      </trkpt>
      <trkpt lat="46.08547" lon="4.57267">
        <ele>746.630859375</ele>
        <time>2015-12-17T11:01:40.813Z</time>
      </trkpt>
      <trkpt lat="46.08542" lon="4.57259">
        <ele>746.935424805</ele>
        <time>2015-12-17T11:01:47.826Z</time>
      </trkpt>
      <trkpt lat="46.08541" lon="4.57257">
        <ele>746.902099609</ele>
        <time>2015-12-17T11:01:48.815Z</time>
      </trkpt>
      <trkpt lat="46.08537" lon="4.57248">
        <ele>746.370300293</ele>
        <time>2015-12-17T11:01:56.827Z</time>
      </trkpt>
      <trkpt lat="46.08536" lon="4.57246">
        <ele>746.308776855</ele>
        <time>2015-12-17T11:01:57.814Z</time>
      </trkpt>
      <trkpt lat="46.08537" lon="4.57234">
        <ele>746.519958496</ele>
        <time>2015-12-17T11:02:04.829Z</time>
      </trkpt>
      <trkpt lat="46.08537" lon="4.57232">
        <ele>746.510742188</ele>
        <time>2015-12-17T11:02:05.816Z</time>
      </trkpt>
      <trkpt lat="46.08539" lon="4.57219">
        <ele>746.802062988</ele>
        <time>2015-12-17T11:02:14.827Z</time>
      </trkpt>
      <trkpt lat="46.08539" lon="4.57218">
        <ele>746.808288574</ele>
        <time>2015-12-17T11:02:15.817Z</time>
      </trkpt>
      <trkpt lat="46.08542" lon="4.57207">
        <ele>747.180358887</ele>
        <time>2015-12-17T11:02:24.831Z</time>
      </trkpt>
      <trkpt lat="46.08542" lon="4.57205">
        <ele>747.128723145</ele>
        <time>2015-12-17T11:02:25.816Z</time>
      </trkpt>
      <trkpt lat="46.08544" lon="4.57193">
        <ele>746.578674316</ele>
        <time>2015-12-17T11:02:33.803Z</time>
      </trkpt>
      <trkpt lat="46.08544" lon="4.57192">
        <ele>746.622436523</ele>
        <time>2015-12-17T11:02:34.792Z</time>
      </trkpt>
      <trkpt lat="46.08546" lon="4.57179">
        <ele>746.979797363</ele>
        <time>2015-12-17T11:02:44.804Z</time>
      </trkpt>
      <trkpt lat="46.08546" lon="4.57178">
        <ele>746.981262207</ele>
        <time>2015-12-17T11:02:45.791Z</time>
      </trkpt>
      <trkpt lat="46.08542" lon="4.57166">
        <ele>747.512512207</ele>
        <time>2015-12-17T11:02:55.806Z</time>
      </trkpt>
      <trkpt lat="46.08542" lon="4.57165">
        <ele>747.642028809</ele>
        <time>2015-12-17T11:02:56.796Z</time>
      </trkpt>
      <trkpt lat="46.08541" lon="4.57153">
        <ele>748.56060791</ele>
        <time>2015-12-17T11:03:04.806Z</time>
      </trkpt>
      <trkpt lat="46.08541" lon="4.57151">
        <ele>748.715759277</ele>
        <time>2015-12-17T11:03:05.794Z</time>
      </trkpt>
      <trkpt lat="46.08539" lon="4.57139">
        <ele>749.137023926</ele>
        <time>2015-12-17T11:03:13.807Z</time>
      </trkpt>
      <trkpt lat="46.08539" lon="4.57137">
        <ele>749.161437988</ele>
        <time>2015-12-17T11:03:14.795Z</time>
      </trkpt>
      <trkpt lat="46.08537" lon="4.57126">
        <ele>749.830078125</ele>
        <time>2015-12-17T11:03:22.808Z</time>
      </trkpt>
      <trkpt lat="46.08536" lon="4.57125">
        <ele>749.885253906</ele>
        <time>2015-12-17T11:03:23.793Z</time>
      </trkpt>
      <trkpt lat="46.08535" lon="4.57114">
        <ele>750.286499023</ele>
        <time>2015-12-17T11:03:28.809Z</time>
      </trkpt>
      <trkpt lat="46.08535" lon="4.57112">
        <ele>750.368164062</ele>
        <time>2015-12-17T11:03:29.797Z</time>
      </trkpt>
      <trkpt lat="46.08536" lon="4.571">
        <ele>750.768798828</ele>
        <time>2015-12-17T11:03:37.809Z</time>
      </trkpt>
      <trkpt lat="46.08536" lon="4.57098">
        <ele>750.841186523</ele>
        <time>2015-12-17T11:03:38.797Z</time>
      </trkpt>
      <trkpt lat="46.08534" lon="4.57086">
        <ele>751.204650879</ele>
        <time>2015-12-17T11:03:46.892Z</time>
      </trkpt>
      <trkpt lat="46.08534" lon="4.57084">
        <ele>751.239746094</ele>
        <time>2015-12-17T11:03:47.798Z</time>
      </trkpt>
      <trkpt lat="46.08533" lon="4.57072">
        <ele>751.697143555</ele>
        <time>2015-12-17T11:03:53.813Z</time>
      </trkpt>
      <trkpt lat="46.08532" lon="4.5707">
        <ele>751.714355469</ele>
        <time>2015-12-17T11:03:54.798Z</time>
      </trkpt>
      <trkpt lat="46.08531" lon="4.57058">
        <ele>751.959594727</ele>
        <time>2015-12-17T11:04:02.816Z</time>
      </trkpt>
      <trkpt lat="46.08531" lon="4.57056">
        <ele>751.969604492</ele>
        <time>2015-12-17T11:04:03.799Z</time>
      </trkpt>
      <trkpt lat="46.08529" lon="4.57044">
        <ele>752.112243652</ele>
        <time>2015-12-17T11:04:10.813Z</time>
      </trkpt>
      <trkpt lat="46.08529" lon="4.57042">
        <ele>752.171813965</ele>
        <time>2015-12-17T11:04:11.8Z</time>
      </trkpt>
      <trkpt lat="46.08529" lon="4.5703">
        <ele>752.202575684</ele>
        <time>2015-12-17T11:04:17.812Z</time>
      </trkpt>
      <trkpt lat="46.08529" lon="4.57027">
        <ele>752.147460938</ele>
        <time>2015-12-17T11:04:18.802Z</time>
      </trkpt>
      <trkpt lat="46.08527" lon="4.57016">
        <ele>752.132141113</ele>
        <time>2015-12-17T11:04:26.811Z</time>
      </trkpt>
      <trkpt lat="46.08527" lon="4.57014">
        <ele>752.091064453</ele>
        <time>2015-12-17T11:04:27.801Z</time>
      </trkpt>
      <trkpt lat="46.08525" lon="4.57002">
        <ele>751.805358887</ele>
        <time>2015-12-17T11:04:34.828Z</time>
      </trkpt>
      <trkpt lat="46.08525" lon="4.57">
        <ele>751.819702148</ele>
        <time>2015-12-17T11:04:35.801Z</time>
      </trkpt>
      <trkpt lat="46.08525" lon="4.56988">
        <ele>751.738891602</ele>
        <time>2015-12-17T11:04:43.815Z</time>
      </trkpt>
      <trkpt lat="46.08524" lon="4.56987">
        <ele>751.726013184</ele>
        <time>2015-12-17T11:04:44.805Z</time>
      </trkpt>
      <trkpt lat="46.08526" lon="4.56975">
        <ele>752.035827637</ele>
        <time>2015-12-17T11:04:50.81Z</time>
      </trkpt>
      <trkpt lat="46.08526" lon="4.56974">
        <ele>752.120361328</ele>
        <time>2015-12-17T11:04:51.802Z</time>
      </trkpt>
      <trkpt lat="46.08525" lon="4.56962">
        <ele>752.473937988</ele>
        <time>2015-12-17T11:04:59.815Z</time>
      </trkpt>
      <trkpt lat="46.08525" lon="4.5696">
        <ele>752.482910156</ele>
        <time>2015-12-17T11:05:00.803Z</time>
      </trkpt>
      <trkpt lat="46.08521" lon="4.56948">
        <ele>753.152770996</ele>
        <time>2015-12-17T11:05:11.815Z</time>
      </trkpt>
      <trkpt lat="46.08521" lon="4.56947">
        <ele>753.318847656</ele>
        <time>2015-12-17T11:05:12.805Z</time>
      </trkpt>
      <trkpt lat="46.0852" lon="4.56935">
        <ele>754.452087402</ele>
        <time>2015-12-17T11:05:19.816Z</time>
      </trkpt>
      <trkpt lat="46.0852" lon="4.56932">
        <ele>754.577087402</ele>
        <time>2015-12-17T11:05:20.804Z</time>
      </trkpt>
      <trkpt lat="46.08518" lon="4.56922">
        <ele>755.056945801</ele>
        <time>2015-12-17T11:05:27.816Z</time>
      </trkpt>
      <trkpt lat="46.08518" lon="4.56919">
        <ele>755.202270508</ele>
        <time>2015-12-17T11:05:28.805Z</time>
      </trkpt>
      <trkpt lat="46.08516" lon="4.56908">
        <ele>755.917541504</ele>
        <time>2015-12-17T11:05:35.819Z</time>
      </trkpt>
      <trkpt lat="46.08515" lon="4.56906">
        <ele>755.916137695</ele>
        <time>2015-12-17T11:05:36.806Z</time>
      </trkpt>
      <trkpt lat="46.08512" lon="4.56895">
        <ele>755.72869873</ele>
        <time>2015-12-17T11:05:44.816Z</time>
      </trkpt>
      <trkpt lat="46.08512" lon="4.56894">
        <ele>755.798217773</ele>
        <time>2015-12-17T11:05:45.806Z</time>
      </trkpt>
      <trkpt lat="46.08509" lon="4.56883">
        <ele>756.04083252</ele>
        <time>2015-12-17T11:05:53.818Z</time>
      </trkpt>
      <trkpt lat="46.08509" lon="4.56881">
        <ele>756.145507812</ele>
        <time>2015-12-17T11:05:54.807Z</time>
      </trkpt>
      <trkpt lat="46.08508" lon="4.56869">
        <ele>756.502502441</ele>
        <time>2015-12-17T11:06:01.82Z</time>
      </trkpt>
      <trkpt lat="46.08507" lon="4.56868">
        <ele>756.607055664</ele>
        <time>2015-12-17T11:06:02.81Z</time>
      </trkpt>
      <trkpt lat="46.08504" lon="4.56856">
        <ele>758.348937988</ele>
        <time>2015-12-17T11:06:11.82Z</time>
      </trkpt>
      <trkpt lat="46.08504" lon="4.56854">
        <ele>758.563232422</ele>
        <time>2015-12-17T11:06:12.808Z</time>
      </trkpt>
      <trkpt lat="46.08503" lon="4.56842">
        <ele>760.107666016</ele>
        <time>2015-12-17T11:06:20.833Z</time>
      </trkpt>
      <trkpt lat="46.08503" lon="4.56841">
        <ele>760.150146484</ele>
        <time>2015-12-17T11:06:21.809Z</time>
      </trkpt>
      <trkpt lat="46.08501" lon="4.56829">
        <ele>761.109741211</ele>
        <time>2015-12-17T11:06:31.82Z</time>
      </trkpt>
      <trkpt lat="46.08501" lon="4.56827">
        <ele>761.156066895</ele>
        <time>2015-12-17T11:06:32.81Z</time>
      </trkpt>
      <trkpt lat="46.08497" lon="4.56816">
        <ele>762.415527344</ele>
        <time>2015-12-17T11:06:41.823Z</time>
      </trkpt>
      <trkpt lat="46.08496" lon="4.56815">
        <ele>762.515869141</ele>
        <time>2015-12-17T11:06:42.81Z</time>
      </trkpt>
      <trkpt lat="46.08492" lon="4.56805">
        <ele>763.41394043</ele>
        <time>2015-12-17T11:06:52.823Z</time>
      </trkpt>
      <trkpt lat="46.08491" lon="4.56804">
        <ele>763.47454834</ele>
        <time>2015-12-17T11:06:53.813Z</time>
      </trkpt>
      <trkpt lat="46.08488" lon="4.56792">
        <ele>764.524597168</ele>
        <time>2015-12-17T11:07:02.83Z</time>
      </trkpt>
      <trkpt lat="46.08488" lon="4.5679">
        <ele>764.716918945</ele>
        <time>2015-12-17T11:07:03.814Z</time>
      </trkpt>
      <trkpt lat="46.08485" lon="4.56779">
        <ele>766.142883301</ele>
        <time>2015-12-17T11:07:14.825Z</time>
      </trkpt>
      <trkpt lat="46.08484" lon="4.56777">
        <ele>766.297485352</ele>
        <time>2015-12-17T11:07:15.813Z</time>
      </trkpt>
      <trkpt lat="46.08482" lon="4.56765">
        <ele>768.446105957</ele>
        <time>2015-12-17T11:07:27.827Z</time>
      </trkpt>
      <trkpt lat="46.08482" lon="4.56764">
        <ele>768.657348633</ele>
        <time>2015-12-17T11:07:28.814Z</time>
      </trkpt>
      <trkpt lat="46.08481" lon="4.56752">
        <ele>770.448913574</ele>
        <time>2015-12-17T11:07:36.826Z</time>
      </trkpt>
      <trkpt lat="46.0848" lon="4.5675">
        <ele>770.655273438</ele>
        <time>2015-12-17T11:07:37.815Z</time>
      </trkpt>
      <trkpt lat="46.08476" lon="4.56739">
        <ele>772.116271973</ele>
        <time>2015-12-17T11:07:47.804Z</time>
      </trkpt>
      <trkpt lat="46.08476" lon="4.56739">
        <ele>772.31842041</ele>
        <time>2015-12-17T11:07:48.791Z</time>
      </trkpt>
      <trkpt lat="46.08472" lon="4.56727">
        <ele>773.88079834</ele>
        <time>2015-12-17T11:07:57.801Z</time>
      </trkpt>
      <trkpt lat="46.08471" lon="4.56726">
        <ele>774.008605957</ele>
        <time>2015-12-17T11:07:58.793Z</time>
      </trkpt>
      <trkpt lat="46.08468" lon="4.56714">
        <ele>775.694702148</ele>
        <time>2015-12-17T11:08:08.811Z</time>
      </trkpt>
      <trkpt lat="46.08468" lon="4.56713">
        <ele>775.873657227</ele>
        <time>2015-12-17T11:08:09.792Z</time>
      </trkpt>
      <trkpt lat="46.08467" lon="4.567">
        <ele>778.168029785</ele>
        <time>2015-12-17T11:08:22.833Z</time>
      </trkpt>
      <trkpt lat="46.08467" lon="4.56699">
        <ele>778.333007812</ele>
        <time>2015-12-17T11:08:23.804Z</time>
      </trkpt>
      <trkpt lat="46.08463" lon="4.56688">
        <ele>783.470031738</ele>
        <time>2015-12-17T11:09:27.811Z</time>
      </trkpt>
      <trkpt lat="46.08462" lon="4.56688">
        <ele>783.540405273</ele>
        <time>2015-12-17T11:09:28.799Z</time>
      </trkpt>
      <trkpt lat="46.08461" lon="4.56676">
        <ele>784.674804688</ele>
        <time>2015-12-17T11:09:53.814Z</time>
      </trkpt>
      <trkpt lat="46.08462" lon="4.56675">
        <ele>784.769470215</ele>
        <time>2015-12-17T11:09:54.8Z</time>
      </trkpt>
      <trkpt lat="46.08462" lon="4.56663">
        <ele>789.901855469</ele>
        <time>2015-12-17T11:10:39.814Z</time>
      </trkpt>
      <trkpt lat="46.08461" lon="4.56662">
        <ele>790.070922852</ele>
        <time>2015-12-17T11:10:40.802Z</time>
      </trkpt>
      <trkpt lat="46.08457" lon="4.56651">
        <ele>790.614746094</ele>
        <time>2015-12-17T11:10:46.814Z</time>
      </trkpt>
      <trkpt lat="46.08456" lon="4.56648">
        <ele>790.713989258</ele>
        <time>2015-12-17T11:10:47.804Z</time>
      </trkpt>
      <trkpt lat="46.08454" lon="4.56636">
        <ele>791.237426758</ele>
        <time>2015-12-17T11:10:52.82Z</time>
      </trkpt>
      <trkpt lat="46.08454" lon="4.56634">
        <ele>791.359558105</ele>
        <time>2015-12-17T11:10:53.807Z</time>
      </trkpt>
      <trkpt lat="46.08451" lon="4.56623">
        <ele>792.060974121</ele>
        <time>2015-12-17T11:10:59.817Z</time>
      </trkpt>
      <trkpt lat="46.08451" lon="4.56621">
        <ele>792.16998291</ele>
        <time>2015-12-17T11:11:00.805Z</time>
      </trkpt>
      <trkpt lat="46.0845" lon="4.56612">
        <ele>792.411560059</ele>
        <time>2015-12-17T11:11:04.816Z</time>
      </trkpt>
      <trkpt lat="46.0845" lon="4.56607">
        <ele>792.389648438</ele>
        <time>2015-12-17T11:11:05.805Z</time>
      </trkpt>
      <trkpt lat="46.08447" lon="4.56595">
        <ele>792.073730469</ele>
        <time>2015-12-17T11:11:17.828Z</time>
      </trkpt>
      <trkpt lat="46.08447" lon="4.56593">
        <ele>792.016479492</ele>
        <time>2015-12-17T11:11:18.806Z</time>
      </trkpt>
      <trkpt lat="46.08445" lon="4.56581">
        <ele>791.829772949</ele>
        <time>2015-12-17T11:11:26.821Z</time>
      </trkpt>
      <trkpt lat="46.08445" lon="4.5658">
        <ele>791.791503906</ele>
        <time>2015-12-17T11:11:27.808Z</time>
      </trkpt>
      <trkpt lat="46.08442" lon="4.56568">
        <ele>791.775390625</ele>
        <time>2015-12-17T11:11:37.819Z</time>
      </trkpt>
      <trkpt lat="46.08442" lon="4.56566">
        <ele>791.82434082</ele>
        <time>2015-12-17T11:11:38.808Z</time>
      </trkpt>
      <trkpt lat="46.08437" lon="4.56555">
        <ele>792.307312012</ele>
        <time>2015-12-17T11:11:56.821Z</time>
      </trkpt>
      <trkpt lat="46.08437" lon="4.56554">
        <ele>792.382629395</ele>
        <time>2015-12-17T11:11:57.808Z</time>
      </trkpt>
      <trkpt lat="46.08437" lon="4.56542">
        <ele>792.990661621</ele>
        <time>2015-12-17T11:12:06.823Z</time>
      </trkpt>
      <trkpt lat="46.08436" lon="4.56541">
        <ele>793.032043457</ele>
        <time>2015-12-17T11:12:07.809Z</time>
      </trkpt>
      <trkpt lat="46.08433" lon="4.56531">
        <ele>793.304748535</ele>
        <time>2015-12-17T11:12:17.824Z</time>
      </trkpt>
      <trkpt lat="46.08432" lon="4.56529">
        <ele>793.287963867</ele>
        <time>2015-12-17T11:12:18.811Z</time>
      </trkpt>
      <trkpt lat="46.08425" lon="4.5652">
        <ele>793.237976074</ele>
        <time>2015-12-17T11:12:24.822Z</time>
      </trkpt>
      <trkpt lat="46.08425" lon="4.5652">
        <ele>793.199401855</ele>
        <time>2015-12-17T11:12:25.811Z</time>
      </trkpt>
      <trkpt lat="46.08417" lon="4.56514">
        <ele>793.202880859</ele>
        <time>2015-12-17T11:12:34.833Z</time>
      </trkpt>
      <trkpt lat="46.08416" lon="4.56513">
        <ele>793.22265625</ele>
        <time>2015-12-17T11:12:35.811Z</time>
      </trkpt>
      <trkpt lat="46.08409" lon="4.56508">
        <ele>793.380187988</ele>
        <time>2015-12-17T11:12:43.826Z</time>
      </trkpt>
      <trkpt lat="46.08408" lon="4.56507">
        <ele>793.40032959</ele>
        <time>2015-12-17T11:12:44.815Z</time>
      </trkpt>
      <trkpt lat="46.08402" lon="4.56499">
        <ele>793.403625488</ele>
        <time>2015-12-17T11:12:51.825Z</time>
      </trkpt>
      <trkpt lat="46.08401" lon="4.56497">
        <ele>793.383239746</ele>
        <time>2015-12-17T11:12:52.812Z</time>
      </trkpt>
      <trkpt lat="46.08395" lon="4.5649">
        <ele>793.002441406</ele>
        <time>2015-12-17T11:12:59.825Z</time>
      </trkpt>
      <trkpt lat="46.08394" lon="4.56489">
        <ele>792.957092285</ele>
        <time>2015-12-17T11:13:00.813Z</time>
      </trkpt>
      <trkpt lat="46.0839" lon="4.56478">
        <ele>792.600463867</ele>
        <time>2015-12-17T11:13:08.814Z</time>
      </trkpt>
      <trkpt lat="46.0839" lon="4.56477">
        <ele>792.561401367</ele>
        <time>2015-12-17T11:13:09.795Z</time>
      </trkpt>
      <trkpt lat="46.08385" lon="4.56467">
        <ele>792.27557373</ele>
        <time>2015-12-17T11:13:19.801Z</time>
      </trkpt>
      <trkpt lat="46.08385" lon="4.56466">
        <ele>792.252075195</ele>
        <time>2015-12-17T11:13:20.79Z</time>
      </trkpt>
      <trkpt lat="46.08379" lon="4.56456">
        <ele>792.019287109</ele>
        <time>2015-12-17T11:13:30.836Z</time>
      </trkpt>
      <trkpt lat="46.08379" lon="4.56455">
        <ele>792.106079102</ele>
        <time>2015-12-17T11:13:31.79Z</time>
      </trkpt>
      <trkpt lat="46.08374" lon="4.56444">
        <ele>792.821105957</ele>
        <time>2015-12-17T11:13:39.816Z</time>
      </trkpt>
      <trkpt lat="46.08374" lon="4.56443">
        <ele>792.895812988</ele>
        <time>2015-12-17T11:13:40.791Z</time>
      </trkpt>
      <trkpt lat="46.08368" lon="4.56433">
        <ele>793.070251465</ele>
        <time>2015-12-17T11:13:49.807Z</time>
      </trkpt>
      <trkpt lat="46.08367" lon="4.56432">
        <ele>793.086914062</ele>
        <time>2015-12-17T11:13:50.795Z</time>
      </trkpt>
      <trkpt lat="46.08361" lon="4.56424">
        <ele>793.125610352</ele>
        <time>2015-12-17T11:13:58.815Z</time>
      </trkpt>
      <trkpt lat="46.08361" lon="4.56423">
        <ele>793.194274902</ele>
        <time>2015-12-17T11:13:59.793Z</time>
      </trkpt>
      <trkpt lat="46.08356" lon="4.56413">
        <ele>794.686340332</ele>
        <time>2015-12-17T11:14:34.991Z</time>
      </trkpt>
      <trkpt lat="46.08357" lon="4.56411">
        <ele>794.772399902</ele>
        <time>2015-12-17T11:14:35.796Z</time>
      </trkpt>
      <trkpt lat="46.08352" lon="4.564">
        <ele>795.833435059</ele>
        <time>2015-12-17T11:14:58.818Z</time>
      </trkpt>
      <trkpt lat="46.08352" lon="4.56399">
        <ele>795.886962891</ele>
        <time>2015-12-17T11:14:59.798Z</time>
      </trkpt>
      <trkpt lat="46.0835" lon="4.56387">
        <ele>796.802429199</ele>
        <time>2015-12-17T11:15:10.811Z</time>
      </trkpt>
      <trkpt lat="46.0835" lon="4.56386">
        <ele>796.910888672</ele>
        <time>2015-12-17T11:15:11.798Z</time>
      </trkpt>
      <trkpt lat="46.08345" lon="4.56377">
        <ele>797.85760498</ele>
        <time>2015-12-17T11:15:20.811Z</time>
      </trkpt>
      <trkpt lat="46.08344" lon="4.56375">
        <ele>798.033813477</ele>
        <time>2015-12-17T11:15:21.798Z</time>
      </trkpt>
      <trkpt lat="46.08338" lon="4.56364">
        <ele>798.476318359</ele>
        <time>2015-12-17T11:15:28.811Z</time>
      </trkpt>
      <trkpt lat="46.08338" lon="4.56363">
        <ele>798.481018066</ele>
        <time>2015-12-17T11:15:29.802Z</time>
      </trkpt>
      <trkpt lat="46.08335" lon="4.56352">
        <ele>798.434448242</ele>
        <time>2015-12-17T11:15:36.812Z</time>
      </trkpt>
      <trkpt lat="46.08334" lon="4.5635">
        <ele>798.469726562</ele>
        <time>2015-12-17T11:15:37.8Z</time>
      </trkpt>
      <trkpt lat="46.08329" lon="4.5634">
        <ele>798.276123047</ele>
        <time>2015-12-17T11:15:45.813Z</time>
      </trkpt>
      <trkpt lat="46.08328" lon="4.56338">
        <ele>798.156005859</ele>
        <time>2015-12-17T11:15:46.8Z</time>
      </trkpt>
      <trkpt lat="46.08322" lon="4.56329">
        <ele>797.715209961</ele>
        <time>2015-12-17T11:15:53.818Z</time>
      </trkpt>
      <trkpt lat="46.08322" lon="4.56329">
        <ele>797.74810791</ele>
        <time>2015-12-17T11:15:54.801Z</time>
      </trkpt>
      <trkpt lat="46.08315" lon="4.5632">
        <ele>797.575561523</ele>
        <time>2015-12-17T11:16:01.816Z</time>
      </trkpt>
      <trkpt lat="46.08314" lon="4.56319">
        <ele>797.583251953</ele>
        <time>2015-12-17T11:16:02.801Z</time>
      </trkpt>
      <trkpt lat="46.08309" lon="4.5631">
        <ele>797.065979004</ele>
        <time>2015-12-17T11:16:08.818Z</time>
      </trkpt>
      <trkpt lat="46.08308" lon="4.56309">
        <ele>796.971313477</ele>
        <time>2015-12-17T11:16:09.805Z</time>
      </trkpt>
      <trkpt lat="46.08304" lon="4.56299">
        <ele>796.452270508</ele>
        <time>2015-12-17T11:16:15.814Z</time>
      </trkpt>
      <trkpt lat="46.08303" lon="4.56297">
        <ele>796.29095459</ele>
        <time>2015-12-17T11:16:16.802Z</time>
      </trkpt>
      <trkpt lat="46.08301" lon="4.56284">
        <ele>795.438537598</ele>
        <time>2015-12-17T11:16:23.844Z</time>
      </trkpt>
      <trkpt lat="46.08301" lon="4.56283">
        <ele>795.244689941</ele>
        <time>2015-12-17T11:16:24.803Z</time>
      </trkpt>
      <trkpt lat="46.08299" lon="4.5627">
        <ele>794.542663574</ele>
        <time>2015-12-17T11:16:30.82Z</time>
      </trkpt>
      <trkpt lat="46.08299" lon="4.56267">
        <ele>794.481994629</ele>
        <time>2015-12-17T11:16:31.808Z</time>
      </trkpt>
      <trkpt lat="46.08299" lon="4.56255">
        <ele>794.127502441</ele>
        <time>2015-12-17T11:16:38.816Z</time>
      </trkpt>
      <trkpt lat="46.08299" lon="4.56254">
        <ele>794.153503418</ele>
        <time>2015-12-17T11:16:39.803Z</time>
      </trkpt>
      <trkpt lat="46.083" lon="4.56241">
        <ele>794.744873047</ele>
        <time>2015-12-17T11:16:48.816Z</time>
      </trkpt>
      <trkpt lat="46.083" lon="4.5624">
        <ele>794.771484375</ele>
        <time>2015-12-17T11:16:49.805Z</time>
      </trkpt>
      <trkpt lat="46.08299" lon="4.56228">
        <ele>794.937561035</ele>
        <time>2015-12-17T11:16:56.817Z</time>
      </trkpt>
      <trkpt lat="46.08299" lon="4.56226">
        <ele>794.971862793</ele>
        <time>2015-12-17T11:16:57.813Z</time>
      </trkpt>
      <trkpt lat="46.083" lon="4.56215">
        <ele>795.549926758</ele>
        <time>2015-12-17T11:17:03.813Z</time>
      </trkpt>
      <trkpt lat="46.083" lon="4.56213">
        <ele>795.555480957</ele>
        <time>2015-12-17T11:17:04.803Z</time>
      </trkpt>
      <trkpt lat="46.08299" lon="4.56203">
        <ele>795.622619629</ele>
        <time>2015-12-17T11:17:10.82Z</time>
      </trkpt>
      <trkpt lat="46.08299" lon="4.562">
        <ele>795.61517334</ele>
        <time>2015-12-17T11:17:11.807Z</time>
      </trkpt>
      <trkpt lat="46.08302" lon="4.56188">
        <ele>795.612487793</ele>
        <time>2015-12-17T11:17:19.817Z</time>
      </trkpt>
      <trkpt lat="46.08302" lon="4.56187">
        <ele>795.686157227</ele>
        <time>2015-12-17T11:17:20.807Z</time>
      </trkpt>
      <trkpt lat="46.08303" lon="4.56175">
        <ele>795.819519043</ele>
        <time>2015-12-17T11:17:27.824Z</time>
      </trkpt>
      <trkpt lat="46.08304" lon="4.56173">
        <ele>795.843383789</ele>
        <time>2015-12-17T11:17:28.808Z</time>
      </trkpt>
      <trkpt lat="46.08304" lon="4.56161">
        <ele>796.588989258</ele>
        <time>2015-12-17T11:17:35.821Z</time>
      </trkpt>
      <trkpt lat="46.08304" lon="4.56158">
        <ele>796.759765625</ele>
        <time>2015-12-17T11:17:36.807Z</time>
      </trkpt>
      <trkpt lat="46.08305" lon="4.56146">
        <ele>797.758972168</ele>
        <time>2015-12-17T11:17:43.821Z</time>
      </trkpt>
      <trkpt lat="46.08305" lon="4.56144">
        <ele>797.927307129</ele>
        <time>2015-12-17T11:17:44.809Z</time>
      </trkpt>
      <trkpt lat="46.08304" lon="4.56132">
        <ele>798.170898438</ele>
        <time>2015-12-17T11:17:50.821Z</time>
      </trkpt>
      <trkpt lat="46.08304" lon="4.56131">
        <ele>798.201843262</ele>
        <time>2015-12-17T11:17:51.817Z</time>
      </trkpt>
      <trkpt lat="46.08299" lon="4.56123">
        <ele>797.751586914</ele>
        <time>2015-12-17T11:17:58.824Z</time>
      </trkpt>
      <trkpt lat="46.08298" lon="4.56121">
        <ele>797.659484863</ele>
        <time>2015-12-17T11:17:59.811Z</time>
      </trkpt>
      <trkpt lat="46.08293" lon="4.5611">
        <ele>797.668640137</ele>
        <time>2015-12-17T11:18:08.824Z</time>
      </trkpt>
      <trkpt lat="46.08293" lon="4.56109">
        <ele>797.677124023</ele>
        <time>2015-12-17T11:18:09.81Z</time>
      </trkpt>
      <trkpt lat="46.08292" lon="4.56097">
        <ele>797.336242676</ele>
        <time>2015-12-17T11:18:18.798Z</time>
      </trkpt>
      <trkpt lat="46.08292" lon="4.56096">
        <ele>797.29888916</ele>
        <time>2015-12-17T11:18:19.787Z</time>
      </trkpt>
      <trkpt lat="46.08294" lon="4.56084">
        <ele>796.695922852</ele>
        <time>2015-12-17T11:18:49.833Z</time>
      </trkpt>
      <trkpt lat="46.08294" lon="4.56083">
        <ele>796.598876953</ele>
        <time>2015-12-17T11:18:50.788Z</time>
      </trkpt>
      <trkpt lat="46.08295" lon="4.56071">
        <ele>795.91619873</ele>
        <time>2015-12-17T11:19:06.8Z</time>
      </trkpt>
      <trkpt lat="46.08295" lon="4.5607">
        <ele>795.802856445</ele>
        <time>2015-12-17T11:19:07.791Z</time>
      </trkpt>
      <trkpt lat="46.08299" lon="4.56081">
        <ele>795.135009766</ele>
        <time>2015-12-17T11:19:57.831Z</time>
      </trkpt>
      <trkpt lat="46.08298" lon="4.56083">
        <ele>795.072814941</ele>
        <time>2015-12-17T11:19:58.794Z</time>
      </trkpt>
      <trkpt lat="46.08295" lon="4.56094">
        <ele>795.17565918</ele>
        <time>2015-12-17T11:20:06.806Z</time>
      </trkpt>
      <trkpt lat="46.08295" lon="4.56095">
        <ele>795.200439453</ele>
        <time>2015-12-17T11:20:07.794Z</time>
      </trkpt>
      <trkpt lat="46.08297" lon="4.56107">
        <ele>795.775756836</ele>
        <time>2015-12-17T11:20:17.808Z</time>
      </trkpt>
      <trkpt lat="46.08297" lon="4.56108">
        <ele>795.780151367</ele>
        <time>2015-12-17T11:20:18.795Z</time>
      </trkpt>
      <trkpt lat="46.08302" lon="4.56118">
        <ele>796.20690918</ele>
        <time>2015-12-17T11:20:27.819Z</time>
      </trkpt>
      <trkpt lat="46.08303" lon="4.56119">
        <ele>796.323486328</ele>
        <time>2015-12-17T11:20:28.795Z</time>
      </trkpt>
      <trkpt lat="46.08306" lon="4.56131">
        <ele>797.269714355</ele>
        <time>2015-12-17T11:20:36.819Z</time>
      </trkpt>
      <trkpt lat="46.08306" lon="4.56132">
        <ele>797.282714844</ele>
        <time>2015-12-17T11:20:37.834Z</time>
      </trkpt>
      <trkpt lat="46.08307" lon="4.56143">
        <ele>797.641052246</ele>
        <time>2015-12-17T11:20:43.809Z</time>
      </trkpt>
      <trkpt lat="46.08307" lon="4.56145">
        <ele>797.686035156</ele>
        <time>2015-12-17T11:20:44.796Z</time>
      </trkpt>
      <trkpt lat="46.08306" lon="4.56157">
        <ele>797.899536133</ele>
        <time>2015-12-17T11:20:49.812Z</time>
      </trkpt>
      <trkpt lat="46.08306" lon="4.56159">
        <ele>797.922119141</ele>
        <time>2015-12-17T11:20:50.797Z</time>
      </trkpt>
      <trkpt lat="46.08305" lon="4.56171">
        <ele>798.212158203</ele>
        <time>2015-12-17T11:20:57.811Z</time>
      </trkpt>
      <trkpt lat="46.08305" lon="4.56173">
        <ele>798.216552734</ele>
        <time>2015-12-17T11:20:58.798Z</time>
      </trkpt>
      <trkpt lat="46.08303" lon="4.56185">
        <ele>798.576538086</ele>
        <time>2015-12-17T11:21:05.81Z</time>
      </trkpt>
      <trkpt lat="46.08303" lon="4.56187">
        <ele>798.592956543</ele>
        <time>2015-12-17T11:21:06.798Z</time>
      </trkpt>
      <trkpt lat="46.083" lon="4.56198">
        <ele>798.84753418</ele>
        <time>2015-12-17T11:21:11.813Z</time>
      </trkpt>
      <trkpt lat="46.08299" lon="4.562">
        <ele>798.917053223</ele>
        <time>2015-12-17T11:21:12.799Z</time>
      </trkpt>
      <trkpt lat="46.083" lon="4.56212">
        <ele>799.045715332</ele>
        <time>2015-12-17T11:21:18.812Z</time>
      </trkpt>
      <trkpt lat="46.083" lon="4.56214">
        <ele>799.048339844</ele>
        <time>2015-12-17T11:21:19.799Z</time>
      </trkpt>
      <trkpt lat="46.08298" lon="4.56227">
        <ele>799.360839844</ele>
        <time>2015-12-17T11:21:28.811Z</time>
      </trkpt>
      <trkpt lat="46.08298" lon="4.56228">
        <ele>799.327514648</ele>
        <time>2015-12-17T11:21:29.801Z</time>
      </trkpt>
      <trkpt lat="46.0829" lon="4.56223">
        <ele>799.10333252</ele>
        <time>2015-12-17T11:21:44.814Z</time>
      </trkpt>
      <trkpt lat="46.08289" lon="4.56223">
        <ele>799.113708496</ele>
        <time>2015-12-17T11:21:45.805Z</time>
      </trkpt>
      <trkpt lat="46.08281" lon="4.56228">
        <ele>800.025756836</ele>
        <time>2015-12-17T11:42:50.819Z</time>
      </trkpt>
      <trkpt lat="46.08281" lon="4.56229">
        <ele>800.031677246</ele>
        <time>2015-12-17T11:42:51.794Z</time>
      </trkpt>
      <trkpt lat="46.08289" lon="4.56226">
        <ele>798.719299316</ele>
        <time>2015-12-17T12:09:58.798Z</time>
      </trkpt>
      <trkpt lat="46.0829" lon="4.56226">
        <ele>798.735290527</ele>
        <time>2015-12-17T12:09:59.786Z</time>
      </trkpt>
      <trkpt lat="46.08297" lon="4.56234">
        <ele>799.145935059</ele>
        <time>2015-12-17T12:10:11.801Z</time>
      </trkpt>
      <trkpt lat="46.08297" lon="4.56235">
        <ele>799.149902344</ele>
        <time>2015-12-17T12:10:12.788Z</time>
      </trkpt>
      <trkpt lat="46.08298" lon="4.56246">
        <ele>799.074584961</ele>
        <time>2015-12-17T12:10:21.805Z</time>
      </trkpt>
      <trkpt lat="46.08298" lon="4.56248">
        <ele>799.030090332</ele>
        <time>2015-12-17T12:10:22.788Z</time>
      </trkpt>
      <trkpt lat="46.08297" lon="4.5626">
        <ele>798.831542969</ele>
        <time>2015-12-17T12:10:29.799Z</time>
      </trkpt>
      <trkpt lat="46.08297" lon="4.56262">
        <ele>798.825012207</ele>
        <time>2015-12-17T12:10:30.789Z</time>
      </trkpt>
      <trkpt lat="46.08299" lon="4.56274">
        <ele>798.530029297</ele>
        <time>2015-12-17T12:10:37.803Z</time>
      </trkpt>
      <trkpt lat="46.08299" lon="4.56276">
        <ele>798.460021973</ele>
        <time>2015-12-17T12:10:38.789Z</time>
      </trkpt>
      <trkpt lat="46.08301" lon="4.56287">
        <ele>798.074462891</ele>
        <time>2015-12-17T12:10:44.801Z</time>
      </trkpt>
      <trkpt lat="46.08301" lon="4.5629">
        <ele>798.003967285</ele>
        <time>2015-12-17T12:10:45.79Z</time>
      </trkpt>
      <trkpt lat="46.08304" lon="4.56301">
        <ele>797.688720703</ele>
        <time>2015-12-17T12:10:52.78Z</time>
      </trkpt>
      <trkpt lat="46.08304" lon="4.56302">
        <ele>797.661743164</ele>
        <time>2015-12-17T12:10:53.773Z</time>
      </trkpt>
      <trkpt lat="46.08309" lon="4.56312">
        <ele>797.499450684</ele>
        <time>2015-12-17T12:10:59.782Z</time>
      </trkpt>
      <trkpt lat="46.0831" lon="4.56314">
        <ele>797.474121094</ele>
        <time>2015-12-17T12:11:00.767Z</time>
      </trkpt>
      <trkpt lat="46.08316" lon="4.56322">
        <ele>797.319641113</ele>
        <time>2015-12-17T12:11:07.778Z</time>
      </trkpt>
      <trkpt lat="46.08317" lon="4.56324">
        <ele>797.29309082</ele>
        <time>2015-12-17T12:11:08.766Z</time>
      </trkpt>
      <trkpt lat="46.08323" lon="4.56333">
        <ele>797.152709961</ele>
        <time>2015-12-17T12:11:18.778Z</time>
      </trkpt>
      <trkpt lat="46.08324" lon="4.56334">
        <ele>797.174682617</ele>
        <time>2015-12-17T12:11:19.766Z</time>
      </trkpt>
      <trkpt lat="46.0833" lon="4.56342">
        <ele>797.375305176</ele>
        <time>2015-12-17T12:11:27.787Z</time>
      </trkpt>
      <trkpt lat="46.0833" lon="4.56343">
        <ele>797.414550781</ele>
        <time>2015-12-17T12:11:28.769Z</time>
      </trkpt>
      <trkpt lat="46.08334" lon="4.56354">
        <ele>797.718322754</ele>
        <time>2015-12-17T12:11:37.781Z</time>
      </trkpt>
      <trkpt lat="46.08334" lon="4.56356">
        <ele>797.744689941</ele>
        <time>2015-12-17T12:11:38.768Z</time>
      </trkpt>
      <trkpt lat="46.08336" lon="4.56367">
        <ele>798.031188965</ele>
        <time>2015-12-17T12:11:46.782Z</time>
      </trkpt>
      <trkpt lat="46.08336" lon="4.56368">
        <ele>798.117553711</ele>
        <time>2015-12-17T12:11:47.77Z</time>
      </trkpt>
      <trkpt lat="46.08341" lon="4.56379">
        <ele>798.859558105</ele>
        <time>2015-12-17T12:11:56.782Z</time>
      </trkpt>
      <trkpt lat="46.08341" lon="4.5638">
        <ele>798.930664062</ele>
        <time>2015-12-17T12:11:57.769Z</time>
      </trkpt>
      <trkpt lat="46.08345" lon="4.5639">
        <ele>799.151672363</ele>
        <time>2015-12-17T12:12:04.792Z</time>
      </trkpt>
      <trkpt lat="46.08346" lon="4.56392">
        <ele>799.154907227</ele>
        <time>2015-12-17T12:12:05.771Z</time>
      </trkpt>
      <trkpt lat="46.0835" lon="4.56401">
        <ele>799.241088867</ele>
        <time>2015-12-17T12:12:12.784Z</time>
      </trkpt>
      <trkpt lat="46.08352" lon="4.56402">
        <ele>799.264038086</ele>
        <time>2015-12-17T12:12:13.77Z</time>
      </trkpt>
      <trkpt lat="46.08356" lon="4.56412">
        <ele>799.417419434</ele>
        <time>2015-12-17T12:12:20.784Z</time>
      </trkpt>
      <trkpt lat="46.08357" lon="4.56413">
        <ele>799.444519043</ele>
        <time>2015-12-17T12:12:21.773Z</time>
      </trkpt>
      <trkpt lat="46.08361" lon="4.56424">
        <ele>799.476867676</ele>
        <time>2015-12-17T12:12:27.786Z</time>
      </trkpt>
      <trkpt lat="46.08362" lon="4.56425">
        <ele>799.475402832</ele>
        <time>2015-12-17T12:12:28.776Z</time>
      </trkpt>
      <trkpt lat="46.08368" lon="4.56433">
        <ele>799.426513672</ele>
        <time>2015-12-17T12:12:34.792Z</time>
      </trkpt>
      <trkpt lat="46.08369" lon="4.56434">
        <ele>799.407592773</ele>
        <time>2015-12-17T12:12:35.772Z</time>
      </trkpt>
      <trkpt lat="46.08374" lon="4.56444">
        <ele>799.368041992</ele>
        <time>2015-12-17T12:12:42.784Z</time>
      </trkpt>
      <trkpt lat="46.08375" lon="4.56446">
        <ele>799.366149902</ele>
        <time>2015-12-17T12:12:43.774Z</time>
      </trkpt>
      <trkpt lat="46.0838" lon="4.56455">
        <ele>799.177612305</ele>
        <time>2015-12-17T12:12:50.794Z</time>
      </trkpt>
      <trkpt lat="46.08381" lon="4.56456">
        <ele>799.138549805</ele>
        <time>2015-12-17T12:12:51.774Z</time>
      </trkpt>
      <trkpt lat="46.08386" lon="4.56464">
        <ele>798.724304199</ele>
        <time>2015-12-17T12:12:58.787Z</time>
      </trkpt>
      <trkpt lat="46.08387" lon="4.56466">
        <ele>798.654541016</ele>
        <time>2015-12-17T12:12:59.774Z</time>
      </trkpt>
      <trkpt lat="46.08391" lon="4.56477">
        <ele>798.131835938</ele>
        <time>2015-12-17T12:13:06.787Z</time>
      </trkpt>
      <trkpt lat="46.08392" lon="4.56479">
        <ele>798.053100586</ele>
        <time>2015-12-17T12:13:07.773Z</time>
      </trkpt>
      <trkpt lat="46.08396" lon="4.56488">
        <ele>797.687927246</ele>
        <time>2015-12-17T12:13:13.818Z</time>
      </trkpt>
      <trkpt lat="46.08397" lon="4.5649">
        <ele>797.631774902</ele>
        <time>2015-12-17T12:13:14.776Z</time>
      </trkpt>
      <trkpt lat="46.08403" lon="4.56499">
        <ele>797.355712891</ele>
        <time>2015-12-17T12:13:21.812Z</time>
      </trkpt>
      <trkpt lat="46.08404" lon="4.56501">
        <ele>797.325195312</ele>
        <time>2015-12-17T12:13:22.775Z</time>
      </trkpt>
      <trkpt lat="46.08411" lon="4.56509">
        <ele>797.08581543</ele>
        <time>2015-12-17T12:13:29.788Z</time>
      </trkpt>
      <trkpt lat="46.08412" lon="4.5651">
        <ele>797.060180664</ele>
        <time>2015-12-17T12:13:30.778Z</time>
      </trkpt>
      <trkpt lat="46.0842" lon="4.56516">
        <ele>796.846801758</ele>
        <time>2015-12-17T12:13:36.79Z</time>
      </trkpt>
      <trkpt lat="46.08421" lon="4.56517">
        <ele>796.787231445</ele>
        <time>2015-12-17T12:13:37.782Z</time>
      </trkpt>
      <trkpt lat="46.08429" lon="4.56522">
        <ele>796.600524902</ele>
        <time>2015-12-17T12:13:44.789Z</time>
      </trkpt>
      <trkpt lat="46.0843" lon="4.56523">
        <ele>796.570983887</ele>
        <time>2015-12-17T12:13:45.778Z</time>
      </trkpt>
      <trkpt lat="46.08433" lon="4.56534">
        <ele>796.377319336</ele>
        <time>2015-12-17T12:13:52.79Z</time>
      </trkpt>
      <trkpt lat="46.08434" lon="4.56535">
        <ele>796.35949707</ele>
        <time>2015-12-17T12:13:53.779Z</time>
      </trkpt>
      <trkpt lat="46.08438" lon="4.56546">
        <ele>796.366882324</ele>
        <time>2015-12-17T12:14:00.792Z</time>
      </trkpt>
      <trkpt lat="46.08439" lon="4.56547">
        <ele>796.39239502</ele>
        <time>2015-12-17T12:14:01.779Z</time>
      </trkpt>
      <trkpt lat="46.08442" lon="4.56557">
        <ele>796.374389648</ele>
        <time>2015-12-17T12:14:06.791Z</time>
      </trkpt>
      <trkpt lat="46.08443" lon="4.56559">
        <ele>796.357971191</ele>
        <time>2015-12-17T12:14:07.779Z</time>
      </trkpt>
      <trkpt lat="46.08445" lon="4.5657">
        <ele>796.087768555</ele>
        <time>2015-12-17T12:14:14.796Z</time>
      </trkpt>
      <trkpt lat="46.08446" lon="4.56572">
        <ele>796.05480957</ele>
        <time>2015-12-17T12:14:15.781Z</time>
      </trkpt>
      <trkpt lat="46.08447" lon="4.56584">
        <ele>795.956420898</ele>
        <time>2015-12-17T12:14:22.796Z</time>
      </trkpt>
      <trkpt lat="46.08447" lon="4.56585">
        <ele>795.936401367</ele>
        <time>2015-12-17T12:14:23.784Z</time>
      </trkpt>
      <trkpt lat="46.08452" lon="4.56596">
        <ele>795.718017578</ele>
        <time>2015-12-17T12:14:38.793Z</time>
      </trkpt>
      <trkpt lat="46.08452" lon="4.56597">
        <ele>795.708068848</ele>
        <time>2015-12-17T12:14:39.788Z</time>
      </trkpt>
      <trkpt lat="46.08447" lon="4.56607">
        <ele>795.28918457</ele>
        <time>2015-12-17T12:14:51.795Z</time>
      </trkpt>
      <trkpt lat="46.08446" lon="4.56608">
        <ele>795.246154785</ele>
        <time>2015-12-17T12:14:52.784Z</time>
      </trkpt>
      <trkpt lat="46.08443" lon="4.56619">
        <ele>794.890930176</ele>
        <time>2015-12-17T12:15:03.797Z</time>
      </trkpt>
      <trkpt lat="46.08442" lon="4.5662">
        <ele>794.896240234</ele>
        <time>2015-12-17T12:15:04.784Z</time>
      </trkpt>
      <trkpt lat="46.08445" lon="4.56608">
        <ele>794.627319336</ele>
        <time>2015-12-17T12:22:03.776Z</time>
      </trkpt>
      <trkpt lat="46.08446" lon="4.56606">
        <ele>794.595458984</ele>
        <time>2015-12-17T12:22:04.772Z</time>
      </trkpt>
      <trkpt lat="46.08454" lon="4.56609">
        <ele>793.904052734</ele>
        <time>2015-12-17T12:22:21.782Z</time>
      </trkpt>
      <trkpt lat="46.08455" lon="4.5661">
        <ele>793.912841797</ele>
        <time>2015-12-17T12:22:22.769Z</time>
      </trkpt>
      <trkpt lat="46.08456" lon="4.56623">
        <ele>794.107177734</ele>
        <time>2015-12-17T12:22:32.783Z</time>
      </trkpt>
      <trkpt lat="46.08456" lon="4.56624">
        <ele>794.127197266</ele>
        <time>2015-12-17T12:22:33.768Z</time>
      </trkpt>
      <trkpt lat="46.08459" lon="4.56635">
        <ele>794.354431152</ele>
        <time>2015-12-17T12:22:39.779Z</time>
      </trkpt>
      <trkpt lat="46.08459" lon="4.56637">
        <ele>794.379272461</ele>
        <time>2015-12-17T12:22:40.766Z</time>
      </trkpt>
      <trkpt lat="46.08462" lon="4.56648">
        <ele>794.323730469</ele>
        <time>2015-12-17T12:22:47.788Z</time>
      </trkpt>
      <trkpt lat="46.08462" lon="4.56649">
        <ele>794.340637207</ele>
        <time>2015-12-17T12:22:48.768Z</time>
      </trkpt>
      <trkpt lat="46.08462" lon="4.56662">
        <ele>794.278991699</ele>
        <time>2015-12-17T12:22:56.786Z</time>
      </trkpt>
      <trkpt lat="46.08462" lon="4.56663">
        <ele>794.236755371</ele>
        <time>2015-12-17T12:22:57.773Z</time>
      </trkpt>
      <trkpt lat="46.08463" lon="4.56676">
        <ele>793.92010498</ele>
        <time>2015-12-17T12:23:05.811Z</time>
      </trkpt>
      <trkpt lat="46.08463" lon="4.56677">
        <ele>793.888549805</ele>
        <time>2015-12-17T12:23:06.77Z</time>
      </trkpt>
      <trkpt lat="46.08465" lon="4.56689">
        <ele>789.876281738</ele>
        <time>2015-12-17T12:27:01.774Z</time>
      </trkpt>
      <trkpt lat="46.08465" lon="4.5669">
        <ele>789.830810547</ele>
        <time>2015-12-17T12:27:02.762Z</time>
      </trkpt>
      <trkpt lat="46.08466" lon="4.56701">
        <ele>788.951171875</ele>
        <time>2015-12-17T12:27:18.781Z</time>
      </trkpt>
      <trkpt lat="46.08467" lon="4.56702">
        <ele>788.850891113</ele>
        <time>2015-12-17T12:27:19.764Z</time>
      </trkpt>
      <trkpt lat="46.08468" lon="4.56715">
        <ele>788.138061523</ele>
        <time>2015-12-17T12:27:31.774Z</time>
      </trkpt>
      <trkpt lat="46.08468" lon="4.56715">
        <ele>788.074829102</ele>
        <time>2015-12-17T12:27:32.784Z</time>
      </trkpt>
      <trkpt lat="46.0847" lon="4.56726">
        <ele>787.583007812</ele>
        <time>2015-12-17T12:27:39.777Z</time>
      </trkpt>
      <trkpt lat="46.08471" lon="4.56728">
        <ele>787.482910156</ele>
        <time>2015-12-17T12:27:40.769Z</time>
      </trkpt>
      <trkpt lat="46.08475" lon="4.56738">
        <ele>786.393615723</ele>
        <time>2015-12-17T12:27:52.777Z</time>
      </trkpt>
      <trkpt lat="46.08475" lon="4.5674">
        <ele>786.284179688</ele>
        <time>2015-12-17T12:27:53.766Z</time>
      </trkpt>
      <trkpt lat="46.08477" lon="4.56752">
        <ele>784.886230469</ele>
        <time>2015-12-17T12:28:05.778Z</time>
      </trkpt>
      <trkpt lat="46.08477" lon="4.56754">
        <ele>784.849609375</ele>
        <time>2015-12-17T12:28:06.766Z</time>
      </trkpt>
      <trkpt lat="46.0848" lon="4.56765">
        <ele>784.212524414</ele>
        <time>2015-12-17T12:28:16.779Z</time>
      </trkpt>
      <trkpt lat="46.08481" lon="4.56766">
        <ele>784.11920166</ele>
        <time>2015-12-17T12:28:17.765Z</time>
      </trkpt>
      <trkpt lat="46.08484" lon="4.56777">
        <ele>783.531799316</ele>
        <time>2015-12-17T12:28:25.78Z</time>
      </trkpt>
      <trkpt lat="46.08485" lon="4.56778">
        <ele>783.492370605</ele>
        <time>2015-12-17T12:28:26.768Z</time>
      </trkpt>
      <trkpt lat="46.08489" lon="4.56789">
        <ele>782.87689209</ele>
        <time>2015-12-17T12:28:32.782Z</time>
      </trkpt>
      <trkpt lat="46.08489" lon="4.5679">
        <ele>782.766296387</ele>
        <time>2015-12-17T12:28:33.769Z</time>
      </trkpt>
      <trkpt lat="46.08493" lon="4.568">
        <ele>782.123596191</ele>
        <time>2015-12-17T12:28:38.779Z</time>
      </trkpt>
      <trkpt lat="46.08493" lon="4.56802">
        <ele>781.964050293</ele>
        <time>2015-12-17T12:28:39.77Z</time>
      </trkpt>
      <trkpt lat="46.08497" lon="4.56813">
        <ele>780.863586426</ele>
        <time>2015-12-17T12:28:45.793Z</time>
      </trkpt>
      <trkpt lat="46.08498" lon="4.56814">
        <ele>780.723388672</ele>
        <time>2015-12-17T12:28:46.77Z</time>
      </trkpt>
      <trkpt lat="46.08501" lon="4.56825">
        <ele>779.575744629</ele>
        <time>2015-12-17T12:28:53.781Z</time>
      </trkpt>
      <trkpt lat="46.08502" lon="4.56827">
        <ele>779.393920898</ele>
        <time>2015-12-17T12:28:54.77Z</time>
      </trkpt>
      <trkpt lat="46.08503" lon="4.56837">
        <ele>777.659484863</ele>
        <time>2015-12-17T12:29:04.785Z</time>
      </trkpt>
      <trkpt lat="46.08504" lon="4.56839">
        <ele>777.437194824</ele>
        <time>2015-12-17T12:29:05.77Z</time>
      </trkpt>
      <trkpt lat="46.08504" lon="4.56851">
        <ele>776.536254883</ele>
        <time>2015-12-17T12:29:10.94Z</time>
      </trkpt>
      <trkpt lat="46.08505" lon="4.56853">
        <ele>776.363342285</ele>
        <time>2015-12-17T12:29:11.772Z</time>
      </trkpt>
      <trkpt lat="46.08506" lon="4.56865">
        <ele>774.891540527</ele>
        <time>2015-12-17T12:29:19.783Z</time>
      </trkpt>
      <trkpt lat="46.08506" lon="4.56867">
        <ele>774.701782227</ele>
        <time>2015-12-17T12:29:20.775Z</time>
      </trkpt>
      <trkpt lat="46.08508" lon="4.56878">
        <ele>773.557006836</ele>
        <time>2015-12-17T12:29:26.785Z</time>
      </trkpt>
      <trkpt lat="46.08509" lon="4.5688">
        <ele>773.37286377</ele>
        <time>2015-12-17T12:29:27.772Z</time>
      </trkpt>
      <trkpt lat="46.08512" lon="4.56891">
        <ele>772.101928711</ele>
        <time>2015-12-17T12:29:34.949Z</time>
      </trkpt>
      <trkpt lat="46.08513" lon="4.56894">
        <ele>771.920654297</ele>
        <time>2015-12-17T12:29:35.773Z</time>
      </trkpt>
      <trkpt lat="46.08514" lon="4.56905">
        <ele>771.053710938</ele>
        <time>2015-12-17T12:29:40.793Z</time>
      </trkpt>
      <trkpt lat="46.08514" lon="4.56907">
        <ele>770.87878418</ele>
        <time>2015-12-17T12:29:41.779Z</time>
      </trkpt>
      <trkpt lat="46.08517" lon="4.56918">
        <ele>769.258728027</ele>
        <time>2015-12-17T12:29:47.793Z</time>
      </trkpt>
      <trkpt lat="46.08518" lon="4.5692">
        <ele>768.984741211</ele>
        <time>2015-12-17T12:29:48.774Z</time>
      </trkpt>
      <trkpt lat="46.08519" lon="4.56932">
        <ele>767.442077637</ele>
        <time>2015-12-17T12:29:55.794Z</time>
      </trkpt>
      <trkpt lat="46.08519" lon="4.56934">
        <ele>767.292480469</ele>
        <time>2015-12-17T12:29:56.775Z</time>
      </trkpt>
      <trkpt lat="46.0852" lon="4.56946">
        <ele>766.017822266</ele>
        <time>2015-12-17T12:30:03.786Z</time>
      </trkpt>
      <trkpt lat="46.0852" lon="4.56947">
        <ele>765.831237793</ele>
        <time>2015-12-17T12:30:04.775Z</time>
      </trkpt>
      <trkpt lat="46.08523" lon="4.56959">
        <ele>764.552001953</ele>
        <time>2015-12-17T12:30:12.787Z</time>
      </trkpt>
      <trkpt lat="46.08524" lon="4.56959">
        <ele>764.403503418</ele>
        <time>2015-12-17T12:30:13.776Z</time>
      </trkpt>
      <trkpt lat="46.08526" lon="4.56971">
        <ele>763.041748047</ele>
        <time>2015-12-17T12:30:21.792Z</time>
      </trkpt>
      <trkpt lat="46.08526" lon="4.56972">
        <ele>762.784790039</ele>
        <time>2015-12-17T12:30:22.777Z</time>
      </trkpt>
      <trkpt lat="46.08527" lon="4.56984">
        <ele>761.675292969</ele>
        <time>2015-12-17T12:30:28.786Z</time>
      </trkpt>
      <trkpt lat="46.08527" lon="4.56986">
        <ele>761.526062012</ele>
        <time>2015-12-17T12:30:29.777Z</time>
      </trkpt>
      <trkpt lat="46.08528" lon="4.56998">
        <ele>760.183105469</ele>
        <time>2015-12-17T12:30:36.8Z</time>
      </trkpt>
      <trkpt lat="46.08528" lon="4.56999">
        <ele>759.923095703</ele>
        <time>2015-12-17T12:30:37.781Z</time>
      </trkpt>
      <trkpt lat="46.0853" lon="4.57011">
        <ele>758.389343262</ele>
        <time>2015-12-17T12:30:43.795Z</time>
      </trkpt>
      <trkpt lat="46.0853" lon="4.57013">
        <ele>758.159973145</ele>
        <time>2015-12-17T12:30:44.778Z</time>
      </trkpt>
      <trkpt lat="46.08531" lon="4.57024">
        <ele>756.815673828</ele>
        <time>2015-12-17T12:30:50.793Z</time>
      </trkpt>
      <trkpt lat="46.08531" lon="4.57026">
        <ele>756.585266113</ele>
        <time>2015-12-17T12:30:51.781Z</time>
      </trkpt>
      <trkpt lat="46.08532" lon="4.57038">
        <ele>755.096252441</ele>
        <time>2015-12-17T12:30:57.795Z</time>
      </trkpt>
      <trkpt lat="46.08532" lon="4.57039">
        <ele>754.838562012</ele>
        <time>2015-12-17T12:30:58.779Z</time>
      </trkpt>
      <trkpt lat="46.08533" lon="4.57052">
        <ele>753.310302734</ele>
        <time>2015-12-17T12:31:05.793Z</time>
      </trkpt>
      <trkpt lat="46.08533" lon="4.57053">
        <ele>753.143615723</ele>
        <time>2015-12-17T12:31:06.782Z</time>
      </trkpt>
      <trkpt lat="46.08534" lon="4.57065">
        <ele>751.811035156</ele>
        <time>2015-12-17T12:31:13.791Z</time>
      </trkpt>
      <trkpt lat="46.08534" lon="4.57067">
        <ele>751.605895996</ele>
        <time>2015-12-17T12:31:14.781Z</time>
      </trkpt>
      <trkpt lat="46.08537" lon="4.57079">
        <ele>750.317016602</ele>
        <time>2015-12-17T12:31:24.795Z</time>
      </trkpt>
      <trkpt lat="46.08536" lon="4.5708">
        <ele>750.40814209</ele>
        <time>2015-12-17T12:31:25.782Z</time>
      </trkpt>
      <trkpt lat="46.08536" lon="4.57092">
        <ele>750.88885498</ele>
        <time>2015-12-17T12:31:30.792Z</time>
      </trkpt>
      <trkpt lat="46.08535" lon="4.57093">
        <ele>750.942138672</ele>
        <time>2015-12-17T12:31:31.781Z</time>
      </trkpt>
      <trkpt lat="46.08534" lon="4.57105">
        <ele>751.483825684</ele>
        <time>2015-12-17T12:31:37.797Z</time>
      </trkpt>
      <trkpt lat="46.08534" lon="4.57106">
        <ele>751.568664551</ele>
        <time>2015-12-17T12:31:38.802Z</time>
      </trkpt>
      <trkpt lat="46.08536" lon="4.57118">
        <ele>751.956115723</ele>
        <time>2015-12-17T12:31:44.796Z</time>
      </trkpt>
      <trkpt lat="46.08536" lon="4.57119">
        <ele>752.003112793</ele>
        <time>2015-12-17T12:31:45.784Z</time>
      </trkpt>
      <trkpt lat="46.08539" lon="4.57131">
        <ele>752.464904785</ele>
        <time>2015-12-17T12:31:52.769Z</time>
      </trkpt>
      <trkpt lat="46.08539" lon="4.57133">
        <ele>752.570373535</ele>
        <time>2015-12-17T12:31:53.755Z</time>
      </trkpt>
      <trkpt lat="46.0854" lon="4.57143">
        <ele>753.410827637</ele>
        <time>2015-12-17T12:31:59.951Z</time>
      </trkpt>
      <trkpt lat="46.0854" lon="4.57146">
        <ele>753.517700195</ele>
        <time>2015-12-17T12:32:00.759Z</time>
      </trkpt>
      <trkpt lat="46.08542" lon="4.57158">
        <ele>753.941833496</ele>
        <time>2015-12-17T12:32:07.772Z</time>
      </trkpt>
      <trkpt lat="46.08542" lon="4.5716">
        <ele>753.985839844</ele>
        <time>2015-12-17T12:32:08.759Z</time>
      </trkpt>
      <trkpt lat="46.08543" lon="4.57173">
        <ele>753.981262207</ele>
        <time>2015-12-17T12:32:15.775Z</time>
      </trkpt>
      <trkpt lat="46.08543" lon="4.57174">
        <ele>753.961608887</ele>
        <time>2015-12-17T12:32:16.759Z</time>
      </trkpt>
      <trkpt lat="46.08545" lon="4.57187">
        <ele>753.62322998</ele>
        <time>2015-12-17T12:32:25.782Z</time>
      </trkpt>
      <trkpt lat="46.08545" lon="4.57188">
        <ele>753.539367676</ele>
        <time>2015-12-17T12:32:26.761Z</time>
      </trkpt>
      <trkpt lat="46.08544" lon="4.572">
        <ele>753.006591797</ele>
        <time>2015-12-17T12:32:32.788Z</time>
      </trkpt>
      <trkpt lat="46.08543" lon="4.57202">
        <ele>752.87878418</ele>
        <time>2015-12-17T12:32:33.761Z</time>
      </trkpt>
      <trkpt lat="46.0854" lon="4.57214">
        <ele>752.281860352</ele>
        <time>2015-12-17T12:32:41.774Z</time>
      </trkpt>
      <trkpt lat="46.0854" lon="4.57215">
        <ele>752.174682617</ele>
        <time>2015-12-17T12:32:42.761Z</time>
      </trkpt>
      <trkpt lat="46.08536" lon="4.57226">
        <ele>751.767333984</ele>
        <time>2015-12-17T12:32:48.809Z</time>
      </trkpt>
      <trkpt lat="46.08536" lon="4.57227">
        <ele>751.70300293</ele>
        <time>2015-12-17T12:32:49.762Z</time>
      </trkpt>
      <trkpt lat="46.08532" lon="4.57238">
        <ele>751.521179199</ele>
        <time>2015-12-17T12:32:56.789Z</time>
      </trkpt>
      <trkpt lat="46.08532" lon="4.5724">
        <ele>751.472961426</ele>
        <time>2015-12-17T12:32:57.763Z</time>
      </trkpt>
      <trkpt lat="46.08536" lon="4.57251">
        <ele>751.11541748</ele>
        <time>2015-12-17T12:33:03.776Z</time>
      </trkpt>
      <trkpt lat="46.08537" lon="4.57252">
        <ele>751.025390625</ele>
        <time>2015-12-17T12:33:04.763Z</time>
      </trkpt>
      <trkpt lat="46.08542" lon="4.57263">
        <ele>750.338806152</ele>
        <time>2015-12-17T12:33:11.774Z</time>
      </trkpt>
      <trkpt lat="46.08542" lon="4.57264">
        <ele>750.230407715</ele>
        <time>2015-12-17T12:33:12.768Z</time>
      </trkpt>
      <trkpt lat="46.08546" lon="4.57274">
        <ele>749.00567627</ele>
        <time>2015-12-17T12:33:49.779Z</time>
      </trkpt>
      <trkpt lat="46.08547" lon="4.57275">
        <ele>748.999328613</ele>
        <time>2015-12-17T12:33:50.767Z</time>
      </trkpt>
      <trkpt lat="46.08555" lon="4.57281">
        <ele>748.897399902</ele>
        <time>2015-12-17T12:33:58.779Z</time>
      </trkpt>
      <trkpt lat="46.08556" lon="4.57281">
        <ele>748.877563477</ele>
        <time>2015-12-17T12:33:59.767Z</time>
      </trkpt>
      <trkpt lat="46.08564" lon="4.57286">
        <ele>749.504150391</ele>
        <time>2015-12-17T12:34:09.779Z</time>
      </trkpt>
      <trkpt lat="46.08565" lon="4.57287">
        <ele>749.583557129</ele>
        <time>2015-12-17T12:34:10.773Z</time>
      </trkpt>
      <trkpt lat="46.0857" lon="4.57296">
        <ele>750.669189453</ele>
        <time>2015-12-17T12:34:18.79Z</time>
      </trkpt>
      <trkpt lat="46.08571" lon="4.57297">
        <ele>750.758728027</ele>
        <time>2015-12-17T12:34:19.769Z</time>
      </trkpt>
      <trkpt lat="46.08576" lon="4.57307">
        <ele>750.951171875</ele>
        <time>2015-12-17T12:34:24.788Z</time>
      </trkpt>
      <trkpt lat="46.08577" lon="4.57309">
        <ele>750.968688965</ele>
        <time>2015-12-17T12:34:25.77Z</time>
      </trkpt>
      <trkpt lat="46.08581" lon="4.5732">
        <ele>750.844177246</ele>
        <time>2015-12-17T12:34:32.782Z</time>
      </trkpt>
      <trkpt lat="46.08582" lon="4.57322">
        <ele>750.89276123</ele>
        <time>2015-12-17T12:34:33.77Z</time>
      </trkpt>
      <trkpt lat="46.08587" lon="4.57331">
        <ele>750.514038086</ele>
        <time>2015-12-17T12:34:39.794Z</time>
      </trkpt>
      <trkpt lat="46.08588" lon="4.57332">
        <ele>750.352844238</ele>
        <time>2015-12-17T12:34:40.77Z</time>
      </trkpt>
      <trkpt lat="46.08593" lon="4.5734">
        <ele>750.00012207</ele>
        <time>2015-12-17T12:34:46.785Z</time>
      </trkpt>
      <trkpt lat="46.08594" lon="4.57342">
        <ele>750.010253906</ele>
        <time>2015-12-17T12:34:47.772Z</time>
      </trkpt>
      <trkpt lat="46.08598" lon="4.57352">
        <ele>750.109130859</ele>
        <time>2015-12-17T12:34:54.785Z</time>
      </trkpt>
      <trkpt lat="46.08599" lon="4.57356">
        <ele>750.073730469</ele>
        <time>2015-12-17T12:34:55.779Z</time>
      </trkpt>
      <trkpt lat="46.08602" lon="4.57367">
        <ele>750.050476074</ele>
        <time>2015-12-17T12:35:02.787Z</time>
      </trkpt>
      <trkpt lat="46.08602" lon="4.57368">
        <ele>749.923522949</ele>
        <time>2015-12-17T12:35:03.773Z</time>
      </trkpt>
      <trkpt lat="46.08605" lon="4.5738">
        <ele>749.621398926</ele>
        <time>2015-12-17T12:35:08.784Z</time>
      </trkpt>
      <trkpt lat="46.08606" lon="4.57381">
        <ele>749.617736816</ele>
        <time>2015-12-17T12:35:09.773Z</time>
      </trkpt>
      <trkpt lat="46.08612" lon="4.57389">
        <ele>749.743164062</ele>
        <time>2015-12-17T12:35:16.785Z</time>
      </trkpt>
      <trkpt lat="46.08613" lon="4.57392">
        <ele>749.73815918</ele>
        <time>2015-12-17T12:35:17.774Z</time>
      </trkpt>
      <trkpt lat="46.0862" lon="4.57398">
        <ele>749.728881836</ele>
        <time>2015-12-17T12:35:22.786Z</time>
      </trkpt>
      <trkpt lat="46.08621" lon="4.57399">
        <ele>749.693603516</ele>
        <time>2015-12-17T12:35:23.774Z</time>
      </trkpt>
      <trkpt lat="46.08629" lon="4.57404">
        <ele>749.581237793</ele>
        <time>2015-12-17T12:35:30.786Z</time>
      </trkpt>
      <trkpt lat="46.0863" lon="4.57404">
        <ele>749.542602539</ele>
        <time>2015-12-17T12:35:31.774Z</time>
      </trkpt>
      <trkpt lat="46.08636" lon="4.57412">
        <ele>749.319946289</ele>
        <time>2015-12-17T12:35:36.795Z</time>
      </trkpt>
      <trkpt lat="46.08637" lon="4.57414">
        <ele>749.249145508</ele>
        <time>2015-12-17T12:35:37.775Z</time>
      </trkpt>
      <trkpt lat="46.08642" lon="4.57424">
        <ele>748.933227539</ele>
        <time>2015-12-17T12:35:42.79Z</time>
      </trkpt>
      <trkpt lat="46.08643" lon="4.57425">
        <ele>748.876586914</ele>
        <time>2015-12-17T12:35:43.777Z</time>
      </trkpt>
      <trkpt lat="46.08649" lon="4.57432">
        <ele>748.691833496</ele>
        <time>2015-12-17T12:35:49.79Z</time>
      </trkpt>
      <trkpt lat="46.0865" lon="4.57433">
        <ele>748.671020508</ele>
        <time>2015-12-17T12:35:50.776Z</time>
      </trkpt>
      <trkpt lat="46.08658" lon="4.57438">
        <ele>748.591796875</ele>
        <time>2015-12-17T12:35:57.787Z</time>
      </trkpt>
      <trkpt lat="46.08659" lon="4.57438">
        <ele>748.582824707</ele>
        <time>2015-12-17T12:35:58.776Z</time>
      </trkpt>
      <trkpt lat="46.08666" lon="4.57443">
        <ele>748.598388672</ele>
        <time>2015-12-17T12:36:05.793Z</time>
      </trkpt>
      <trkpt lat="46.08667" lon="4.57444">
        <ele>748.606018066</ele>
        <time>2015-12-17T12:36:06.78Z</time>
      </trkpt>
      <trkpt lat="46.08675" lon="4.57449">
        <ele>748.692504883</ele>
        <time>2015-12-17T12:36:13.788Z</time>
      </trkpt>
      <trkpt lat="46.08676" lon="4.57449">
        <ele>748.708618164</ele>
        <time>2015-12-17T12:36:14.777Z</time>
      </trkpt>
      <trkpt lat="46.08684" lon="4.57453">
        <ele>748.861694336</ele>
        <time>2015-12-17T12:36:22.802Z</time>
      </trkpt>
      <trkpt lat="46.08685" lon="4.57454">
        <ele>748.89440918</ele>
        <time>2015-12-17T12:36:23.778Z</time>
      </trkpt>
      <trkpt lat="46.08692" lon="4.57459">
        <ele>749.155944824</ele>
        <time>2015-12-17T12:36:30.789Z</time>
      </trkpt>
      <trkpt lat="46.08693" lon="4.5746">
        <ele>749.199890137</ele>
        <time>2015-12-17T12:36:31.779Z</time>
      </trkpt>
      <trkpt lat="46.08699" lon="4.57466">
        <ele>749.516906738</ele>
        <time>2015-12-17T12:36:37.79Z</time>
      </trkpt>
      <trkpt lat="46.08701" lon="4.57467">
        <ele>749.57989502</ele>
        <time>2015-12-17T12:36:38.779Z</time>
      </trkpt>
      <trkpt lat="46.08708" lon="4.57474">
        <ele>749.997375488</ele>
        <time>2015-12-17T12:36:45.789Z</time>
      </trkpt>
      <trkpt lat="46.08709" lon="4.57475">
        <ele>750.052307129</ele>
        <time>2015-12-17T12:36:46.792Z</time>
      </trkpt>
      <trkpt lat="46.08716" lon="4.57482">
        <ele>750.589660645</ele>
        <time>2015-12-17T12:36:53.792Z</time>
      </trkpt>
      <trkpt lat="46.08717" lon="4.57483">
        <ele>750.629089355</ele>
        <time>2015-12-17T12:36:54.78Z</time>
      </trkpt>
      <trkpt lat="46.08725" lon="4.5749">
        <ele>750.964111328</ele>
        <time>2015-12-17T12:37:01.79Z</time>
      </trkpt>
      <trkpt lat="46.08726" lon="4.57491">
        <ele>751.021057129</ele>
        <time>2015-12-17T12:37:02.781Z</time>
      </trkpt>
      <trkpt lat="46.08733" lon="4.57495">
        <ele>751.388977051</ele>
        <time>2015-12-17T12:37:09.767Z</time>
      </trkpt>
      <trkpt lat="46.08735" lon="4.57496">
        <ele>751.438659668</ele>
        <time>2015-12-17T12:37:10.756Z</time>
      </trkpt>
      <trkpt lat="46.08742" lon="4.57499">
        <ele>751.76348877</ele>
        <time>2015-12-17T12:37:16.769Z</time>
      </trkpt>
      <trkpt lat="46.08744" lon="4.575">
        <ele>751.803588867</ele>
        <time>2015-12-17T12:37:17.756Z</time>
      </trkpt>
      <trkpt lat="46.08752" lon="4.57501">
        <ele>751.986083984</ele>
        <time>2015-12-17T12:37:24.772Z</time>
      </trkpt>
      <trkpt lat="46.08753" lon="4.57502">
        <ele>752.006225586</ele>
        <time>2015-12-17T12:37:25.757Z</time>
      </trkpt>
      <trkpt lat="46.08761" lon="4.57506">
        <ele>752.444458008</ele>
        <time>2015-12-17T12:37:33.774Z</time>
      </trkpt>
      <trkpt lat="46.08762" lon="4.57506">
        <ele>752.489013672</ele>
        <time>2015-12-17T12:37:34.758Z</time>
      </trkpt>
      <trkpt lat="46.0877" lon="4.57512">
        <ele>753.223327637</ele>
        <time>2015-12-17T12:37:49.787Z</time>
      </trkpt>
      <trkpt lat="46.08771" lon="4.57512">
        <ele>753.287719727</ele>
        <time>2015-12-17T12:37:50.759Z</time>
      </trkpt>
      <trkpt lat="46.08778" lon="4.57519">
        <ele>753.663085938</ele>
        <time>2015-12-17T12:37:57.776Z</time>
      </trkpt>
      <trkpt lat="46.08779" lon="4.57519">
        <ele>753.717529297</ele>
        <time>2015-12-17T12:37:58.76Z</time>
      </trkpt>
      <trkpt lat="46.08787" lon="4.57521">
        <ele>754.13494873</ele>
        <time>2015-12-17T12:38:07.772Z</time>
      </trkpt>
      <trkpt lat="46.08788" lon="4.57522">
        <ele>754.18347168</ele>
        <time>2015-12-17T12:38:08.761Z</time>
      </trkpt>
      <trkpt lat="46.08795" lon="4.57528">
        <ele>754.281738281</ele>
        <time>2015-12-17T12:38:15.924Z</time>
      </trkpt>
      <trkpt lat="46.08796" lon="4.57529">
        <ele>754.268432617</ele>
        <time>2015-12-17T12:38:16.761Z</time>
      </trkpt>
      <trkpt lat="46.088" lon="4.5754">
        <ele>754.331665039</ele>
        <time>2015-12-17T12:38:23.774Z</time>
      </trkpt>
      <trkpt lat="46.08801" lon="4.57542">
        <ele>754.335266113</ele>
        <time>2015-12-17T12:38:24.762Z</time>
      </trkpt>
      <trkpt lat="46.08805" lon="4.57552">
        <ele>754.123535156</ele>
        <time>2015-12-17T12:38:31.772Z</time>
      </trkpt>
      <trkpt lat="46.08805" lon="4.57554">
        <ele>754.064941406</ele>
        <time>2015-12-17T12:38:32.762Z</time>
      </trkpt>
      <trkpt lat="46.08809" lon="4.57565">
        <ele>753.725830078</ele>
        <time>2015-12-17T12:38:38.777Z</time>
      </trkpt>
      <trkpt lat="46.08809" lon="4.57566">
        <ele>753.600769043</ele>
        <time>2015-12-17T12:38:39.763Z</time>
      </trkpt>
      <trkpt lat="46.08813" lon="4.57577">
        <ele>753.078430176</ele>
        <time>2015-12-17T12:38:46.775Z</time>
      </trkpt>
      <trkpt lat="46.08814" lon="4.57579">
        <ele>753.041809082</ele>
        <time>2015-12-17T12:38:47.76Z</time>
      </trkpt>
      <trkpt lat="46.08818" lon="4.57589">
        <ele>752.589233398</ele>
        <time>2015-12-17T12:38:53.779Z</time>
      </trkpt>
      <trkpt lat="46.08818" lon="4.57591">
        <ele>752.53692627</ele>
        <time>2015-12-17T12:38:54.763Z</time>
      </trkpt>
      <trkpt lat="46.08821" lon="4.57602">
        <ele>752.053405762</ele>
        <time>2015-12-17T12:39:01.778Z</time>
      </trkpt>
      <trkpt lat="46.08821" lon="4.57604">
        <ele>751.976379395</ele>
        <time>2015-12-17T12:39:02.768Z</time>
      </trkpt>
      <trkpt lat="46.08823" lon="4.57616">
        <ele>751.420593262</ele>
        <time>2015-12-17T12:39:08.776Z</time>
      </trkpt>
      <trkpt lat="46.08824" lon="4.57618">
        <ele>751.314758301</ele>
        <time>2015-12-17T12:39:09.765Z</time>
      </trkpt>
      <trkpt lat="46.08828" lon="4.5763">
        <ele>750.49432373</ele>
        <time>2015-12-17T12:39:16.777Z</time>
      </trkpt>
      <trkpt lat="46.08828" lon="4.57631">
        <ele>750.37677002</ele>
        <time>2015-12-17T12:39:17.766Z</time>
      </trkpt>
      <trkpt lat="46.08832" lon="4.57641">
        <ele>749.659973145</ele>
        <time>2015-12-17T12:39:23.777Z</time>
      </trkpt>
      <trkpt lat="46.08833" lon="4.57643">
        <ele>749.551879883</ele>
        <time>2015-12-17T12:39:24.766Z</time>
      </trkpt>
      <trkpt lat="46.08837" lon="4.57653">
        <ele>748.883483887</ele>
        <time>2015-12-17T12:39:30.787Z</time>
      </trkpt>
      <trkpt lat="46.08838" lon="4.57654">
        <ele>748.769104004</ele>
        <time>2015-12-17T12:39:31.766Z</time>
      </trkpt>
      <trkpt lat="46.08842" lon="4.57664">
        <ele>747.962768555</ele>
        <time>2015-12-17T12:39:38.779Z</time>
      </trkpt>
      <trkpt lat="46.08843" lon="4.57666">
        <ele>747.851379395</ele>
        <time>2015-12-17T12:39:39.767Z</time>
      </trkpt>
      <trkpt lat="46.08845" lon="4.57677">
        <ele>746.883239746</ele>
        <time>2015-12-17T12:39:46.782Z</time>
      </trkpt>
      <trkpt lat="46.08847" lon="4.5768">
        <ele>746.755187988</ele>
        <time>2015-12-17T12:39:47.767Z</time>
      </trkpt>
      <trkpt lat="46.0885" lon="4.57691">
        <ele>745.660583496</ele>
        <time>2015-12-17T12:39:54.782Z</time>
      </trkpt>
      <trkpt lat="46.0885" lon="4.57693">
        <ele>745.484985352</ele>
        <time>2015-12-17T12:39:55.768Z</time>
      </trkpt>
      <trkpt lat="46.08853" lon="4.57704">
        <ele>744.288391113</ele>
        <time>2015-12-17T12:40:02.781Z</time>
      </trkpt>
      <trkpt lat="46.08854" lon="4.57705">
        <ele>744.142883301</ele>
        <time>2015-12-17T12:40:03.77Z</time>
      </trkpt>
      <trkpt lat="46.08858" lon="4.57716">
        <ele>742.891662598</ele>
        <time>2015-12-17T12:40:09.784Z</time>
      </trkpt>
      <trkpt lat="46.08859" lon="4.57718">
        <ele>742.708557129</ele>
        <time>2015-12-17T12:40:10.769Z</time>
      </trkpt>
      <trkpt lat="46.0886" lon="4.5773">
        <ele>741.272766113</ele>
        <time>2015-12-17T12:40:18.787Z</time>
      </trkpt>
      <trkpt lat="46.0886" lon="4.57732">
        <ele>741.106567383</ele>
        <time>2015-12-17T12:40:19.771Z</time>
      </trkpt>
      <trkpt lat="46.0886" lon="4.57745">
        <ele>740.353820801</ele>
        <time>2015-12-17T12:40:26.785Z</time>
      </trkpt>
      <trkpt lat="46.0886" lon="4.57746">
        <ele>740.236755371</ele>
        <time>2015-12-17T12:40:27.771Z</time>
      </trkpt>
      <trkpt lat="46.0886" lon="4.57757">
        <ele>739.458190918</ele>
        <time>2015-12-17T12:40:33.786Z</time>
      </trkpt>
      <trkpt lat="46.08859" lon="4.57759">
        <ele>739.334533691</ele>
        <time>2015-12-17T12:40:34.775Z</time>
      </trkpt>
      <trkpt lat="46.08858" lon="4.5777">
        <ele>738.765014648</ele>
        <time>2015-12-17T12:40:40.788Z</time>
      </trkpt>
      <trkpt lat="46.08858" lon="4.57772">
        <ele>738.659729004</ele>
        <time>2015-12-17T12:40:41.772Z</time>
      </trkpt>
      <trkpt lat="46.08855" lon="4.57784">
        <ele>737.977478027</ele>
        <time>2015-12-17T12:40:46.785Z</time>
      </trkpt>
      <trkpt lat="46.08855" lon="4.57785">
        <ele>737.870666504</ele>
        <time>2015-12-17T12:40:47.772Z</time>
      </trkpt>
      <trkpt lat="46.08851" lon="4.57797">
        <ele>737.136474609</ele>
        <time>2015-12-17T12:40:53.786Z</time>
      </trkpt>
      <trkpt lat="46.08851" lon="4.57798">
        <ele>737.003723145</ele>
        <time>2015-12-17T12:40:54.772Z</time>
      </trkpt>
      <trkpt lat="46.08848" lon="4.57809">
        <ele>736.319458008</ele>
        <time>2015-12-17T12:41:00.793Z</time>
      </trkpt>
      <trkpt lat="46.08847" lon="4.5781">
        <ele>736.205505371</ele>
        <time>2015-12-17T12:41:01.773Z</time>
      </trkpt>
      <trkpt lat="46.08846" lon="4.57822">
        <ele>735.571655273</ele>
        <time>2015-12-17T12:41:06.786Z</time>
      </trkpt>
      <trkpt lat="46.08846" lon="4.57824">
        <ele>735.391784668</ele>
        <time>2015-12-17T12:41:07.8Z</time>
      </trkpt>
      <trkpt lat="46.08847" lon="4.57835">
        <ele>734.636169434</ele>
        <time>2015-12-17T12:41:12.784Z</time>
      </trkpt>
      <trkpt lat="46.08848" lon="4.57837">
        <ele>734.525817871</ele>
        <time>2015-12-17T12:41:13.777Z</time>
      </trkpt>
      <trkpt lat="46.08849" lon="4.57847">
        <ele>733.74230957</ele>
        <time>2015-12-17T12:41:19.79Z</time>
      </trkpt>
      <trkpt lat="46.08849" lon="4.5785">
        <ele>733.625610352</ele>
        <time>2015-12-17T12:41:20.775Z</time>
      </trkpt>
      <trkpt lat="46.08848" lon="4.57862">
        <ele>732.728637695</ele>
        <time>2015-12-17T12:41:27.798Z</time>
      </trkpt>
      <trkpt lat="46.08848" lon="4.57866">
        <ele>732.599121094</ele>
        <time>2015-12-17T12:41:28.775Z</time>
      </trkpt>
      <trkpt lat="46.08847" lon="4.57877">
        <ele>731.887084961</ele>
        <time>2015-12-17T12:41:33.787Z</time>
      </trkpt>
      <trkpt lat="46.08847" lon="4.57879">
        <ele>731.732299805</ele>
        <time>2015-12-17T12:41:34.778Z</time>
      </trkpt>
      <trkpt lat="46.08844" lon="4.5789">
        <ele>731.199584961</ele>
        <time>2015-12-17T12:41:41.804Z</time>
      </trkpt>
      <trkpt lat="46.08843" lon="4.57891">
        <ele>731.143371582</ele>
        <time>2015-12-17T12:41:42.777Z</time>
      </trkpt>
      <trkpt lat="46.08839" lon="4.57901">
        <ele>730.766174316</ele>
        <time>2015-12-17T12:41:47.795Z</time>
      </trkpt>
      <trkpt lat="46.08838" lon="4.57903">
        <ele>730.66809082</ele>
        <time>2015-12-17T12:41:48.778Z</time>
      </trkpt>
      <trkpt lat="46.08834" lon="4.57913">
        <ele>730.321899414</ele>
        <time>2015-12-17T12:41:54.793Z</time>
      </trkpt>
      <trkpt lat="46.08833" lon="4.57915">
        <ele>730.291625977</ele>
        <time>2015-12-17T12:41:55.778Z</time>
      </trkpt>
      <trkpt lat="46.0883" lon="4.57926">
        <ele>729.94934082</ele>
        <time>2015-12-17T12:42:02.789Z</time>
      </trkpt>
      <trkpt lat="46.0883" lon="4.57928">
        <ele>729.879089355</ele>
        <time>2015-12-17T12:42:03.778Z</time>
      </trkpt>
      <trkpt lat="46.08828" lon="4.57939">
        <ele>729.485168457</ele>
        <time>2015-12-17T12:42:09.792Z</time>
      </trkpt>
      <trkpt lat="46.08828" lon="4.57941">
        <ele>729.437194824</ele>
        <time>2015-12-17T12:42:10.783Z</time>
      </trkpt>
      <trkpt lat="46.08827" lon="4.57954">
        <ele>729.054016113</ele>
        <time>2015-12-17T12:42:17.792Z</time>
      </trkpt>
      <trkpt lat="46.08827" lon="4.57956">
        <ele>728.985595703</ele>
        <time>2015-12-17T12:42:18.779Z</time>
      </trkpt>
      <trkpt lat="46.08827" lon="4.57968">
        <ele>728.694702148</ele>
        <time>2015-12-17T12:42:25.768Z</time>
      </trkpt>
      <trkpt lat="46.08827" lon="4.57969">
        <ele>728.671508789</ele>
        <time>2015-12-17T12:42:26.755Z</time>
      </trkpt>
      <trkpt lat="46.08826" lon="4.57981">
        <ele>728.551147461</ele>
        <time>2015-12-17T12:42:34.945Z</time>
      </trkpt>
      <trkpt lat="46.08826" lon="4.57982">
        <ele>728.551513672</ele>
        <time>2015-12-17T12:42:35.755Z</time>
      </trkpt>
      <trkpt lat="46.08825" lon="4.57995">
        <ele>728.85333252</ele>
        <time>2015-12-17T12:42:43.771Z</time>
      </trkpt>
      <trkpt lat="46.08825" lon="4.57996">
        <ele>728.923400879</ele>
        <time>2015-12-17T12:42:44.76Z</time>
      </trkpt>
      <trkpt lat="46.08824" lon="4.58008">
        <ele>729.529052734</ele>
        <time>2015-12-17T12:42:53.768Z</time>
      </trkpt>
      <trkpt lat="46.08824" lon="4.58009">
        <ele>729.58770752</ele>
        <time>2015-12-17T12:42:54.76Z</time>
      </trkpt>
      <trkpt lat="46.08823" lon="4.58021">
        <ele>730.156799316</ele>
        <time>2015-12-17T12:43:03.772Z</time>
      </trkpt>
      <trkpt lat="46.08823" lon="4.58022">
        <ele>730.22869873</ele>
        <time>2015-12-17T12:43:04.76Z</time>
      </trkpt>
      <trkpt lat="46.08822" lon="4.58034">
        <ele>731.01739502</ele>
        <time>2015-12-17T12:43:12.77Z</time>
      </trkpt>
      <trkpt lat="46.08821" lon="4.58035">
        <ele>731.101806641</ele>
        <time>2015-12-17T12:43:13.758Z</time>
      </trkpt>
      <trkpt lat="46.08817" lon="4.58046">
        <ele>732.126464844</ele>
        <time>2015-12-17T12:43:23.777Z</time>
      </trkpt>
      <trkpt lat="46.08817" lon="4.58048">
        <ele>732.189025879</ele>
        <time>2015-12-17T12:43:24.76Z</time>
      </trkpt>
      <trkpt lat="46.08814" lon="4.5806">
        <ele>733.063049316</ele>
        <time>2015-12-17T12:43:32.789Z</time>
      </trkpt>
      <trkpt lat="46.08814" lon="4.58061">
        <ele>733.185180664</ele>
        <time>2015-12-17T12:43:33.759Z</time>
      </trkpt>
      <trkpt lat="46.0881" lon="4.58073">
        <ele>734.223937988</ele>
        <time>2015-12-17T12:43:40.784Z</time>
      </trkpt>
      <trkpt lat="46.08809" lon="4.58074">
        <ele>734.376953125</ele>
        <time>2015-12-17T12:43:41.761Z</time>
      </trkpt>
      <trkpt lat="46.08802" lon="4.58083">
        <ele>735.469848633</ele>
        <time>2015-12-17T12:43:49.771Z</time>
      </trkpt>
      <trkpt lat="46.08801" lon="4.58084">
        <ele>735.583251953</ele>
        <time>2015-12-17T12:43:50.761Z</time>
      </trkpt>
      <trkpt lat="46.08795" lon="4.58093">
        <ele>736.332458496</ele>
        <time>2015-12-17T12:43:57.777Z</time>
      </trkpt>
      <trkpt lat="46.08794" lon="4.58094">
        <ele>736.4140625</ele>
        <time>2015-12-17T12:43:58.761Z</time>
      </trkpt>
      <trkpt lat="46.08789" lon="4.58104">
        <ele>736.920898438</ele>
        <time>2015-12-17T12:44:05.773Z</time>
      </trkpt>
      <trkpt lat="46.08788" lon="4.58106">
        <ele>736.992797852</ele>
        <time>2015-12-17T12:44:06.767Z</time>
      </trkpt>
      <trkpt lat="46.08783" lon="4.58116">
        <ele>737.523132324</ele>
        <time>2015-12-17T12:44:13.777Z</time>
      </trkpt>
      <trkpt lat="46.08782" lon="4.58118">
        <ele>737.599121094</ele>
        <time>2015-12-17T12:44:14.763Z</time>
      </trkpt>
      <trkpt lat="46.08776" lon="4.58127">
        <ele>737.86505127</ele>
        <time>2015-12-17T12:44:20.775Z</time>
      </trkpt>
      <trkpt lat="46.08775" lon="4.58128">
        <ele>737.890014648</ele>
        <time>2015-12-17T12:44:21.763Z</time>
      </trkpt>
      <trkpt lat="46.08767" lon="4.58135">
        <ele>737.959106445</ele>
        <time>2015-12-17T12:44:27.777Z</time>
      </trkpt>
      <trkpt lat="46.08766" lon="4.58137">
        <ele>737.968383789</ele>
        <time>2015-12-17T12:44:28.765Z</time>
      </trkpt>
      <trkpt lat="46.0876" lon="4.58145">
        <ele>737.998535156</ele>
        <time>2015-12-17T12:44:34.815Z</time>
      </trkpt>
      <trkpt lat="46.08759" lon="4.58147">
        <ele>737.988525391</ele>
        <time>2015-12-17T12:44:35.763Z</time>
      </trkpt>
      <trkpt lat="46.08753" lon="4.58155">
        <ele>737.839477539</ele>
        <time>2015-12-17T12:44:41.778Z</time>
      </trkpt>
      <trkpt lat="46.08752" lon="4.58156">
        <ele>737.814941406</ele>
        <time>2015-12-17T12:44:42.765Z</time>
      </trkpt>
      <trkpt lat="46.08745" lon="4.58165">
        <ele>737.77166748</ele>
        <time>2015-12-17T12:44:49.775Z</time>
      </trkpt>
      <trkpt lat="46.08745" lon="4.58166">
        <ele>737.772216797</ele>
        <time>2015-12-17T12:44:50.767Z</time>
      </trkpt>
      <trkpt lat="46.08738" lon="4.58173">
        <ele>737.878479004</ele>
        <time>2015-12-17T12:44:57.779Z</time>
      </trkpt>
      <trkpt lat="46.08737" lon="4.58174">
        <ele>737.915710449</ele>
        <time>2015-12-17T12:44:58.765Z</time>
      </trkpt>
      <trkpt lat="46.08729" lon="4.58181">
        <ele>738.165893555</ele>
        <time>2015-12-17T12:45:05.779Z</time>
      </trkpt>
      <trkpt lat="46.08728" lon="4.58182">
        <ele>738.180664062</ele>
        <time>2015-12-17T12:45:06.768Z</time>
      </trkpt>
      <trkpt lat="46.08721" lon="4.58188">
        <ele>738.319213867</ele>
        <time>2015-12-17T12:45:12.782Z</time>
      </trkpt>
      <trkpt lat="46.0872" lon="4.58189">
        <ele>738.340393066</ele>
        <time>2015-12-17T12:45:13.767Z</time>
      </trkpt>
      <trkpt lat="46.08714" lon="4.58197">
        <ele>738.475646973</ele>
        <time>2015-12-17T12:45:22.79Z</time>
      </trkpt>
      <trkpt lat="46.08713" lon="4.58198">
        <ele>738.506103516</ele>
        <time>2015-12-17T12:45:23.768Z</time>
      </trkpt>
      <trkpt lat="46.08708" lon="4.58208">
        <ele>738.711669922</ele>
        <time>2015-12-17T12:45:30.78Z</time>
      </trkpt>
      <trkpt lat="46.08707" lon="4.58209">
        <ele>738.819091797</ele>
        <time>2015-12-17T12:45:31.768Z</time>
      </trkpt>
      <trkpt lat="46.08703" lon="4.58221">
        <ele>740.010620117</ele>
        <time>2015-12-17T12:45:44.786Z</time>
      </trkpt>
      <trkpt lat="46.08703" lon="4.58223">
        <ele>740.13482666</ele>
        <time>2015-12-17T12:45:45.769Z</time>
      </trkpt>
      <trkpt lat="46.08706" lon="4.58234">
        <ele>740.753662109</ele>
        <time>2015-12-17T12:45:50.781Z</time>
      </trkpt>
      <trkpt lat="46.08706" lon="4.58235">
        <ele>740.836486816</ele>
        <time>2015-12-17T12:45:51.77Z</time>
      </trkpt>
      <trkpt lat="46.08708" lon="4.58247">
        <ele>741.696960449</ele>
        <time>2015-12-17T12:45:59.783Z</time>
      </trkpt>
      <trkpt lat="46.08709" lon="4.58249">
        <ele>741.820739746</ele>
        <time>2015-12-17T12:46:00.77Z</time>
      </trkpt>
      <trkpt lat="46.0871" lon="4.58261">
        <ele>742.350158691</ele>
        <time>2015-12-17T12:46:06.786Z</time>
      </trkpt>
      <trkpt lat="46.0871" lon="4.58262">
        <ele>742.475158691</ele>
        <time>2015-12-17T12:46:07.778Z</time>
      </trkpt>
      <trkpt lat="46.08712" lon="4.58274">
        <ele>743.647705078</ele>
        <time>2015-12-17T12:46:19.785Z</time>
      </trkpt>
      <trkpt lat="46.08712" lon="4.58275">
        <ele>743.760192871</ele>
        <time>2015-12-17T12:46:20.774Z</time>
      </trkpt>
      <trkpt lat="46.08715" lon="4.58286">
        <ele>744.036987305</ele>
        <time>2015-12-17T12:46:32.792Z</time>
      </trkpt>
      <trkpt lat="46.08715" lon="4.58288">
        <ele>744.086364746</ele>
        <time>2015-12-17T12:46:33.778Z</time>
      </trkpt>
      <trkpt lat="46.08719" lon="4.58299">
        <ele>744.595275879</ele>
        <time>2015-12-17T12:46:39.787Z</time>
      </trkpt>
      <trkpt lat="46.08719" lon="4.58301">
        <ele>744.69519043</ele>
        <time>2015-12-17T12:46:40.773Z</time>
      </trkpt>
      <trkpt lat="46.08722" lon="4.58312">
        <ele>745.333374023</ele>
        <time>2015-12-17T12:46:45.787Z</time>
      </trkpt>
      <trkpt lat="46.08722" lon="4.58313">
        <ele>745.452453613</ele>
        <time>2015-12-17T12:46:46.776Z</time>
      </trkpt>
      <trkpt lat="46.08725" lon="4.58325">
        <ele>745.932678223</ele>
        <time>2015-12-17T12:46:53.788Z</time>
      </trkpt>
      <trkpt lat="46.08725" lon="4.58327">
        <ele>745.998291016</ele>
        <time>2015-12-17T12:46:54.773Z</time>
      </trkpt>
      <trkpt lat="46.08726" lon="4.58338">
        <ele>746.946472168</ele>
        <time>2015-12-17T12:47:04.792Z</time>
      </trkpt>
      <trkpt lat="46.08725" lon="4.58341">
        <ele>747.022583008</ele>
        <time>2015-12-17T12:47:05.778Z</time>
      </trkpt>
      <trkpt lat="46.08726" lon="4.58351">
        <ele>747.404907227</ele>
        <time>2015-12-17T12:47:11.79Z</time>
      </trkpt>
      <trkpt lat="46.08726" lon="4.58354">
        <ele>747.491149902</ele>
        <time>2015-12-17T12:47:12.776Z</time>
      </trkpt>
      <trkpt lat="46.0873" lon="4.58365">
        <ele>749.156494141</ele>
        <time>2015-12-17T12:47:28.793Z</time>
      </trkpt>
      <trkpt lat="46.08731" lon="4.58368">
        <ele>749.269287109</ele>
        <time>2015-12-17T12:47:29.776Z</time>
      </trkpt>
      <trkpt lat="46.08734" lon="4.58377">
        <ele>750.663879395</ele>
        <time>2015-12-17T12:47:40.765Z</time>
      </trkpt>
      <trkpt lat="46.08734" lon="4.58381">
        <ele>750.771240234</ele>
        <time>2015-12-17T12:47:41.757Z</time>
      </trkpt>
      <trkpt lat="46.08737" lon="4.5839">
        <ele>750.868286133</ele>
        <time>2015-12-17T12:47:46.77Z</time>
      </trkpt>
      <trkpt lat="46.08738" lon="4.58393">
        <ele>750.889465332</ele>
        <time>2015-12-17T12:47:47.753Z</time>
      </trkpt>
      <trkpt lat="46.08738" lon="4.58405">
        <ele>750.981262207</ele>
        <time>2015-12-17T12:47:49.761Z</time>
      </trkpt>
      <trkpt lat="46.08739" lon="4.58411">
        <ele>751.016540527</ele>
        <time>2015-12-17T12:47:50.75Z</time>
      </trkpt>
      <trkpt lat="46.08742" lon="4.58423">
        <ele>750.973632812</ele>
        <time>2015-12-17T12:47:52.766Z</time>
      </trkpt>
      <trkpt lat="46.08743" lon="4.58427">
        <ele>750.958007812</ele>
        <time>2015-12-17T12:47:53.753Z</time>
      </trkpt>
      <trkpt lat="46.08744" lon="4.58439">
        <ele>750.882141113</ele>
        <time>2015-12-17T12:47:56.771Z</time>
      </trkpt>
      <trkpt lat="46.08744" lon="4.58442">
        <ele>750.738647461</ele>
        <time>2015-12-17T12:47:57.754Z</time>
      </trkpt>
      <trkpt lat="46.08744" lon="4.58454">
        <ele>749.686157227</ele>
        <time>2015-12-17T12:48:02.772Z</time>
      </trkpt>
      <trkpt lat="46.08744" lon="4.58455">
        <ele>749.475585938</ele>
        <time>2015-12-17T12:48:03.753Z</time>
      </trkpt>
      <trkpt lat="46.08747" lon="4.58468">
        <ele>748.598632812</ele>
        <time>2015-12-17T12:48:09.771Z</time>
      </trkpt>
      <trkpt lat="46.08747" lon="4.58469">
        <ele>748.525024414</ele>
        <time>2015-12-17T12:48:10.754Z</time>
      </trkpt>
      <trkpt lat="46.08751" lon="4.58481">
        <ele>747.970703125</ele>
        <time>2015-12-17T12:48:18.764Z</time>
      </trkpt>
      <trkpt lat="46.08751" lon="4.58482">
        <ele>747.921447754</ele>
        <time>2015-12-17T12:48:19.756Z</time>
      </trkpt>
      <trkpt lat="46.08755" lon="4.58493">
        <ele>747.776489258</ele>
        <time>2015-12-17T12:48:23.767Z</time>
      </trkpt>
      <trkpt lat="46.08755" lon="4.58495">
        <ele>747.760925293</ele>
        <time>2015-12-17T12:48:24.757Z</time>
      </trkpt>
      <trkpt lat="46.08759" lon="4.58505">
        <ele>747.913696289</ele>
        <time>2015-12-17T12:48:30.769Z</time>
      </trkpt>
      <trkpt lat="46.08759" lon="4.58506">
        <ele>747.893310547</ele>
        <time>2015-12-17T12:48:31.756Z</time>
      </trkpt>
      <trkpt lat="46.08764" lon="4.58516">
        <ele>747.652954102</ele>
        <time>2015-12-17T12:48:38.768Z</time>
      </trkpt>
      <trkpt lat="46.08765" lon="4.58518">
        <ele>747.58807373</ele>
        <time>2015-12-17T12:48:39.756Z</time>
      </trkpt>
      <trkpt lat="46.0877" lon="4.58525">
        <ele>747.260742188</ele>
        <time>2015-12-17T12:48:43.77Z</time>
      </trkpt>
      <trkpt lat="46.08772" lon="4.58527">
        <ele>747.198425293</ele>
        <time>2015-12-17T12:48:44.757Z</time>
      </trkpt>
      <trkpt lat="46.08778" lon="4.58534">
        <ele>746.50769043</ele>
        <time>2015-12-17T12:48:50.944Z</time>
      </trkpt>
      <trkpt lat="46.08779" lon="4.58535">
        <ele>746.459411621</ele>
        <time>2015-12-17T12:48:51.757Z</time>
      </trkpt>
      <trkpt lat="46.08785" lon="4.58542">
        <ele>746.00012207</ele>
        <time>2015-12-17T12:48:57.771Z</time>
      </trkpt>
      <trkpt lat="46.08786" lon="4.58543">
        <ele>745.948242188</ele>
        <time>2015-12-17T12:48:58.763Z</time>
      </trkpt>
      <trkpt lat="46.08792" lon="4.58552">
        <ele>745.414916992</ele>
        <time>2015-12-17T12:49:07.771Z</time>
      </trkpt>
      <trkpt lat="46.08792" lon="4.58553">
        <ele>745.326049805</ele>
        <time>2015-12-17T12:49:08.761Z</time>
      </trkpt>
      <trkpt lat="46.08798" lon="4.58562">
        <ele>744.73223877</ele>
        <time>2015-12-17T12:49:17.778Z</time>
      </trkpt>
      <trkpt lat="46.08799" lon="4.58563">
        <ele>744.63873291</ele>
        <time>2015-12-17T12:49:18.759Z</time>
      </trkpt>
      <trkpt lat="46.08802" lon="4.58574">
        <ele>743.397399902</ele>
        <time>2015-12-17T12:49:44.773Z</time>
      </trkpt>
      <trkpt lat="46.08802" lon="4.58574">
        <ele>743.38269043</ele>
        <time>2015-12-17T12:49:45.762Z</time>
      </trkpt>
      <trkpt lat="46.08808" lon="4.58584">
        <ele>741.666809082</ele>
        <time>2015-12-17T12:50:38.799Z</time>
      </trkpt>
      <trkpt lat="46.08809" lon="4.58585">
        <ele>741.648254395</ele>
        <time>2015-12-17T12:50:39.766Z</time>
      </trkpt>
      <trkpt lat="46.08817" lon="4.58588">
        <ele>741.654968262</ele>
        <time>2015-12-17T12:51:25.786Z</time>
      </trkpt>
      <trkpt lat="46.08818" lon="4.58588">
        <ele>741.585876465</ele>
        <time>2015-12-17T12:51:26.769Z</time>
      </trkpt>
      <trkpt lat="46.08826" lon="4.58589">
        <ele>740.718139648</ele>
        <time>2015-12-17T12:51:36.781Z</time>
      </trkpt>
      <trkpt lat="46.08827" lon="4.58589">
        <ele>740.592773438</ele>
        <time>2015-12-17T12:51:37.77Z</time>
      </trkpt>
      <trkpt lat="46.08835" lon="4.58591">
        <ele>739.52154541</ele>
        <time>2015-12-17T12:51:46.786Z</time>
      </trkpt>
      <trkpt lat="46.08836" lon="4.58592">
        <ele>739.360534668</ele>
        <time>2015-12-17T12:51:47.77Z</time>
      </trkpt>
      <trkpt lat="46.08844" lon="4.58598">
        <ele>738.155700684</ele>
        <time>2015-12-17T12:51:55.788Z</time>
      </trkpt>
      <trkpt lat="46.08845" lon="4.58598">
        <ele>738.010131836</ele>
        <time>2015-12-17T12:51:56.77Z</time>
      </trkpt>
      <trkpt lat="46.08853" lon="4.58604">
        <ele>737.181152344</ele>
        <time>2015-12-17T12:52:05.787Z</time>
      </trkpt>
      <trkpt lat="46.08853" lon="4.58604">
        <ele>737.146911621</ele>
        <time>2015-12-17T12:52:06.772Z</time>
      </trkpt>
      <trkpt lat="46.08861" lon="4.5861">
        <ele>736.723205566</ele>
        <time>2015-12-17T12:52:13.836Z</time>
      </trkpt>
      <trkpt lat="46.08862" lon="4.58611">
        <ele>736.62701416</ele>
        <time>2015-12-17T12:52:14.772Z</time>
      </trkpt>
      <trkpt lat="46.08869" lon="4.58618">
        <ele>735.957336426</ele>
        <time>2015-12-17T12:52:22.787Z</time>
      </trkpt>
      <trkpt lat="46.0887" lon="4.58619">
        <ele>735.887817383</ele>
        <time>2015-12-17T12:52:23.774Z</time>
      </trkpt>
      <trkpt lat="46.08877" lon="4.58623">
        <ele>735.715332031</ele>
        <time>2015-12-17T12:52:31.785Z</time>
      </trkpt>
      <trkpt lat="46.08879" lon="4.58625">
        <ele>735.749816895</ele>
        <time>2015-12-17T12:52:32.774Z</time>
      </trkpt>
      <trkpt lat="46.08887" lon="4.58632">
        <ele>735.720458984</ele>
        <time>2015-12-17T12:52:37.786Z</time>
      </trkpt>
      <trkpt lat="46.08888" lon="4.58634">
        <ele>735.635681152</ele>
        <time>2015-12-17T12:52:38.774Z</time>
      </trkpt>
      <trkpt lat="46.08896" lon="4.58636">
        <ele>734.37310791</ele>
        <time>2015-12-17T12:52:46.785Z</time>
      </trkpt>
      <trkpt lat="46.08898" lon="4.58636">
        <ele>734.270324707</ele>
        <time>2015-12-17T12:52:47.776Z</time>
      </trkpt>
      <trkpt lat="46.08906" lon="4.58638">
        <ele>733.447814941</ele>
        <time>2015-12-17T12:52:55.763Z</time>
      </trkpt>
      <trkpt lat="46.08908" lon="4.58638">
        <ele>733.467651367</ele>
        <time>2015-12-17T12:52:56.786Z</time>
      </trkpt>
      <trkpt lat="46.08917" lon="4.58638">
        <ele>733.428527832</ele>
        <time>2015-12-17T12:53:05.764Z</time>
      </trkpt>
      <trkpt lat="46.08918" lon="4.58638">
        <ele>733.492248535</ele>
        <time>2015-12-17T12:53:06.755Z</time>
      </trkpt>
      <trkpt lat="46.08926" lon="4.58642">
        <ele>733.392578125</ele>
        <time>2015-12-17T12:53:16.763Z</time>
      </trkpt>
      <trkpt lat="46.08928" lon="4.58644">
        <ele>733.296569824</ele>
        <time>2015-12-17T12:53:17.753Z</time>
      </trkpt>
      <trkpt lat="46.08935" lon="4.58651">
        <ele>732.980651855</ele>
        <time>2015-12-17T12:53:23.773Z</time>
      </trkpt>
      <trkpt lat="46.08936" lon="4.58652">
        <ele>732.898864746</ele>
        <time>2015-12-17T12:53:24.752Z</time>
      </trkpt>
      <trkpt lat="46.08943" lon="4.58657">
        <ele>732.76550293</ele>
        <time>2015-12-17T12:53:28.762Z</time>
      </trkpt>
      <trkpt lat="46.08944" lon="4.58658">
        <ele>732.731933594</ele>
        <time>2015-12-17T12:53:29.753Z</time>
      </trkpt>
      <trkpt lat="46.08951" lon="4.58665">
        <ele>732.773742676</ele>
        <time>2015-12-17T12:53:39.766Z</time>
      </trkpt>
      <trkpt lat="46.08952" lon="4.58666">
        <ele>732.862854004</ele>
        <time>2015-12-17T12:53:40.755Z</time>
      </trkpt>
      <trkpt lat="46.08957" lon="4.58675">
        <ele>732.419128418</ele>
        <time>2015-12-17T12:53:47.771Z</time>
      </trkpt>
      <trkpt lat="46.0896" lon="4.58679">
        <ele>732.314331055</ele>
        <time>2015-12-17T12:53:48.755Z</time>
      </trkpt>
      <trkpt lat="46.08964" lon="4.58689">
        <ele>731.757202148</ele>
        <time>2015-12-17T12:53:53.778Z</time>
      </trkpt>
      <trkpt lat="46.08965" lon="4.58691">
        <ele>731.6640625</ele>
        <time>2015-12-17T12:53:54.755Z</time>
      </trkpt>
      <trkpt lat="46.08972" lon="4.58699">
        <ele>730.905883789</ele>
        <time>2015-12-17T12:53:59.775Z</time>
      </trkpt>
      <trkpt lat="46.08973" lon="4.58701">
        <ele>730.718200684</ele>
        <time>2015-12-17T12:54:00.757Z</time>
      </trkpt>
      <trkpt lat="46.08981" lon="4.58708">
        <ele>729.566101074</ele>
        <time>2015-12-17T12:54:06.767Z</time>
      </trkpt>
      <trkpt lat="46.08981" lon="4.58709">
        <ele>729.426879883</ele>
        <time>2015-12-17T12:54:07.757Z</time>
      </trkpt>
      <trkpt lat="46.08988" lon="4.58716">
        <ele>728.896057129</ele>
        <time>2015-12-17T12:54:15.767Z</time>
      </trkpt>
      <trkpt lat="46.08989" lon="4.58717">
        <ele>728.811950684</ele>
        <time>2015-12-17T12:54:16.756Z</time>
      </trkpt>
      <trkpt lat="46.08995" lon="4.58721">
        <ele>728.005371094</ele>
        <time>2015-12-17T12:54:23.974Z</time>
      </trkpt>
      <trkpt lat="46.08997" lon="4.58722">
        <ele>727.883666992</ele>
        <time>2015-12-17T12:54:24.758Z</time>
      </trkpt>
      <trkpt lat="46.09004" lon="4.5873">
        <ele>727.459838867</ele>
        <time>2015-12-17T12:54:29.779Z</time>
      </trkpt>
      <trkpt lat="46.09005" lon="4.58732">
        <ele>727.374023438</ele>
        <time>2015-12-17T12:54:30.76Z</time>
      </trkpt>
      <trkpt lat="46.09012" lon="4.58739">
        <ele>726.060546875</ele>
        <time>2015-12-17T12:54:37.774Z</time>
      </trkpt>
      <trkpt lat="46.09012" lon="4.58739">
        <ele>725.907470703</ele>
        <time>2015-12-17T12:54:38.759Z</time>
      </trkpt>
      <trkpt lat="46.0902" lon="4.58744">
        <ele>724.661376953</ele>
        <time>2015-12-17T12:54:46.769Z</time>
      </trkpt>
      <trkpt lat="46.09022" lon="4.58745">
        <ele>724.534790039</ele>
        <time>2015-12-17T12:54:47.761Z</time>
      </trkpt>
      <trkpt lat="46.0903" lon="4.58745">
        <ele>723.401611328</ele>
        <time>2015-12-17T12:54:57.771Z</time>
      </trkpt>
      <trkpt lat="46.09031" lon="4.58745">
        <ele>723.284606934</ele>
        <time>2015-12-17T12:54:58.761Z</time>
      </trkpt>
      <trkpt lat="46.09039" lon="4.58744">
        <ele>722.80657959</ele>
        <time>2015-12-17T12:55:05.771Z</time>
      </trkpt>
      <trkpt lat="46.0904" lon="4.58743">
        <ele>722.65625</ele>
        <time>2015-12-17T12:55:06.762Z</time>
      </trkpt>
      <trkpt lat="46.09048" lon="4.58743">
        <ele>722.219238281</ele>
        <time>2015-12-17T12:55:10.776Z</time>
      </trkpt>
      <trkpt lat="46.0905" lon="4.58743">
        <ele>722.057556152</ele>
        <time>2015-12-17T12:55:11.761Z</time>
      </trkpt>
      <trkpt lat="46.09058" lon="4.58747">
        <ele>721.13684082</ele>
        <time>2015-12-17T12:55:17.774Z</time>
      </trkpt>
      <trkpt lat="46.09059" lon="4.58747">
        <ele>720.994567871</ele>
        <time>2015-12-17T12:55:18.797Z</time>
      </trkpt>
      <trkpt lat="46.09067" lon="4.58751">
        <ele>719.564819336</ele>
        <time>2015-12-17T12:55:25.774Z</time>
      </trkpt>
      <trkpt lat="46.09068" lon="4.58752">
        <ele>719.362915039</ele>
        <time>2015-12-17T12:55:26.764Z</time>
      </trkpt>
      <trkpt lat="46.09076" lon="4.5875">
        <ele>718.162597656</ele>
        <time>2015-12-17T12:55:32.782Z</time>
      </trkpt>
      <trkpt lat="46.09077" lon="4.5875">
        <ele>718.009338379</ele>
        <time>2015-12-17T12:55:33.763Z</time>
      </trkpt>
      <trkpt lat="46.09085" lon="4.58748">
        <ele>716.962646484</ele>
        <time>2015-12-17T12:55:41.775Z</time>
      </trkpt>
      <trkpt lat="46.09086" lon="4.58748">
        <ele>716.827392578</ele>
        <time>2015-12-17T12:55:42.763Z</time>
      </trkpt>
      <trkpt lat="46.09094" lon="4.58748">
        <ele>715.959960938</ele>
        <time>2015-12-17T12:55:49.776Z</time>
      </trkpt>
      <trkpt lat="46.09096" lon="4.58748">
        <ele>715.840393066</ele>
        <time>2015-12-17T12:55:50.764Z</time>
      </trkpt>
      <trkpt lat="46.09104" lon="4.58748">
        <ele>714.251708984</ele>
        <time>2015-12-17T12:55:58.773Z</time>
      </trkpt>
      <trkpt lat="46.09106" lon="4.58747">
        <ele>714.013366699</ele>
        <time>2015-12-17T12:55:59.765Z</time>
      </trkpt>
      <trkpt lat="46.09114" lon="4.58748">
        <ele>712.690002441</ele>
        <time>2015-12-17T12:56:04.791Z</time>
      </trkpt>
      <trkpt lat="46.09115" lon="4.58748">
        <ele>712.516845703</ele>
        <time>2015-12-17T12:56:05.764Z</time>
      </trkpt>
      <trkpt lat="46.09123" lon="4.5875">
        <ele>711.363342285</ele>
        <time>2015-12-17T12:56:11.779Z</time>
      </trkpt>
      <trkpt lat="46.09124" lon="4.58751">
        <ele>711.147460938</ele>
        <time>2015-12-17T12:56:12.765Z</time>
      </trkpt>
      <trkpt lat="46.09132" lon="4.58755">
        <ele>709.417724609</ele>
        <time>2015-12-17T12:56:22.784Z</time>
      </trkpt>
      <trkpt lat="46.09133" lon="4.58756">
        <ele>709.288208008</ele>
        <time>2015-12-17T12:56:23.766Z</time>
      </trkpt>
      <trkpt lat="46.09141" lon="4.58759">
        <ele>707.883483887</ele>
        <time>2015-12-17T12:56:30.777Z</time>
      </trkpt>
      <trkpt lat="46.09141" lon="4.5876">
        <ele>707.656555176</ele>
        <time>2015-12-17T12:56:31.767Z</time>
      </trkpt>
      <trkpt lat="46.09149" lon="4.58761">
        <ele>706.150390625</ele>
        <time>2015-12-17T12:56:39.78Z</time>
      </trkpt>
      <trkpt lat="46.09151" lon="4.5876">
        <ele>705.986328125</ele>
        <time>2015-12-17T12:56:40.769Z</time>
      </trkpt>
      <trkpt lat="46.0916" lon="4.58761">
        <ele>704.66394043</ele>
        <time>2015-12-17T12:56:48.779Z</time>
      </trkpt>
      <trkpt lat="46.09161" lon="4.58761">
        <ele>704.432006836</ele>
        <time>2015-12-17T12:56:49.767Z</time>
      </trkpt>
      <trkpt lat="46.09168" lon="4.58761">
        <ele>703.135986328</ele>
        <time>2015-12-17T12:56:55.797Z</time>
      </trkpt>
      <trkpt lat="46.0917" lon="4.58761">
        <ele>702.945861816</ele>
        <time>2015-12-17T12:56:56.769Z</time>
      </trkpt>
      <trkpt lat="46.09178" lon="4.58763">
        <ele>701.579956055</ele>
        <time>2015-12-17T12:57:05.783Z</time>
      </trkpt>
      <trkpt lat="46.09179" lon="4.58764">
        <ele>701.485290527</ele>
        <time>2015-12-17T12:57:06.769Z</time>
      </trkpt>
      <trkpt lat="46.09187" lon="4.58767">
        <ele>700.161071777</ele>
        <time>2015-12-17T12:57:14.788Z</time>
      </trkpt>
      <trkpt lat="46.09188" lon="4.58767">
        <ele>700.036071777</ele>
        <time>2015-12-17T12:57:15.771Z</time>
      </trkpt>
      <trkpt lat="46.09195" lon="4.58768">
        <ele>699.023620605</ele>
        <time>2015-12-17T12:57:23.782Z</time>
      </trkpt>
      <trkpt lat="46.09197" lon="4.58768">
        <ele>698.904602051</ele>
        <time>2015-12-17T12:57:24.77Z</time>
      </trkpt>
      <trkpt lat="46.09206" lon="4.58769">
        <ele>697.886230469</ele>
        <time>2015-12-17T12:57:31.786Z</time>
      </trkpt>
      <trkpt lat="46.09208" lon="4.5877">
        <ele>697.60760498</ele>
        <time>2015-12-17T12:57:32.771Z</time>
      </trkpt>
      <trkpt lat="46.09215" lon="4.58772">
        <ele>694.841796875</ele>
        <time>2015-12-17T12:57:41.786Z</time>
      </trkpt>
      <trkpt lat="46.09217" lon="4.58772">
        <ele>694.528686523</ele>
        <time>2015-12-17T12:57:42.772Z</time>
      </trkpt>
      <trkpt lat="46.09226" lon="4.58775">
        <ele>692.029907227</ele>
        <time>2015-12-17T12:57:50.786Z</time>
      </trkpt>
      <trkpt lat="46.09227" lon="4.58775">
        <ele>691.732177734</ele>
        <time>2015-12-17T12:57:51.772Z</time>
      </trkpt>
      <trkpt lat="46.09235" lon="4.58777">
        <ele>690.314208984</ele>
        <time>2015-12-17T12:57:57.784Z</time>
      </trkpt>
      <trkpt lat="46.09236" lon="4.58778">
        <ele>690.100402832</ele>
        <time>2015-12-17T12:57:58.776Z</time>
      </trkpt>
      <trkpt lat="46.09245" lon="4.58782">
        <ele>687.652282715</ele>
        <time>2015-12-17T12:58:06.799Z</time>
      </trkpt>
      <trkpt lat="46.09246" lon="4.58782">
        <ele>687.324401855</ele>
        <time>2015-12-17T12:58:07.774Z</time>
      </trkpt>
      <trkpt lat="46.09255" lon="4.58783">
        <ele>684.706665039</ele>
        <time>2015-12-17T12:58:15.76Z</time>
      </trkpt>
      <trkpt lat="46.09255" lon="4.58783">
        <ele>684.398803711</ele>
        <time>2015-12-17T12:58:16.749Z</time>
      </trkpt>
      <trkpt lat="46.09263" lon="4.58783">
        <ele>682.130615234</ele>
        <time>2015-12-17T12:58:24.763Z</time>
      </trkpt>
      <trkpt lat="46.09265" lon="4.58783">
        <ele>681.862365723</ele>
        <time>2015-12-17T12:58:25.749Z</time>
      </trkpt>
      <trkpt lat="46.09272" lon="4.58787">
        <ele>680.306274414</ele>
        <time>2015-12-17T12:58:31.764Z</time>
      </trkpt>
      <trkpt lat="46.09273" lon="4.58787">
        <ele>680.031616211</ele>
        <time>2015-12-17T12:58:32.757Z</time>
      </trkpt>
      <trkpt lat="46.09282" lon="4.58788">
        <ele>678.28125</ele>
        <time>2015-12-17T12:58:39.765Z</time>
      </trkpt>
      <trkpt lat="46.09283" lon="4.58788">
        <ele>678.012573242</ele>
        <time>2015-12-17T12:58:40.751Z</time>
      </trkpt>
      <trkpt lat="46.09291" lon="4.58789">
        <ele>676.244873047</ele>
        <time>2015-12-17T12:58:48.762Z</time>
      </trkpt>
      <trkpt lat="46.09292" lon="4.58789">
        <ele>676.043762207</ele>
        <time>2015-12-17T12:58:49.751Z</time>
      </trkpt>
      <trkpt lat="46.093" lon="4.58789">
        <ele>674.958190918</ele>
        <time>2015-12-17T12:58:55.764Z</time>
      </trkpt>
      <trkpt lat="46.09301" lon="4.58789">
        <ele>674.75201416</ele>
        <time>2015-12-17T12:58:56.752Z</time>
      </trkpt>
      <trkpt lat="46.0931" lon="4.58791">
        <ele>673.410461426</ele>
        <time>2015-12-17T12:59:03.764Z</time>
      </trkpt>
      <trkpt lat="46.09311" lon="4.58791">
        <ele>673.27947998</ele>
        <time>2015-12-17T12:59:04.753Z</time>
      </trkpt>
      <trkpt lat="46.0932" lon="4.58792">
        <ele>672.358520508</ele>
        <time>2015-12-17T12:59:09.766Z</time>
      </trkpt>
      <trkpt lat="46.09321" lon="4.58792">
        <ele>672.18939209</ele>
        <time>2015-12-17T12:59:10.756Z</time>
      </trkpt>
      <trkpt lat="46.09329" lon="4.58794">
        <ele>670.960876465</ele>
        <time>2015-12-17T12:59:16.769Z</time>
      </trkpt>
      <trkpt lat="46.09331" lon="4.58794">
        <ele>670.737243652</ele>
        <time>2015-12-17T12:59:17.752Z</time>
      </trkpt>
      <trkpt lat="46.0934" lon="4.58796">
        <ele>669.520385742</ele>
        <time>2015-12-17T12:59:23.769Z</time>
      </trkpt>
      <trkpt lat="46.09341" lon="4.58796">
        <ele>669.32421875</ele>
        <time>2015-12-17T12:59:24.754Z</time>
      </trkpt>
      <trkpt lat="46.09349" lon="4.58799">
        <ele>668.266906738</ele>
        <time>2015-12-17T12:59:30.772Z</time>
      </trkpt>
      <trkpt lat="46.0935" lon="4.58799">
        <ele>668.09552002</ele>
        <time>2015-12-17T12:59:31.755Z</time>
      </trkpt>
      <trkpt lat="46.09358" lon="4.58801">
        <ele>667.365234375</ele>
        <time>2015-12-17T12:59:37.775Z</time>
      </trkpt>
      <trkpt lat="46.0936" lon="4.58801">
        <ele>667.253723145</ele>
        <time>2015-12-17T12:59:38.755Z</time>
      </trkpt>
      <trkpt lat="46.09368" lon="4.58802">
        <ele>666.581298828</ele>
        <time>2015-12-17T12:59:44.77Z</time>
      </trkpt>
      <trkpt lat="46.09369" lon="4.58802">
        <ele>666.439147949</ele>
        <time>2015-12-17T12:59:45.756Z</time>
      </trkpt>
      <trkpt lat="46.09376" lon="4.58809">
        <ele>665.510070801</ele>
        <time>2015-12-17T12:59:52.776Z</time>
      </trkpt>
      <trkpt lat="46.09377" lon="4.5881">
        <ele>665.370361328</ele>
        <time>2015-12-17T12:59:53.756Z</time>
      </trkpt>
      <trkpt lat="46.09381" lon="4.58821">
        <ele>663.186767578</ele>
        <time>2015-12-17T13:02:32.755Z</time>
      </trkpt>
      <trkpt lat="46.0938" lon="4.58822">
        <ele>663.178588867</ele>
        <time>2015-12-17T13:02:33.742Z</time>
      </trkpt>
      <trkpt lat="46.09388" lon="4.58828">
        <ele>662.439147949</ele>
        <time>2015-12-17T13:04:12.763Z</time>
      </trkpt>
      <trkpt lat="46.09388" lon="4.58829">
        <ele>662.411315918</ele>
        <time>2015-12-17T13:04:13.751Z</time>
      </trkpt>
      <trkpt lat="46.09395" lon="4.58835">
        <ele>662.555786133</ele>
        <time>2015-12-17T13:04:20.764Z</time>
      </trkpt>
      <trkpt lat="46.09396" lon="4.58836">
        <ele>662.563964844</ele>
        <time>2015-12-17T13:04:21.754Z</time>
      </trkpt>
      <trkpt lat="46.09404" lon="4.58841">
        <ele>662.628295898</ele>
        <time>2015-12-17T13:04:28.766Z</time>
      </trkpt>
      <trkpt lat="46.09405" lon="4.58841">
        <ele>662.63671875</ele>
        <time>2015-12-17T13:04:29.753Z</time>
      </trkpt>
      <trkpt lat="46.09413" lon="4.58847">
        <ele>662.664001465</ele>
        <time>2015-12-17T13:04:35.764Z</time>
      </trkpt>
      <trkpt lat="46.09414" lon="4.58848">
        <ele>662.650146484</ele>
        <time>2015-12-17T13:04:36.752Z</time>
      </trkpt>
      <trkpt lat="46.09421" lon="4.58855">
        <ele>662.416137695</ele>
        <time>2015-12-17T13:04:43.763Z</time>
      </trkpt>
      <trkpt lat="46.09422" lon="4.58857">
        <ele>662.38659668</ele>
        <time>2015-12-17T13:04:44.752Z</time>
      </trkpt>
      <trkpt lat="46.09429" lon="4.58865">
        <ele>662.104370117</ele>
        <time>2015-12-17T13:04:51.766Z</time>
      </trkpt>
      <trkpt lat="46.0943" lon="4.58866">
        <ele>662.017211914</ele>
        <time>2015-12-17T13:04:52.76Z</time>
      </trkpt>
      <trkpt lat="46.09435" lon="4.58874">
        <ele>661.463745117</ele>
        <time>2015-12-17T13:04:58.765Z</time>
      </trkpt>
      <trkpt lat="46.09437" lon="4.58875">
        <ele>661.367248535</ele>
        <time>2015-12-17T13:04:59.754Z</time>
      </trkpt>
      <trkpt lat="46.09443" lon="4.58882">
        <ele>660.778381348</ele>
        <time>2015-12-17T13:05:05.767Z</time>
      </trkpt>
      <trkpt lat="46.09444" lon="4.58883">
        <ele>660.680603027</ele>
        <time>2015-12-17T13:05:06.758Z</time>
      </trkpt>
      <trkpt lat="46.0945" lon="4.5889">
        <ele>659.988586426</ele>
        <time>2015-12-17T13:05:13.768Z</time>
      </trkpt>
      <trkpt lat="46.09451" lon="4.58892">
        <ele>659.902160645</ele>
        <time>2015-12-17T13:05:14.755Z</time>
      </trkpt>
      <trkpt lat="46.09457" lon="4.58898">
        <ele>659.329833984</ele>
        <time>2015-12-17T13:05:21.767Z</time>
      </trkpt>
      <trkpt lat="46.09459" lon="4.58899">
        <ele>659.27911377</ele>
        <time>2015-12-17T13:05:22.758Z</time>
      </trkpt>
      <trkpt lat="46.09466" lon="4.58903">
        <ele>658.737854004</ele>
        <time>2015-12-17T13:05:28.771Z</time>
      </trkpt>
      <trkpt lat="46.09468" lon="4.58904">
        <ele>658.635192871</ele>
        <time>2015-12-17T13:05:29.756Z</time>
      </trkpt>
      <trkpt lat="46.09475" lon="4.58911">
        <ele>657.879333496</ele>
        <time>2015-12-17T13:05:35.77Z</time>
      </trkpt>
      <trkpt lat="46.09476" lon="4.58912">
        <ele>657.745666504</ele>
        <time>2015-12-17T13:05:36.759Z</time>
      </trkpt>
      <trkpt lat="46.09483" lon="4.58917">
        <ele>656.915771484</ele>
        <time>2015-12-17T13:05:42.772Z</time>
      </trkpt>
      <trkpt lat="46.09484" lon="4.58918">
        <ele>656.752319336</ele>
        <time>2015-12-17T13:05:43.757Z</time>
      </trkpt>
      <trkpt lat="46.09492" lon="4.58921">
        <ele>656.136047363</ele>
        <time>2015-12-17T13:05:49.787Z</time>
      </trkpt>
      <trkpt lat="46.09493" lon="4.58921">
        <ele>655.976501465</ele>
        <time>2015-12-17T13:05:50.757Z</time>
      </trkpt>
      <trkpt lat="46.09502" lon="4.58923">
        <ele>655.008300781</ele>
        <time>2015-12-17T13:05:56.769Z</time>
      </trkpt>
      <trkpt lat="46.09503" lon="4.58923">
        <ele>654.811035156</ele>
        <time>2015-12-17T13:05:57.757Z</time>
      </trkpt>
      <trkpt lat="46.09512" lon="4.58926">
        <ele>653.645812988</ele>
        <time>2015-12-17T13:06:03.772Z</time>
      </trkpt>
      <trkpt lat="46.09513" lon="4.58926">
        <ele>653.449829102</ele>
        <time>2015-12-17T13:06:04.759Z</time>
      </trkpt>
      <trkpt lat="46.09521" lon="4.58929">
        <ele>652.234680176</ele>
        <time>2015-12-17T13:06:10.773Z</time>
      </trkpt>
      <trkpt lat="46.09522" lon="4.5893">
        <ele>652.01940918</ele>
        <time>2015-12-17T13:06:11.76Z</time>
      </trkpt>
      <trkpt lat="46.0953" lon="4.58932">
        <ele>650.979492188</ele>
        <time>2015-12-17T13:06:17.773Z</time>
      </trkpt>
      <trkpt lat="46.09532" lon="4.58933">
        <ele>650.817321777</ele>
        <time>2015-12-17T13:06:18.76Z</time>
      </trkpt>
      <trkpt lat="46.09539" lon="4.58937">
        <ele>649.947570801</ele>
        <time>2015-12-17T13:06:24.765Z</time>
      </trkpt>
      <trkpt lat="46.0954" lon="4.58937">
        <ele>649.764404297</ele>
        <time>2015-12-17T13:06:25.738Z</time>
      </trkpt>
      <trkpt lat="46.09548" lon="4.58942">
        <ele>648.54095459</ele>
        <time>2015-12-17T13:06:32.748Z</time>
      </trkpt>
      <trkpt lat="46.0955" lon="4.58942">
        <ele>648.3359375</ele>
        <time>2015-12-17T13:06:33.739Z</time>
      </trkpt>
      <trkpt lat="46.09558" lon="4.58941">
        <ele>647.269287109</ele>
        <time>2015-12-17T13:06:39.767Z</time>
      </trkpt>
      <trkpt lat="46.09559" lon="4.5894">
        <ele>647.086791992</ele>
        <time>2015-12-17T13:06:40.739Z</time>
      </trkpt>
      <trkpt lat="46.09567" lon="4.58943">
        <ele>646.371643066</ele>
        <time>2015-12-17T13:06:46.908Z</time>
      </trkpt>
      <trkpt lat="46.09569" lon="4.58943">
        <ele>646.276794434</ele>
        <time>2015-12-17T13:06:47.737Z</time>
      </trkpt>
      <trkpt lat="46.09576" lon="4.58947">
        <ele>645.793151855</ele>
        <time>2015-12-17T13:06:52.749Z</time>
      </trkpt>
      <trkpt lat="46.09578" lon="4.58947">
        <ele>645.666687012</ele>
        <time>2015-12-17T13:06:53.737Z</time>
      </trkpt>
      <trkpt lat="46.09586" lon="4.58949">
        <ele>644.770507812</ele>
        <time>2015-12-17T13:07:01.749Z</time>
      </trkpt>
      <trkpt lat="46.09587" lon="4.5895">
        <ele>644.630187988</ele>
        <time>2015-12-17T13:07:02.738Z</time>
      </trkpt>
      <trkpt lat="46.09596" lon="4.58952">
        <ele>643.791931152</ele>
        <time>2015-12-17T13:07:09.752Z</time>
      </trkpt>
      <trkpt lat="46.09597" lon="4.58952">
        <ele>643.688842773</ele>
        <time>2015-12-17T13:07:10.744Z</time>
      </trkpt>
      <trkpt lat="46.09606" lon="4.58952">
        <ele>642.954467773</ele>
        <time>2015-12-17T13:07:17.752Z</time>
      </trkpt>
      <trkpt lat="46.09607" lon="4.58953">
        <ele>642.88079834</ele>
        <time>2015-12-17T13:07:18.739Z</time>
      </trkpt>
      <trkpt lat="46.09615" lon="4.58955">
        <ele>642.267272949</ele>
        <time>2015-12-17T13:07:25.75Z</time>
      </trkpt>
      <trkpt lat="46.09617" lon="4.58955">
        <ele>642.238037109</ele>
        <time>2015-12-17T13:07:26.741Z</time>
      </trkpt>
      <trkpt lat="46.09624" lon="4.58956">
        <ele>642.014587402</ele>
        <time>2015-12-17T13:07:29.755Z</time>
      </trkpt>
      <trkpt lat="46.09626" lon="4.58956">
        <ele>641.828857422</ele>
        <time>2015-12-17T13:07:30.74Z</time>
      </trkpt>
      <trkpt lat="46.09635" lon="4.58959">
        <ele>640.514404297</ele>
        <time>2015-12-17T13:07:37.754Z</time>
      </trkpt>
      <trkpt lat="46.09636" lon="4.58959">
        <ele>640.36328125</ele>
        <time>2015-12-17T13:07:38.741Z</time>
      </trkpt>
      <trkpt lat="46.09644" lon="4.58961">
        <ele>639.387145996</ele>
        <time>2015-12-17T13:07:45.757Z</time>
      </trkpt>
      <trkpt lat="46.09646" lon="4.58961">
        <ele>639.304260254</ele>
        <time>2015-12-17T13:07:46.744Z</time>
      </trkpt>
      <trkpt lat="46.09654" lon="4.58965">
        <ele>639.027954102</ele>
        <time>2015-12-17T13:07:52.754Z</time>
      </trkpt>
      <trkpt lat="46.09656" lon="4.58966">
        <ele>638.963500977</ele>
        <time>2015-12-17T13:07:53.741Z</time>
      </trkpt>
      <trkpt lat="46.09663" lon="4.58971">
        <ele>638.354064941</ele>
        <time>2015-12-17T13:07:59.755Z</time>
      </trkpt>
      <trkpt lat="46.09665" lon="4.58972">
        <ele>638.240844727</ele>
        <time>2015-12-17T13:08:00.745Z</time>
      </trkpt>
      <trkpt lat="46.09672" lon="4.58976">
        <ele>637.467041016</ele>
        <time>2015-12-17T13:08:06.763Z</time>
      </trkpt>
      <trkpt lat="46.09674" lon="4.58977">
        <ele>637.362792969</ele>
        <time>2015-12-17T13:08:07.743Z</time>
      </trkpt>
      <trkpt lat="46.0968" lon="4.58982">
        <ele>636.866760254</ele>
        <time>2015-12-17T13:08:12.971Z</time>
      </trkpt>
      <trkpt lat="46.09681" lon="4.58983">
        <ele>636.744567871</ele>
        <time>2015-12-17T13:08:13.743Z</time>
      </trkpt>
      <trkpt lat="46.09689" lon="4.5899">
        <ele>635.933288574</ele>
        <time>2015-12-17T13:08:20.757Z</time>
      </trkpt>
      <trkpt lat="46.0969" lon="4.5899">
        <ele>635.868103027</ele>
        <time>2015-12-17T13:08:21.743Z</time>
      </trkpt>
      <trkpt lat="46.09696" lon="4.58998">
        <ele>635.358093262</ele>
        <time>2015-12-17T13:08:27.756Z</time>
      </trkpt>
      <trkpt lat="46.09697" lon="4.58999">
        <ele>635.286804199</ele>
        <time>2015-12-17T13:08:28.745Z</time>
      </trkpt>
      <trkpt lat="46.09704" lon="4.59006">
        <ele>634.777099609</ele>
        <time>2015-12-17T13:08:35.766Z</time>
      </trkpt>
      <trkpt lat="46.09705" lon="4.59007">
        <ele>634.715515137</ele>
        <time>2015-12-17T13:08:36.755Z</time>
      </trkpt>
      <trkpt lat="46.09712" lon="4.59013">
        <ele>634.379089355</ele>
        <time>2015-12-17T13:08:43.767Z</time>
      </trkpt>
      <trkpt lat="46.09713" lon="4.59014">
        <ele>634.346130371</ele>
        <time>2015-12-17T13:08:44.756Z</time>
      </trkpt>
      <trkpt lat="46.09719" lon="4.59024">
        <ele>633.638244629</ele>
        <time>2015-12-17T13:08:54.76Z</time>
      </trkpt>
      <trkpt lat="46.0972" lon="4.59026">
        <ele>633.575866699</ele>
        <time>2015-12-17T13:08:55.747Z</time>
      </trkpt>
      <trkpt lat="46.09726" lon="4.59034">
        <ele>632.928710938</ele>
        <time>2015-12-17T13:09:03.759Z</time>
      </trkpt>
      <trkpt lat="46.09727" lon="4.59035">
        <ele>632.88092041</ele>
        <time>2015-12-17T13:09:04.747Z</time>
      </trkpt>
      <trkpt lat="46.09733" lon="4.59043">
        <ele>632.498840332</ele>
        <time>2015-12-17T13:09:11.756Z</time>
      </trkpt>
      <trkpt lat="46.09734" lon="4.59045">
        <ele>632.456176758</ele>
        <time>2015-12-17T13:09:12.753Z</time>
      </trkpt>
      <trkpt lat="46.0974" lon="4.59051">
        <ele>632.258850098</ele>
        <time>2015-12-17T13:09:20.76Z</time>
      </trkpt>
      <trkpt lat="46.09741" lon="4.59052">
        <ele>632.214904785</ele>
        <time>2015-12-17T13:09:21.749Z</time>
      </trkpt>
      <trkpt lat="46.09748" lon="4.5906">
        <ele>631.597351074</ele>
        <time>2015-12-17T13:09:28.762Z</time>
      </trkpt>
      <trkpt lat="46.0975" lon="4.59061">
        <ele>631.523681641</ele>
        <time>2015-12-17T13:09:29.748Z</time>
      </trkpt>
      <trkpt lat="46.09756" lon="4.59069">
        <ele>630.991577148</ele>
        <time>2015-12-17T13:09:34.765Z</time>
      </trkpt>
      <trkpt lat="46.09757" lon="4.5907">
        <ele>630.89050293</ele>
        <time>2015-12-17T13:09:35.748Z</time>
      </trkpt>
      <trkpt lat="46.09761" lon="4.5908">
        <ele>630.474609375</ele>
        <time>2015-12-17T13:09:42.761Z</time>
      </trkpt>
      <trkpt lat="46.09763" lon="4.59082">
        <ele>630.413024902</ele>
        <time>2015-12-17T13:09:43.751Z</time>
      </trkpt>
      <trkpt lat="46.09769" lon="4.59091">
        <ele>630.03503418</ele>
        <time>2015-12-17T13:09:48.769Z</time>
      </trkpt>
      <trkpt lat="46.0977" lon="4.59092">
        <ele>629.938598633</ele>
        <time>2015-12-17T13:09:49.75Z</time>
      </trkpt>
      <trkpt lat="46.09777" lon="4.59099">
        <ele>629.217163086</ele>
        <time>2015-12-17T13:09:57.765Z</time>
      </trkpt>
      <trkpt lat="46.09778" lon="4.591">
        <ele>629.18170166</ele>
        <time>2015-12-17T13:09:58.751Z</time>
      </trkpt>
      <trkpt lat="46.09783" lon="4.59109">
        <ele>628.713684082</ele>
        <time>2015-12-17T13:10:05.765Z</time>
      </trkpt>
      <trkpt lat="46.09784" lon="4.5911">
        <ele>628.648010254</ele>
        <time>2015-12-17T13:10:06.754Z</time>
      </trkpt>
      <trkpt lat="46.09789" lon="4.59119">
        <ele>628.010192871</ele>
        <time>2015-12-17T13:10:11.766Z</time>
      </trkpt>
      <trkpt lat="46.0979" lon="4.59121">
        <ele>627.929626465</ele>
        <time>2015-12-17T13:10:12.752Z</time>
      </trkpt>
      <trkpt lat="46.09796" lon="4.59129">
        <ele>627.657714844</ele>
        <time>2015-12-17T13:10:17.766Z</time>
      </trkpt>
      <trkpt lat="46.09797" lon="4.59131">
        <ele>627.541992188</ele>
        <time>2015-12-17T13:10:18.758Z</time>
      </trkpt>
      <trkpt lat="46.09803" lon="4.5914">
        <ele>627.204345703</ele>
        <time>2015-12-17T13:10:26.764Z</time>
      </trkpt>
      <trkpt lat="46.09804" lon="4.5914">
        <ele>627.133300781</ele>
        <time>2015-12-17T13:10:27.753Z</time>
      </trkpt>
      <trkpt lat="46.0981" lon="4.59146">
        <ele>627.011901855</ele>
        <time>2015-12-17T13:10:33.765Z</time>
      </trkpt>
      <trkpt lat="46.09812" lon="4.59147">
        <ele>626.964172363</ele>
        <time>2015-12-17T13:10:34.753Z</time>
      </trkpt>
      <trkpt lat="46.09819" lon="4.59151">
        <ele>626.909240723</ele>
        <time>2015-12-17T13:10:42.765Z</time>
      </trkpt>
      <trkpt lat="46.0982" lon="4.59153">
        <ele>626.922729492</ele>
        <time>2015-12-17T13:10:43.753Z</time>
      </trkpt>
      <trkpt lat="46.09828" lon="4.5916">
        <ele>627.057556152</ele>
        <time>2015-12-17T13:10:49.77Z</time>
      </trkpt>
      <trkpt lat="46.09829" lon="4.59161">
        <ele>627.110961914</ele>
        <time>2015-12-17T13:10:50.757Z</time>
      </trkpt>
      <trkpt lat="46.09835" lon="4.5917">
        <ele>627.107116699</ele>
        <time>2015-12-17T13:10:57.777Z</time>
      </trkpt>
      <trkpt lat="46.09836" lon="4.59172">
        <ele>627.132080078</ele>
        <time>2015-12-17T13:10:58.755Z</time>
      </trkpt>
      <trkpt lat="46.09842" lon="4.59179">
        <ele>627.436828613</ele>
        <time>2015-12-17T13:11:04.768Z</time>
      </trkpt>
      <trkpt lat="46.09845" lon="4.59183">
        <ele>627.58215332</ele>
        <time>2015-12-17T13:11:05.757Z</time>
      </trkpt>
      <trkpt lat="46.09851" lon="4.5919">
        <ele>627.969177246</ele>
        <time>2015-12-17T13:11:09.767Z</time>
      </trkpt>
      <trkpt lat="46.09852" lon="4.59191">
        <ele>628.082519531</ele>
        <time>2015-12-17T13:11:10.757Z</time>
      </trkpt>
      <trkpt lat="46.09858" lon="4.59199">
        <ele>628.822021484</ele>
        <time>2015-12-17T13:11:19.768Z</time>
      </trkpt>
      <trkpt lat="46.09859" lon="4.59199">
        <ele>628.858947754</ele>
        <time>2015-12-17T13:11:20.756Z</time>
      </trkpt>
      <trkpt lat="46.09868" lon="4.59201">
        <ele>628.906616211</ele>
        <time>2015-12-17T13:11:26.774Z</time>
      </trkpt>
      <trkpt lat="46.0987" lon="4.59202">
        <ele>628.947143555</ele>
        <time>2015-12-17T13:11:27.757Z</time>
      </trkpt>
      <trkpt lat="46.09878" lon="4.59204">
        <ele>628.918273926</ele>
        <time>2015-12-17T13:11:34.769Z</time>
      </trkpt>
      <trkpt lat="46.09879" lon="4.59204">
        <ele>628.907897949</ele>
        <time>2015-12-17T13:11:35.732Z</time>
      </trkpt>
      <trkpt lat="46.09886" lon="4.59206">
        <ele>629.019714355</ele>
        <time>2015-12-17T13:11:41.744Z</time>
      </trkpt>
      <trkpt lat="46.09888" lon="4.59205">
        <ele>629.04876709</ele>
        <time>2015-12-17T13:11:42.733Z</time>
      </trkpt>
      <trkpt lat="46.09897" lon="4.59206">
        <ele>628.664794922</ele>
        <time>2015-12-17T13:11:49.744Z</time>
      </trkpt>
      <trkpt lat="46.09898" lon="4.59206">
        <ele>628.605957031</ele>
        <time>2015-12-17T13:11:50.733Z</time>
      </trkpt>
      <trkpt lat="46.09906" lon="4.5921">
        <ele>628.27923584</ele>
        <time>2015-12-17T13:11:57.744Z</time>
      </trkpt>
      <trkpt lat="46.09907" lon="4.59211">
        <ele>628.194641113</ele>
        <time>2015-12-17T13:11:58.74Z</time>
      </trkpt>
      <trkpt lat="46.09915" lon="4.59215">
        <ele>627.677246094</ele>
        <time>2015-12-17T13:12:04.748Z</time>
      </trkpt>
      <trkpt lat="46.09916" lon="4.59216">
        <ele>627.598083496</ele>
        <time>2015-12-17T13:12:05.735Z</time>
      </trkpt>
      <trkpt lat="46.09924" lon="4.59215">
        <ele>627.547058105</ele>
        <time>2015-12-17T13:12:13.761Z</time>
      </trkpt>
      <trkpt lat="46.09926" lon="4.59214">
        <ele>627.495178223</ele>
        <time>2015-12-17T13:12:14.738Z</time>
      </trkpt>
      <trkpt lat="46.09934" lon="4.59215">
        <ele>626.93548584</ele>
        <time>2015-12-17T13:12:23.747Z</time>
      </trkpt>
      <trkpt lat="46.09936" lon="4.59216">
        <ele>626.811279297</ele>
        <time>2015-12-17T13:12:24.735Z</time>
      </trkpt>
      <trkpt lat="46.09944" lon="4.59217">
        <ele>625.342773438</ele>
        <time>2015-12-17T13:12:31.749Z</time>
      </trkpt>
      <trkpt lat="46.09945" lon="4.59217">
        <ele>625.190124512</ele>
        <time>2015-12-17T13:12:32.737Z</time>
      </trkpt>
      <trkpt lat="46.09954" lon="4.5922">
        <ele>624.542785645</ele>
        <time>2015-12-17T13:12:39.749Z</time>
      </trkpt>
      <trkpt lat="46.09955" lon="4.5922">
        <ele>624.526123047</ele>
        <time>2015-12-17T13:12:40.737Z</time>
      </trkpt>
      <trkpt lat="46.09963" lon="4.59221">
        <ele>624.557495117</ele>
        <time>2015-12-17T13:12:48.747Z</time>
      </trkpt>
      <trkpt lat="46.09965" lon="4.5922">
        <ele>624.598754883</ele>
        <time>2015-12-17T13:12:49.764Z</time>
      </trkpt>
      <trkpt lat="46.09971" lon="4.59212">
        <ele>624.63482666</ele>
        <time>2015-12-17T13:12:55.917Z</time>
      </trkpt>
      <trkpt lat="46.09972" lon="4.59212">
        <ele>624.637023926</ele>
        <time>2015-12-17T13:12:56.738Z</time>
      </trkpt>
      <trkpt lat="46.0998" lon="4.59209">
        <ele>624.465270996</ele>
        <time>2015-12-17T13:13:01.751Z</time>
      </trkpt>
      <trkpt lat="46.09982" lon="4.59209">
        <ele>624.497192383</ele>
        <time>2015-12-17T13:13:02.739Z</time>
      </trkpt>
      <trkpt lat="46.0999" lon="4.5921">
        <ele>624.29888916</ele>
        <time>2015-12-17T13:13:07.753Z</time>
      </trkpt>
      <trkpt lat="46.09992" lon="4.5921">
        <ele>624.252319336</ele>
        <time>2015-12-17T13:13:08.741Z</time>
      </trkpt>
      <trkpt lat="46.1" lon="4.5921">
        <ele>623.919433594</ele>
        <time>2015-12-17T13:13:15.751Z</time>
      </trkpt>
      <trkpt lat="46.10002" lon="4.59211">
        <ele>623.794128418</ele>
        <time>2015-12-17T13:13:16.74Z</time>
      </trkpt>
      <trkpt lat="46.10009" lon="4.59214">
        <ele>623.32434082</ele>
        <time>2015-12-17T13:13:21.751Z</time>
      </trkpt>
      <trkpt lat="46.10011" lon="4.59214">
        <ele>623.243164062</ele>
        <time>2015-12-17T13:13:22.741Z</time>
      </trkpt>
      <trkpt lat="46.10019" lon="4.59216">
        <ele>622.66595459</ele>
        <time>2015-12-17T13:13:31.76Z</time>
      </trkpt>
      <trkpt lat="46.1002" lon="4.59216">
        <ele>622.621276855</ele>
        <time>2015-12-17T13:13:32.741Z</time>
      </trkpt>
      <trkpt lat="46.10028" lon="4.59216">
        <ele>622.46862793</ele>
        <time>2015-12-17T13:13:37.753Z</time>
      </trkpt>
      <trkpt lat="46.1003" lon="4.59216">
        <ele>622.459716797</ele>
        <time>2015-12-17T13:13:38.742Z</time>
      </trkpt>
      <trkpt lat="46.10038" lon="4.59214">
        <ele>621.947753906</ele>
        <time>2015-12-17T13:13:43.752Z</time>
      </trkpt>
      <trkpt lat="46.1004" lon="4.59214">
        <ele>621.814147949</ele>
        <time>2015-12-17T13:13:44.743Z</time>
      </trkpt>
      <trkpt lat="46.10047" lon="4.5922">
        <ele>621.347045898</ele>
        <time>2015-12-17T13:13:51.754Z</time>
      </trkpt>
      <trkpt lat="46.10049" lon="4.59221">
        <ele>621.300292969</ele>
        <time>2015-12-17T13:13:52.743Z</time>
      </trkpt>
      <trkpt lat="46.10057" lon="4.59225">
        <ele>621.005126953</ele>
        <time>2015-12-17T13:14:00.759Z</time>
      </trkpt>
      <trkpt lat="46.10058" lon="4.59226">
        <ele>621.030517578</ele>
        <time>2015-12-17T13:14:01.744Z</time>
      </trkpt>
      <trkpt lat="46.10065" lon="4.59229">
        <ele>621.166687012</ele>
        <time>2015-12-17T13:14:07.757Z</time>
      </trkpt>
      <trkpt lat="46.10067" lon="4.5923">
        <ele>621.141662598</ele>
        <time>2015-12-17T13:14:08.744Z</time>
      </trkpt>
      <trkpt lat="46.10074" lon="4.59228">
        <ele>621.471923828</ele>
        <time>2015-12-17T13:14:16.764Z</time>
      </trkpt>
      <trkpt lat="46.10076" lon="4.59228">
        <ele>621.493713379</ele>
        <time>2015-12-17T13:14:17.745Z</time>
      </trkpt>
      <trkpt lat="46.10084" lon="4.59229">
        <ele>621.982299805</ele>
        <time>2015-12-17T13:14:25.757Z</time>
      </trkpt>
      <trkpt lat="46.10086" lon="4.59229">
        <ele>621.988098145</ele>
        <time>2015-12-17T13:14:26.744Z</time>
      </trkpt>
      <trkpt lat="46.10093" lon="4.59229">
        <ele>621.984008789</ele>
        <time>2015-12-17T13:14:29.758Z</time>
      </trkpt>
      <trkpt lat="46.10095" lon="4.59229">
        <ele>621.948547363</ele>
        <time>2015-12-17T13:14:30.745Z</time>
      </trkpt>
      <trkpt lat="46.10104" lon="4.59229">
        <ele>622.050048828</ele>
        <time>2015-12-17T13:14:39.76Z</time>
      </trkpt>
      <trkpt lat="46.10105" lon="4.59228">
        <ele>622.003967285</ele>
        <time>2015-12-17T13:14:40.746Z</time>
      </trkpt>
      <trkpt lat="46.10113" lon="4.59228">
        <ele>621.765686035</ele>
        <time>2015-12-17T13:14:47.757Z</time>
      </trkpt>
      <trkpt lat="46.10115" lon="4.59229">
        <ele>621.679443359</ele>
        <time>2015-12-17T13:14:48.747Z</time>
      </trkpt>
      <trkpt lat="46.10121" lon="4.59236">
        <ele>621.239440918</ele>
        <time>2015-12-17T13:14:59.763Z</time>
      </trkpt>
      <trkpt lat="46.10122" lon="4.59237">
        <ele>621.231506348</ele>
        <time>2015-12-17T13:15:00.749Z</time>
      </trkpt>
      <trkpt lat="46.10128" lon="4.59245">
        <ele>621.10357666</ele>
        <time>2015-12-17T13:15:08.762Z</time>
      </trkpt>
      <trkpt lat="46.10129" lon="4.59245">
        <ele>621.112915039</ele>
        <time>2015-12-17T13:15:09.75Z</time>
      </trkpt>
      <trkpt lat="46.10137" lon="4.59248">
        <ele>621.161315918</ele>
        <time>2015-12-17T13:15:16.761Z</time>
      </trkpt>
      <trkpt lat="46.10138" lon="4.59249">
        <ele>621.163818359</ele>
        <time>2015-12-17T13:15:17.749Z</time>
      </trkpt>
      <trkpt lat="46.10146" lon="4.59253">
        <ele>620.944580078</ele>
        <time>2015-12-17T13:15:24.763Z</time>
      </trkpt>
      <trkpt lat="46.10147" lon="4.59254">
        <ele>620.961547852</ele>
        <time>2015-12-17T13:15:25.749Z</time>
      </trkpt>
      <trkpt lat="46.10154" lon="4.59262">
        <ele>621.194396973</ele>
        <time>2015-12-17T13:15:31.761Z</time>
      </trkpt>
      <trkpt lat="46.10156" lon="4.59263">
        <ele>621.151794434</ele>
        <time>2015-12-17T13:15:32.749Z</time>
      </trkpt>
      <trkpt lat="46.10161" lon="4.59271">
        <ele>620.528137207</ele>
        <time>2015-12-17T13:15:40.762Z</time>
      </trkpt>
      <trkpt lat="46.10162" lon="4.59272">
        <ele>620.397888184</ele>
        <time>2015-12-17T13:15:41.75Z</time>
      </trkpt>
      <trkpt lat="46.10166" lon="4.59283">
        <ele>619.368469238</ele>
        <time>2015-12-17T13:15:48.788Z</time>
      </trkpt>
      <trkpt lat="46.10167" lon="4.59283">
        <ele>619.169616699</ele>
        <time>2015-12-17T13:15:49.75Z</time>
      </trkpt>
      <trkpt lat="46.10171" lon="4.5929">
        <ele>618.227478027</ele>
        <time>2015-12-17T13:15:54.767Z</time>
      </trkpt>
      <trkpt lat="46.10173" lon="4.59294">
        <ele>618.043640137</ele>
        <time>2015-12-17T13:15:55.752Z</time>
      </trkpt>
      <trkpt lat="46.10179" lon="4.59302">
        <ele>616.806274414</ele>
        <time>2015-12-17T13:16:03.766Z</time>
      </trkpt>
      <trkpt lat="46.10181" lon="4.59303">
        <ele>616.692016602</ele>
        <time>2015-12-17T13:16:04.752Z</time>
      </trkpt>
      <trkpt lat="46.10185" lon="4.59313">
        <ele>615.772094727</ele>
        <time>2015-12-17T13:16:13.762Z</time>
      </trkpt>
      <trkpt lat="46.10186" lon="4.59315">
        <ele>615.687072754</ele>
        <time>2015-12-17T13:16:14.752Z</time>
      </trkpt>
      <trkpt lat="46.10187" lon="4.59324">
        <ele>615.23626709</ele>
        <time>2015-12-17T13:16:18.774Z</time>
      </trkpt>
      <trkpt lat="46.10189" lon="4.5933">
        <ele>615.088684082</ele>
        <time>2015-12-17T13:16:19.752Z</time>
      </trkpt>
      <trkpt lat="46.10192" lon="4.59339">
        <ele>613.71307373</ele>
        <time>2015-12-17T13:16:25.766Z</time>
      </trkpt>
      <trkpt lat="46.10194" lon="4.59343">
        <ele>613.516052246</ele>
        <time>2015-12-17T13:16:26.757Z</time>
      </trkpt>
      <trkpt lat="46.10195" lon="4.59354">
        <ele>612.055725098</ele>
        <time>2015-12-17T13:16:32.774Z</time>
      </trkpt>
      <trkpt lat="46.10195" lon="4.59356">
        <ele>611.842285156</ele>
        <time>2015-12-17T13:16:33.754Z</time>
      </trkpt>
      <trkpt lat="46.10195" lon="4.59368">
        <ele>610.021057129</ele>
        <time>2015-12-17T13:16:42.764Z</time>
      </trkpt>
      <trkpt lat="46.10195" lon="4.59369">
        <ele>609.808105469</ele>
        <time>2015-12-17T13:16:43.754Z</time>
      </trkpt>
      <trkpt lat="46.10197" lon="4.59381">
        <ele>608.427307129</ele>
        <time>2015-12-17T13:16:50.932Z</time>
      </trkpt>
      <trkpt lat="46.10198" lon="4.59382">
        <ele>608.253540039</ele>
        <time>2015-12-17T13:16:51.733Z</time>
      </trkpt>
      <trkpt lat="46.10201" lon="4.59393">
        <ele>607.057556152</ele>
        <time>2015-12-17T13:16:58.75Z</time>
      </trkpt>
      <trkpt lat="46.10202" lon="4.59394">
        <ele>606.907592773</ele>
        <time>2015-12-17T13:16:59.731Z</time>
      </trkpt>
      <trkpt lat="46.10208" lon="4.59403">
        <ele>604.939819336</ele>
        <time>2015-12-17T13:17:09.753Z</time>
      </trkpt>
      <trkpt lat="46.10209" lon="4.59405">
        <ele>604.658325195</ele>
        <time>2015-12-17T13:17:10.758Z</time>
      </trkpt>
      <trkpt lat="46.10216" lon="4.59413">
        <ele>603.104919434</ele>
        <time>2015-12-17T13:17:19.744Z</time>
      </trkpt>
      <trkpt lat="46.10218" lon="4.59415">
        <ele>602.989135742</ele>
        <time>2015-12-17T13:17:20.733Z</time>
      </trkpt>
      <trkpt lat="46.10223" lon="4.59421">
        <ele>602.66394043</ele>
        <time>2015-12-17T13:17:23.746Z</time>
      </trkpt>
      <trkpt lat="46.10225" lon="4.59424">
        <ele>602.563720703</ele>
        <time>2015-12-17T13:17:24.732Z</time>
      </trkpt>
      <trkpt lat="46.10229" lon="4.59433">
        <ele>601.821228027</ele>
        <time>2015-12-17T13:17:35.744Z</time>
      </trkpt>
      <trkpt lat="46.1023" lon="4.59435">
        <ele>601.74597168</ele>
        <time>2015-12-17T13:17:36.734Z</time>
      </trkpt>
      <trkpt lat="46.10233" lon="4.59444">
        <ele>601.488891602</ele>
        <time>2015-12-17T13:17:39.749Z</time>
      </trkpt>
      <trkpt lat="46.10234" lon="4.59448">
        <ele>601.501098633</ele>
        <time>2015-12-17T13:17:40.734Z</time>
      </trkpt>
      <trkpt lat="46.10238" lon="4.59459">
        <ele>601.482177734</ele>
        <time>2015-12-17T13:17:45.747Z</time>
      </trkpt>
      <trkpt lat="46.10238" lon="4.59461">
        <ele>601.434326172</ele>
        <time>2015-12-17T13:17:46.735Z</time>
      </trkpt>
      <trkpt lat="46.10243" lon="4.5947">
        <ele>601.019165039</ele>
        <time>2015-12-17T13:17:51.747Z</time>
      </trkpt>
      <trkpt lat="46.10244" lon="4.59472">
        <ele>600.973266602</ele>
        <time>2015-12-17T13:17:52.739Z</time>
      </trkpt>
      <trkpt lat="46.10249" lon="4.59481">
        <ele>600.164550781</ele>
        <time>2015-12-17T13:18:01.762Z</time>
      </trkpt>
      <trkpt lat="46.10249" lon="4.59483">
        <ele>600.098754883</ele>
        <time>2015-12-17T13:18:02.736Z</time>
      </trkpt>
      <trkpt lat="46.10253" lon="4.59494">
        <ele>600.164367676</ele>
        <time>2015-12-17T13:18:07.757Z</time>
      </trkpt>
      <trkpt lat="46.10254" lon="4.59497">
        <ele>600.23449707</ele>
        <time>2015-12-17T13:18:08.736Z</time>
      </trkpt>
      <trkpt lat="46.10256" lon="4.59509">
        <ele>599.793518066</ele>
        <time>2015-12-17T13:18:20.748Z</time>
      </trkpt>
      <trkpt lat="46.10256" lon="4.59511">
        <ele>599.772827148</ele>
        <time>2015-12-17T13:18:21.737Z</time>
      </trkpt>
      <trkpt lat="46.10257" lon="4.59523">
        <ele>599.790405273</ele>
        <time>2015-12-17T13:18:25.75Z</time>
      </trkpt>
      <trkpt lat="46.10257" lon="4.59525">
        <ele>599.852783203</ele>
        <time>2015-12-17T13:18:26.738Z</time>
      </trkpt>
      <trkpt lat="46.10257" lon="4.59536">
        <ele>599.884338379</ele>
        <time>2015-12-17T13:18:32.75Z</time>
      </trkpt>
      <trkpt lat="46.10258" lon="4.59539">
        <ele>599.859863281</ele>
        <time>2015-12-17T13:18:33.738Z</time>
      </trkpt>
      <trkpt lat="46.10262" lon="4.59549">
        <ele>599.436218262</ele>
        <time>2015-12-17T13:18:38.757Z</time>
      </trkpt>
      <trkpt lat="46.10263" lon="4.59551">
        <ele>599.380554199</ele>
        <time>2015-12-17T13:18:39.756Z</time>
      </trkpt>
      <trkpt lat="46.10266" lon="4.59562">
        <ele>599.301635742</ele>
        <time>2015-12-17T13:18:44.75Z</time>
      </trkpt>
      <trkpt lat="46.10266" lon="4.59564">
        <ele>599.29095459</ele>
        <time>2015-12-17T13:18:45.74Z</time>
      </trkpt>
      <trkpt lat="46.1027" lon="4.59574">
        <ele>599.279418945</ele>
        <time>2015-12-17T13:18:51.751Z</time>
      </trkpt>
      <trkpt lat="46.1027" lon="4.59576">
        <ele>599.286376953</ele>
        <time>2015-12-17T13:18:52.739Z</time>
      </trkpt>
      <trkpt lat="46.10272" lon="4.59588">
        <ele>599.271362305</ele>
        <time>2015-12-17T13:19:03.754Z</time>
      </trkpt>
      <trkpt lat="46.10272" lon="4.59591">
        <ele>599.267944336</ele>
        <time>2015-12-17T13:19:04.74Z</time>
      </trkpt>
      <trkpt lat="46.10274" lon="4.59601">
        <ele>599.192077637</ele>
        <time>2015-12-17T13:19:09.753Z</time>
      </trkpt>
      <trkpt lat="46.10274" lon="4.59604">
        <ele>599.236328125</ele>
        <time>2015-12-17T13:19:10.744Z</time>
      </trkpt>
      <trkpt lat="46.10278" lon="4.59615">
        <ele>599.206298828</ele>
        <time>2015-12-17T13:19:17.753Z</time>
      </trkpt>
      <trkpt lat="46.10278" lon="4.59617">
        <ele>599.215637207</ele>
        <time>2015-12-17T13:19:18.741Z</time>
      </trkpt>
      <trkpt lat="46.10285" lon="4.59625">
        <ele>598.719970703</ele>
        <time>2015-12-17T13:19:25.753Z</time>
      </trkpt>
      <trkpt lat="46.10288" lon="4.59627">
        <ele>598.630249023</ele>
        <time>2015-12-17T13:19:26.74Z</time>
      </trkpt>
      <trkpt lat="46.10296" lon="4.59634">
        <ele>598.313781738</ele>
        <time>2015-12-17T13:19:34.762Z</time>
      </trkpt>
      <trkpt lat="46.10297" lon="4.59635">
        <ele>598.27923584</ele>
        <time>2015-12-17T13:19:35.742Z</time>
      </trkpt>
      <trkpt lat="46.10304" lon="4.59641">
        <ele>598.209655762</ele>
        <time>2015-12-17T13:19:40.758Z</time>
      </trkpt>
      <trkpt lat="46.10305" lon="4.59642">
        <ele>598.146789551</ele>
        <time>2015-12-17T13:19:41.744Z</time>
      </trkpt>
      <trkpt lat="46.10312" lon="4.59648">
        <ele>597.417541504</ele>
        <time>2015-12-17T13:19:47.756Z</time>
      </trkpt>
      <trkpt lat="46.10314" lon="4.59649">
        <ele>597.36328125</ele>
        <time>2015-12-17T13:19:48.743Z</time>
      </trkpt>
      <trkpt lat="46.10321" lon="4.59654">
        <ele>597.038574219</ele>
        <time>2015-12-17T13:19:54.758Z</time>
      </trkpt>
      <trkpt lat="46.10322" lon="4.59655">
        <ele>596.948547363</ele>
        <time>2015-12-17T13:19:55.744Z</time>
      </trkpt>
      <trkpt lat="46.1033" lon="4.5966">
        <ele>596.273193359</ele>
        <time>2015-12-17T13:20:03.758Z</time>
      </trkpt>
      <trkpt lat="46.10331" lon="4.5966">
        <ele>596.139404297</ele>
        <time>2015-12-17T13:20:04.744Z</time>
      </trkpt>
      <trkpt lat="46.10339" lon="4.59663">
        <ele>595.011535645</ele>
        <time>2015-12-17T13:20:12.77Z</time>
      </trkpt>
      <trkpt lat="46.1034" lon="4.59664">
        <ele>594.943786621</ele>
        <time>2015-12-17T13:20:13.746Z</time>
      </trkpt>
      <trkpt lat="46.10349" lon="4.59664">
        <ele>594.395507812</ele>
        <time>2015-12-17T13:20:18.756Z</time>
      </trkpt>
      <trkpt lat="46.10351" lon="4.59664">
        <ele>594.089538574</ele>
        <time>2015-12-17T13:20:19.882Z</time>
      </trkpt>
      <trkpt lat="46.1036" lon="4.59663">
        <ele>592.663635254</ele>
        <time>2015-12-17T13:20:25.758Z</time>
      </trkpt>
      <trkpt lat="46.10361" lon="4.59663">
        <ele>592.475341797</ele>
        <time>2015-12-17T13:20:26.746Z</time>
      </trkpt>
      <trkpt lat="46.10361" lon="4.59675">
        <ele>592.201477051</ele>
        <time>2015-12-17T13:20:59.762Z</time>
      </trkpt>
      <trkpt lat="46.10361" lon="4.59676">
        <ele>592.241577148</ele>
        <time>2015-12-17T13:21:00.75Z</time>
      </trkpt>
      <trkpt lat="46.10364" lon="4.59665">
        <ele>599.462341309</ele>
        <time>2015-12-17T13:26:43.764Z</time>
      </trkpt>
      <trkpt lat="46.10365" lon="4.59664">
        <ele>599.59173584</ele>
        <time>2015-12-17T13:26:44.749Z</time>
      </trkpt>
      <trkpt lat="46.10371" lon="4.59655">
        <ele>599.921081543</ele>
        <time>2015-12-17T13:26:53.767Z</time>
      </trkpt>
      <trkpt lat="46.10371" lon="4.59652">
        <ele>599.856384277</ele>
        <time>2015-12-17T13:26:54.749Z</time>
      </trkpt>
      <trkpt lat="46.10368" lon="4.59641">
        <ele>599.57232666</ele>
        <time>2015-12-17T13:27:04.763Z</time>
      </trkpt>
      <trkpt lat="46.10368" lon="4.59639">
        <ele>599.477844238</ele>
        <time>2015-12-17T13:27:05.753Z</time>
      </trkpt>
      <trkpt lat="46.10369" lon="4.59626">
        <ele>599.124694824</ele>
        <time>2015-12-17T13:27:09.767Z</time>
      </trkpt>
      <trkpt lat="46.10368" lon="4.59625">
        <ele>599.049377441</ele>
        <time>2015-12-17T13:27:10.75Z</time>
      </trkpt>
      <trkpt lat="46.10368" lon="4.59613">
        <ele>598.149536133</ele>
        <time>2015-12-17T13:27:17.763Z</time>
      </trkpt>
      <trkpt lat="46.10368" lon="4.59611">
        <ele>598.002990723</ele>
        <time>2015-12-17T13:27:18.752Z</time>
      </trkpt>
      <trkpt lat="46.10366" lon="4.59599">
        <ele>597.330749512</ele>
        <time>2015-12-17T13:27:23.741Z</time>
      </trkpt>
      <trkpt lat="46.10366" lon="4.59597">
        <ele>597.201843262</ele>
        <time>2015-12-17T13:27:24.731Z</time>
      </trkpt>
      <trkpt lat="46.10362" lon="4.59587">
        <ele>597.055908203</ele>
        <time>2015-12-17T13:27:30.742Z</time>
      </trkpt>
      <trkpt lat="46.10361" lon="4.59585">
        <ele>597.109191895</ele>
        <time>2015-12-17T13:27:31.728Z</time>
      </trkpt>
      <trkpt lat="46.10356" lon="4.59575">
        <ele>597.204772949</ele>
        <time>2015-12-17T13:27:36.742Z</time>
      </trkpt>
      <trkpt lat="46.10356" lon="4.59573">
        <ele>597.135131836</ele>
        <time>2015-12-17T13:27:37.729Z</time>
      </trkpt>
      <trkpt lat="46.10351" lon="4.59562">
        <ele>596.261413574</ele>
        <time>2015-12-17T13:27:44.739Z</time>
      </trkpt>
      <trkpt lat="46.1035" lon="4.5956">
        <ele>596.121032715</ele>
        <time>2015-12-17T13:27:45.729Z</time>
      </trkpt>
      <trkpt lat="46.10347" lon="4.59549">
        <ele>595.192260742</ele>
        <time>2015-12-17T13:27:52.741Z</time>
      </trkpt>
      <trkpt lat="46.10347" lon="4.59547">
        <ele>595.133056641</ele>
        <time>2015-12-17T13:27:53.729Z</time>
      </trkpt>
      <trkpt lat="46.10342" lon="4.59538">
        <ele>594.862670898</ele>
        <time>2015-12-17T13:28:00.744Z</time>
      </trkpt>
      <trkpt lat="46.10341" lon="4.59536">
        <ele>594.772705078</ele>
        <time>2015-12-17T13:28:01.73Z</time>
      </trkpt>
      <trkpt lat="46.10338" lon="4.59525">
        <ele>594.153137207</ele>
        <time>2015-12-17T13:28:06.743Z</time>
      </trkpt>
      <trkpt lat="46.10337" lon="4.59524">
        <ele>594.13458252</ele>
        <time>2015-12-17T13:28:07.735Z</time>
      </trkpt>
      <trkpt lat="46.10332" lon="4.59515">
        <ele>594.063232422</ele>
        <time>2015-12-17T13:28:13.748Z</time>
      </trkpt>
      <trkpt lat="46.10331" lon="4.59513">
        <ele>593.90802002</ele>
        <time>2015-12-17T13:28:14.733Z</time>
      </trkpt>
      <trkpt lat="46.10327" lon="4.59504">
        <ele>593.307617188</ele>
        <time>2015-12-17T13:28:18.75Z</time>
      </trkpt>
      <trkpt lat="46.10327" lon="4.59501">
        <ele>593.145935059</ele>
        <time>2015-12-17T13:28:19.731Z</time>
      </trkpt>
      <trkpt lat="46.10321" lon="4.59491">
        <ele>592.631530762</ele>
        <time>2015-12-17T13:28:28.756Z</time>
      </trkpt>
      <trkpt lat="46.1032" lon="4.59489">
        <ele>592.630004883</ele>
        <time>2015-12-17T13:28:29.732Z</time>
      </trkpt>
      <trkpt lat="46.10315" lon="4.59479">
        <ele>592.399597168</ele>
        <time>2015-12-17T13:28:35.745Z</time>
      </trkpt>
      <trkpt lat="46.10314" lon="4.59477">
        <ele>592.26348877</ele>
        <time>2015-12-17T13:28:36.736Z</time>
      </trkpt>
      <trkpt lat="46.1031" lon="4.59465">
        <ele>591.902709961</ele>
        <time>2015-12-17T13:28:41.75Z</time>
      </trkpt>
      <trkpt lat="46.10309" lon="4.59463">
        <ele>591.880310059</ele>
        <time>2015-12-17T13:28:42.731Z</time>
      </trkpt>
      <trkpt lat="46.10307" lon="4.59452">
        <ele>591.846069336</ele>
        <time>2015-12-17T13:28:49.746Z</time>
      </trkpt>
      <trkpt lat="46.10306" lon="4.59451">
        <ele>591.807678223</ele>
        <time>2015-12-17T13:28:50.736Z</time>
      </trkpt>
      <trkpt lat="46.10302" lon="4.59441">
        <ele>591.219970703</ele>
        <time>2015-12-17T13:28:57.744Z</time>
      </trkpt>
      <trkpt lat="46.10301" lon="4.59439">
        <ele>591.140136719</ele>
        <time>2015-12-17T13:28:58.733Z</time>
      </trkpt>
      <trkpt lat="46.10296" lon="4.5943">
        <ele>591.164916992</ele>
        <time>2015-12-17T13:29:03.748Z</time>
      </trkpt>
      <trkpt lat="46.10295" lon="4.59429">
        <ele>591.192565918</ele>
        <time>2015-12-17T13:29:04.731Z</time>
      </trkpt>
      <trkpt lat="46.1029" lon="4.59418">
        <ele>591.50567627</ele>
        <time>2015-12-17T13:29:11.749Z</time>
      </trkpt>
      <trkpt lat="46.1029" lon="4.59416">
        <ele>591.502258301</ele>
        <time>2015-12-17T13:29:12.732Z</time>
      </trkpt>
      <trkpt lat="46.10287" lon="4.59403">
        <ele>591.751037598</ele>
        <time>2015-12-17T13:29:17.749Z</time>
      </trkpt>
      <trkpt lat="46.10286" lon="4.59402">
        <ele>591.788024902</ele>
        <time>2015-12-17T13:29:18.735Z</time>
      </trkpt>
      <trkpt lat="46.10284" lon="4.59391">
        <ele>591.37487793</ele>
        <time>2015-12-17T13:29:24.753Z</time>
      </trkpt>
      <trkpt lat="46.10283" lon="4.5939">
        <ele>591.322265625</ele>
        <time>2015-12-17T13:29:25.732Z</time>
      </trkpt>
      <trkpt lat="46.10281" lon="4.59378">
        <ele>591.504394531</ele>
        <time>2015-12-17T13:29:32.747Z</time>
      </trkpt>
      <trkpt lat="46.10281" lon="4.59377">
        <ele>591.59942627</ele>
        <time>2015-12-17T13:29:33.736Z</time>
      </trkpt>
      <trkpt lat="46.10279" lon="4.59366">
        <ele>591.977783203</ele>
        <time>2015-12-17T13:29:38.748Z</time>
      </trkpt>
      <trkpt lat="46.10279" lon="4.59364">
        <ele>592.071411133</ele>
        <time>2015-12-17T13:29:39.738Z</time>
      </trkpt>
      <trkpt lat="46.10275" lon="4.59355">
        <ele>592.68182373</ele>
        <time>2015-12-17T13:29:46.747Z</time>
      </trkpt>
      <trkpt lat="46.10274" lon="4.59351">
        <ele>592.677307129</ele>
        <time>2015-12-17T13:29:47.738Z</time>
      </trkpt>
      <trkpt lat="46.10272" lon="4.5934">
        <ele>592.546508789</ele>
        <time>2015-12-17T13:29:54.751Z</time>
      </trkpt>
      <trkpt lat="46.10272" lon="4.59338">
        <ele>592.520568848</ele>
        <time>2015-12-17T13:29:55.737Z</time>
      </trkpt>
      <trkpt lat="46.10271" lon="4.59327">
        <ele>592.403808594</ele>
        <time>2015-12-17T13:30:02.751Z</time>
      </trkpt>
      <trkpt lat="46.1027" lon="4.59325">
        <ele>592.487792969</ele>
        <time>2015-12-17T13:30:03.738Z</time>
      </trkpt>
      <trkpt lat="46.10269" lon="4.59314">
        <ele>592.662658691</ele>
        <time>2015-12-17T13:30:10.755Z</time>
      </trkpt>
      <trkpt lat="46.10269" lon="4.59312">
        <ele>592.592773438</ele>
        <time>2015-12-17T13:30:11.74Z</time>
      </trkpt>
      <trkpt lat="46.10268" lon="4.59301">
        <ele>592.510986328</ele>
        <time>2015-12-17T13:30:16.75Z</time>
      </trkpt>
      <trkpt lat="46.10269" lon="4.59298">
        <ele>592.408935547</ele>
        <time>2015-12-17T13:30:17.738Z</time>
      </trkpt>
      <trkpt lat="46.1027" lon="4.59286">
        <ele>592.500488281</ele>
        <time>2015-12-17T13:30:26.754Z</time>
      </trkpt>
      <trkpt lat="46.10269" lon="4.59284">
        <ele>592.640808105</ele>
        <time>2015-12-17T13:30:27.74Z</time>
      </trkpt>
      <trkpt lat="46.1027" lon="4.59273">
        <ele>593.170471191</ele>
        <time>2015-12-17T13:30:33.753Z</time>
      </trkpt>
      <trkpt lat="46.1027" lon="4.5927">
        <ele>593.15826416</ele>
        <time>2015-12-17T13:30:34.741Z</time>
      </trkpt>
      <trkpt lat="46.10273" lon="4.5926">
        <ele>593.100708008</ele>
        <time>2015-12-17T13:30:37.752Z</time>
      </trkpt>
      <trkpt lat="46.10274" lon="4.59256">
        <ele>592.924499512</ele>
        <time>2015-12-17T13:30:38.74Z</time>
      </trkpt>
      <trkpt lat="46.10278" lon="4.59247">
        <ele>592.278808594</ele>
        <time>2015-12-17T13:30:41.755Z</time>
      </trkpt>
      <trkpt lat="46.1028" lon="4.59245">
        <ele>592.254333496</ele>
        <time>2015-12-17T13:30:42.741Z</time>
      </trkpt>
      <trkpt lat="46.10283" lon="4.59234">
        <ele>591.649291992</ele>
        <time>2015-12-17T13:30:48.754Z</time>
      </trkpt>
      <trkpt lat="46.10284" lon="4.59233">
        <ele>591.610900879</ele>
        <time>2015-12-17T13:30:49.747Z</time>
      </trkpt>
      <trkpt lat="46.10289" lon="4.59226">
        <ele>592.007080078</ele>
        <time>2015-12-17T13:30:55.762Z</time>
      </trkpt>
      <trkpt lat="46.10292" lon="4.59223">
        <ele>592.057434082</ele>
        <time>2015-12-17T13:30:56.742Z</time>
      </trkpt>
      <trkpt lat="46.10297" lon="4.59215">
        <ele>592.024108887</ele>
        <time>2015-12-17T13:30:59.85Z</time>
      </trkpt>
      <trkpt lat="46.10299" lon="4.59213">
        <ele>592.038696289</ele>
        <time>2015-12-17T13:31:00.743Z</time>
      </trkpt>
      <trkpt lat="46.10305" lon="4.59205">
        <ele>591.770874023</ele>
        <time>2015-12-17T13:31:04.758Z</time>
      </trkpt>
      <trkpt lat="46.10307" lon="4.59203">
        <ele>591.725830078</ele>
        <time>2015-12-17T13:31:05.744Z</time>
      </trkpt>
      <trkpt lat="46.10313" lon="4.59196">
        <ele>591.28918457</ele>
        <time>2015-12-17T13:31:12.757Z</time>
      </trkpt>
      <trkpt lat="46.10316" lon="4.59194">
        <ele>591.048095703</ele>
        <time>2015-12-17T13:31:13.744Z</time>
      </trkpt>
      <trkpt lat="46.10322" lon="4.59186">
        <ele>589.922302246</ele>
        <time>2015-12-17T13:31:17.777Z</time>
      </trkpt>
      <trkpt lat="46.10323" lon="4.59183">
        <ele>589.682067871</ele>
        <time>2015-12-17T13:31:18.744Z</time>
      </trkpt>
      <trkpt lat="46.10329" lon="4.59174">
        <ele>588.156616211</ele>
        <time>2015-12-17T13:31:26.756Z</time>
      </trkpt>
      <trkpt lat="46.1033" lon="4.59173">
        <ele>587.987243652</ele>
        <time>2015-12-17T13:31:27.745Z</time>
      </trkpt>
      <trkpt lat="46.10337" lon="4.59166">
        <ele>586.85760498</ele>
        <time>2015-12-17T13:31:32.757Z</time>
      </trkpt>
      <trkpt lat="46.10339" lon="4.59163">
        <ele>586.623474121</ele>
        <time>2015-12-17T13:31:33.757Z</time>
      </trkpt>
      <trkpt lat="46.10344" lon="4.59154">
        <ele>584.215332031</ele>
        <time>2015-12-17T13:31:41.755Z</time>
      </trkpt>
      <trkpt lat="46.10345" lon="4.59153">
        <ele>584.10925293</ele>
        <time>2015-12-17T13:31:42.742Z</time>
      </trkpt>
      <trkpt lat="46.1035" lon="4.59144">
        <ele>583.04864502</ele>
        <time>2015-12-17T13:31:48.807Z</time>
      </trkpt>
      <trkpt lat="46.10354" lon="4.59141">
        <ele>582.863708496</ele>
        <time>2015-12-17T13:31:49.746Z</time>
      </trkpt>
      <trkpt lat="46.1036" lon="4.59134">
        <ele>581.147949219</ele>
        <time>2015-12-17T13:31:56.759Z</time>
      </trkpt>
      <trkpt lat="46.10361" lon="4.59132">
        <ele>580.883605957</ele>
        <time>2015-12-17T13:31:57.747Z</time>
      </trkpt>
      <trkpt lat="46.10367" lon="4.59123">
        <ele>579.691101074</ele>
        <time>2015-12-17T13:32:03.761Z</time>
      </trkpt>
      <trkpt lat="46.10369" lon="4.59122">
        <ele>579.552978516</ele>
        <time>2015-12-17T13:32:04.746Z</time>
      </trkpt>
      <trkpt lat="46.10376" lon="4.59116">
        <ele>578.337097168</ele>
        <time>2015-12-17T13:32:09.76Z</time>
      </trkpt>
      <trkpt lat="46.10378" lon="4.59116">
        <ele>578.106750488</ele>
        <time>2015-12-17T13:32:10.748Z</time>
      </trkpt>
      <trkpt lat="46.10386" lon="4.59111">
        <ele>577.091003418</ele>
        <time>2015-12-17T13:32:17.763Z</time>
      </trkpt>
      <trkpt lat="46.10387" lon="4.5911">
        <ele>576.963134766</ele>
        <time>2015-12-17T13:32:18.75Z</time>
      </trkpt>
      <trkpt lat="46.10395" lon="4.59104">
        <ele>575.9453125</ele>
        <time>2015-12-17T13:32:22.764Z</time>
      </trkpt>
      <trkpt lat="46.10396" lon="4.59103">
        <ele>575.7421875</ele>
        <time>2015-12-17T13:32:23.747Z</time>
      </trkpt>
      <trkpt lat="46.10402" lon="4.59095">
        <ele>574.377990723</ele>
        <time>2015-12-17T13:32:31.761Z</time>
      </trkpt>
      <trkpt lat="46.10403" lon="4.59093">
        <ele>574.275146484</ele>
        <time>2015-12-17T13:32:32.75Z</time>
      </trkpt>
      <trkpt lat="46.10408" lon="4.59084">
        <ele>572.92578125</ele>
        <time>2015-12-17T13:32:39.735Z</time>
      </trkpt>
      <trkpt lat="46.10409" lon="4.59082">
        <ele>572.854492188</ele>
        <time>2015-12-17T13:32:40.726Z</time>
      </trkpt>
      <trkpt lat="46.10413" lon="4.59076">
        <ele>572.230834961</ele>
        <time>2015-12-17T13:32:44.739Z</time>
      </trkpt>
      <trkpt lat="46.10417" lon="4.59074">
        <ele>571.837402344</ele>
        <time>2015-12-17T13:32:45.725Z</time>
      </trkpt>
      <trkpt lat="46.10424" lon="4.5908">
        <ele>567.171142578</ele>
        <time>2015-12-17T13:33:00.739Z</time>
      </trkpt>
      <trkpt lat="46.10424" lon="4.59082">
        <ele>567.024353027</ele>
        <time>2015-12-17T13:33:01.726Z</time>
      </trkpt>
      <trkpt lat="46.10424" lon="4.59094">
        <ele>566.26776123</ele>
        <time>2015-12-17T13:33:06.74Z</time>
      </trkpt>
      <trkpt lat="46.10424" lon="4.59097">
        <ele>566.127868652</ele>
        <time>2015-12-17T13:33:07.728Z</time>
      </trkpt>
      <trkpt lat="46.10423" lon="4.59108">
        <ele>565.268310547</ele>
        <time>2015-12-17T13:33:16.743Z</time>
      </trkpt>
      <trkpt lat="46.10422" lon="4.5911">
        <ele>565.1875</ele>
        <time>2015-12-17T13:33:17.727Z</time>
      </trkpt>
      <trkpt lat="46.10418" lon="4.59121">
        <ele>564.487548828</ele>
        <time>2015-12-17T13:33:24.741Z</time>
      </trkpt>
      <trkpt lat="46.10417" lon="4.59123">
        <ele>564.343566895</ele>
        <time>2015-12-17T13:33:25.728Z</time>
      </trkpt>
      <trkpt lat="46.10412" lon="4.59132">
        <ele>563.664916992</ele>
        <time>2015-12-17T13:33:31.742Z</time>
      </trkpt>
      <trkpt lat="46.10412" lon="4.59133">
        <ele>563.58770752</ele>
        <time>2015-12-17T13:33:32.73Z</time>
      </trkpt>
      <trkpt lat="46.1041" lon="4.59146">
        <ele>563.474243164</ele>
        <time>2015-12-17T13:33:42.74Z</time>
      </trkpt>
      <trkpt lat="46.1041" lon="4.59147">
        <ele>563.565307617</ele>
        <time>2015-12-17T13:33:43.729Z</time>
      </trkpt>
      <trkpt lat="46.10406" lon="4.59159">
        <ele>564.286071777</ele>
        <time>2015-12-17T13:33:50.828Z</time>
      </trkpt>
      <trkpt lat="46.10406" lon="4.5916">
        <ele>564.385620117</ele>
        <time>2015-12-17T13:33:51.73Z</time>
      </trkpt>
      <trkpt lat="46.10401" lon="4.5917">
        <ele>564.402954102</ele>
        <time>2015-12-17T13:33:56.74Z</time>
      </trkpt>
      <trkpt lat="46.10399" lon="4.59172">
        <ele>564.353515625</ele>
        <time>2015-12-17T13:33:57.731Z</time>
      </trkpt>
      <trkpt lat="46.10396" lon="4.59183">
        <ele>564.404174805</ele>
        <time>2015-12-17T13:34:04.741Z</time>
      </trkpt>
      <trkpt lat="46.10396" lon="4.59184">
        <ele>564.48248291</ele>
        <time>2015-12-17T13:34:05.731Z</time>
      </trkpt>
      <trkpt lat="46.10395" lon="4.59196">
        <ele>565.172424316</ele>
        <time>2015-12-17T13:34:13.916Z</time>
      </trkpt>
      <trkpt lat="46.10394" lon="4.59198">
        <ele>565.240539551</ele>
        <time>2015-12-17T13:34:14.731Z</time>
      </trkpt>
      <trkpt lat="46.10393" lon="4.5921">
        <ele>566.138916016</ele>
        <time>2015-12-17T13:34:26.746Z</time>
      </trkpt>
      <trkpt lat="46.10393" lon="4.59211">
        <ele>566.34942627</ele>
        <time>2015-12-17T13:34:27.733Z</time>
      </trkpt>
      <trkpt lat="46.10394" lon="4.59223">
        <ele>566.71307373</ele>
        <time>2015-12-17T13:34:36.743Z</time>
      </trkpt>
      <trkpt lat="46.10394" lon="4.59224">
        <ele>566.677978516</ele>
        <time>2015-12-17T13:34:37.733Z</time>
      </trkpt>
      <trkpt lat="46.10395" lon="4.59237">
        <ele>565.80847168</ele>
        <time>2015-12-17T13:34:50.754Z</time>
      </trkpt>
      <trkpt lat="46.10395" lon="4.59238">
        <ele>565.719299316</ele>
        <time>2015-12-17T13:34:51.734Z</time>
      </trkpt>
      <trkpt lat="46.10399" lon="4.59249">
        <ele>564.709106445</ele>
        <time>2015-12-17T13:34:58.747Z</time>
      </trkpt>
      <trkpt lat="46.10399" lon="4.59253">
        <ele>564.509155273</ele>
        <time>2015-12-17T13:34:59.735Z</time>
      </trkpt>
      <trkpt lat="46.10404" lon="4.59261">
        <ele>562.887023926</ele>
        <time>2015-12-17T13:35:08.748Z</time>
      </trkpt>
      <trkpt lat="46.10406" lon="4.59264">
        <ele>562.582885742</ele>
        <time>2015-12-17T13:35:09.736Z</time>
      </trkpt>
      <trkpt lat="46.10408" lon="4.59268">
        <ele>561.177978516</ele>
        <time>2015-12-17T13:35:13.747Z</time>
      </trkpt>
      <trkpt lat="46.10413" lon="4.59273">
        <ele>560.844482422</ele>
        <time>2015-12-17T13:35:14.737Z</time>
      </trkpt>
      <trkpt lat="46.10417" lon="4.5928">
        <ele>559.703430176</ele>
        <time>2015-12-17T13:35:18.749Z</time>
      </trkpt>
      <trkpt lat="46.10419" lon="4.59285">
        <ele>559.460205078</ele>
        <time>2015-12-17T13:35:19.875Z</time>
      </trkpt>
      <trkpt lat="46.10422" lon="4.59293">
        <ele>558.178649902</ele>
        <time>2015-12-17T13:35:23.746Z</time>
      </trkpt>
      <trkpt lat="46.10424" lon="4.59296">
        <ele>557.935119629</ele>
        <time>2015-12-17T13:35:24.745Z</time>
      </trkpt>
      <trkpt lat="46.10427" lon="4.59307">
        <ele>555.379516602</ele>
        <time>2015-12-17T13:35:34.756Z</time>
      </trkpt>
      <trkpt lat="46.1043" lon="4.5931">
        <ele>555.13482666</ele>
        <time>2015-12-17T13:35:35.736Z</time>
      </trkpt>
      <trkpt lat="46.10435" lon="4.59318">
        <ele>553.08392334</ele>
        <time>2015-12-17T13:35:42.75Z</time>
      </trkpt>
      <trkpt lat="46.10436" lon="4.5932">
        <ele>552.796691895</ele>
        <time>2015-12-17T13:35:43.739Z</time>
      </trkpt>
      <trkpt lat="46.10442" lon="4.59328">
        <ele>552.065124512</ele>
        <time>2015-12-17T13:35:46.75Z</time>
      </trkpt>
      <trkpt lat="46.10443" lon="4.5933">
        <ele>551.749389648</ele>
        <time>2015-12-17T13:35:47.738Z</time>
      </trkpt>
      <trkpt lat="46.10448" lon="4.5934">
        <ele>549.55871582</ele>
        <time>2015-12-17T13:35:56.751Z</time>
      </trkpt>
      <trkpt lat="46.10448" lon="4.59341">
        <ele>549.230895996</ele>
        <time>2015-12-17T13:35:57.738Z</time>
      </trkpt>
      <trkpt lat="46.10455" lon="4.59348">
        <ele>546.348876953</ele>
        <time>2015-12-17T13:36:04.752Z</time>
      </trkpt>
      <trkpt lat="46.10456" lon="4.59349">
        <ele>545.858459473</ele>
        <time>2015-12-17T13:36:05.74Z</time>
      </trkpt>
      <trkpt lat="46.10462" lon="4.59357">
        <ele>544.457092285</ele>
        <time>2015-12-17T13:36:08.752Z</time>
      </trkpt>
      <trkpt lat="46.10464" lon="4.5936">
        <ele>544.055175781</ele>
        <time>2015-12-17T13:36:09.74Z</time>
      </trkpt>
      <trkpt lat="46.1047" lon="4.59369">
        <ele>541.179870605</ele>
        <time>2015-12-17T13:36:17.75Z</time>
      </trkpt>
      <trkpt lat="46.10471" lon="4.5937">
        <ele>540.809875488</ele>
        <time>2015-12-17T13:36:18.744Z</time>
      </trkpt>
      <trkpt lat="46.10477" lon="4.59379">
        <ele>538.355163574</ele>
        <time>2015-12-17T13:36:25.755Z</time>
      </trkpt>
      <trkpt lat="46.10477" lon="4.5938">
        <ele>537.937561035</ele>
        <time>2015-12-17T13:36:26.741Z</time>
      </trkpt>
      <trkpt lat="46.10484" lon="4.59387">
        <ele>535.120056152</ele>
        <time>2015-12-17T13:36:35.769Z</time>
      </trkpt>
      <trkpt lat="46.10486" lon="4.59391">
        <ele>534.903503418</ele>
        <time>2015-12-17T13:36:36.742Z</time>
      </trkpt>
      <trkpt lat="46.10494" lon="4.59398">
        <ele>532.78503418</ele>
        <time>2015-12-17T13:36:42.763Z</time>
      </trkpt>
      <trkpt lat="46.10494" lon="4.59398">
        <ele>532.419067383</ele>
        <time>2015-12-17T13:36:43.743Z</time>
      </trkpt>
      <trkpt lat="46.10502" lon="4.59404">
        <ele>529.153503418</ele>
        <time>2015-12-17T13:36:51.752Z</time>
      </trkpt>
      <trkpt lat="46.10503" lon="4.59406">
        <ele>528.78515625</ele>
        <time>2015-12-17T13:36:52.743Z</time>
      </trkpt>
      <trkpt lat="46.1051" lon="4.59412">
        <ele>526.155456543</ele>
        <time>2015-12-17T13:37:00.755Z</time>
      </trkpt>
      <trkpt lat="46.10511" lon="4.59413">
        <ele>525.870117188</ele>
        <time>2015-12-17T13:37:01.745Z</time>
      </trkpt>
      <trkpt lat="46.10518" lon="4.59418">
        <ele>524.316223145</ele>
        <time>2015-12-17T13:37:07.758Z</time>
      </trkpt>
      <trkpt lat="46.10519" lon="4.5942">
        <ele>524.167053223</ele>
        <time>2015-12-17T13:37:08.747Z</time>
      </trkpt>
      <trkpt lat="46.10527" lon="4.59426">
        <ele>520.824523926</ele>
        <time>2015-12-17T13:37:19.759Z</time>
      </trkpt>
      <trkpt lat="46.10528" lon="4.59427">
        <ele>520.563293457</ele>
        <time>2015-12-17T13:37:20.745Z</time>
      </trkpt>
      <trkpt lat="46.10536" lon="4.59431">
        <ele>519.368530273</ele>
        <time>2015-12-17T13:37:26.762Z</time>
      </trkpt>
      <trkpt lat="46.10537" lon="4.59432">
        <ele>519.134094238</ele>
        <time>2015-12-17T13:37:27.746Z</time>
      </trkpt>
      <trkpt lat="46.10545" lon="4.59438">
        <ele>515.740966797</ele>
        <time>2015-12-17T13:38:02.732Z</time>
      </trkpt>
      <trkpt lat="46.10546" lon="4.59438">
        <ele>515.369140625</ele>
        <time>2015-12-17T13:38:03.723Z</time>
      </trkpt>
      <trkpt lat="46.10554" lon="4.59442">
        <ele>513.105529785</ele>
        <time>2015-12-17T13:38:12.734Z</time>
      </trkpt>
      <trkpt lat="46.10555" lon="4.59442">
        <ele>512.945129395</ele>
        <time>2015-12-17T13:38:13.722Z</time>
      </trkpt>
      <trkpt lat="46.10563" lon="4.59446">
        <ele>511.085540771</ele>
        <time>2015-12-17T13:38:21.743Z</time>
      </trkpt>
      <trkpt lat="46.10564" lon="4.59447">
        <ele>510.870941162</ele>
        <time>2015-12-17T13:38:22.726Z</time>
      </trkpt>
      <trkpt lat="46.10572" lon="4.59449">
        <ele>510.056182861</ele>
        <time>2015-12-17T13:38:29.761Z</time>
      </trkpt>
      <trkpt lat="46.10573" lon="4.5945">
        <ele>509.893981934</ele>
        <time>2015-12-17T13:38:30.725Z</time>
      </trkpt>
      <trkpt lat="46.1058" lon="4.59456">
        <ele>508.661804199</ele>
        <time>2015-12-17T13:38:36.739Z</time>
      </trkpt>
      <trkpt lat="46.10581" lon="4.59456">
        <ele>508.388580322</ele>
        <time>2015-12-17T13:38:37.726Z</time>
      </trkpt>
      <trkpt lat="46.10588" lon="4.59459">
        <ele>506.663574219</ele>
        <time>2015-12-17T13:38:44.739Z</time>
      </trkpt>
      <trkpt lat="46.1059" lon="4.5946">
        <ele>506.370544434</ele>
        <time>2015-12-17T13:38:45.725Z</time>
      </trkpt>
      <trkpt lat="46.10597" lon="4.59462">
        <ele>504.460632324</ele>
        <time>2015-12-17T13:38:52.739Z</time>
      </trkpt>
      <trkpt lat="46.10599" lon="4.59463">
        <ele>504.124755859</ele>
        <time>2015-12-17T13:38:53.727Z</time>
      </trkpt>
      <trkpt lat="46.10607" lon="4.59466">
        <ele>503.205474854</ele>
        <time>2015-12-17T13:38:57.738Z</time>
      </trkpt>
      <trkpt lat="46.10609" lon="4.59467">
        <ele>503.083740234</ele>
        <time>2015-12-17T13:38:58.728Z</time>
      </trkpt>
      <trkpt lat="46.10618" lon="4.59469">
        <ele>501.811981201</ele>
        <time>2015-12-17T13:39:05.744Z</time>
      </trkpt>
      <trkpt lat="46.10619" lon="4.59469">
        <ele>501.643737793</ele>
        <time>2015-12-17T13:39:06.728Z</time>
      </trkpt>
      <trkpt lat="46.10626" lon="4.59474">
        <ele>500.011413574</ele>
        <time>2015-12-17T13:39:12.742Z</time>
      </trkpt>
      <trkpt lat="46.10628" lon="4.59475">
        <ele>499.704833984</ele>
        <time>2015-12-17T13:39:13.727Z</time>
      </trkpt>
      <trkpt lat="46.10636" lon="4.59476">
        <ele>498.042510986</ele>
        <time>2015-12-17T13:39:18.74Z</time>
      </trkpt>
      <trkpt lat="46.10637" lon="4.59477">
        <ele>497.76776123</ele>
        <time>2015-12-17T13:39:19.73Z</time>
      </trkpt>
      <trkpt lat="46.10645" lon="4.59481">
        <ele>496.654663086</ele>
        <time>2015-12-17T13:39:25.743Z</time>
      </trkpt>
      <trkpt lat="46.10646" lon="4.59481">
        <ele>496.398376465</ele>
        <time>2015-12-17T13:39:26.729Z</time>
      </trkpt>
      <trkpt lat="46.10654" lon="4.59486">
        <ele>495.204833984</ele>
        <time>2015-12-17T13:39:31.747Z</time>
      </trkpt>
      <trkpt lat="46.10656" lon="4.59488">
        <ele>495.012939453</ele>
        <time>2015-12-17T13:39:32.73Z</time>
      </trkpt>
      <trkpt lat="46.10663" lon="4.59492">
        <ele>492.73916626</ele>
        <time>2015-12-17T13:39:42.742Z</time>
      </trkpt>
      <trkpt lat="46.10664" lon="4.59492">
        <ele>492.48651123</ele>
        <time>2015-12-17T13:39:43.731Z</time>
      </trkpt>
      <trkpt lat="46.10672" lon="4.59494">
        <ele>491.0184021</ele>
        <time>2015-12-17T13:39:49.932Z</time>
      </trkpt>
      <trkpt lat="46.10674" lon="4.59494">
        <ele>490.832885742</ele>
        <time>2015-12-17T13:39:50.731Z</time>
      </trkpt>
      <trkpt lat="46.10682" lon="4.59496">
        <ele>489.813323975</ele>
        <time>2015-12-17T13:39:55.746Z</time>
      </trkpt>
      <trkpt lat="46.10684" lon="4.59497">
        <ele>489.617553711</ele>
        <time>2015-12-17T13:39:56.733Z</time>
      </trkpt>
      <trkpt lat="46.10692" lon="4.59502">
        <ele>487.299957275</ele>
        <time>2015-12-17T13:40:06.742Z</time>
      </trkpt>
      <trkpt lat="46.10693" lon="4.59503">
        <ele>487.102203369</ele>
        <time>2015-12-17T13:40:07.734Z</time>
      </trkpt>
      <trkpt lat="46.107" lon="4.5951">
        <ele>486.298217773</ele>
        <time>2015-12-17T13:40:12.745Z</time>
      </trkpt>
      <trkpt lat="46.10701" lon="4.5951">
        <ele>486.179656982</ele>
        <time>2015-12-17T13:40:13.733Z</time>
      </trkpt>
      <trkpt lat="46.10708" lon="4.59517">
        <ele>485.440338135</ele>
        <time>2015-12-17T13:40:19.749Z</time>
      </trkpt>
      <trkpt lat="46.10709" lon="4.59519">
        <ele>485.296234131</ele>
        <time>2015-12-17T13:40:20.735Z</time>
      </trkpt>
      <trkpt lat="46.10714" lon="4.59526">
        <ele>484.732879639</ele>
        <time>2015-12-17T13:40:28.747Z</time>
      </trkpt>
      <trkpt lat="46.10716" lon="4.59529">
        <ele>484.685913086</ele>
        <time>2015-12-17T13:40:29.74Z</time>
      </trkpt>
      <trkpt lat="46.10721" lon="4.59538">
        <ele>484.634246826</ele>
        <time>2015-12-17T13:40:36.746Z</time>
      </trkpt>
      <trkpt lat="46.10723" lon="4.59541">
        <ele>484.673065186</ele>
        <time>2015-12-17T13:40:37.737Z</time>
      </trkpt>
      <trkpt lat="46.10722" lon="4.59531">
        <ele>479.813964844</ele>
        <time>2015-12-17T13:41:10.748Z</time>
      </trkpt>
      <trkpt lat="46.10722" lon="4.59528">
        <ele>479.756134033</ele>
        <time>2015-12-17T13:41:11.737Z</time>
      </trkpt>
      <trkpt lat="46.1072" lon="4.59516">
        <ele>478.997802734</ele>
        <time>2015-12-17T13:41:19.753Z</time>
      </trkpt>
      <trkpt lat="46.10719" lon="4.59515">
        <ele>478.920013428</ele>
        <time>2015-12-17T13:41:20.738Z</time>
      </trkpt>
      <trkpt lat="46.10717" lon="4.59503">
        <ele>478.66607666</ele>
        <time>2015-12-17T13:41:25.754Z</time>
      </trkpt>
      <trkpt lat="46.10717" lon="4.59501">
        <ele>478.598632812</ele>
        <time>2015-12-17T13:41:26.739Z</time>
      </trkpt>
      <trkpt lat="46.10715" lon="4.59489">
        <ele>478.003662109</ele>
        <time>2015-12-17T13:41:31.749Z</time>
      </trkpt>
      <trkpt lat="46.10715" lon="4.59486">
        <ele>477.886413574</ele>
        <time>2015-12-17T13:41:32.745Z</time>
      </trkpt>
      <trkpt lat="46.10717" lon="4.59474">
        <ele>477.454071045</ele>
        <time>2015-12-17T13:41:37.751Z</time>
      </trkpt>
      <trkpt lat="46.10716" lon="4.59472">
        <ele>477.352294922</ele>
        <time>2015-12-17T13:41:38.739Z</time>
      </trkpt>
      <trkpt lat="46.10714" lon="4.59461">
        <ele>476.562866211</ele>
        <time>2015-12-17T13:41:43.753Z</time>
      </trkpt>
      <trkpt lat="46.10714" lon="4.59459">
        <ele>476.367034912</ele>
        <time>2015-12-17T13:41:44.741Z</time>
      </trkpt>
      <trkpt lat="46.10709" lon="4.59449">
        <ele>475.424163818</ele>
        <time>2015-12-17T13:41:51.754Z</time>
      </trkpt>
      <trkpt lat="46.10709" lon="4.59448">
        <ele>475.411193848</ele>
        <time>2015-12-17T13:41:52.741Z</time>
      </trkpt>
      <trkpt lat="46.10706" lon="4.59439">
        <ele>474.567382812</ele>
        <time>2015-12-17T13:41:57.754Z</time>
      </trkpt>
      <trkpt lat="46.10704" lon="4.59436">
        <ele>474.312683105</ele>
        <time>2015-12-17T13:41:58.742Z</time>
      </trkpt>
      <trkpt lat="46.10702" lon="4.59424">
        <ele>473.062042236</ele>
        <time>2015-12-17T13:42:05.761Z</time>
      </trkpt>
      <trkpt lat="46.10702" lon="4.59422">
        <ele>472.999694824</ele>
        <time>2015-12-17T13:42:06.741Z</time>
      </trkpt>
      <trkpt lat="46.10701" lon="4.59409">
        <ele>472.770629883</ele>
        <time>2015-12-17T13:42:12.755Z</time>
      </trkpt>
      <trkpt lat="46.10701" lon="4.59407">
        <ele>472.740783691</ele>
        <time>2015-12-17T13:42:13.742Z</time>
      </trkpt>
      <trkpt lat="46.107" lon="4.59397">
        <ele>472.492462158</ele>
        <time>2015-12-17T13:42:18.754Z</time>
      </trkpt>
      <trkpt lat="46.107" lon="4.59394">
        <ele>472.433227539</ele>
        <time>2015-12-17T13:42:19.745Z</time>
      </trkpt>
      <trkpt lat="46.10695" lon="4.59385">
        <ele>471.537078857</ele>
        <time>2015-12-17T13:42:26.755Z</time>
      </trkpt>
      <trkpt lat="46.10694" lon="4.59384">
        <ele>471.410491943</ele>
        <time>2015-12-17T13:42:27.744Z</time>
      </trkpt>
      <trkpt lat="46.10689" lon="4.59375">
        <ele>470.220123291</ele>
        <time>2015-12-17T13:42:33.757Z</time>
      </trkpt>
      <trkpt lat="46.10689" lon="4.59374">
        <ele>470.084625244</ele>
        <time>2015-12-17T13:42:34.744Z</time>
      </trkpt>
      <trkpt lat="46.10683" lon="4.59364">
        <ele>469.054046631</ele>
        <time>2015-12-17T13:42:40.754Z</time>
      </trkpt>
      <trkpt lat="46.10682" lon="4.59363">
        <ele>468.817230225</ele>
        <time>2015-12-17T13:42:41.744Z</time>
      </trkpt>
      <trkpt lat="46.10679" lon="4.59351">
        <ele>467.166473389</ele>
        <time>2015-12-17T13:42:48.756Z</time>
      </trkpt>
      <trkpt lat="46.10678" lon="4.5935">
        <ele>466.975219727</ele>
        <time>2015-12-17T13:42:49.745Z</time>
      </trkpt>
      <trkpt lat="46.10673" lon="4.59341">
        <ele>465.735290527</ele>
        <time>2015-12-17T13:42:55.762Z</time>
      </trkpt>
      <trkpt lat="46.10673" lon="4.59339">
        <ele>465.48840332</ele>
        <time>2015-12-17T13:42:56.748Z</time>
      </trkpt>
      <trkpt lat="46.10668" lon="4.5933">
        <ele>464.108520508</ele>
        <time>2015-12-17T13:43:03.757Z</time>
      </trkpt>
      <trkpt lat="46.10668" lon="4.59328">
        <ele>463.894195557</ele>
        <time>2015-12-17T13:43:04.746Z</time>
      </trkpt>
      <trkpt lat="46.10661" lon="4.59321">
        <ele>462.856689453</ele>
        <time>2015-12-17T13:43:09.733Z</time>
      </trkpt>
      <trkpt lat="46.10659" lon="4.59321">
        <ele>462.646453857</ele>
        <time>2015-12-17T13:43:10.723Z</time>
      </trkpt>
      <trkpt lat="46.10651" lon="4.59315">
        <ele>461.533630371</ele>
        <time>2015-12-17T13:43:16.739Z</time>
      </trkpt>
      <trkpt lat="46.10652" lon="4.59314">
        <ele>461.415679932</ele>
        <time>2015-12-17T13:43:17.722Z</time>
      </trkpt>
      <trkpt lat="46.10646" lon="4.59304">
        <ele>461.529174805</ele>
        <time>2015-12-17T13:43:26.741Z</time>
      </trkpt>
      <trkpt lat="46.10645" lon="4.59302">
        <ele>461.661102295</ele>
        <time>2015-12-17T13:43:27.723Z</time>
      </trkpt>
      <trkpt lat="46.10643" lon="4.5929">
        <ele>461.195800781</ele>
        <time>2015-12-17T13:43:39.733Z</time>
      </trkpt>
      <trkpt lat="46.10643" lon="4.59288">
        <ele>461.185333252</ele>
        <time>2015-12-17T13:43:40.722Z</time>
      </trkpt>
      <trkpt lat="46.10641" lon="4.59277">
        <ele>462.359558105</ele>
        <time>2015-12-17T13:43:47.745Z</time>
      </trkpt>
      <trkpt lat="46.10641" lon="4.59275">
        <ele>462.385192871</ele>
        <time>2015-12-17T13:43:48.728Z</time>
      </trkpt>
      <trkpt lat="46.10645" lon="4.59263">
        <ele>463.753173828</ele>
        <time>2015-12-17T13:43:57.735Z</time>
      </trkpt>
      <trkpt lat="46.10645" lon="4.59262">
        <ele>463.644287109</ele>
        <time>2015-12-17T13:43:58.727Z</time>
      </trkpt>
      <trkpt lat="46.10652" lon="4.59255">
        <ele>461.870178223</ele>
        <time>2015-12-17T13:44:03.736Z</time>
      </trkpt>
      <trkpt lat="46.10653" lon="4.59255">
        <ele>461.588684082</ele>
        <time>2015-12-17T13:44:04.727Z</time>
      </trkpt>
      <trkpt lat="46.10661" lon="4.59251">
        <ele>460.624786377</ele>
        <time>2015-12-17T13:44:09.735Z</time>
      </trkpt>
      <trkpt lat="46.10662" lon="4.59249">
        <ele>460.352142334</ele>
        <time>2015-12-17T13:44:10.727Z</time>
      </trkpt>
      <trkpt lat="46.10669" lon="4.59243">
        <ele>457.618011475</ele>
        <time>2015-12-17T13:44:19.742Z</time>
      </trkpt>
      <trkpt lat="46.1067" lon="4.59243">
        <ele>457.392303467</ele>
        <time>2015-12-17T13:44:20.726Z</time>
      </trkpt>
      <trkpt lat="46.10677" lon="4.59237">
        <ele>455.863708496</ele>
        <time>2015-12-17T13:44:28.743Z</time>
      </trkpt>
      <trkpt lat="46.10679" lon="4.59237">
        <ele>455.709533691</ele>
        <time>2015-12-17T13:44:29.727Z</time>
      </trkpt>
      <trkpt lat="46.10687" lon="4.59235">
        <ele>454.497314453</ele>
        <time>2015-12-17T13:44:34.738Z</time>
      </trkpt>
      <trkpt lat="46.10689" lon="4.59235">
        <ele>454.268951416</ele>
        <time>2015-12-17T13:44:35.728Z</time>
      </trkpt>
      <trkpt lat="46.10696" lon="4.59232">
        <ele>453.086395264</ele>
        <time>2015-12-17T13:44:39.747Z</time>
      </trkpt>
      <trkpt lat="46.10698" lon="4.59231">
        <ele>452.786407471</ele>
        <time>2015-12-17T13:44:40.727Z</time>
      </trkpt>
      <trkpt lat="46.10705" lon="4.59227">
        <ele>449.968811035</ele>
        <time>2015-12-17T13:44:47.741Z</time>
      </trkpt>
      <trkpt lat="46.10706" lon="4.59226">
        <ele>449.612854004</ele>
        <time>2015-12-17T13:44:48.729Z</time>
      </trkpt>
      <trkpt lat="46.10714" lon="4.59223">
        <ele>447.94909668</ele>
        <time>2015-12-17T13:44:55.744Z</time>
      </trkpt>
      <trkpt lat="46.10715" lon="4.59222">
        <ele>447.862335205</ele>
        <time>2015-12-17T13:44:56.729Z</time>
      </trkpt>
      <trkpt lat="46.10723" lon="4.59219">
        <ele>446.67855835</ele>
        <time>2015-12-17T13:45:05.744Z</time>
      </trkpt>
      <trkpt lat="46.10724" lon="4.59219">
        <ele>446.345336914</ele>
        <time>2015-12-17T13:45:06.73Z</time>
      </trkpt>
      <trkpt lat="46.10732" lon="4.59218">
        <ele>445.307678223</ele>
        <time>2015-12-17T13:45:11.745Z</time>
      </trkpt>
      <trkpt lat="46.10734" lon="4.59219">
        <ele>445.024291992</ele>
        <time>2015-12-17T13:45:12.73Z</time>
      </trkpt>
      <trkpt lat="46.10742" lon="4.59219">
        <ele>443.349853516</ele>
        <time>2015-12-17T13:45:18.742Z</time>
      </trkpt>
      <trkpt lat="46.10743" lon="4.59218">
        <ele>443.161499023</ele>
        <time>2015-12-17T13:45:19.73Z</time>
      </trkpt>
      <trkpt lat="46.10752" lon="4.59218">
        <ele>441.515441895</ele>
        <time>2015-12-17T13:45:26.74Z</time>
      </trkpt>
      <trkpt lat="46.10753" lon="4.59218">
        <ele>441.289031982</ele>
        <time>2015-12-17T13:45:27.732Z</time>
      </trkpt>
      <trkpt lat="46.10762" lon="4.59218">
        <ele>439.677612305</ele>
        <time>2015-12-17T13:45:32.742Z</time>
      </trkpt>
      <trkpt lat="46.10763" lon="4.59218">
        <ele>439.412872314</ele>
        <time>2015-12-17T13:45:33.732Z</time>
      </trkpt>
      <trkpt lat="46.10772" lon="4.59217">
        <ele>436.679962158</ele>
        <time>2015-12-17T13:45:41.749Z</time>
      </trkpt>
      <trkpt lat="46.10774" lon="4.59217">
        <ele>436.31842041</ele>
        <time>2015-12-17T13:45:42.732Z</time>
      </trkpt>
      <trkpt lat="46.10782" lon="4.59216">
        <ele>435.129180908</ele>
        <time>2015-12-17T13:45:46.743Z</time>
      </trkpt>
      <trkpt lat="46.10784" lon="4.59216">
        <ele>434.757446289</ele>
        <time>2015-12-17T13:45:47.735Z</time>
      </trkpt>
      <trkpt lat="46.10793" lon="4.59214">
        <ele>432.489074707</ele>
        <time>2015-12-17T13:45:54.747Z</time>
      </trkpt>
      <trkpt lat="46.10794" lon="4.59213">
        <ele>432.187835693</ele>
        <time>2015-12-17T13:45:55.733Z</time>
      </trkpt>
      <trkpt lat="46.10801" lon="4.59208">
        <ele>429.860839844</ele>
        <time>2015-12-17T13:46:02.748Z</time>
      </trkpt>
      <trkpt lat="46.10802" lon="4.59207">
        <ele>429.579864502</ele>
        <time>2015-12-17T13:46:03.733Z</time>
      </trkpt>
      <trkpt lat="46.10808" lon="4.592">
        <ele>427.359802246</ele>
        <time>2015-12-17T13:46:11.748Z</time>
      </trkpt>
      <trkpt lat="46.10811" lon="4.59197">
        <ele>426.999359131</ele>
        <time>2015-12-17T13:46:12.735Z</time>
      </trkpt>
      <trkpt lat="46.10816" lon="4.59188">
        <ele>425.4659729</ele>
        <time>2015-12-17T13:46:16.746Z</time>
      </trkpt>
      <trkpt lat="46.10817" lon="4.59187">
        <ele>425.096710205</ele>
        <time>2015-12-17T13:46:17.737Z</time>
      </trkpt>
      <trkpt lat="46.1082" lon="4.59177">
        <ele>422.890808105</ele>
        <time>2015-12-17T13:46:22.748Z</time>
      </trkpt>
      <trkpt lat="46.10821" lon="4.59174">
        <ele>422.455596924</ele>
        <time>2015-12-17T13:46:23.736Z</time>
      </trkpt>
      <trkpt lat="46.10823" lon="4.59163">
        <ele>419.622039795</ele>
        <time>2015-12-17T13:46:31.747Z</time>
      </trkpt>
      <trkpt lat="46.10823" lon="4.59161">
        <ele>419.322692871</ele>
        <time>2015-12-17T13:46:32.736Z</time>
      </trkpt>
      <trkpt lat="46.10825" lon="4.59151">
        <ele>417.327423096</ele>
        <time>2015-12-17T13:46:38.748Z</time>
      </trkpt>
      <trkpt lat="46.10825" lon="4.59147">
        <ele>416.947418213</ele>
        <time>2015-12-17T13:46:39.736Z</time>
      </trkpt>
      <trkpt lat="46.10826" lon="4.59134">
        <ele>414.042663574</ele>
        <time>2015-12-17T13:46:47.748Z</time>
      </trkpt>
      <trkpt lat="46.10826" lon="4.59132">
        <ele>413.716156006</ele>
        <time>2015-12-17T13:46:48.737Z</time>
      </trkpt>
      <trkpt lat="46.10827" lon="4.5912">
        <ele>412.036254883</ele>
        <time>2015-12-17T13:46:54.751Z</time>
      </trkpt>
      <trkpt lat="46.10827" lon="4.59118">
        <ele>411.774932861</ele>
        <time>2015-12-17T13:46:55.738Z</time>
      </trkpt>
      <trkpt lat="46.10826" lon="4.59105">
        <ele>409.666320801</ele>
        <time>2015-12-17T13:47:06.751Z</time>
      </trkpt>
      <trkpt lat="46.10826" lon="4.59102">
        <ele>409.60269165</ele>
        <time>2015-12-17T13:47:07.762Z</time>
      </trkpt>
      <trkpt lat="46.10824" lon="4.59091">
        <ele>409.449951172</ele>
        <time>2015-12-17T13:47:16.754Z</time>
      </trkpt>
      <trkpt lat="46.10824" lon="4.59088">
        <ele>409.477752686</ele>
        <time>2015-12-17T13:47:17.762Z</time>
      </trkpt>
      <trkpt lat="46.10821" lon="4.59077">
        <ele>409.827667236</ele>
        <time>2015-12-17T13:47:24.755Z</time>
      </trkpt>
      <trkpt lat="46.10821" lon="4.59075">
        <ele>409.798858643</ele>
        <time>2015-12-17T13:47:25.742Z</time>
      </trkpt>
      <trkpt lat="46.10818" lon="4.59063">
        <ele>409.871124268</ele>
        <time>2015-12-17T13:47:32.751Z</time>
      </trkpt>
      <trkpt lat="46.10818" lon="4.59061">
        <ele>409.878997803</ele>
        <time>2015-12-17T13:47:33.741Z</time>
      </trkpt>
      <trkpt lat="46.10818" lon="4.5905">
        <ele>409.218444824</ele>
        <time>2015-12-17T13:47:39.755Z</time>
      </trkpt>
      <trkpt lat="46.10818" lon="4.59047">
        <ele>409.124572754</ele>
        <time>2015-12-17T13:47:40.741Z</time>
      </trkpt>
      <trkpt lat="46.10816" lon="4.59036">
        <ele>408.363220215</ele>
        <time>2015-12-17T13:47:47.761Z</time>
      </trkpt>
      <trkpt lat="46.10816" lon="4.59035">
        <ele>408.290008545</ele>
        <time>2015-12-17T13:47:48.741Z</time>
      </trkpt>
      <trkpt lat="46.10815" lon="4.59025">
        <ele>407.782775879</ele>
        <time>2015-12-17T13:47:52.752Z</time>
      </trkpt>
      <trkpt lat="46.10816" lon="4.59022">
        <ele>407.680114746</ele>
        <time>2015-12-17T13:47:53.742Z</time>
      </trkpt>
      <trkpt lat="46.10818" lon="4.5901">
        <ele>407.33215332</ele>
        <time>2015-12-17T13:47:57.758Z</time>
      </trkpt>
      <trkpt lat="46.10818" lon="4.59008">
        <ele>407.207489014</ele>
        <time>2015-12-17T13:47:58.743Z</time>
      </trkpt>
      <trkpt lat="46.10819" lon="4.58995">
        <ele>406.02746582</ele>
        <time>2015-12-17T13:48:06.755Z</time>
      </trkpt>
      <trkpt lat="46.10818" lon="4.58992">
        <ele>405.953399658</ele>
        <time>2015-12-17T13:48:07.743Z</time>
      </trkpt>
      <trkpt lat="46.10817" lon="4.5898">
        <ele>404.871826172</ele>
        <time>2015-12-17T13:48:14.755Z</time>
      </trkpt>
      <trkpt lat="46.10817" lon="4.58979">
        <ele>404.742828369</ele>
        <time>2015-12-17T13:48:15.744Z</time>
      </trkpt>
      <trkpt lat="46.10815" lon="4.58967">
        <ele>404.541900635</ele>
        <time>2015-12-17T13:48:20.757Z</time>
      </trkpt>
      <trkpt lat="46.10815" lon="4.58965">
        <ele>404.553649902</ele>
        <time>2015-12-17T13:48:21.745Z</time>
      </trkpt>
      <trkpt lat="46.10813" lon="4.58954">
        <ele>404.214447021</ele>
        <time>2015-12-17T13:48:27.742Z</time>
      </trkpt>
      <trkpt lat="46.10812" lon="4.58952">
        <ele>404.146942139</ele>
        <time>2015-12-17T13:48:28.721Z</time>
      </trkpt>
      <trkpt lat="46.1081" lon="4.58942">
        <ele>403.907836914</ele>
        <time>2015-12-17T13:48:35.734Z</time>
      </trkpt>
      <trkpt lat="46.10809" lon="4.58939">
        <ele>403.882720947</ele>
        <time>2015-12-17T13:48:36.721Z</time>
      </trkpt>
      <trkpt lat="46.10805" lon="4.5893">
        <ele>403.187957764</ele>
        <time>2015-12-17T13:48:42.733Z</time>
      </trkpt>
      <trkpt lat="46.10804" lon="4.58925">
        <ele>403.015625</ele>
        <time>2015-12-17T13:48:43.721Z</time>
      </trkpt>
      <trkpt lat="46.1081" lon="4.58917">
        <ele>400.742645264</ele>
        <time>2015-12-17T13:48:52.736Z</time>
      </trkpt>
      <trkpt lat="46.10811" lon="4.58917">
        <ele>400.459136963</ele>
        <time>2015-12-17T13:48:53.722Z</time>
      </trkpt>
      <trkpt lat="46.10817" lon="4.5892">
        <ele>398.37802124</ele>
        <time>2015-12-17T13:49:00.928Z</time>
      </trkpt>
      <trkpt lat="46.1082" lon="4.58922">
        <ele>398.125732422</ele>
        <time>2015-12-17T13:49:01.723Z</time>
      </trkpt>
      <trkpt lat="46.10828" lon="4.58926">
        <ele>396.497528076</ele>
        <time>2015-12-17T13:49:08.742Z</time>
      </trkpt>
      <trkpt lat="46.10829" lon="4.58927">
        <ele>396.333312988</ele>
        <time>2015-12-17T13:49:09.724Z</time>
      </trkpt>
      <trkpt lat="46.10837" lon="4.58934">
        <ele>394.672637939</ele>
        <time>2015-12-17T13:49:23.738Z</time>
      </trkpt>
      <trkpt lat="46.10837" lon="4.58935">
        <ele>394.615905762</ele>
        <time>2015-12-17T13:49:24.724Z</time>
      </trkpt>
      <trkpt lat="46.10835" lon="4.58947">
        <ele>396.142700195</ele>
        <time>2015-12-17T13:49:58.741Z</time>
      </trkpt>
      <trkpt lat="46.10834" lon="4.58947">
        <ele>396.12802124</ele>
        <time>2015-12-17T13:49:59.727Z</time>
      </trkpt>
      <trkpt lat="46.10842" lon="4.58954">
        <ele>393.479522705</ele>
        <time>2015-12-17T13:50:33.744Z</time>
      </trkpt>
      <trkpt lat="46.10843" lon="4.58955">
        <ele>393.37097168</ele>
        <time>2015-12-17T13:50:34.729Z</time>
      </trkpt>
      <trkpt lat="46.10848" lon="4.58961">
        <ele>393.120483398</ele>
        <time>2015-12-17T13:50:39.746Z</time>
      </trkpt>
      <trkpt lat="46.1085" lon="4.58963">
        <ele>393.097991943</ele>
        <time>2015-12-17T13:50:40.73Z</time>
      </trkpt>
      <trkpt lat="46.10858" lon="4.5897">
        <ele>392.820587158</ele>
        <time>2015-12-17T13:50:45.743Z</time>
      </trkpt>
      <trkpt lat="46.10861" lon="4.58974">
        <ele>392.756530762</ele>
        <time>2015-12-17T13:50:46.73Z</time>
      </trkpt>
      <trkpt lat="46.10866" lon="4.58983">
        <ele>392.08807373</ele>
        <time>2015-12-17T13:50:54.743Z</time>
      </trkpt>
      <trkpt lat="46.10867" lon="4.58984">
        <ele>391.988525391</ele>
        <time>2015-12-17T13:50:55.731Z</time>
      </trkpt>
      <trkpt lat="46.10871" lon="4.58994">
        <ele>391.184356689</ele>
        <time>2015-12-17T13:51:00.743Z</time>
      </trkpt>
      <trkpt lat="46.10871" lon="4.58996">
        <ele>390.885437012</ele>
        <time>2015-12-17T13:51:01.734Z</time>
      </trkpt>
      <trkpt lat="46.10874" lon="4.59006">
        <ele>389.597900391</ele>
        <time>2015-12-17T13:51:07.744Z</time>
      </trkpt>
      <trkpt lat="46.10876" lon="4.59008">
        <ele>389.379089355</ele>
        <time>2015-12-17T13:51:08.733Z</time>
      </trkpt>
      <trkpt lat="46.10879" lon="4.59018">
        <ele>387.894714355</ele>
        <time>2015-12-17T13:51:14.744Z</time>
      </trkpt>
      <trkpt lat="46.1088" lon="4.5902">
        <ele>387.56817627</ele>
        <time>2015-12-17T13:51:15.732Z</time>
      </trkpt>
      <trkpt lat="46.10883" lon="4.59029">
        <ele>385.937042236</ele>
        <time>2015-12-17T13:51:20.743Z</time>
      </trkpt>
      <trkpt lat="46.10885" lon="4.59032">
        <ele>385.458770752</ele>
        <time>2015-12-17T13:51:21.734Z</time>
      </trkpt>
      <trkpt lat="46.10887" lon="4.59038">
        <ele>385.012176514</ele>
        <time>2015-12-17T13:51:22.75Z</time>
      </trkpt>
      <trkpt lat="46.10889" lon="4.59044">
        <ele>384.505004883</ele>
        <time>2015-12-17T13:51:23.733Z</time>
      </trkpt>
      <trkpt lat="46.10891" lon="4.59055">
        <ele>382.928894043</ele>
        <time>2015-12-17T13:51:26.748Z</time>
      </trkpt>
      <trkpt lat="46.10892" lon="4.59057">
        <ele>382.423919678</ele>
        <time>2015-12-17T13:51:27.734Z</time>
      </trkpt>
      <trkpt lat="46.10898" lon="4.59067">
        <ele>380.054656982</ele>
        <time>2015-12-17T13:51:32.748Z</time>
      </trkpt>
      <trkpt lat="46.10899" lon="4.59068">
        <ele>379.64151001</ele>
        <time>2015-12-17T13:51:33.735Z</time>
      </trkpt>
      <trkpt lat="46.10905" lon="4.59073">
        <ele>377.573730469</ele>
        <time>2015-12-17T13:51:38.744Z</time>
      </trkpt>
      <trkpt lat="46.10906" lon="4.59075">
        <ele>377.143280029</ele>
        <time>2015-12-17T13:51:39.738Z</time>
      </trkpt>
      <trkpt lat="46.10913" lon="4.59082">
        <ele>375.141082764</ele>
        <time>2015-12-17T13:51:45.769Z</time>
      </trkpt>
      <trkpt lat="46.10914" lon="4.59084">
        <ele>374.836791992</ele>
        <time>2015-12-17T13:51:46.735Z</time>
      </trkpt>
      <trkpt lat="46.10922" lon="4.59088">
        <ele>372.907714844</ele>
        <time>2015-12-17T13:51:52.748Z</time>
      </trkpt>
      <trkpt lat="46.10923" lon="4.59088">
        <ele>372.558502197</ele>
        <time>2015-12-17T13:51:53.735Z</time>
      </trkpt>
      <trkpt lat="46.10932" lon="4.59092">
        <ele>370.036468506</ele>
        <time>2015-12-17T13:52:01.75Z</time>
      </trkpt>
      <trkpt lat="46.10933" lon="4.59092">
        <ele>369.817230225</ele>
        <time>2015-12-17T13:52:02.735Z</time>
      </trkpt>
      <trkpt lat="46.1094" lon="4.59098">
        <ele>368.441955566</ele>
        <time>2015-12-17T13:52:09.749Z</time>
      </trkpt>
      <trkpt lat="46.10942" lon="4.59099">
        <ele>368.180328369</ele>
        <time>2015-12-17T13:52:10.763Z</time>
      </trkpt>
      <trkpt lat="46.10947" lon="4.59109">
        <ele>363.94519043</ele>
        <time>2015-12-17T13:53:01.756Z</time>
      </trkpt>
      <trkpt lat="46.10947" lon="4.59112">
        <ele>363.859436035</ele>
        <time>2015-12-17T13:53:02.74Z</time>
      </trkpt>
      <trkpt lat="46.10949" lon="4.59124">
        <ele>362.423583984</ele>
        <time>2015-12-17T13:53:13.756Z</time>
      </trkpt>
      <trkpt lat="46.10948" lon="4.59126">
        <ele>362.329315186</ele>
        <time>2015-12-17T13:53:14.745Z</time>
      </trkpt>
      <trkpt lat="46.10947" lon="4.59136">
        <ele>361.412811279</ele>
        <time>2015-12-17T13:53:28.772Z</time>
      </trkpt>
      <trkpt lat="46.10947" lon="4.59139">
        <ele>361.302825928</ele>
        <time>2015-12-17T13:53:29.75Z</time>
      </trkpt>
      <trkpt lat="46.10948" lon="4.59148">
        <ele>360.969268799</ele>
        <time>2015-12-17T13:53:33.763Z</time>
      </trkpt>
      <trkpt lat="46.10948" lon="4.59153">
        <ele>361.048614502</ele>
        <time>2015-12-17T13:53:34.748Z</time>
      </trkpt>
      <trkpt lat="46.10947" lon="4.59165">
        <ele>360.93182373</ele>
        <time>2015-12-17T13:53:41.739Z</time>
      </trkpt>
      <trkpt lat="46.10947" lon="4.59168">
        <ele>360.826599121</ele>
        <time>2015-12-17T13:53:42.718Z</time>
      </trkpt>
      <trkpt lat="46.10946" lon="4.59179">
        <ele>360.252655029</ele>
        <time>2015-12-17T13:53:51.733Z</time>
      </trkpt>
      <trkpt lat="46.10946" lon="4.59181">
        <ele>360.256988525</ele>
        <time>2015-12-17T13:53:52.728Z</time>
      </trkpt>
      <trkpt lat="46.10947" lon="4.59191">
        <ele>360.499389648</ele>
        <time>2015-12-17T13:53:56.734Z</time>
      </trkpt>
      <trkpt lat="46.10948" lon="4.59196">
        <ele>360.638702393</ele>
        <time>2015-12-17T13:53:57.72Z</time>
      </trkpt>
      <trkpt lat="46.10952" lon="4.59207">
        <ele>361.049743652</ele>
        <time>2015-12-17T13:54:00.732Z</time>
      </trkpt>
      <trkpt lat="46.10953" lon="4.59209">
        <ele>361.226470947</ele>
        <time>2015-12-17T13:54:01.72Z</time>
      </trkpt>
      <trkpt lat="46.10956" lon="4.59221">
        <ele>362.218902588</ele>
        <time>2015-12-17T13:54:08.735Z</time>
      </trkpt>
      <trkpt lat="46.10956" lon="4.59222">
        <ele>362.320281982</ele>
        <time>2015-12-17T13:54:09.72Z</time>
      </trkpt>
      <trkpt lat="46.1096" lon="4.59234">
        <ele>363.888671875</ele>
        <time>2015-12-17T13:54:21.732Z</time>
      </trkpt>
      <trkpt lat="46.1096" lon="4.59235">
        <ele>364.0418396</ele>
        <time>2015-12-17T13:54:22.721Z</time>
      </trkpt>
      <trkpt lat="46.10963" lon="4.59246">
        <ele>364.852325439</ele>
        <time>2015-12-17T13:54:38.733Z</time>
      </trkpt>
      <trkpt lat="46.10964" lon="4.59251">
        <ele>364.968902588</ele>
        <time>2015-12-17T13:54:39.721Z</time>
      </trkpt>
      <trkpt lat="46.10966" lon="4.59258">
        <ele>365.243041992</ele>
        <time>2015-12-17T13:54:46.741Z</time>
      </trkpt>
      <trkpt lat="46.10969" lon="4.5927">
        <ele>365.318786621</ele>
        <time>2015-12-17T13:54:47.723Z</time>
      </trkpt>
      <trkpt lat="46.10972" lon="4.59281">
        <ele>365.252838135</ele>
        <time>2015-12-17T13:54:54.736Z</time>
      </trkpt>
      <trkpt lat="46.10973" lon="4.59283">
        <ele>365.146697998</ele>
        <time>2015-12-17T13:54:55.724Z</time>
      </trkpt>
      <trkpt lat="46.10976" lon="4.59294">
        <ele>364.463226318</ele>
        <time>2015-12-17T13:55:01.74Z</time>
      </trkpt>
      <trkpt lat="46.10976" lon="4.59295">
        <ele>364.430297852</ele>
        <time>2015-12-17T13:55:02.723Z</time>
      </trkpt>
      <trkpt lat="46.10979" lon="4.59304">
        <ele>364.39666748</ele>
        <time>2015-12-17T13:55:06.738Z</time>
      </trkpt>
      <trkpt lat="46.1098" lon="4.59308">
        <ele>364.357910156</ele>
        <time>2015-12-17T13:55:07.735Z</time>
      </trkpt>
      <trkpt lat="46.10984" lon="4.59319">
        <ele>364.300079346</ele>
        <time>2015-12-17T13:55:14.738Z</time>
      </trkpt>
      <trkpt lat="46.10984" lon="4.5932">
        <ele>364.22354126</ele>
        <time>2015-12-17T13:55:15.726Z</time>
      </trkpt>
      <trkpt lat="46.10988" lon="4.59331">
        <ele>364.355560303</ele>
        <time>2015-12-17T13:55:42.74Z</time>
      </trkpt>
      <trkpt lat="46.10988" lon="4.59331">
        <ele>364.322143555</ele>
        <time>2015-12-17T13:55:43.727Z</time>
      </trkpt>
      <trkpt lat="46.10989" lon="4.59344">
        <ele>363.512176514</ele>
        <time>2015-12-17T13:55:54.745Z</time>
      </trkpt>
      <trkpt lat="46.10989" lon="4.59346">
        <ele>363.416412354</ele>
        <time>2015-12-17T13:55:55.728Z</time>
      </trkpt>
      <trkpt lat="46.10989" lon="4.59358">
        <ele>363.091827393</ele>
        <time>2015-12-17T13:56:00.744Z</time>
      </trkpt>
      <trkpt lat="46.10989" lon="4.59361">
        <ele>363.105743408</ele>
        <time>2015-12-17T13:56:01.729Z</time>
      </trkpt>
      <trkpt lat="46.1099" lon="4.59373">
        <ele>363.160461426</ele>
        <time>2015-12-17T13:56:07.745Z</time>
      </trkpt>
      <trkpt lat="46.1099" lon="4.59375">
        <ele>363.151031494</ele>
        <time>2015-12-17T13:56:08.73Z</time>
      </trkpt>
      <trkpt lat="46.1099" lon="4.59386">
        <ele>362.096069336</ele>
        <time>2015-12-17T13:56:15.743Z</time>
      </trkpt>
      <trkpt lat="46.1099" lon="4.59388">
        <ele>362.022369385</ele>
        <time>2015-12-17T13:56:16.732Z</time>
      </trkpt>
      <trkpt lat="46.10991" lon="4.59399">
        <ele>361.191223145</ele>
        <time>2015-12-17T13:56:21.749Z</time>
      </trkpt>
      <trkpt lat="46.10991" lon="4.59401">
        <ele>361.039733887</ele>
        <time>2015-12-17T13:56:22.732Z</time>
      </trkpt>
      <trkpt lat="46.1099" lon="4.59412">
        <ele>360.046875</ele>
        <time>2015-12-17T13:56:27.741Z</time>
      </trkpt>
      <trkpt lat="46.1099" lon="4.59414">
        <ele>359.771606445</ele>
        <time>2015-12-17T13:56:28.739Z</time>
      </trkpt>
      <trkpt lat="46.10992" lon="4.59426">
        <ele>358.411529541</ele>
        <time>2015-12-17T13:56:34.748Z</time>
      </trkpt>
      <trkpt lat="46.10992" lon="4.59428">
        <ele>358.27355957</ele>
        <time>2015-12-17T13:56:35.733Z</time>
      </trkpt>
      <trkpt lat="46.10993" lon="4.5944">
        <ele>357.308380127</ele>
        <time>2015-12-17T13:56:41.747Z</time>
      </trkpt>
      <trkpt lat="46.10992" lon="4.59442">
        <ele>357.086303711</ele>
        <time>2015-12-17T13:56:42.737Z</time>
      </trkpt>
      <trkpt lat="46.10993" lon="4.59454">
        <ele>355.936523438</ele>
        <time>2015-12-17T13:56:48.938Z</time>
      </trkpt>
      <trkpt lat="46.10993" lon="4.59456">
        <ele>355.821990967</ele>
        <time>2015-12-17T13:56:49.733Z</time>
      </trkpt>
      <trkpt lat="46.10993" lon="4.59467">
        <ele>355.544219971</ele>
        <time>2015-12-17T13:56:54.747Z</time>
      </trkpt>
      <trkpt lat="46.10993" lon="4.5947">
        <ele>355.414916992</ele>
        <time>2015-12-17T13:56:55.734Z</time>
      </trkpt>
      <trkpt lat="46.10994" lon="4.59482">
        <ele>354.217590332</ele>
        <time>2015-12-17T13:57:01.746Z</time>
      </trkpt>
      <trkpt lat="46.10994" lon="4.59484">
        <ele>354.143707275</ele>
        <time>2015-12-17T13:57:02.733Z</time>
      </trkpt>
      <trkpt lat="46.10995" lon="4.59497">
        <ele>354.45489502</ele>
        <time>2015-12-17T13:57:08.746Z</time>
      </trkpt>
      <trkpt lat="46.10994" lon="4.59499">
        <ele>354.547393799</ele>
        <time>2015-12-17T13:57:09.734Z</time>
      </trkpt>
      <trkpt lat="46.10993" lon="4.59511">
        <ele>354.740570068</ele>
        <time>2015-12-17T13:57:15.746Z</time>
      </trkpt>
      <trkpt lat="46.10994" lon="4.59513">
        <ele>354.774230957</ele>
        <time>2015-12-17T13:57:16.735Z</time>
      </trkpt>
      <trkpt lat="46.10993" lon="4.59525">
        <ele>354.481414795</ele>
        <time>2015-12-17T13:57:22.76Z</time>
      </trkpt>
      <trkpt lat="46.10993" lon="4.59527">
        <ele>354.454040527</ele>
        <time>2015-12-17T13:57:23.735Z</time>
      </trkpt>
      <trkpt lat="46.10996" lon="4.59539">
        <ele>354.792205811</ele>
        <time>2015-12-17T13:57:30.749Z</time>
      </trkpt>
      <trkpt lat="46.10995" lon="4.5954">
        <ele>354.902893066</ele>
        <time>2015-12-17T13:57:31.739Z</time>
      </trkpt>
      <trkpt lat="46.10995" lon="4.59552">
        <ele>355.821136475</ele>
        <time>2015-12-17T13:57:36.748Z</time>
      </trkpt>
      <trkpt lat="46.10995" lon="4.59554">
        <ele>355.981933594</ele>
        <time>2015-12-17T13:57:37.737Z</time>
      </trkpt>
      <trkpt lat="46.10995" lon="4.59566">
        <ele>355.999633789</ele>
        <time>2015-12-17T13:57:42.929Z</time>
      </trkpt>
      <trkpt lat="46.10995" lon="4.59568">
        <ele>355.947784424</ele>
        <time>2015-12-17T13:57:43.738Z</time>
      </trkpt>
      <trkpt lat="46.10996" lon="4.59579">
        <ele>356.164306641</ele>
        <time>2015-12-17T13:57:49.761Z</time>
      </trkpt>
      <trkpt lat="46.10996" lon="4.59581">
        <ele>356.164001465</ele>
        <time>2015-12-17T13:57:50.737Z</time>
      </trkpt>
      <trkpt lat="46.10997" lon="4.59592">
        <ele>356.667266846</ele>
        <time>2015-12-17T13:57:55.749Z</time>
      </trkpt>
      <trkpt lat="46.10997" lon="4.59594">
        <ele>356.70199585</ele>
        <time>2015-12-17T13:57:56.738Z</time>
      </trkpt>
      <trkpt lat="46.10998" lon="4.59606">
        <ele>356.921264648</ele>
        <time>2015-12-17T13:58:02.756Z</time>
      </trkpt>
      <trkpt lat="46.10998" lon="4.59609">
        <ele>357.038574219</ele>
        <time>2015-12-17T13:58:03.738Z</time>
      </trkpt>
      <trkpt lat="46.10999" lon="4.5962">
        <ele>358.001586914</ele>
        <time>2015-12-17T13:58:09.75Z</time>
      </trkpt>
      <trkpt lat="46.11" lon="4.59623">
        <ele>358.112365723</ele>
        <time>2015-12-17T13:58:10.739Z</time>
      </trkpt>
      <trkpt lat="46.11001" lon="4.59635">
        <ele>358.590332031</ele>
        <time>2015-12-17T13:58:16.75Z</time>
      </trkpt>
      <trkpt lat="46.11001" lon="4.59637">
        <ele>358.64074707</ele>
        <time>2015-12-17T13:58:17.74Z</time>
      </trkpt>
      <trkpt lat="46.11002" lon="4.59649">
        <ele>358.91192627</ele>
        <time>2015-12-17T13:58:23.751Z</time>
      </trkpt>
      <trkpt lat="46.11002" lon="4.59651">
        <ele>358.993621826</ele>
        <time>2015-12-17T13:58:24.74Z</time>
      </trkpt>
      <trkpt lat="46.11003" lon="4.59662">
        <ele>359.266662598</ele>
        <time>2015-12-17T13:58:29.851Z</time>
      </trkpt>
      <trkpt lat="46.11003" lon="4.59664">
        <ele>359.363616943</ele>
        <time>2015-12-17T13:58:30.74Z</time>
      </trkpt>
      <trkpt lat="46.11003" lon="4.59676">
        <ele>358.978607178</ele>
        <time>2015-12-17T13:58:36.758Z</time>
      </trkpt>
      <trkpt lat="46.11004" lon="4.59678">
        <ele>358.852264404</ele>
        <time>2015-12-17T13:58:37.741Z</time>
      </trkpt>
      <trkpt lat="46.11005" lon="4.59688">
        <ele>358.672302246</ele>
        <time>2015-12-17T13:58:42.752Z</time>
      </trkpt>
      <trkpt lat="46.11005" lon="4.59691">
        <ele>358.67791748</ele>
        <time>2015-12-17T13:58:43.742Z</time>
      </trkpt>
      <trkpt lat="46.11006" lon="4.59702">
        <ele>358.543609619</ele>
        <time>2015-12-17T13:58:49.754Z</time>
      </trkpt>
      <trkpt lat="46.11006" lon="4.59704">
        <ele>358.635314941</ele>
        <time>2015-12-17T13:58:50.741Z</time>
      </trkpt>
      <trkpt lat="46.11006" lon="4.59715">
        <ele>358.476501465</ele>
        <time>2015-12-17T13:58:55.729Z</time>
      </trkpt>
      <trkpt lat="46.11006" lon="4.59717">
        <ele>358.395263672</ele>
        <time>2015-12-17T13:58:56.717Z</time>
      </trkpt>
      <trkpt lat="46.11005" lon="4.59729">
        <ele>357.859588623</ele>
        <time>2015-12-17T13:59:02.73Z</time>
      </trkpt>
      <trkpt lat="46.11005" lon="4.59731">
        <ele>357.811004639</ele>
        <time>2015-12-17T13:59:03.717Z</time>
      </trkpt>
      <trkpt lat="46.11005" lon="4.59743">
        <ele>357.958374023</ele>
        <time>2015-12-17T13:59:08.742Z</time>
      </trkpt>
      <trkpt lat="46.11005" lon="4.59745">
        <ele>358.036468506</ele>
        <time>2015-12-17T13:59:09.717Z</time>
      </trkpt>
      <trkpt lat="46.11003" lon="4.59758">
        <ele>357.92098999</ele>
        <time>2015-12-17T13:59:15.735Z</time>
      </trkpt>
      <trkpt lat="46.11003" lon="4.5976">
        <ele>357.858856201</ele>
        <time>2015-12-17T13:59:16.719Z</time>
      </trkpt>
      <trkpt lat="46.11002" lon="4.59772">
        <ele>357.793609619</ele>
        <time>2015-12-17T13:59:22.734Z</time>
      </trkpt>
      <trkpt lat="46.11002" lon="4.59774">
        <ele>357.845153809</ele>
        <time>2015-12-17T13:59:23.719Z</time>
      </trkpt>
      <trkpt lat="46.11" lon="4.59785">
        <ele>358.135253906</ele>
        <time>2015-12-17T13:59:28.731Z</time>
      </trkpt>
      <trkpt lat="46.11" lon="4.59788">
        <ele>358.208618164</ele>
        <time>2015-12-17T13:59:29.72Z</time>
      </trkpt>
      <trkpt lat="46.10999" lon="4.59799">
        <ele>357.97833252</ele>
        <time>2015-12-17T13:59:35.732Z</time>
      </trkpt>
      <trkpt lat="46.10999" lon="4.59801">
        <ele>358.076873779</ele>
        <time>2015-12-17T13:59:36.72Z</time>
      </trkpt>
      <trkpt lat="46.10999" lon="4.59813">
        <ele>358.947357178</ele>
        <time>2015-12-17T13:59:43.735Z</time>
      </trkpt>
      <trkpt lat="46.10999" lon="4.59815">
        <ele>359.024536133</ele>
        <time>2015-12-17T13:59:44.72Z</time>
      </trkpt>
      <trkpt lat="46.10995" lon="4.59825">
        <ele>359.194702148</ele>
        <time>2015-12-17T13:59:49.734Z</time>
      </trkpt>
      <trkpt lat="46.10995" lon="4.59827">
        <ele>359.18560791</ele>
        <time>2015-12-17T13:59:50.72Z</time>
      </trkpt>
      <trkpt lat="46.10994" lon="4.59839">
        <ele>358.621673584</ele>
        <time>2015-12-17T13:59:57.732Z</time>
      </trkpt>
      <trkpt lat="46.10994" lon="4.59841">
        <ele>358.433166504</ele>
        <time>2015-12-17T13:59:58.721Z</time>
      </trkpt>
      <trkpt lat="46.10994" lon="4.59852">
        <ele>357.536651611</ele>
        <time>2015-12-17T14:00:04.737Z</time>
      </trkpt>
      <trkpt lat="46.10994" lon="4.59854">
        <ele>357.433563232</ele>
        <time>2015-12-17T14:00:05.722Z</time>
      </trkpt>
      <trkpt lat="46.10993" lon="4.59866">
        <ele>357.343536377</ele>
        <time>2015-12-17T14:00:12.735Z</time>
      </trkpt>
      <trkpt lat="46.10993" lon="4.59867">
        <ele>357.436553955</ele>
        <time>2015-12-17T14:00:13.722Z</time>
      </trkpt>
      <trkpt lat="46.10992" lon="4.59878">
        <ele>357.755126953</ele>
        <time>2015-12-17T14:00:19.734Z</time>
      </trkpt>
      <trkpt lat="46.10991" lon="4.5988">
        <ele>357.823150635</ele>
        <time>2015-12-17T14:00:20.765Z</time>
      </trkpt>
      <trkpt lat="46.10991" lon="4.59893">
        <ele>357.8387146</ele>
        <time>2015-12-17T14:00:27.735Z</time>
      </trkpt>
      <trkpt lat="46.10991" lon="4.59895">
        <ele>357.898956299</ele>
        <time>2015-12-17T14:00:28.723Z</time>
      </trkpt>
      <trkpt lat="46.10991" lon="4.59907">
        <ele>358.378662109</ele>
        <time>2015-12-17T14:00:35.736Z</time>
      </trkpt>
      <trkpt lat="46.10991" lon="4.59909">
        <ele>358.423736572</ele>
        <time>2015-12-17T14:00:36.724Z</time>
      </trkpt>
      <trkpt lat="46.1099" lon="4.59921">
        <ele>359.158752441</ele>
        <time>2015-12-17T14:00:43.735Z</time>
      </trkpt>
      <trkpt lat="46.1099" lon="4.59922">
        <ele>359.280700684</ele>
        <time>2015-12-17T14:00:44.725Z</time>
      </trkpt>
      <trkpt lat="46.1099" lon="4.59934">
        <ele>360.375061035</ele>
        <time>2015-12-17T14:00:50.739Z</time>
      </trkpt>
      <trkpt lat="46.1099" lon="4.59936">
        <ele>360.58694458</ele>
        <time>2015-12-17T14:00:51.735Z</time>
      </trkpt>
      <trkpt lat="46.1099" lon="4.59948">
        <ele>361.6690979</ele>
        <time>2015-12-17T14:00:59.74Z</time>
      </trkpt>
      <trkpt lat="46.1099" lon="4.5995">
        <ele>361.759613037</ele>
        <time>2015-12-17T14:01:00.74Z</time>
      </trkpt>
      <trkpt lat="46.10988" lon="4.59962">
        <ele>361.619567871</ele>
        <time>2015-12-17T14:01:06.74Z</time>
      </trkpt>
      <trkpt lat="46.10988" lon="4.59964">
        <ele>361.625640869</ele>
        <time>2015-12-17T14:01:07.725Z</time>
      </trkpt>
      <trkpt lat="46.10988" lon="4.59976">
        <ele>361.712036133</ele>
        <time>2015-12-17T14:01:13.738Z</time>
      </trkpt>
      <trkpt lat="46.10988" lon="4.59978">
        <ele>361.782012939</ele>
        <time>2015-12-17T14:01:14.728Z</time>
      </trkpt>
      <trkpt lat="46.10987" lon="4.5999">
        <ele>362.341705322</ele>
        <time>2015-12-17T14:01:22.745Z</time>
      </trkpt>
      <trkpt lat="46.10987" lon="4.59991">
        <ele>362.361419678</ele>
        <time>2015-12-17T14:01:23.726Z</time>
      </trkpt>
      <trkpt lat="46.10986" lon="4.60004">
        <ele>362.961547852</ele>
        <time>2015-12-17T14:01:30.741Z</time>
      </trkpt>
      <trkpt lat="46.10986" lon="4.60006">
        <ele>363.130126953</ele>
        <time>2015-12-17T14:01:31.728Z</time>
      </trkpt>
      <trkpt lat="46.10985" lon="4.60018">
        <ele>364.029785156</ele>
        <time>2015-12-17T14:01:37.75Z</time>
      </trkpt>
      <trkpt lat="46.10985" lon="4.6002">
        <ele>364.192352295</ele>
        <time>2015-12-17T14:01:38.728Z</time>
      </trkpt>
      <trkpt lat="46.10982" lon="4.60032">
        <ele>365.713562012</ele>
        <time>2015-12-17T14:01:45.839Z</time>
      </trkpt>
      <trkpt lat="46.10982" lon="4.60034">
        <ele>365.808135986</ele>
        <time>2015-12-17T14:01:46.752Z</time>
      </trkpt>
      <trkpt lat="46.1098" lon="4.60046">
        <ele>366.348846436</ele>
        <time>2015-12-17T14:01:52.741Z</time>
      </trkpt>
      <trkpt lat="46.10979" lon="4.60048">
        <ele>366.435455322</ele>
        <time>2015-12-17T14:01:53.734Z</time>
      </trkpt>
      <trkpt lat="46.10976" lon="4.60059">
        <ele>366.917694092</ele>
        <time>2015-12-17T14:01:59.749Z</time>
      </trkpt>
      <trkpt lat="46.10975" lon="4.60061">
        <ele>367.059844971</ele>
        <time>2015-12-17T14:02:00.731Z</time>
      </trkpt>
      <trkpt lat="46.10973" lon="4.60072">
        <ele>367.795684814</ele>
        <time>2015-12-17T14:02:07.745Z</time>
      </trkpt>
      <trkpt lat="46.10973" lon="4.60074">
        <ele>367.865020752</ele>
        <time>2015-12-17T14:02:08.731Z</time>
      </trkpt>
      <trkpt lat="46.1097" lon="4.60084">
        <ele>367.75982666</ele>
        <time>2015-12-17T14:02:15.743Z</time>
      </trkpt>
      <trkpt lat="46.1097" lon="4.60086">
        <ele>367.687103271</ele>
        <time>2015-12-17T14:02:16.731Z</time>
      </trkpt>
      <trkpt lat="46.1097" lon="4.60097">
        <ele>367.282745361</ele>
        <time>2015-12-17T14:02:21.743Z</time>
      </trkpt>
      <trkpt lat="46.1097" lon="4.60099">
        <ele>367.173095703</ele>
        <time>2015-12-17T14:02:22.742Z</time>
      </trkpt>
      <trkpt lat="46.10971" lon="4.60111">
        <ele>366.37677002</ele>
        <time>2015-12-17T14:02:28.746Z</time>
      </trkpt>
      <trkpt lat="46.10971" lon="4.60113">
        <ele>366.329376221</ele>
        <time>2015-12-17T14:02:29.733Z</time>
      </trkpt>
      <trkpt lat="46.10972" lon="4.60124">
        <ele>366.354949951</ele>
        <time>2015-12-17T14:02:34.743Z</time>
      </trkpt>
      <trkpt lat="46.10972" lon="4.60126">
        <ele>366.394073486</ele>
        <time>2015-12-17T14:02:35.731Z</time>
      </trkpt>
      <trkpt lat="46.10971" lon="4.60138">
        <ele>366.286529541</ele>
        <time>2015-12-17T14:02:41.745Z</time>
      </trkpt>
      <trkpt lat="46.1097" lon="4.6014">
        <ele>366.234344482</ele>
        <time>2015-12-17T14:02:42.734Z</time>
      </trkpt>
      <trkpt lat="46.10969" lon="4.60151">
        <ele>365.666992188</ele>
        <time>2015-12-17T14:02:48.746Z</time>
      </trkpt>
      <trkpt lat="46.10969" lon="4.60153">
        <ele>365.735443115</ele>
        <time>2015-12-17T14:02:49.734Z</time>
      </trkpt>
      <trkpt lat="46.10968" lon="4.60166">
        <ele>366.298309326</ele>
        <time>2015-12-17T14:02:55.75Z</time>
      </trkpt>
      <trkpt lat="46.10968" lon="4.60168">
        <ele>366.307769775</ele>
        <time>2015-12-17T14:02:56.734Z</time>
      </trkpt>
      <trkpt lat="46.10967" lon="4.6018">
        <ele>366.330383301</ele>
        <time>2015-12-17T14:03:02.753Z</time>
      </trkpt>
      <trkpt lat="46.10967" lon="4.60182">
        <ele>366.349304199</ele>
        <time>2015-12-17T14:03:03.735Z</time>
      </trkpt>
      <trkpt lat="46.10966" lon="4.60193">
        <ele>366.647918701</ele>
        <time>2015-12-17T14:03:09.75Z</time>
      </trkpt>
      <trkpt lat="46.10965" lon="4.60195">
        <ele>366.684143066</ele>
        <time>2015-12-17T14:03:10.735Z</time>
      </trkpt>
      <trkpt lat="46.10962" lon="4.60206">
        <ele>366.948822021</ele>
        <time>2015-12-17T14:03:16.747Z</time>
      </trkpt>
      <trkpt lat="46.10962" lon="4.60208">
        <ele>366.990631104</ele>
        <time>2015-12-17T14:03:17.738Z</time>
      </trkpt>
      <trkpt lat="46.10959" lon="4.6022">
        <ele>367.039978027</ele>
        <time>2015-12-17T14:03:23.752Z</time>
      </trkpt>
      <trkpt lat="46.10958" lon="4.60222">
        <ele>366.989715576</ele>
        <time>2015-12-17T14:03:24.737Z</time>
      </trkpt>
      <trkpt lat="46.10955" lon="4.60233">
        <ele>366.536987305</ele>
        <time>2015-12-17T14:03:34.75Z</time>
      </trkpt>
      <trkpt lat="46.10955" lon="4.60235">
        <ele>366.549621582</ele>
        <time>2015-12-17T14:03:35.737Z</time>
      </trkpt>
      <trkpt lat="46.10951" lon="4.60246">
        <ele>366.387481689</ele>
        <time>2015-12-17T14:03:42.753Z</time>
      </trkpt>
      <trkpt lat="46.1095" lon="4.60248">
        <ele>366.387542725</ele>
        <time>2015-12-17T14:03:43.741Z</time>
      </trkpt>
      <trkpt lat="46.10947" lon="4.6026">
        <ele>367.071228027</ele>
        <time>2015-12-17T14:03:51.753Z</time>
      </trkpt>
      <trkpt lat="46.10947" lon="4.60262">
        <ele>367.215545654</ele>
        <time>2015-12-17T14:03:52.739Z</time>
      </trkpt>
      <trkpt lat="46.10942" lon="4.60273">
        <ele>367.597167969</ele>
        <time>2015-12-17T14:03:58.752Z</time>
      </trkpt>
      <trkpt lat="46.10942" lon="4.60273">
        <ele>367.551025391</ele>
        <time>2015-12-17T14:03:59.742Z</time>
      </trkpt>
      <trkpt lat="46.1094" lon="4.60285">
        <ele>367.245239258</ele>
        <time>2015-12-17T14:04:07.755Z</time>
      </trkpt>
      <trkpt lat="46.10939" lon="4.60287">
        <ele>367.203826904</ele>
        <time>2015-12-17T14:04:08.739Z</time>
      </trkpt>
      <trkpt lat="46.10938" lon="4.60299">
        <ele>366.965332031</ele>
        <time>2015-12-17T14:04:15.729Z</time>
      </trkpt>
      <trkpt lat="46.10938" lon="4.60301">
        <ele>366.916015625</ele>
        <time>2015-12-17T14:04:16.715Z</time>
      </trkpt>
      <trkpt lat="46.10937" lon="4.60312">
        <ele>366.830291748</ele>
        <time>2015-12-17T14:04:22.734Z</time>
      </trkpt>
      <trkpt lat="46.10937" lon="4.60314">
        <ele>366.826446533</ele>
        <time>2015-12-17T14:04:23.715Z</time>
      </trkpt>
      <trkpt lat="46.10934" lon="4.60326">
        <ele>366.179199219</ele>
        <time>2015-12-17T14:04:30.727Z</time>
      </trkpt>
      <trkpt lat="46.10933" lon="4.60328">
        <ele>366.167633057</ele>
        <time>2015-12-17T14:04:31.716Z</time>
      </trkpt>
      <trkpt lat="46.10931" lon="4.60339">
        <ele>365.592651367</ele>
        <time>2015-12-17T14:04:38.73Z</time>
      </trkpt>
      <trkpt lat="46.10932" lon="4.60341">
        <ele>365.575408936</ele>
        <time>2015-12-17T14:04:39.716Z</time>
      </trkpt>
      <trkpt lat="46.10934" lon="4.60353">
        <ele>365.747894287</ele>
        <time>2015-12-17T14:04:44.73Z</time>
      </trkpt>
      <trkpt lat="46.10934" lon="4.60354">
        <ele>365.795837402</ele>
        <time>2015-12-17T14:04:45.718Z</time>
      </trkpt>
      <trkpt lat="46.10937" lon="4.60366">
        <ele>366.372772217</ele>
        <time>2015-12-17T14:04:51.737Z</time>
      </trkpt>
      <trkpt lat="46.10937" lon="4.60367">
        <ele>366.450622559</ele>
        <time>2015-12-17T14:04:52.718Z</time>
      </trkpt>
      <trkpt lat="46.10938" lon="4.6038">
        <ele>367.163604736</ele>
        <time>2015-12-17T14:05:00.733Z</time>
      </trkpt>
      <trkpt lat="46.10938" lon="4.60381">
        <ele>367.171691895</ele>
        <time>2015-12-17T14:05:01.718Z</time>
      </trkpt>
      <trkpt lat="46.10942" lon="4.60392">
        <ele>367.151824951</ele>
        <time>2015-12-17T14:05:06.731Z</time>
      </trkpt>
      <trkpt lat="46.10942" lon="4.60393">
        <ele>367.114929199</ele>
        <time>2015-12-17T14:05:07.718Z</time>
      </trkpt>
      <trkpt lat="46.10946" lon="4.60403">
        <ele>366.795776367</ele>
        <time>2015-12-17T14:05:13.731Z</time>
      </trkpt>
      <trkpt lat="46.10946" lon="4.60404">
        <ele>366.692871094</ele>
        <time>2015-12-17T14:05:14.72Z</time>
      </trkpt>
      <trkpt lat="46.1095" lon="4.60413">
        <ele>366.493255615</ele>
        <time>2015-12-17T14:05:20.733Z</time>
      </trkpt>
      <trkpt lat="46.10951" lon="4.60415">
        <ele>366.566131592</ele>
        <time>2015-12-17T14:05:21.72Z</time>
      </trkpt>
      <trkpt lat="46.10956" lon="4.60425">
        <ele>365.793914795</ele>
        <time>2015-12-17T14:05:28.73Z</time>
      </trkpt>
      <trkpt lat="46.10957" lon="4.60426">
        <ele>365.699462891</ele>
        <time>2015-12-17T14:05:29.724Z</time>
      </trkpt>
      <trkpt lat="46.10961" lon="4.60437">
        <ele>365.249450684</ele>
        <time>2015-12-17T14:05:36.734Z</time>
      </trkpt>
      <trkpt lat="46.10961" lon="4.60439">
        <ele>365.233520508</ele>
        <time>2015-12-17T14:05:37.724Z</time>
      </trkpt>
      <trkpt lat="46.10964" lon="4.60451">
        <ele>364.270904541</ele>
        <time>2015-12-17T14:05:44.734Z</time>
      </trkpt>
      <trkpt lat="46.10965" lon="4.60451">
        <ele>364.090393066</ele>
        <time>2015-12-17T14:05:45.721Z</time>
      </trkpt>
      <trkpt lat="46.10967" lon="4.60462">
        <ele>362.977661133</ele>
        <time>2015-12-17T14:05:51.739Z</time>
      </trkpt>
      <trkpt lat="46.10967" lon="4.60465">
        <ele>362.671081543</ele>
        <time>2015-12-17T14:05:52.722Z</time>
      </trkpt>
      <trkpt lat="46.10969" lon="4.60476">
        <ele>360.939819336</ele>
        <time>2015-12-17T14:05:59.735Z</time>
      </trkpt>
      <trkpt lat="46.1097" lon="4.60478">
        <ele>360.702301025</ele>
        <time>2015-12-17T14:06:00.725Z</time>
      </trkpt>
      <trkpt lat="46.10972" lon="4.60489">
        <ele>359.558898926</ele>
        <time>2015-12-17T14:06:05.732Z</time>
      </trkpt>
      <trkpt lat="46.10973" lon="4.60491">
        <ele>359.35546875</ele>
        <time>2015-12-17T14:06:06.728Z</time>
      </trkpt>
      <trkpt lat="46.10975" lon="4.60502">
        <ele>358.903015137</ele>
        <time>2015-12-17T14:06:11.735Z</time>
      </trkpt>
      <trkpt lat="46.10975" lon="4.60504">
        <ele>358.683074951</ele>
        <time>2015-12-17T14:06:12.724Z</time>
      </trkpt>
      <trkpt lat="46.10978" lon="4.60516">
        <ele>357.150054932</ele>
        <time>2015-12-17T14:06:19.737Z</time>
      </trkpt>
      <trkpt lat="46.10978" lon="4.60519">
        <ele>356.889465332</ele>
        <time>2015-12-17T14:06:20.723Z</time>
      </trkpt>
      <trkpt lat="46.10978" lon="4.60531">
        <ele>356.093078613</ele>
        <time>2015-12-17T14:06:27.735Z</time>
      </trkpt>
      <trkpt lat="46.10978" lon="4.60534">
        <ele>356.009979248</ele>
        <time>2015-12-17T14:06:28.724Z</time>
      </trkpt>
      <trkpt lat="46.10978" lon="4.60546">
        <ele>355.612365723</ele>
        <time>2015-12-17T14:06:34.742Z</time>
      </trkpt>
      <trkpt lat="46.10979" lon="4.60548">
        <ele>355.563751221</ele>
        <time>2015-12-17T14:06:35.725Z</time>
      </trkpt>
      <trkpt lat="46.10979" lon="4.6056">
        <ele>355.392578125</ele>
        <time>2015-12-17T14:06:41.74Z</time>
      </trkpt>
      <trkpt lat="46.10979" lon="4.60561">
        <ele>355.357025146</ele>
        <time>2015-12-17T14:06:42.726Z</time>
      </trkpt>
      <trkpt lat="46.1098" lon="4.60573">
        <ele>354.808349609</ele>
        <time>2015-12-17T14:06:51.746Z</time>
      </trkpt>
      <trkpt lat="46.1098" lon="4.60575">
        <ele>354.72277832</ele>
        <time>2015-12-17T14:06:52.727Z</time>
      </trkpt>
      <trkpt lat="46.10982" lon="4.60585">
        <ele>354.474365234</ele>
        <time>2015-12-17T14:06:57.739Z</time>
      </trkpt>
      <trkpt lat="46.10983" lon="4.60589">
        <ele>354.509490967</ele>
        <time>2015-12-17T14:06:58.727Z</time>
      </trkpt>
      <trkpt lat="46.10986" lon="4.606">
        <ele>354.194061279</ele>
        <time>2015-12-17T14:07:05.765Z</time>
      </trkpt>
      <trkpt lat="46.10987" lon="4.60602">
        <ele>354.124725342</ele>
        <time>2015-12-17T14:07:06.728Z</time>
      </trkpt>
      <trkpt lat="46.10989" lon="4.60613">
        <ele>353.430175781</ele>
        <time>2015-12-17T14:07:12.739Z</time>
      </trkpt>
      <trkpt lat="46.10989" lon="4.60615">
        <ele>353.314208984</ele>
        <time>2015-12-17T14:07:13.728Z</time>
      </trkpt>
      <trkpt lat="46.10993" lon="4.60626">
        <ele>352.601898193</ele>
        <time>2015-12-17T14:07:18.745Z</time>
      </trkpt>
      <trkpt lat="46.10993" lon="4.60628">
        <ele>352.492797852</ele>
        <time>2015-12-17T14:07:19.731Z</time>
      </trkpt>
      <trkpt lat="46.10996" lon="4.60639">
        <ele>352.327972412</ele>
        <time>2015-12-17T14:07:24.748Z</time>
      </trkpt>
      <trkpt lat="46.10997" lon="4.60641">
        <ele>352.264923096</ele>
        <time>2015-12-17T14:07:25.73Z</time>
      </trkpt>
      <trkpt lat="46.10998" lon="4.60652">
        <ele>351.813751221</ele>
        <time>2015-12-17T14:07:31.741Z</time>
      </trkpt>
      <trkpt lat="46.10998" lon="4.60654">
        <ele>351.746612549</ele>
        <time>2015-12-17T14:07:32.732Z</time>
      </trkpt>
      <trkpt lat="46.10999" lon="4.60666">
        <ele>351.338043213</ele>
        <time>2015-12-17T14:07:38.744Z</time>
      </trkpt>
      <trkpt lat="46.10999" lon="4.60667">
        <ele>351.262512207</ele>
        <time>2015-12-17T14:07:39.73Z</time>
      </trkpt>
      <trkpt lat="46.11001" lon="4.60678">
        <ele>350.705108643</ele>
        <time>2015-12-17T14:07:45.745Z</time>
      </trkpt>
      <trkpt lat="46.11001" lon="4.6068">
        <ele>350.631988525</ele>
        <time>2015-12-17T14:07:46.731Z</time>
      </trkpt>
      <trkpt lat="46.11003" lon="4.6069">
        <ele>350.165496826</ele>
        <time>2015-12-17T14:07:52.744Z</time>
      </trkpt>
      <trkpt lat="46.11003" lon="4.60693">
        <ele>350.087249756</ele>
        <time>2015-12-17T14:07:53.733Z</time>
      </trkpt>
      <trkpt lat="46.11003" lon="4.60706">
        <ele>349.733398438</ele>
        <time>2015-12-17T14:08:00.742Z</time>
      </trkpt>
      <trkpt lat="46.11004" lon="4.60708">
        <ele>349.692810059</ele>
        <time>2015-12-17T14:08:01.732Z</time>
      </trkpt>
      <trkpt lat="46.11007" lon="4.60719">
        <ele>348.988891602</ele>
        <time>2015-12-17T14:08:08.747Z</time>
      </trkpt>
      <trkpt lat="46.11007" lon="4.60721">
        <ele>348.883392334</ele>
        <time>2015-12-17T14:08:09.733Z</time>
      </trkpt>
      <trkpt lat="46.11009" lon="4.60732">
        <ele>348.253204346</ele>
        <time>2015-12-17T14:08:15.747Z</time>
      </trkpt>
      <trkpt lat="46.1101" lon="4.60734">
        <ele>348.134307861</ele>
        <time>2015-12-17T14:08:16.731Z</time>
      </trkpt>
      <trkpt lat="46.11015" lon="4.60742">
        <ele>347.618011475</ele>
        <time>2015-12-17T14:08:20.746Z</time>
      </trkpt>
      <trkpt lat="46.11016" lon="4.60744">
        <ele>347.473693848</ele>
        <time>2015-12-17T14:08:21.735Z</time>
      </trkpt>
      <trkpt lat="46.11021" lon="4.60754">
        <ele>346.081848145</ele>
        <time>2015-12-17T14:08:33.746Z</time>
      </trkpt>
      <trkpt lat="46.11022" lon="4.60756">
        <ele>346.005371094</ele>
        <time>2015-12-17T14:08:34.733Z</time>
      </trkpt>
      <trkpt lat="46.11024" lon="4.60766">
        <ele>345.542694092</ele>
        <time>2015-12-17T14:08:40.749Z</time>
      </trkpt>
      <trkpt lat="46.11025" lon="4.60769">
        <ele>345.468078613</ele>
        <time>2015-12-17T14:08:41.736Z</time>
      </trkpt>
      <trkpt lat="46.11028" lon="4.60779">
        <ele>345.168823242</ele>
        <time>2015-12-17T14:08:45.756Z</time>
      </trkpt>
      <trkpt lat="46.11029" lon="4.60781">
        <ele>345.035186768</ele>
        <time>2015-12-17T14:08:46.736Z</time>
      </trkpt>
      <trkpt lat="46.11032" lon="4.60793">
        <ele>344.391174316</ele>
        <time>2015-12-17T14:08:52.749Z</time>
      </trkpt>
      <trkpt lat="46.11032" lon="4.60795">
        <ele>344.264190674</ele>
        <time>2015-12-17T14:08:53.738Z</time>
      </trkpt>
      <trkpt lat="46.11033" lon="4.60807">
        <ele>343.766235352</ele>
        <time>2015-12-17T14:08:58.747Z</time>
      </trkpt>
      <trkpt lat="46.11033" lon="4.60808">
        <ele>343.668670654</ele>
        <time>2015-12-17T14:08:59.737Z</time>
      </trkpt>
      <trkpt lat="46.11034" lon="4.60819">
        <ele>343.276672363</ele>
        <time>2015-12-17T14:09:04.75Z</time>
      </trkpt>
      <trkpt lat="46.11034" lon="4.60822">
        <ele>343.231414795</ele>
        <time>2015-12-17T14:09:05.744Z</time>
      </trkpt>
      <trkpt lat="46.11035" lon="4.60833">
        <ele>342.817230225</ele>
        <time>2015-12-17T14:09:10.754Z</time>
      </trkpt>
      <trkpt lat="46.11036" lon="4.60835">
        <ele>342.722351074</ele>
        <time>2015-12-17T14:09:11.743Z</time>
      </trkpt>
      <trkpt lat="46.11038" lon="4.60845">
        <ele>341.951171875</ele>
        <time>2015-12-17T14:09:17.75Z</time>
      </trkpt>
      <trkpt lat="46.11038" lon="4.60847">
        <ele>341.800506592</ele>
        <time>2015-12-17T14:09:18.741Z</time>
      </trkpt>
      <trkpt lat="46.11038" lon="4.60858">
        <ele>341.068634033</ele>
        <time>2015-12-17T14:09:23.751Z</time>
      </trkpt>
      <trkpt lat="46.11038" lon="4.60861">
        <ele>340.987854004</ele>
        <time>2015-12-17T14:09:24.739Z</time>
      </trkpt>
      <trkpt lat="46.11036" lon="4.60872">
        <ele>340.223114014</ele>
        <time>2015-12-17T14:09:30.73Z</time>
      </trkpt>
      <trkpt lat="46.11035" lon="4.60873">
        <ele>340.0987854</ele>
        <time>2015-12-17T14:09:31.717Z</time>
      </trkpt>
      <trkpt lat="46.11032" lon="4.60884">
        <ele>339.064422607</ele>
        <time>2015-12-17T14:09:38.884Z</time>
      </trkpt>
      <trkpt lat="46.11031" lon="4.60886">
        <ele>338.948547363</ele>
        <time>2015-12-17T14:09:39.715Z</time>
      </trkpt>
      <trkpt lat="46.11028" lon="4.60896">
        <ele>338.431610107</ele>
        <time>2015-12-17T14:09:45.73Z</time>
      </trkpt>
      <trkpt lat="46.11027" lon="4.60899">
        <ele>338.299926758</ele>
        <time>2015-12-17T14:09:46.723Z</time>
      </trkpt>
      <trkpt lat="46.11023" lon="4.60908">
        <ele>337.521606445</ele>
        <time>2015-12-17T14:09:52.728Z</time>
      </trkpt>
      <trkpt lat="46.11022" lon="4.6091">
        <ele>337.384857178</ele>
        <time>2015-12-17T14:09:53.723Z</time>
      </trkpt>
      <trkpt lat="46.11015" lon="4.60918">
        <ele>336.689819336</ele>
        <time>2015-12-17T14:10:00.733Z</time>
      </trkpt>
      <trkpt lat="46.11015" lon="4.60919">
        <ele>336.622283936</ele>
        <time>2015-12-17T14:10:01.717Z</time>
      </trkpt>
      <trkpt lat="46.1101" lon="4.60929">
        <ele>336.608703613</ele>
        <time>2015-12-17T14:10:10.728Z</time>
      </trkpt>
      <trkpt lat="46.11009" lon="4.6093">
        <ele>336.610931396</ele>
        <time>2015-12-17T14:10:11.717Z</time>
      </trkpt>
      <trkpt lat="46.11004" lon="4.60939">
        <ele>336.568359375</ele>
        <time>2015-12-17T14:10:17.732Z</time>
      </trkpt>
      <trkpt lat="46.11002" lon="4.6094">
        <ele>336.557556152</ele>
        <time>2015-12-17T14:10:18.719Z</time>
      </trkpt>
      <trkpt lat="46.10997" lon="4.60949">
        <ele>336.778686523</ele>
        <time>2015-12-17T14:10:26.729Z</time>
      </trkpt>
      <trkpt lat="46.10996" lon="4.6095">
        <ele>336.786468506</ele>
        <time>2015-12-17T14:10:27.723Z</time>
      </trkpt>
      <trkpt lat="46.10991" lon="4.6096">
        <ele>336.577697754</ele>
        <time>2015-12-17T14:10:35.733Z</time>
      </trkpt>
      <trkpt lat="46.10991" lon="4.60962">
        <ele>336.571746826</ele>
        <time>2015-12-17T14:10:36.72Z</time>
      </trkpt>
      <trkpt lat="46.10986" lon="4.60973">
        <ele>336.627319336</ele>
        <time>2015-12-17T14:10:43.731Z</time>
      </trkpt>
      <trkpt lat="46.10985" lon="4.60974">
        <ele>336.573638916</ele>
        <time>2015-12-17T14:10:44.72Z</time>
      </trkpt>
      <trkpt lat="46.10981" lon="4.60985">
        <ele>336.024383545</ele>
        <time>2015-12-17T14:10:51.732Z</time>
      </trkpt>
      <trkpt lat="46.10981" lon="4.60986">
        <ele>335.938659668</ele>
        <time>2015-12-17T14:10:52.72Z</time>
      </trkpt>
      <trkpt lat="46.10981" lon="4.60999">
        <ele>335.318603516</ele>
        <time>2015-12-17T14:10:59.735Z</time>
      </trkpt>
      <trkpt lat="46.10981" lon="4.61001">
        <ele>335.20904541</ele>
        <time>2015-12-17T14:11:00.722Z</time>
      </trkpt>
      <trkpt lat="46.10983" lon="4.61012">
        <ele>334.337860107</ele>
        <time>2015-12-17T14:11:07.735Z</time>
      </trkpt>
      <trkpt lat="46.10983" lon="4.61014">
        <ele>334.191680908</ele>
        <time>2015-12-17T14:11:08.721Z</time>
      </trkpt>
      <trkpt lat="46.10984" lon="4.61026">
        <ele>333.385192871</ele>
        <time>2015-12-17T14:11:14.733Z</time>
      </trkpt>
      <trkpt lat="46.10985" lon="4.61029">
        <ele>333.259002686</ele>
        <time>2015-12-17T14:11:15.722Z</time>
      </trkpt>
      <trkpt lat="46.10988" lon="4.6104">
        <ele>332.195892334</ele>
        <time>2015-12-17T14:11:22.737Z</time>
      </trkpt>
      <trkpt lat="46.10988" lon="4.61042">
        <ele>332.016387939</ele>
        <time>2015-12-17T14:11:23.723Z</time>
      </trkpt>
      <trkpt lat="46.10991" lon="4.61054">
        <ele>330.457672119</ele>
        <time>2015-12-17T14:11:31.736Z</time>
      </trkpt>
      <trkpt lat="46.10991" lon="4.61056">
        <ele>330.289001465</ele>
        <time>2015-12-17T14:11:32.727Z</time>
      </trkpt>
      <trkpt lat="46.10995" lon="4.61068">
        <ele>329.093444824</ele>
        <time>2015-12-17T14:11:41.737Z</time>
      </trkpt>
      <trkpt lat="46.10995" lon="4.6107">
        <ele>329.047058105</ele>
        <time>2015-12-17T14:11:42.724Z</time>
      </trkpt>
      <trkpt lat="46.11" lon="4.61078">
        <ele>328.83605957</ele>
        <time>2015-12-17T14:11:47.739Z</time>
      </trkpt>
      <trkpt lat="46.11001" lon="4.61079">
        <ele>328.79788208</ele>
        <time>2015-12-17T14:11:48.763Z</time>
      </trkpt>
      <trkpt lat="46.11008" lon="4.61084">
        <ele>328.295532227</ele>
        <time>2015-12-17T14:11:54.738Z</time>
      </trkpt>
      <trkpt lat="46.1101" lon="4.61086">
        <ele>328.235168457</ele>
        <time>2015-12-17T14:11:55.725Z</time>
      </trkpt>
      <trkpt lat="46.11016" lon="4.61094">
        <ele>327.676605225</ele>
        <time>2015-12-17T14:12:01.737Z</time>
      </trkpt>
      <trkpt lat="46.11017" lon="4.61096">
        <ele>327.564147949</ele>
        <time>2015-12-17T14:12:02.725Z</time>
      </trkpt>
      <trkpt lat="46.11023" lon="4.61104">
        <ele>326.793273926</ele>
        <time>2015-12-17T14:12:09.744Z</time>
      </trkpt>
      <trkpt lat="46.11024" lon="4.61106">
        <ele>326.718353271</ele>
        <time>2015-12-17T14:12:10.729Z</time>
      </trkpt>
      <trkpt lat="46.11031" lon="4.61113">
        <ele>326.30291748</ele>
        <time>2015-12-17T14:12:19.738Z</time>
      </trkpt>
      <trkpt lat="46.11032" lon="4.61113">
        <ele>326.229949951</ele>
        <time>2015-12-17T14:12:20.726Z</time>
      </trkpt>
      <trkpt lat="46.11039" lon="4.61119">
        <ele>325.54699707</ele>
        <time>2015-12-17T14:12:27.737Z</time>
      </trkpt>
      <trkpt lat="46.1104" lon="4.6112">
        <ele>325.452209473</ele>
        <time>2015-12-17T14:12:28.726Z</time>
      </trkpt>
      <trkpt lat="46.11048" lon="4.61125">
        <ele>324.757598877</ele>
        <time>2015-12-17T14:12:35.895Z</time>
      </trkpt>
      <trkpt lat="46.11048" lon="4.61127">
        <ele>324.685424805</ele>
        <time>2015-12-17T14:12:36.727Z</time>
      </trkpt>
      <trkpt lat="46.11054" lon="4.61136">
        <ele>325.315551758</ele>
        <time>2015-12-17T14:12:44.746Z</time>
      </trkpt>
      <trkpt lat="46.11054" lon="4.61137">
        <ele>325.53503418</ele>
        <time>2015-12-17T14:12:45.728Z</time>
      </trkpt>
      <trkpt lat="46.11053" lon="4.61149">
        <ele>326.807678223</ele>
        <time>2015-12-17T14:12:53.741Z</time>
      </trkpt>
      <trkpt lat="46.11052" lon="4.61151">
        <ele>326.926483154</ele>
        <time>2015-12-17T14:12:54.73Z</time>
      </trkpt>
      <trkpt lat="46.11046" lon="4.61159">
        <ele>329.03918457</ele>
        <time>2015-12-17T14:13:10.741Z</time>
      </trkpt>
      <trkpt lat="46.11045" lon="4.6116">
        <ele>329.14050293</ele>
        <time>2015-12-17T14:13:11.735Z</time>
      </trkpt>
      <trkpt lat="46.11039" lon="4.61169">
        <ele>328.396270752</ele>
        <time>2015-12-17T14:13:20.742Z</time>
      </trkpt>
      <trkpt lat="46.11039" lon="4.6117">
        <ele>328.267028809</ele>
        <time>2015-12-17T14:13:21.732Z</time>
      </trkpt>
      <trkpt lat="46.1104" lon="4.61183">
        <ele>328.213470459</ele>
        <time>2015-12-17T14:13:30.744Z</time>
      </trkpt>
      <trkpt lat="46.11041" lon="4.61183">
        <ele>328.216674805</ele>
        <time>2015-12-17T14:13:31.733Z</time>
      </trkpt>
      <trkpt lat="46.11044" lon="4.61195">
        <ele>328.499359131</ele>
        <time>2015-12-17T14:13:39.746Z</time>
      </trkpt>
      <trkpt lat="46.11045" lon="4.61196">
        <ele>328.544708252</ele>
        <time>2015-12-17T14:13:40.738Z</time>
      </trkpt>
      <trkpt lat="46.1105" lon="4.61206">
        <ele>329.043701172</ele>
        <time>2015-12-17T14:13:48.747Z</time>
      </trkpt>
      <trkpt lat="46.11051" lon="4.61207">
        <ele>328.956604004</ele>
        <time>2015-12-17T14:13:49.736Z</time>
      </trkpt>
      <trkpt lat="46.11054" lon="4.61218">
        <ele>328.297485352</ele>
        <time>2015-12-17T14:14:00.748Z</time>
      </trkpt>
      <trkpt lat="46.11055" lon="4.6122">
        <ele>328.147399902</ele>
        <time>2015-12-17T14:14:01.734Z</time>
      </trkpt>
      <trkpt lat="46.1106" lon="4.61229">
        <ele>327.560150146</ele>
        <time>2015-12-17T14:14:07.747Z</time>
      </trkpt>
      <trkpt lat="46.11062" lon="4.61231">
        <ele>327.510131836</ele>
        <time>2015-12-17T14:14:08.736Z</time>
      </trkpt>
      <trkpt lat="46.11067" lon="4.61241">
        <ele>327.124603271</ele>
        <time>2015-12-17T14:14:15.743Z</time>
      </trkpt>
      <trkpt lat="46.11067" lon="4.61242">
        <ele>327.138946533</ele>
        <time>2015-12-17T14:14:16.734Z</time>
      </trkpt>
      <trkpt lat="46.1107" lon="4.61254">
        <ele>327.00491333</ele>
        <time>2015-12-17T14:14:23.747Z</time>
      </trkpt>
      <trkpt lat="46.1107" lon="4.61255">
        <ele>326.904876709</ele>
        <time>2015-12-17T14:14:24.737Z</time>
      </trkpt>
      <trkpt lat="46.11071" lon="4.61268">
        <ele>326.044372559</ele>
        <time>2015-12-17T14:14:30.751Z</time>
      </trkpt>
      <trkpt lat="46.11071" lon="4.6127">
        <ele>325.897613525</ele>
        <time>2015-12-17T14:14:31.737Z</time>
      </trkpt>
      <trkpt lat="46.11076" lon="4.61281">
        <ele>325.218017578</ele>
        <time>2015-12-17T14:14:39.756Z</time>
      </trkpt>
      <trkpt lat="46.11077" lon="4.61283">
        <ele>325.126403809</ele>
        <time>2015-12-17T14:14:40.712Z</time>
      </trkpt>
      <trkpt lat="46.11082" lon="4.61292">
        <ele>324.768920898</ele>
        <time>2015-12-17T14:14:45.726Z</time>
      </trkpt>
      <trkpt lat="46.11083" lon="4.61294">
        <ele>324.704376221</ele>
        <time>2015-12-17T14:14:46.712Z</time>
      </trkpt>
      <trkpt lat="46.11087" lon="4.61304">
        <ele>324.46383667</ele>
        <time>2015-12-17T14:14:50.723Z</time>
      </trkpt>
      <trkpt lat="46.11087" lon="4.61305">
        <ele>324.442230225</ele>
        <time>2015-12-17T14:14:51.712Z</time>
      </trkpt>
      <trkpt lat="46.1109" lon="4.61314">
        <ele>324.341217041</ele>
        <time>2015-12-17T14:14:58.722Z</time>
      </trkpt>
      <trkpt lat="46.11091" lon="4.61317">
        <ele>324.326416016</ele>
        <time>2015-12-17T14:14:59.71Z</time>
      </trkpt>
      <trkpt lat="46.11095" lon="4.61326">
        <ele>324.193725586</ele>
        <time>2015-12-17T14:15:03.725Z</time>
      </trkpt>
      <trkpt lat="46.11096" lon="4.61328">
        <ele>324.132629395</ele>
        <time>2015-12-17T14:15:04.715Z</time>
      </trkpt>
      <trkpt lat="46.11101" lon="4.61338">
        <ele>323.948272705</ele>
        <time>2015-12-17T14:15:08.728Z</time>
      </trkpt>
      <trkpt lat="46.11103" lon="4.61339">
        <ele>323.847930908</ele>
        <time>2015-12-17T14:15:09.716Z</time>
      </trkpt>
      <trkpt lat="46.1111" lon="4.61347">
        <ele>323.110321045</ele>
        <time>2015-12-17T14:15:16.728Z</time>
      </trkpt>
      <trkpt lat="46.1111" lon="4.61347">
        <ele>323.043518066</ele>
        <time>2015-12-17T14:15:17.715Z</time>
      </trkpt>
      <trkpt lat="46.11118" lon="4.61352">
        <ele>322.388092041</ele>
        <time>2015-12-17T14:15:24.728Z</time>
      </trkpt>
      <trkpt lat="46.11119" lon="4.61353">
        <ele>322.277709961</ele>
        <time>2015-12-17T14:15:25.715Z</time>
      </trkpt>
      <trkpt lat="46.11127" lon="4.61359">
        <ele>321.793121338</ele>
        <time>2015-12-17T14:15:34.735Z</time>
      </trkpt>
      <trkpt lat="46.11129" lon="4.6136">
        <ele>321.781005859</ele>
        <time>2015-12-17T14:15:35.716Z</time>
      </trkpt>
      <trkpt lat="46.11137" lon="4.61362">
        <ele>321.816436768</ele>
        <time>2015-12-17T14:15:42.727Z</time>
      </trkpt>
      <trkpt lat="46.11138" lon="4.61362">
        <ele>321.816192627</ele>
        <time>2015-12-17T14:15:43.716Z</time>
      </trkpt>
      <trkpt lat="46.11146" lon="4.61366">
        <ele>321.402709961</ele>
        <time>2015-12-17T14:15:48.73Z</time>
      </trkpt>
      <trkpt lat="46.11147" lon="4.61368">
        <ele>321.322357178</ele>
        <time>2015-12-17T14:15:49.716Z</time>
      </trkpt>
      <trkpt lat="46.1115" lon="4.61378">
        <ele>320.87097168</ele>
        <time>2015-12-17T14:15:57.736Z</time>
      </trkpt>
      <trkpt lat="46.11151" lon="4.61381">
        <ele>320.78616333</ele>
        <time>2015-12-17T14:15:58.718Z</time>
      </trkpt>
      <trkpt lat="46.11153" lon="4.61392">
        <ele>320.313934326</ele>
        <time>2015-12-17T14:16:05.771Z</time>
      </trkpt>
      <trkpt lat="46.11154" lon="4.61395">
        <ele>320.234283447</ele>
        <time>2015-12-17T14:16:06.718Z</time>
      </trkpt>
      <trkpt lat="46.11154" lon="4.61408">
        <ele>320.223937988</ele>
        <time>2015-12-17T14:16:14.73Z</time>
      </trkpt>
      <trkpt lat="46.11153" lon="4.6141">
        <ele>320.281341553</ele>
        <time>2015-12-17T14:16:15.725Z</time>
      </trkpt>
      <trkpt lat="46.11151" lon="4.61421">
        <ele>320.692443848</ele>
        <time>2015-12-17T14:16:21.73Z</time>
      </trkpt>
      <trkpt lat="46.11152" lon="4.61424">
        <ele>320.792510986</ele>
        <time>2015-12-17T14:16:22.72Z</time>
      </trkpt>
      <trkpt lat="46.11152" lon="4.61435">
        <ele>321.1746521</ele>
        <time>2015-12-17T14:16:27.769Z</time>
      </trkpt>
      <trkpt lat="46.11153" lon="4.6144">
        <ele>321.194946289</ele>
        <time>2015-12-17T14:16:28.72Z</time>
      </trkpt>
      <trkpt lat="46.11153" lon="4.61452">
        <ele>320.981719971</ele>
        <time>2015-12-17T14:16:35.736Z</time>
      </trkpt>
      <trkpt lat="46.11152" lon="4.61454">
        <ele>320.961151123</ele>
        <time>2015-12-17T14:16:36.724Z</time>
      </trkpt>
      <trkpt lat="46.1115" lon="4.61466">
        <ele>320.837463379</ele>
        <time>2015-12-17T14:16:41.732Z</time>
      </trkpt>
      <trkpt lat="46.1115" lon="4.61467">
        <ele>320.790283203</ele>
        <time>2015-12-17T14:16:42.723Z</time>
      </trkpt>
      <trkpt lat="46.11148" lon="4.6148">
        <ele>320.512359619</ele>
        <time>2015-12-17T14:16:49.735Z</time>
      </trkpt>
      <trkpt lat="46.11148" lon="4.61481">
        <ele>320.488464355</ele>
        <time>2015-12-17T14:16:50.73Z</time>
      </trkpt>
      <trkpt lat="46.11146" lon="4.61493">
        <ele>320.251617432</ele>
        <time>2015-12-17T14:16:58.738Z</time>
      </trkpt>
      <trkpt lat="46.11146" lon="4.61494">
        <ele>320.228607178</ele>
        <time>2015-12-17T14:16:59.734Z</time>
      </trkpt>
      <trkpt lat="46.11147" lon="4.61506">
        <ele>320.191650391</ele>
        <time>2015-12-17T14:17:05.741Z</time>
      </trkpt>
      <trkpt lat="46.11147" lon="4.61508">
        <ele>320.177429199</ele>
        <time>2015-12-17T14:17:06.723Z</time>
      </trkpt>
      <trkpt lat="46.11147" lon="4.61519">
        <ele>319.9949646</ele>
        <time>2015-12-17T14:17:11.901Z</time>
      </trkpt>
      <trkpt lat="46.11147" lon="4.61522">
        <ele>319.955047607</ele>
        <time>2015-12-17T14:17:12.723Z</time>
      </trkpt>
      <trkpt lat="46.11147" lon="4.61533">
        <ele>319.840911865</ele>
        <time>2015-12-17T14:17:17.736Z</time>
      </trkpt>
      <trkpt lat="46.11148" lon="4.61535">
        <ele>319.791412354</ele>
        <time>2015-12-17T14:17:18.725Z</time>
      </trkpt>
      <trkpt lat="46.11148" lon="4.61547">
        <ele>319.269256592</ele>
        <time>2015-12-17T14:17:25.734Z</time>
      </trkpt>
      <trkpt lat="46.11148" lon="4.6155">
        <ele>319.2265625</ele>
        <time>2015-12-17T14:17:26.725Z</time>
      </trkpt>
      <trkpt lat="46.11147" lon="4.61561">
        <ele>318.903991699</ele>
        <time>2015-12-17T14:17:34.736Z</time>
      </trkpt>
      <trkpt lat="46.11147" lon="4.61564">
        <ele>318.883331299</ele>
        <time>2015-12-17T14:17:35.727Z</time>
      </trkpt>
      <trkpt lat="46.11148" lon="4.61576">
        <ele>318.721282959</ele>
        <time>2015-12-17T14:17:41.741Z</time>
      </trkpt>
      <trkpt lat="46.11148" lon="4.61578">
        <ele>318.720977783</ele>
        <time>2015-12-17T14:17:42.724Z</time>
      </trkpt>
      <trkpt lat="46.11148" lon="4.61589">
        <ele>318.982971191</ele>
        <time>2015-12-17T14:17:48.742Z</time>
      </trkpt>
      <trkpt lat="46.11148" lon="4.61591">
        <ele>319.049591064</ele>
        <time>2015-12-17T14:17:49.725Z</time>
      </trkpt>
      <trkpt lat="46.11148" lon="4.61604">
        <ele>319.310577393</ele>
        <time>2015-12-17T14:17:56.739Z</time>
      </trkpt>
      <trkpt lat="46.11148" lon="4.61605">
        <ele>319.339050293</ele>
        <time>2015-12-17T14:17:57.726Z</time>
      </trkpt>
      <trkpt lat="46.11148" lon="4.61618">
        <ele>319.461486816</ele>
        <time>2015-12-17T14:18:05.744Z</time>
      </trkpt>
      <trkpt lat="46.11149" lon="4.6162">
        <ele>319.48046875</ele>
        <time>2015-12-17T14:18:06.732Z</time>
      </trkpt>
      <trkpt lat="46.11149" lon="4.61631">
        <ele>319.454742432</ele>
        <time>2015-12-17T14:18:13.743Z</time>
      </trkpt>
      <trkpt lat="46.11149" lon="4.61634">
        <ele>319.448791504</ele>
        <time>2015-12-17T14:18:14.727Z</time>
      </trkpt>
      <trkpt lat="46.1115" lon="4.61646">
        <ele>319.246673584</ele>
        <time>2015-12-17T14:18:21.741Z</time>
      </trkpt>
      <trkpt lat="46.1115" lon="4.61647">
        <ele>319.206237793</ele>
        <time>2015-12-17T14:18:22.73Z</time>
      </trkpt>
      <trkpt lat="46.1115" lon="4.61658">
        <ele>319.168395996</ele>
        <time>2015-12-17T14:18:27.744Z</time>
      </trkpt>
      <trkpt lat="46.11151" lon="4.61661">
        <ele>319.214263916</ele>
        <time>2015-12-17T14:18:28.728Z</time>
      </trkpt>
      <trkpt lat="46.11153" lon="4.61673">
        <ele>319.438903809</ele>
        <time>2015-12-17T14:18:34.741Z</time>
      </trkpt>
      <trkpt lat="46.11153" lon="4.61674">
        <ele>319.448272705</ele>
        <time>2015-12-17T14:18:35.729Z</time>
      </trkpt>
      <trkpt lat="46.11154" lon="4.61686">
        <ele>319.590667725</ele>
        <time>2015-12-17T14:18:41.745Z</time>
      </trkpt>
      <trkpt lat="46.11155" lon="4.61689">
        <ele>319.660980225</ele>
        <time>2015-12-17T14:18:42.729Z</time>
      </trkpt>
      <trkpt lat="46.11156" lon="4.617">
        <ele>320.075866699</ele>
        <time>2015-12-17T14:18:48.74Z</time>
      </trkpt>
      <trkpt lat="46.11156" lon="4.61702">
        <ele>320.156311035</ele>
        <time>2015-12-17T14:18:49.73Z</time>
      </trkpt>
      <trkpt lat="46.11157" lon="4.61714">
        <ele>320.079193115</ele>
        <time>2015-12-17T14:18:57.753Z</time>
      </trkpt>
      <trkpt lat="46.11158" lon="4.61717">
        <ele>320.027648926</ele>
        <time>2015-12-17T14:18:58.731Z</time>
      </trkpt>
      <trkpt lat="46.1116" lon="4.61729">
        <ele>319.723175049</ele>
        <time>2015-12-17T14:19:04.742Z</time>
      </trkpt>
      <trkpt lat="46.11161" lon="4.61731">
        <ele>319.665802002</ele>
        <time>2015-12-17T14:19:05.735Z</time>
      </trkpt>
      <trkpt lat="46.11163" lon="4.61743">
        <ele>319.383850098</ele>
        <time>2015-12-17T14:19:11.91Z</time>
      </trkpt>
      <trkpt lat="46.11163" lon="4.61745">
        <ele>319.368255615</ele>
        <time>2015-12-17T14:19:12.732Z</time>
      </trkpt>
      <trkpt lat="46.11163" lon="4.61757">
        <ele>319.694824219</ele>
        <time>2015-12-17T14:19:20.746Z</time>
      </trkpt>
      <trkpt lat="46.11163" lon="4.61758">
        <ele>319.742736816</ele>
        <time>2015-12-17T14:19:21.736Z</time>
      </trkpt>
      <trkpt lat="46.11164" lon="4.61769">
        <ele>320.310455322</ele>
        <time>2015-12-17T14:19:26.746Z</time>
      </trkpt>
      <trkpt lat="46.11165" lon="4.61771">
        <ele>320.431884766</ele>
        <time>2015-12-17T14:19:27.733Z</time>
      </trkpt>
      <trkpt lat="46.11167" lon="4.61783">
        <ele>320.955444336</ele>
        <time>2015-12-17T14:19:34.747Z</time>
      </trkpt>
      <trkpt lat="46.11167" lon="4.61787">
        <ele>321.006286621</ele>
        <time>2015-12-17T14:19:35.734Z</time>
      </trkpt>
      <trkpt lat="46.11169" lon="4.61798">
        <ele>321.722503662</ele>
        <time>2015-12-17T14:19:43.745Z</time>
      </trkpt>
      <trkpt lat="46.11169" lon="4.618">
        <ele>321.85534668</ele>
        <time>2015-12-17T14:19:44.734Z</time>
      </trkpt>
      <trkpt lat="46.1117" lon="4.61812">
        <ele>322.888641357</ele>
        <time>2015-12-17T14:19:50.749Z</time>
      </trkpt>
      <trkpt lat="46.11171" lon="4.61814">
        <ele>323.058441162</ele>
        <time>2015-12-17T14:19:51.738Z</time>
      </trkpt>
      <trkpt lat="46.11174" lon="4.61824">
        <ele>323.612091064</ele>
        <time>2015-12-17T14:19:56.723Z</time>
      </trkpt>
      <trkpt lat="46.11175" lon="4.61827">
        <ele>323.721008301</ele>
        <time>2015-12-17T14:19:57.71Z</time>
      </trkpt>
      <trkpt lat="46.11176" lon="4.61839">
        <ele>324.312896729</ele>
        <time>2015-12-17T14:20:04.729Z</time>
      </trkpt>
      <trkpt lat="46.11177" lon="4.61842">
        <ele>324.359649658</ele>
        <time>2015-12-17T14:20:05.712Z</time>
      </trkpt>
      <trkpt lat="46.11179" lon="4.61853">
        <ele>324.327941895</ele>
        <time>2015-12-17T14:20:10.723Z</time>
      </trkpt>
      <trkpt lat="46.1118" lon="4.61854">
        <ele>324.292327881</ele>
        <time>2015-12-17T14:20:11.712Z</time>
      </trkpt>
      <trkpt lat="46.11181" lon="4.61866">
        <ele>324.763702393</ele>
        <time>2015-12-17T14:20:19.724Z</time>
      </trkpt>
      <trkpt lat="46.11181" lon="4.61868">
        <ele>324.779602051</ele>
        <time>2015-12-17T14:20:20.711Z</time>
      </trkpt>
      <trkpt lat="46.11184" lon="4.61879">
        <ele>325.048950195</ele>
        <time>2015-12-17T14:20:26.723Z</time>
      </trkpt>
      <trkpt lat="46.11185" lon="4.61882">
        <ele>325.056304932</ele>
        <time>2015-12-17T14:20:27.712Z</time>
      </trkpt>
      <trkpt lat="46.11189" lon="4.61893">
        <ele>325.057250977</ele>
        <time>2015-12-17T14:20:33.727Z</time>
      </trkpt>
      <trkpt lat="46.1119" lon="4.61895">
        <ele>325.071289062</ele>
        <time>2015-12-17T14:20:34.713Z</time>
      </trkpt>
      <trkpt lat="46.11192" lon="4.61904">
        <ele>325.059417725</ele>
        <time>2015-12-17T14:20:39.723Z</time>
      </trkpt>
      <trkpt lat="46.11193" lon="4.61907">
        <ele>325.067352295</ele>
        <time>2015-12-17T14:20:40.713Z</time>
      </trkpt>
      <trkpt lat="46.11197" lon="4.61918">
        <ele>325.026580811</ele>
        <time>2015-12-17T14:20:45.726Z</time>
      </trkpt>
      <trkpt lat="46.11197" lon="4.61921">
        <ele>325.061584473</ele>
        <time>2015-12-17T14:20:46.713Z</time>
      </trkpt>
      <trkpt lat="46.112" lon="4.61932">
        <ele>324.94329834</ele>
        <time>2015-12-17T14:20:52.726Z</time>
      </trkpt>
      <trkpt lat="46.112" lon="4.61934">
        <ele>324.970092773</ele>
        <time>2015-12-17T14:20:53.714Z</time>
      </trkpt>
      <trkpt lat="46.11203" lon="4.61945">
        <ele>325.013427734</ele>
        <time>2015-12-17T14:21:00.725Z</time>
      </trkpt>
      <trkpt lat="46.11203" lon="4.61947">
        <ele>325.036590576</ele>
        <time>2015-12-17T14:21:01.715Z</time>
      </trkpt>
      <trkpt lat="46.11206" lon="4.61957">
        <ele>324.8309021</ele>
        <time>2015-12-17T14:21:07.734Z</time>
      </trkpt>
      <trkpt lat="46.11207" lon="4.61959">
        <ele>324.800872803</ele>
        <time>2015-12-17T14:21:08.716Z</time>
      </trkpt>
      <trkpt lat="46.1121" lon="4.6197">
        <ele>324.472869873</ele>
        <time>2015-12-17T14:21:13.738Z</time>
      </trkpt>
      <trkpt lat="46.11211" lon="4.61973">
        <ele>324.312652588</ele>
        <time>2015-12-17T14:21:14.716Z</time>
      </trkpt>
      <trkpt lat="46.11214" lon="4.61983">
        <ele>323.450469971</ele>
        <time>2015-12-17T14:21:20.728Z</time>
      </trkpt>
      <trkpt lat="46.11214" lon="4.61986">
        <ele>323.351928711</ele>
        <time>2015-12-17T14:21:21.721Z</time>
      </trkpt>
      <trkpt lat="46.11216" lon="4.61996">
        <ele>322.693023682</ele>
        <time>2015-12-17T14:21:27.73Z</time>
      </trkpt>
      <trkpt lat="46.11216" lon="4.61999">
        <ele>322.650634766</ele>
        <time>2015-12-17T14:21:28.718Z</time>
      </trkpt>
      <trkpt lat="46.1122" lon="4.62011">
        <ele>322.417388916</ele>
        <time>2015-12-17T14:21:34.731Z</time>
      </trkpt>
      <trkpt lat="46.1122" lon="4.62013">
        <ele>322.377105713</ele>
        <time>2015-12-17T14:21:35.719Z</time>
      </trkpt>
      <trkpt lat="46.11224" lon="4.62023">
        <ele>321.660583496</ele>
        <time>2015-12-17T14:21:41.734Z</time>
      </trkpt>
      <trkpt lat="46.11225" lon="4.62026">
        <ele>321.519073486</ele>
        <time>2015-12-17T14:21:42.718Z</time>
      </trkpt>
      <trkpt lat="46.11228" lon="4.62036">
        <ele>320.887451172</ele>
        <time>2015-12-17T14:21:47.74Z</time>
      </trkpt>
      <trkpt lat="46.11229" lon="4.62038">
        <ele>320.701385498</ele>
        <time>2015-12-17T14:21:48.717Z</time>
      </trkpt>
      <trkpt lat="46.11231" lon="4.6205">
        <ele>319.402557373</ele>
        <time>2015-12-17T14:21:58.744Z</time>
      </trkpt>
      <trkpt lat="46.11232" lon="4.62051">
        <ele>319.305389404</ele>
        <time>2015-12-17T14:21:59.719Z</time>
      </trkpt>
      <trkpt lat="46.11239" lon="4.62057">
        <ele>318.045837402</ele>
        <time>2015-12-17T14:22:09.731Z</time>
      </trkpt>
      <trkpt lat="46.1124" lon="4.62058">
        <ele>317.955993652</ele>
        <time>2015-12-17T14:22:10.72Z</time>
      </trkpt>
      <trkpt lat="46.11245" lon="4.62063">
        <ele>317.755767822</ele>
        <time>2015-12-17T14:22:13.731Z</time>
      </trkpt>
      <trkpt lat="46.11248" lon="4.62064">
        <ele>317.576385498</ele>
        <time>2015-12-17T14:22:14.721Z</time>
      </trkpt>
      <trkpt lat="46.11255" lon="4.62068">
        <ele>317.295074463</ele>
        <time>2015-12-17T14:22:16.733Z</time>
      </trkpt>
      <trkpt lat="46.11257" lon="4.6207">
        <ele>317.205108643</ele>
        <time>2015-12-17T14:22:17.721Z</time>
      </trkpt>
      <trkpt lat="46.11265" lon="4.62071">
        <ele>316.716430664</ele>
        <time>2015-12-17T14:22:25.734Z</time>
      </trkpt>
      <trkpt lat="46.11266" lon="4.62071">
        <ele>316.744232178</ele>
        <time>2015-12-17T14:22:26.722Z</time>
      </trkpt>
      <trkpt lat="46.11275" lon="4.6207">
        <ele>316.798614502</ele>
        <time>2015-12-17T14:22:33.737Z</time>
      </trkpt>
      <trkpt lat="46.11276" lon="4.6207">
        <ele>316.731719971</ele>
        <time>2015-12-17T14:22:34.722Z</time>
      </trkpt>
      <trkpt lat="46.11284" lon="4.62065">
        <ele>316.518920898</ele>
        <time>2015-12-17T14:22:43.742Z</time>
      </trkpt>
      <trkpt lat="46.11285" lon="4.62065">
        <ele>316.520782471</ele>
        <time>2015-12-17T14:22:44.722Z</time>
      </trkpt>
      <trkpt lat="46.11294" lon="4.62061">
        <ele>316.682495117</ele>
        <time>2015-12-17T14:22:51.734Z</time>
      </trkpt>
      <trkpt lat="46.11295" lon="4.6206">
        <ele>316.684692383</ele>
        <time>2015-12-17T14:22:52.725Z</time>
      </trkpt>
      <trkpt lat="46.11304" lon="4.6206">
        <ele>316.695343018</ele>
        <time>2015-12-17T14:22:57.735Z</time>
      </trkpt>
      <trkpt lat="46.11305" lon="4.62059">
        <ele>316.653869629</ele>
        <time>2015-12-17T14:22:58.72Z</time>
      </trkpt>
      <trkpt lat="46.11313" lon="4.62054">
        <ele>316.488983154</ele>
        <time>2015-12-17T14:23:06.736Z</time>
      </trkpt>
      <trkpt lat="46.11314" lon="4.62054">
        <ele>316.496734619</ele>
        <time>2015-12-17T14:23:07.725Z</time>
      </trkpt>
      <trkpt lat="46.11322" lon="4.62052">
        <ele>316.471679688</ele>
        <time>2015-12-17T14:23:13.738Z</time>
      </trkpt>
      <trkpt lat="46.11324" lon="4.62051">
        <ele>316.449157715</ele>
        <time>2015-12-17T14:23:14.726Z</time>
      </trkpt>
      <trkpt lat="46.11331" lon="4.62046">
        <ele>316.048309326</ele>
        <time>2015-12-17T14:23:20.737Z</time>
      </trkpt>
      <trkpt lat="46.11332" lon="4.62045">
        <ele>315.95980835</ele>
        <time>2015-12-17T14:23:21.725Z</time>
      </trkpt>
      <trkpt lat="46.11341" lon="4.62043">
        <ele>315.000915527</ele>
        <time>2015-12-17T14:23:29.764Z</time>
      </trkpt>
      <trkpt lat="46.11342" lon="4.62043">
        <ele>314.894927979</ele>
        <time>2015-12-17T14:23:30.726Z</time>
      </trkpt>
      <trkpt lat="46.11349" lon="4.62036">
        <ele>313.994293213</ele>
        <time>2015-12-17T14:23:40.741Z</time>
      </trkpt>
      <trkpt lat="46.1135" lon="4.62035">
        <ele>313.924865723</ele>
        <time>2015-12-17T14:23:41.727Z</time>
      </trkpt>
      <trkpt lat="46.11349" lon="4.62024">
        <ele>314.171661377</ele>
        <time>2015-12-17T14:23:50.744Z</time>
      </trkpt>
      <trkpt lat="46.11349" lon="4.62022">
        <ele>314.138244629</ele>
        <time>2015-12-17T14:23:51.728Z</time>
      </trkpt>
      <trkpt lat="46.11349" lon="4.62013">
        <ele>314.043395996</ele>
        <time>2015-12-17T14:24:27.172Z</time>
      </trkpt>
    </trkseg>
  </trk>
</gpx>